# Wetter Temperatur Luftdruck Luftfeuchtigkeit Sichtweite Windgeschwindigkeit Windrichtung Zeit
1 Clear -7 1015 57 10000 1.84 132.577 19:42 17.10.2019
2 Clear -7 1015 57 10000 1.84 132.577 19:20 17.10.2019
3 Clear -5 1015 53 10000 1.84 132.577 18:59 17.10.2019
4 Clear -6 1015 57 10000 1.84 132.577 18:39 17.10.2019
5 Clear -6 1015 57 10000 1.92 137.032 18:20 17.10.2019
6 Clouds -7 1016 57 10000 1.892 101 17:44 17.10.2019
7 Clouds -7 1016 57 10000 1.892 101 17:25 17.10.2019
8 Clouds -4 1016 49 10000 1 0 16:59 17.10.2019
9 Clouds -2 1016 42 10000 1 0 16:41 17.10.2019
10 Clouds -2 1016 42 10000 1 0 16:19 17.10.2019
11 Clouds 0 1016 38 10000 1.892 101 15:57 17.10.2019
12 Clouds 3 1016 27 10000 1 0 15:38 17.10.2019
13 Clouds 3 1016 27 10000 1 0 15:38 17.10.2019
14 Clear 3 1016 27 10000 1 0 15:20 17.10.2019
15 Clear 3 1015 25 10000 1 0 14:57 17.10.2019
16 Clear 2 1015 27 10000 3 160 14:38 17.10.2019
17 Clear 2 1015 27 10000 3 160 14:20 17.10.2019
18 Clear 4 1015 23 10000 3 150 13:40 17.10.2019
19 Clear 4 1015 23 10000 3 150 13:20 17.10.2019
20 Clear 4 1015 23 10000 3 170 12:58 17.10.2019
21 Clear 5 1015 21 10000 4 170 12:38 17.10.2019
22 Clear 5 1015 21 10000 4 170 12:19 17.10.2019
23 -273 0 0 0 0 0 11:55 17.10.2019
24 Clear 5 1015 21 10000 4 170 11:55 17.10.2019
25 Clear 11 1014 13 10000 4 200 11:37 17.10.2019
26 Clear 11 1014 13 10000 4 200 11:18 17.10.2019
27 Clear 12 1014 13 10000 5 210 10:41 17.10.2019
28 -273 0 0 0 0 0 10:19 17.10.2019
29 Clear 12 1015 13 10000 5 190 09:56 17.10.2019
30 -273 0 0 0 0 0 09:56 17.10.2019
31 Clear 12 1015 14 10000 5 200 09:38 17.10.2019
32 Clear 12 1015 14 10000 5 200 09:19 17.10.2019
33 Clear 12 1015 14 10000 6 180 08:49 17.10.2019
34 Clear 11 1015 15 10000 5 150 08:27 17.10.2019
35 Clear 11 1015 13 10000 6 150 07:59 17.10.2019
36 Clear 10 1016 13 10000 6 150 07:41 17.10.2019
37 Clear 10 1016 13 10000 6 150 07:21 17.10.2019
38 Clear 10 1017 12 10000 5 150 06:51 17.10.2019
39 Clear 9 1017 11 10000 5 170 06:31 17.10.2019
40 Clear 7 1017 13 10000 1 0 05:59 17.10.2019
41 Clear 6 1017 15 10000 1 0 05:37 17.10.2019
42 Clear 6 1017 15 10000 1 0 05:19 17.10.2019
43 Clear 4 1017 18 10000 2.386 121 04:45 17.10.2019
44 Clear 1 1018 22 10000 1 0 03:45 17.10.2019
45 Clear -9 1018 43 10000 2 0 01:57 17.10.2019
46 Clear -5 1018 35 10000 1 0 00:42 17.10.2019
47 Clear -5 1018 35 10000 1 0 00:21 17.10.2019
48 Clear -5 1018 32 10000 1 0 23:58 16.10.2019
49 Clear -3 1018 30 10000 1 0 23:39 16.10.2019
50 Clear -3 1018 30 10000 1 0 23:18 16.10.2019
51 Clear -4 1018 32 10000 1 0 22:54 16.10.2019
52 Clear -2 1018 28 10000 1 0 22:36 16.10.2019
53 Clear -2 1018 28 10000 1 0 22:18 16.10.2019
54 Clear -1 1018 26 10000 1 0 21:54 16.10.2019
55 Clear -1 1018 26 10000 1 0 21:54 16.10.2019
56 Clear -1 1018 26 10000 1 0 21:54 16.10.2019
57 -273 0 0 0 0 0 21:54 16.10.2019
58 Clear -2 1019 28 10000 1 0 21:36 16.10.2019
59 Clouds -2 1019 28 10000 1 0 21:18 16.10.2019
60 Clouds 2 1019 16 10000 1 0 20:54 16.10.2019
61 Clouds 2 1019 16 10000 2 0 20:36 16.10.2019
62 Clouds 2 1019 16 10000 2 0 20:18 16.10.2019
63 Clouds 2 1019 14 10000 1 0 19:40 16.10.2019
64 Clouds 2 1019 14 10000 1 0 19:21 16.10.2019
65 Clouds 4 1019 12 10000 4 160 18:57 16.10.2019
66 Clouds 4 1019 12 10000 4 160 18:56 16.10.2019
67 Clouds 4 1019 12 10000 4 160 18:56 16.10.2019
68 Clouds 5 1019 12 10000 7 150 18:37 16.10.2019
69 Clouds 5 1019 12 10000 7 150 18:18 16.10.2019
70 -273 0 0 0 0 0 17:55 16.10.2019
71 Clouds 6 1020 12 10000 6 160 17:36 16.10.2019
72 Clouds 6 1020 12 10000 6 160 17:18 16.10.2019
73 Clouds 6 1020 12 10000 6 150 16:43 16.10.2019
74 Clouds 6 1020 13 10000 6 150 16:23 16.10.2019
75 Clouds 7 1020 12 10000 6 150 15:59 16.10.2019
76 Clouds 5 1020 15 10000 5 140 15:39 16.10.2019
77 Clouds 5 1020 15 10000 5 140 15:39 16.10.2019
78 Clouds 5 1020 15 10000 5 140 15:19 16.10.2019
79 Clouds 5 1020 15 10000 5 140 14:58 16.10.2019
80 Clouds 5 1020 15 10000 5 140 14:39 16.10.2019
81 Clouds 5 1020 17 10000 6 140 14:20 16.10.2019
82 Clouds 5 1020 17 10000 5 140 13:57 16.10.2019
83 Clouds 5 1020 17 10000 5 140 13:39 16.10.2019
84 Clouds 5 1020 17 10000 5 140 13:21 16.10.2019
85 Clouds 5 1020 17 10000 4 130 12:42 16.10.2019
86 Clouds 7 1020 13 10000 5 160 12:20 16.10.2019
87 -273 0 0 0 0 0 11:55 16.10.2019
88 Clouds 10 1020 11 10000 6 180 11:36 16.10.2019
89 Clouds 10 1020 11 10000 6 180 11:18 16.10.2019
90 Clouds 11 1020 10 10000 5 150 10:36 16.10.2019
91 Clouds 11 1020 10 10000 5 150 10:18 16.10.2019
92 Clouds 11 1021 10 10000 4 160 09:40 16.10.2019
93 Clouds 10 1021 12 10000 5 180 09:22 16.10.2019
94 Clear 12 1021 9 10000 5 170 08:56 16.10.2019
95 Clear 12 1021 9 10000 5 170 08:56 16.10.2019
96 Clear 12 1021 9 10000 5 170 08:38 16.10.2019
97 Clear 12 1021 8 10000 6 170 08:19 16.10.2019
98 Clear 11 1022 10 10000 6 160 07:41 16.10.2019
99 Clear 11 1022 11 10000 5 170 07:23 16.10.2019
100 Clear 10 1023 11 10000 4 170 06:48 16.10.2019
101 Clear 7 1023 17 10000 1 0 06:29 16.10.2019
102 Clear -3 1025 42 8000 2.288 130 04:31 16.10.2019
103 Clear -8 1025 57 10000 1.915 104 02:51 16.10.2019
104 Clear -11 1025 61 10000 1.917 104 01:20 16.10.2019
105 Clear -14 1025 71 10000 1.917 104 00:59 16.10.2019
106 Clear -14 1025 71 10000 1.917 104 00:40 16.10.2019
107 Clear -13 1025 65 10000 1 0 23:58 15.10.2019
108 Clear -13 1025 65 10000 1 0 23:38 15.10.2019
109 Clear -13 1025 65 10000 1 0 23:19 15.10.2019
110 -273 0 0 0 0 0 22:55 15.10.2019
111 -273 0 0 0 0 0 22:55 15.10.2019
112 Clear -12 1026 66 10000 1.744 100 22:37 15.10.2019
113 Clear -13 1026 65 10000 1.744 100 22:18 15.10.2019
114 Clear -12 1026 66 10000 1 0 21:54 15.10.2019
115 Clear -13 1026 71 10000 1 0 21:36 15.10.2019
116 Clear -13 1026 71 10000 1 0 21:18 15.10.2019
117 Clear -11 1027 61 10000 1.628 100 20:54 15.10.2019
118 Clear -11 1027 61 10000 1.628 100 20:54 15.10.2019
119 Clear -11 1027 61 10000 1.628 100 20:54 15.10.2019
120 Clear -11 1027 61 10000 1.628 100 20:36 15.10.2019
121 Clear -11 1027 61 10000 1.628 100 20:18 15.10.2019
122 Clear -10 1027 56 10000 1.628 100 19:41 15.10.2019
123 Clear -10 1027 56 10000 1.628 100 19:41 15.10.2019
124 Clear -10 1027 56 10000 1.628 100 19:20 15.10.2019
125 Clear -10 1027 56 10000 1.628 100 19:20 15.10.2019
126 Clear -7 1027 52 10000 1.628 100 18:57 15.10.2019
127 Clear -7 1027 52 10000 1.628 100 18:39 15.10.2019
128 Clear -9 1027 52 10000 1 0 18:20 15.10.2019
129 Clear -9 1027 52 10000 1.427 113 17:43 15.10.2019
130 Clear -8 1027 48 10000 1 0 17:21 15.10.2019
131 Clear -5 1027 41 10000 1.427 113 16:59 15.10.2019
132 Clear -5 1027 41 10000 1.427 113 16:41 15.10.2019
133 Clear -8 1027 48 10000 1.427 113 16:21 15.10.2019
134 Clear -7 1027 44 10000 3 160 15:55 15.10.2019
135 Clear -7 1027 44 10000 3 160 15:37 15.10.2019
136 Clear -6 1027 41 10000 1.054 93 15:19 15.10.2019
137 Clear -2 1027 33 10000 1 0 14:54 15.10.2019
138 Clear 0 1027 33 10000 1 0 14:36 15.10.2019
139 Clear 0 1027 33 10000 1 0 14:18 15.10.2019
140 Clear -1 1027 30 10000 3 160 13:43 15.10.2019
141 Clear -2 1027 33 10000 3 160 13:20 15.10.2019
142 Clear 0 1027 33 10000 3 160 12:44 15.10.2019
143 Clear 4 1026 21 10000 2 170 12:23 15.10.2019
144 Clear 9 1026 15 10000 2 220 11:59 15.10.2019
145 Clear 10 1027 13 10000 3 250 11:40 15.10.2019
146 Clear 10 1027 13 10000 3 250 11:20 15.10.2019
147 Clear 11 1027 12 10000 3 230 10:46 15.10.2019
148 Clear 11 1027 12 10000 4 240 10:24 15.10.2019
149 Clear 11 1027 12 10000 4 240 09:59 15.10.2019
150 Clear 10 1027 13 10000 4 240 09:40 15.10.2019
151 Clear 10 1027 13 10000 4 240 09:21 15.10.2019
152 Clear 10 1027 13 10000 4 240 08:57 15.10.2019
153 Clear 10 1027 14 10000 3 250 08:39 15.10.2019
154 Clear 9 1028 16 10000 1 0 08:18 15.10.2019
155 Clear 9 1028 18 10000 1 0 07:43 15.10.2019
156 Clear 7 1029 20 10000 1 0 07:22 15.10.2019
157 Clear 6 1029 22 10000 1 0 06:55 15.10.2019
158 Clear 6 1029 22 10000 1 0 06:37 15.10.2019
159 Clear 2 1030 29 8000 1 0 05:56 15.10.2019
160 Clear 0 1030 26 8000 1 0 05:36 15.10.2019
161 Clear -1 1031 39 8000 1 0 04:48 15.10.2019
162 Clear -5 1031 53 8000 2.11 155.016 03:59 15.10.2019
163 Clear -6 1031 57 10000 2.11 155.016 03:34 15.10.2019
164 Clear -6 1031 57 10000 2.11 155.016 03:34 15.10.2019
165 Clear -15 1031 77 10000 1 0 01:51 15.10.2019
166 Clear -14 1031 71 10000 1.63 149.459 01:26 15.10.2019
167 Clear -14 1031 71 10000 1.63 149.459 00:59 15.10.2019
168 Clear -14 1031 77 10000 1.63 149.459 00:24 15.10.2019
169 Clear -13 1031 71 10000 1 0 23:57 14.10.2019
170 Clear -15 1031 77 10000 1 0 23:37 14.10.2019
171 Clear -15 1031 77 10000 1 0 23:18 14.10.2019
172 Clear -13 1031 71 10000 1.99 160.118 22:39 14.10.2019
173 Clear -14 1031 71 10000 1 0 22:20 14.10.2019
174 Clear -13 1032 71 10000 1 0 21:57 14.10.2019
175 Clear -13 1032 71 10000 1 0 21:39 14.10.2019
176 Clear -13 1032 71 10000 1 0 21:20 14.10.2019
177 Clear -11 1032 66 10000 1 0 20:57 14.10.2019
178 Clear -11 1032 66 10000 1 0 20:38 14.10.2019
179 Clear -11 1032 66 10000 1 0 20:19 14.10.2019
180 Clear -13 1032 65 10000 1 0 19:43 14.10.2019
181 Clear -13 1032 65 10000 1 0 19:25 14.10.2019
182 -273 0 0 0 0 0 18:59 14.10.2019
183 Clear -10 1033 61 10000 1.54 148.537 18:40 14.10.2019
184 Clear -10 1033 61 10000 1.54 148.537 18:40 14.10.2019
185 Clear -10 1033 61 10000 1.88 157.593 18:20 14.10.2019
186 Clear -9 1033 61 10000 1 0 17:58 14.10.2019
187 Clear -10 1033 61 10000 1 0 17:40 14.10.2019
188 Clear -10 1033 61 10000 1 0 17:22 14.10.2019
189 Clear -9 1033 56 10000 1 0 16:44 14.10.2019
190 Clear -6 1033 48 10000 1 0 16:22 14.10.2019
191 Clear -4 1033 45 10000 1.88 157.593 15:57 14.10.2019
192 Clear -3 1033 38 10000 1 0 15:38 14.10.2019
193 Clear -3 1033 38 10000 1 0 15:20 14.10.2019
194 Clear -5 1033 45 10000 3 190 14:43 14.10.2019
195 Clear -4 1033 41 10000 4 160 14:24 14.10.2019
196 Clear -3 1032 38 10000 4 160 13:57 14.10.2019
197 Clear -3 1032 42 10000 4 170 13:38 14.10.2019
198 Clear -3 1032 42 10000 4 170 13:19 14.10.2019
199 Clear 3 1032 25 10000 2 210 12:41 14.10.2019
200 Clear 3 1032 25 10000 2 210 12:19 14.10.2019
201 Clear 7 1032 20 10000 3 240 11:47 14.10.2019
202 Clear 8 1033 17 10000 3 230 11:27 14.10.2019
203 Clear 8 1033 17 10000 3 240 10:59 14.10.2019
204 Clear 8 1033 16 10000 3 260 10:40 14.10.2019
205 Clear 8 1033 16 10000 3 260 10:21 14.10.2019
206 Clear 8 1033 16 10000 3 230 09:56 14.10.2019
207 Clear 8 1033 15 10000 3 240 09:37 14.10.2019
208 Clear 8 1033 15 10000 3 240 09:19 14.10.2019
209 Clear 7 1034 17 10000 3 240 08:45 14.10.2019
210 Clear 7 1034 17 10000 3 240 08:22 14.10.2019
211 Clear 6 1034 17 10000 3 240 07:43 14.10.2019
212 Clear 6 1034 17 10000 3 240 07:19 14.10.2019
213 Clear 3 1035 25 10000 1 0 06:53 14.10.2019
214 -273 0 0 0 0 0 06:26 14.10.2019
215 Clear 1 1035 29 10000 1 0 05:49 14.10.2019
216 Clear -3 1036 42 10000 1 0 04:48 14.10.2019
217 Clear -7 1036 57 10000 2.31 170.186 03:28 14.10.2019
218 Clear -11 1036 78 10000 1 0 02:49 14.10.2019
219 Clear -16 1036 77 10000 1 0 01:24 14.10.2019
220 Clear -16 1036 77 10000 1 0 00:59 14.10.2019
221 Clear -15 1036 71 10000 1.66 165.972 00:21 14.10.2019
222 Clear -15 1036 71 10000 1.66 165.972 00:21 14.10.2019
223 Clear -14 1036 77 10000 1.66 165.972 23:45 13.10.2019
224 Clear -14 1036 71 10000 1 0 23:21 13.10.2019
225 Clear -15 1036 77 10000 1.66 165.972 22:58 13.10.2019
226 Clear -15 1036 77 10000 1.66 165.972 22:58 13.10.2019
227 Clear -13 1036 71 10000 1 0 22:40 13.10.2019
228 Clear -13 1036 71 10000 1 0 22:21 13.10.2019
229 Clear -13 1036 71 10000 1 0 22:21 13.10.2019
230 Clear -13 1036 71 10000 1 0 21:58 13.10.2019
231 Clear -13 1036 71 10000 1 0 21:38 13.10.2019
232 Clear -13 1036 71 10000 1 0 21:19 13.10.2019
233 Clear -14 1036 77 10000 1 0 20:58 13.10.2019
234 Clear -14 1036 77 10000 1 0 20:39 13.10.2019
235 Clear -14 1036 77 10000 1 0 20:21 13.10.2019
236 Clear -12 1036 66 10000 2 160 19:58 13.10.2019
237 Clear -12 1036 66 10000 2 160 19:39 13.10.2019
238 Clear -12 1036 66 10000 2 160 19:21 13.10.2019
239 -273 0 0 0 0 0 18:57 13.10.2019
240 Clear -12 1036 66 10000 1 0 18:57 13.10.2019
241 Clear -12 1036 66 10000 1 0 18:56 13.10.2019
242 Clear -12 1036 66 10000 1 0 18:56 13.10.2019
243 Clear -12 1036 66 10000 1 0 18:36 13.10.2019
244 Clear -11 1036 61 10000 1 0 18:18 13.10.2019
245 Clear -11 1036 61 10000 1 0 17:54 13.10.2019
246 Clear -10 1036 61 10000 2 0 17:36 13.10.2019
247 Clear -10 1036 61 10000 2 0 17:18 13.10.2019
248 Clear -10 1036 61 10000 2 150 16:41 13.10.2019
249 Clear -10 1036 61 10000 2 150 16:18 13.10.2019
250 Clear -9 1035 56 10000 3 150 15:56 13.10.2019
251 Clear -9 1035 56 10000 3 150 15:56 13.10.2019
252 Clear -9 1035 56 10000 3 150 15:56 13.10.2019
253 Clear -9 1035 56 10000 3 160 15:37 13.10.2019
254 Clear -9 1035 56 10000 3 160 15:18 13.10.2019
255 Clear -9 1035 56 10000 3 160 15:18 13.10.2019
256 Clear -9 1035 56 10000 3 170 14:56 13.10.2019
257 Clear -8 1035 57 10000 1 0 14:38 13.10.2019
258 Clear -8 1035 57 10000 1 0 14:18 13.10.2019
259 Clear -4 1034 41 10000 1 0 13:39 13.10.2019
260 Clear -4 1034 41 10000 1 0 13:21 13.10.2019
261 Clear 2 1034 29 10000 2 360 12:57 13.10.2019
262 Clear 3 1034 27 10000 2 0 12:39 13.10.2019
263 Clear 3 1034 27 10000 2 0 12:20 13.10.2019
264 Clear 3 1033 25 10000 3 320 11:58 13.10.2019
265 Clear 4 1033 25 10000 3 350 11:38 13.10.2019
266 Clear 4 1033 25 10000 3 350 11:19 13.10.2019
267 Clear 4 1033 25 10000 3 330 10:43 13.10.2019
268 Clear 4 1033 25 10000 3 330 10:24 13.10.2019
269 Clear 3 1033 27 10000 3 340 09:59 13.10.2019
270 Clear 4 1033 25 10000 4 330 09:39 13.10.2019
271 Clear 4 1033 25 10000 4 330 09:20 13.10.2019
272 Clear 3 1034 29 10000 3 350 08:43 13.10.2019
273 Clear 3 1034 29 10000 3 350 08:43 13.10.2019
274 Clear 2 1034 29 10000 3 320 08:23 13.10.2019
275 Clear 2 1034 29 10000 3 320 08:23 13.10.2019
276 Clear 2 1034 29 10000 5 320 07:50 13.10.2019
277 Clear 2 1034 29 10000 5 320 07:30 13.10.2019
278 Clear 0 1035 28 10000 3 330 06:49 13.10.2019
279 Clear -1 1035 46 10000 3 270 05:59 13.10.2019
280 Clear -2 1035 46 10000 1.92 313.816 04:59 13.10.2019
281 Clear -5 1036 57 10000 1 0 04:33 13.10.2019
282 Clear -10 1035 78 10000 1 0 02:48 13.10.2019
283 Clear -14 1035 77 10000 2 170 02:25 13.10.2019
284 Clear -16 1034 84 10000 2 0 01:34 13.10.2019
285 Clear -16 1034 84 10000 2 0 01:34 13.10.2019
286 Clear -14 1034 71 10000 2 130 00:52 13.10.2019
287 Clear -15 1034 84 10000 1 0 00:22 13.10.2019
288 Clear -15 1034 77 10000 1 0 23:59 12.10.2019
289 Clear -17 1034 84 10000 1 0 23:40 12.10.2019
290 Clear -17 1034 84 10000 1 0 23:21 12.10.2019
291 Clear -14 1034 71 10000 1 0 22:58 12.10.2019
292 Clear -15 1033 84 10000 1 0 22:39 12.10.2019
293 Clear -15 1033 84 10000 1 0 22:21 12.10.2019
294 Clear -15 1033 84 10000 1 0 21:56 12.10.2019
295 Clear -15 1033 84 10000 1 0 21:37 12.10.2019
296 Clear -15 1033 84 10000 1 0 21:19 12.10.2019
297 Clear -14 1033 77 10000 2 170 20:44 12.10.2019
298 Clear -14 1033 77 10000 2 170 20:25 12.10.2019
299 Clear -13 1033 78 10000 1 0 19:41 12.10.2019
300 Clear -13 1033 78 10000 1 0 19:22 12.10.2019
301 Clear -13 1032 65 10000 1 0 18:59 12.10.2019
302 Clear -13 1032 65 10000 1 0 18:59 12.10.2019
303 Clear -11 1032 72 10000 1.67 327.003 18:41 12.10.2019
304 Clear -11 1032 72 10000 1.79 336.566 18:23 12.10.2019
305 Clear -10 1032 66 10000 1 0 17:45 12.10.2019
306 Clear -9 1032 61 10000 1 0 17:20 12.10.2019
307 Clear -10 1032 61 10000 2 270 16:56 12.10.2019
308 Clear -9 1031 61 10000 1 0 16:38 12.10.2019
309 Clear -9 1031 61 10000 1 0 16:18 12.10.2019
310 Clear -6 1031 53 10000 1 0 15:44 12.10.2019
311 Clear -6 1031 53 10000 1 0 15:25 12.10.2019
312 Clear -6 1031 53 10000 1 0 15:25 12.10.2019
313 Clear -4 1030 45 10000 3 20 14:55 12.10.2019
314 Clear -4 1030 45 10000 3 20 14:55 12.10.2019
315 Clear -3 1030 42 10000 2 0 14:37 12.10.2019
316 Clear -3 1030 42 10000 2 0 14:18 12.10.2019
317 Clear -3 1030 38 10000 3 360 13:43 12.10.2019
318 Clear -3 1030 38 10000 3 360 13:43 12.10.2019
319 -273 0 0 0 0 0 13:25 12.10.2019
320 Clear -1 1028 30 10000 5 350 12:40 12.10.2019
321 Clear -1 1028 30 10000 5 350 12:40 12.10.2019
322 Clear -1 1028 30 10000 5 350 12:22 12.10.2019
323 Clouds 0 1028 31 10000 6 340 11:59 12.10.2019
324 Clouds 1 1028 26 10000 6 350 11:40 12.10.2019
325 Clouds 1 1028 26 10000 6 350 11:22 12.10.2019
326 Clouds 1 1028 24 10000 6 340 10:56 12.10.2019
327 Clouds 1 1028 24 10000 5 350 10:36 12.10.2019
328 Clouds 1 1028 24 10000 5 350 10:18 12.10.2019
329 Clouds 1 1028 24 10000 6 340 09:54 12.10.2019
330 -273 0 0 0 0 0 09:54 12.10.2019
331 Clouds 1 1027 24 10000 6 330 09:36 12.10.2019
332 Clouds 1 1027 24 10000 6 330 09:18 12.10.2019
333 Clouds 1 1027 24 10000 6 330 09:18 12.10.2019
334 Clouds 1 1028 22 10000 6 330 08:41 12.10.2019
335 Clouds 1 1028 22 10000 6 330 08:20 12.10.2019
336 Clouds 1 1028 22 10000 6 330 08:20 12.10.2019
337 Clear 1 1028 24 10000 4 320 07:35 12.10.2019
338 Clear 0 1028 26 10000 2 0 06:59 12.10.2019
339 Clear -2 1029 36 10000 2 0 05:49 12.10.2019
340 Clear -2 1029 36 10000 2 0 05:24 12.10.2019
341 Clear -3 1029 42 10000 3 30 04:26 12.10.2019
342 Clear -6 1029 57 10000 1 0 03:41 12.10.2019
343 Clear -14 1028 77 10000 1 0 01:56 12.10.2019
344 Clear -15 1028 77 10000 1 0 01:29 12.10.2019
345 Clear -13 1027 78 10000 1 0 00:43 12.10.2019
346 Clear -13 1027 78 10000 1 0 00:19 12.10.2019
347 Clear -11 1027 72 10000 2 170 23:40 11.10.2019
348 Clear -11 1027 72 10000 2 170 23:20 11.10.2019
349 Clouds -12 1026 72 10000 1 0 22:41 11.10.2019
350 Clouds -12 1026 72 10000 1 0 22:22 11.10.2019
351 Clouds -10 1026 66 10000 2 150 21:59 11.10.2019
352 Clouds -12 1026 72 10000 2 0 21:40 11.10.2019
353 Clouds -12 1026 72 10000 2 0 21:21 11.10.2019
354 Clouds -12 1026 78 10000 3 170 20:45 11.10.2019
355 Clouds -12 1026 78 10000 3 160 20:27 11.10.2019
356 Clouds -9 1026 66 10000 1 0 19:59 11.10.2019
357 Clouds -7 1026 57 10000 1 0 19:39 11.10.2019
358 Clouds -7 1026 57 10000 1 0 19:18 11.10.2019
359 Clouds -7 1026 57 10000 1 0 19:18 11.10.2019
360 Clouds -7 1026 57 10000 1 0 19:18 11.10.2019
361 Clouds -7 1026 57 10000 1 0 19:18 11.10.2019
362 Clouds -7 1026 57 10000 1 0 18:59 11.10.2019
363 Clouds -6 1026 57 10000 1.49 19.651 18:39 11.10.2019
364 Clouds -6 1026 57 10000 1.78 12.574 18:19 11.10.2019
365 Clouds -5 1026 53 10000 1 0 17:59 11.10.2019
366 Clouds -6 1026 53 10000 1 0 17:38 11.10.2019
367 Clouds -6 1026 53 10000 1 0 17:19 11.10.2019
368 Clouds -6 1026 53 10000 1 0 17:19 11.10.2019
369 Clouds -7 1026 57 10000 1 0 16:59 11.10.2019
370 Clouds -8 1026 61 10000 1 0 16:39 11.10.2019
371 Clouds -8 1026 61 10000 1 0 16:19 11.10.2019
372 Clouds -8 1025 57 10000 1 0 15:55 11.10.2019
373 Clouds -5 1025 53 10000 1 0 15:36 11.10.2019
374 Clouds -5 1025 53 10000 1 0 15:18 11.10.2019
375 Clouds -4 1025 45 10000 3 340 14:41 11.10.2019
376 Clouds -4 1025 45 10000 3 340 14:21 11.10.2019
377 Clouds -3 1024 45 10000 2 330 13:45 11.10.2019
378 Clouds -3 1024 42 10000 2 330 13:25 11.10.2019
379 Clouds -3 1024 42 10000 3 330 12:57 11.10.2019
380 Clouds -1 1024 36 10000 4 320 12:39 11.10.2019
381 Clouds -1 1024 36 10000 4 320 12:20 11.10.2019
382 Clouds -1 1023 36 10000 4 300 11:58 11.10.2019
383 Clouds -1 1023 36 10000 4 300 11:38 11.10.2019
384 Clouds -1 1023 36 10000 4 300 11:20 11.10.2019
385 Clouds 0 1023 35 10000 4 300 10:55 11.10.2019
386 Clouds 0 1023 35 10000 4 300 10:55 11.10.2019
387 Clouds 0 1023 35 10000 4 310 10:36 11.10.2019
388 Clouds 0 1023 35 10000 4 310 10:18 11.10.2019
389 Clouds 0 1023 35 10000 1 0 09:42 11.10.2019
390 Clouds 0 1023 34 10000 1 0 09:21 11.10.2019
391 Clouds 0 1024 34 10000 1 0 08:57 11.10.2019
392 Clouds 0 1024 34 10000 2 0 08:38 11.10.2019
393 Clouds 0 1024 34 10000 2 0 08:20 11.10.2019
394 Clouds 0 1024 34 10000 1 0 07:52 11.10.2019
395 Clouds -1 1025 33 10000 2 0 07:33 11.10.2019
396 Clouds -2 1025 36 10000 2 0 06:50 11.10.2019
397 Clouds -2 1025 36 10000 2 0 06:25 11.10.2019
398 Clouds -2 1025 36 10000 2 0 05:47 11.10.2019
399 Clouds -2 1025 36 10000 1 0 05:29 11.10.2019
400 Clouds -3 1025 38 10000 1 0 04:58 11.10.2019
401 Clouds -5 1025 53 10000 2 0 03:27 11.10.2019
402 Clouds -6 1024 67 10000 1 0 01:18 11.10.2019
403 Clouds -6 1024 67 10000 1 0 01:18 11.10.2019
404 Clouds -7 1024 73 10000 2 290 00:31 11.10.2019
405 Clouds -7 1023 73 10000 1 0 23:58 10.10.2019
406 Clouds -7 1023 73 10000 2 310 23:40 10.10.2019
407 Clouds -7 1023 73 10000 2 310 23:19 10.10.2019
408 Clouds -7 1023 73 10000 2 290 22:55 10.10.2019
409 Clouds -7 1023 73 10000 1 0 22:36 10.10.2019
410 Clouds -7 1023 73 10000 1 0 22:18 10.10.2019
411 Clouds -8 1023 78 10000 2.38 25.725 21:42 10.10.2019
412 Clouds -8 1023 78 10000 3.72 23.526 21:22 10.10.2019
413 Clouds -6 1023 73 10000 2 0 20:58 10.10.2019
414 Clouds -6 1023 73 10000 2 0 20:39 10.10.2019
415 Clouds -6 1023 73 10000 2 0 20:19 10.10.2019
416 Clouds -6 1023 79 10000 2 300 19:56 10.10.2019
417 Clouds -6 1023 79 10000 2 300 19:38 10.10.2019
418 Clouds -6 1023 79 10000 2 300 19:19 10.10.2019
419 Clear -5 1023 79 10000 1 0 18:42 10.10.2019
420 Clear -5 1023 79 10000 1 0 18:21 10.10.2019
421 Clear -4 1023 73 10000 3 330 17:58 10.10.2019
422 Clear -6 1023 79 10000 1 0 17:39 10.10.2019
423 Clear -6 1023 79 10000 1 0 17:18 10.10.2019
424 Clear -6 1023 79 10000 1 0 17:18 10.10.2019
425 Clear -5 1022 79 10000 3 320 16:55 10.10.2019
426 Clear -5 1022 73 10000 2 330 16:37 10.10.2019
427 Clear -5 1022 73 10000 2 330 16:18 10.10.2019
428 Clear -4 1021 68 10000 4 310 15:39 10.10.2019
429 Clear -4 1021 68 10000 4 310 15:21 10.10.2019
430 Clear -3 1020 63 10000 4 330 14:56 10.10.2019
431 Clouds -2 1020 58 10000 3 350 14:37 10.10.2019
432 Clouds -2 1020 58 10000 3 350 14:19 10.10.2019
433 Clouds -1 1020 50 10000 3 360 13:55 10.10.2019
434 Clouds 0 1020 79 10000 3 20 13:37 10.10.2019
435 Clouds 0 1020 78 10000 3 20 13:18 10.10.2019
436 Clouds 1 1019 43 10000 6 350 12:41 10.10.2019
437 Clouds 1 1019 43 10000 6 350 12:20 10.10.2019
438 Clouds 3 1018 34 10000 6 340 11:58 10.10.2019
439 -273 0 0 0 0 0 11:58 10.10.2019
440 Clouds 3 1018 37 10000 4 330 11:39 10.10.2019
441 Clouds 3 1018 37 10000 4 330 11:19 10.10.2019
442 Clouds 2 1018 37 10000 3 360 10:45 10.10.2019
443 Clouds 2 1018 37 10000 3 360 10:27 10.10.2019
444 Clouds 2 1018 37 10000 2 0 09:58 10.10.2019
445 Clouds 3 1017 34 10000 1 0 09:39 10.10.2019
446 Clouds 3 1017 34 10000 1 0 09:21 10.10.2019
447 Clouds 2 1017 37 10000 1 0 08:58 10.10.2019
448 Clouds 2 1018 37 10000 2 0 08:38 10.10.2019
449 Clouds 2 1018 37 10000 2 0 08:19 10.10.2019
450 Clouds 2 1018 37 10000 2 0 08:19 10.10.2019
451 Clouds 2 1018 34 10000 1 0 07:45 10.10.2019
452 Clouds 1 1018 40 10000 2 0 07:23 10.10.2019
453 Clouds 1 1019 37 10000 2 0 06:49 10.10.2019
454 Clouds 1 1019 37 10000 3 190 06:29 10.10.2019
455 Clouds -1 1020 46 10000 1 0 05:28 10.10.2019
456 Clouds -1 1020 46 10000 1 0 05:28 10.10.2019
457 Clouds -1 1020 50 10000 1 0 04:54 10.10.2019
458 Clouds -2 1020 54 10000 1 0 04:33 10.10.2019
459 Clouds -4 1020 58 10000 1.34 117.444 01:46 10.10.2019
460 Clouds -4 1020 58 10000 2 0 01:26 10.10.2019
461 Clouds -4 1020 58 10000 1 0 00:54 10.10.2019
462 Clouds -4 1020 58 10000 1 0 00:23 10.10.2019
463 Clouds -3 1020 53 10000 1 0 23:40 09.10.2019
464 Clouds -3 1020 53 10000 1 0 23:22 09.10.2019
465 Clouds -3 1020 53 10000 3 10 22:56 09.10.2019
466 Clouds -3 1020 53 10000 4 30 22:38 09.10.2019
467 Clouds -3 1020 53 10000 4 30 22:20 09.10.2019
468 Clouds -3 1021 53 10000 3 360 21:41 09.10.2019
469 Clouds -3 1021 53 10000 3 360 21:21 09.10.2019
470 Clouds -2 1021 50 10000 4 20 20:56 09.10.2019
471 Clouds -2 1021 50 10000 4 20 20:38 09.10.2019
472 Clouds -2 1021 50 10000 4 20 20:19 09.10.2019
473 Clouds -2 1020 58 10000 7 20 19:58 09.10.2019
474 Clouds -2 1020 58 10000 7 20 19:39 09.10.2019
475 Clouds -2 1020 58 10000 7 20 19:20 09.10.2019
476 Clouds -2 1020 68 10000 8 340 18:38 09.10.2019
477 Clouds -2 1020 68 10000 8 340 18:38 09.10.2019
478 Clouds -2 1020 68 10000 8 340 18:20 09.10.2019
479 Clouds -1 1019 68 10000 6 350 17:57 09.10.2019
480 Clouds -1 1019 68 10000 5 350 17:37 09.10.2019
481 Clouds -1 1019 68 10000 5 350 17:19 09.10.2019
482 Clouds 0 1019 76 10000 5 360 16:55 09.10.2019
483 Clouds 0 1019 76 10000 6 340 16:36 09.10.2019
484 Clouds 0 1019 76 10000 6 340 16:18 09.10.2019
485 Clouds 0 1018 76 10000 4 340 15:55 09.10.2019
486 Clouds 0 1018 76 10000 4 340 15:55 09.10.2019
487 Clouds 0 1018 76 10000 5 330 15:36 09.10.2019
488 Clouds 0 1018 71 10000 5 330 15:18 09.10.2019
489 Clouds 1 1016 69 10000 5 350 14:42 09.10.2019
490 Clouds 1 1016 69 10000 5 350 14:42 09.10.2019
491 Clouds 1 1016 69 10000 5 350 14:18 09.10.2019
492 Snow 1 1016 69 10000 7 350 13:55 09.10.2019
493 Snow 1 1016 74 10000 5 10 13:36 09.10.2019
494 Snow 1 1016 74 10000 5 10 13:36 09.10.2019
495 Snow 1 1016 74 10000 5 10 13:18 09.10.2019
496 Clouds 3 1014 55 10000 5 340 12:42 09.10.2019
497 Clouds 3 1014 55 10000 5 340 12:22 09.10.2019
498 Clouds 4 1013 51 10000 6 350 11:58 09.10.2019
499 Clouds 5 1013 48 10000 8 350 11:39 09.10.2019
500 Clouds 5 1013 48 10000 8 350 11:20 09.10.2019
501 Clouds 7 1013 45 10000 5 20 10:55 09.10.2019
502 Clouds 7 1012 45 10000 6 360 10:37 09.10.2019
503 Clouds 7 1012 45 10000 6 360 10:18 09.10.2019
504 Clouds 10 1011 39 10000 8 340 09:42 09.10.2019
505 Clouds 10 1011 39 10000 8 340 09:19 09.10.2019
506 Clouds 11 1011 40 10000 7 350 08:56 09.10.2019
507 Clouds 10 1010 43 10000 6 10 08:37 09.10.2019
508 Clouds 10 1010 43 10000 6 10 08:18 09.10.2019
509 Clouds 12 1010 32 10000 6 350 07:42 09.10.2019
510 Clouds 12 1010 32 10000 6 350 07:22 09.10.2019
511 Clouds 13 1010 28 10000 6 330 06:52 09.10.2019
512 Clouds 12 1010 27 10000 2 0 06:20 09.10.2019
513 Clouds 12 1010 27 10000 2 0 06:20 09.10.2019
514 Clear 12 1010 27 10000 3 10 05:46 09.10.2019
515 Clear 7 1011 42 10000 1 0 04:27 09.10.2019
516 Clear 1 1011 64 10000 1 0 02:54 09.10.2019
517 Clear -5 1011 79 10000 3.54 280.222 01:44 09.10.2019
518 Clear -3 1011 73 10000 3.79 284.908 01:21 09.10.2019
519 Clear -3 1011 73 10000 3.79 284.908 01:21 09.10.2019
520 Clear -5 1011 79 10000 1 0 00:57 09.10.2019
521 Clear -4 1011 79 10000 1 0 00:39 09.10.2019
522 Clear -4 1011 79 10000 1 0 00:20 09.10.2019
523 Clear -5 1011 79 10000 2 160 23:40 08.10.2019
524 Clear -5 1011 79 10000 2 160 23:19 08.10.2019
525 Clear -2 1011 68 10000 1 0 22:58 08.10.2019
526 Clear 3 1011 60 0 2.27 274.195 22:39 08.10.2019
527 Clear 3 1011 60 0 2.27 274.195 22:20 08.10.2019
528 Clear -2 1012 74 10000 2.27 274.195 21:57 08.10.2019
529 Clear -2 1012 74 10000 2.27 274.195 21:39 08.10.2019
530 Clear -2 1012 74 10000 2.27 274.195 21:39 08.10.2019
531 Clear -2 1012 74 10000 2.08 216.484 21:19 08.10.2019
532 Clear -1 1012 63 10000 1 0 20:56 08.10.2019
533 Clear -1 1012 63 10000 1 0 20:38 08.10.2019
534 Clear -1 1012 63 10000 1 0 20:20 08.10.2019
535 Clear 1 1012 55 10000 1 0 19:58 08.10.2019
536 Clear 0 1012 58 10000 1 0 19:39 08.10.2019
537 Clear 0 1012 58 10000 1 0 19:20 08.10.2019
538 Clear 2 1012 51 10000 1 0 18:54 08.10.2019
539 Clear 3 1013 51 10000 4 170 18:36 08.10.2019
540 Clear 3 1013 51 10000 4 170 18:18 08.10.2019
541 Clear 1 1013 55 10000 2 0 17:40 08.10.2019
542 Clear 1 1013 55 10000 2 0 17:40 08.10.2019
543 Clear 1 1013 55 10000 2 0 17:20 08.10.2019
544 Clear 2 1013 51 10000 1.4 231.027 16:58 08.10.2019
545 Clear 2 1013 51 10000 1 0 16:38 08.10.2019
546 Clear 2 1013 51 10000 1 0 16:20 08.10.2019
547 Clear 6 1013 38 10000 1 0 15:41 08.10.2019
548 Clear 6 1013 38 10000 1 0 15:41 08.10.2019
549 Clear 6 1013 38 10000 1 0 15:21 08.10.2019
550 Clear 7 1013 36 10000 2 0 14:58 08.10.2019
551 Clear 5 1013 41 10000 3 190 14:39 08.10.2019
552 Clear 5 1013 41 10000 3 190 14:20 08.10.2019
553 Clear 6 1013 38 10000 2 0 13:56 08.10.2019
554 Clear 10 1013 29 10000 2 240 13:38 08.10.2019
555 Clear 10 1013 29 10000 2 240 13:18 08.10.2019
556 Clear 15 1013 19 10000 5 270 12:42 08.10.2019
557 Clear 15 1013 19 10000 5 270 12:22 08.10.2019
558 Clear 16 1014 18 10000 6 270 11:59 08.10.2019
559 Clear 16 1014 17 10000 5 260 11:40 08.10.2019
560 Clear 16 1014 17 10000 5 260 11:22 08.10.2019
561 Clear 16 1014 21 10000 6 250 10:55 08.10.2019
562 Clear 16 1015 21 10000 6 240 10:36 08.10.2019
563 Clear 16 1015 21 10000 6 240 10:18 08.10.2019
564 Clear 15 1016 24 10000 5 230 09:41 08.10.2019
565 Clear 15 1016 24 10000 5 230 09:41 08.10.2019
566 Clear 15 1016 24 10000 5 230 09:23 08.10.2019
567 Clear 15 1017 26 10000 6 230 08:57 08.10.2019
568 Clear 14 1017 28 10000 5 210 08:39 08.10.2019
569 Clear 14 1017 28 10000 5 210 08:21 08.10.2019
570 Clear 12 1019 32 10000 4 220 07:41 08.10.2019
571 Clear 12 1019 32 10000 4 220 07:20 08.10.2019
572 Clear 12 1019 32 10000 4 220 07:20 08.10.2019
573 Clear 11 1020 32 10000 5 240 06:47 08.10.2019
574 Clear 11 1020 32 10000 4 230 06:23 08.10.2019
575 Clear 10 1021 34 10000 4 230 05:44 08.10.2019
576 Clear 10 1021 34 10000 4 230 05:44 08.10.2019
577 Clear 7 1022 48 10000 1 0 05:21 08.10.2019
578 Clear 0 1024 49 10000 4.13 195.963 03:32 08.10.2019
579 Clear -2 1024 79 10000 2.62 155.545 02:46 08.10.2019
580 Clear -6 1024 92 10000 2.62 155.545 02:26 08.10.2019
581 Clear -6 1024 85 10000 2.62 155.545 01:42 08.10.2019
582 Clear -5 1025 85 10000 2.57 157.003 00:57 08.10.2019
583 Clear -7 1025 85 10000 1 0 00:36 08.10.2019
584 Clear -7 1025 85 10000 1 0 00:18 08.10.2019
585 Clear -7 1026 85 10000 1 0 23:38 07.10.2019
586 Clear -7 1026 85 10000 1 0 23:19 07.10.2019
587 Clear -5 1026 79 10000 1 0 22:55 07.10.2019
588 Clear -5 1026 85 10000 2.27 154.462 22:37 07.10.2019
589 Clear -5 1026 85 10000 2.27 154.462 22:19 07.10.2019
590 Clear -5 1026 85 10000 2 140 21:54 07.10.2019
591 Clear -6 1027 85 10000 2 180 21:36 07.10.2019
592 Clear -6 1027 85 10000 2 180 21:36 07.10.2019
593 Clear -6 1027 85 10000 2 180 21:18 07.10.2019
594 Clear -4 1027 79 10000 1 0 20:56 07.10.2019
595 Clear -4 1027 79 10000 1 0 20:38 07.10.2019
596 Clear -4 1027 79 10000 1 0 20:18 07.10.2019
597 Clear -3 1028 79 10000 1 0 19:42 07.10.2019
598 Clear -3 1028 79 10000 1 0 19:42 07.10.2019
599 Clear -3 1028 79 10000 1 0 19:21 07.10.2019
600 Clear -1 1028 74 10000 1 0 19:00 07.10.2019
601 Clear -3 1028 86 10000 2 0 18:41 07.10.2019
602 Clear -3 1028 86 10000 2 0 18:19 07.10.2019
603 Clear -3 1028 79 10000 2 0 17:56 07.10.2019
604 Clear -3 1028 79 10000 2 170 17:38 07.10.2019
605 Clear -3 1028 79 10000 2 170 17:18 07.10.2019
606 Clear -2 1028 74 10000 1 0 16:44 07.10.2019
607 Clear -2 1028 74 10000 1 0 16:25 07.10.2019
608 Clear -1 1028 74 10000 1 0 15:57 07.10.2019
609 Clear -2 1028 74 10000 2 170 15:38 07.10.2019
610 Clear -2 1028 74 10000 2 170 15:20 07.10.2019
611 Clear 1 1028 64 10000 2 0 14:41 07.10.2019
612 Clear 1 1028 64 10000 2 0 14:23 07.10.2019
613 Clear 5 1028 48 10000 2 30 13:45 07.10.2019
614 Clear 6 1028 45 10000 3 30 13:21 07.10.2019
615 Clear 6 1028 48 10000 5 350 12:58 07.10.2019
616 Clouds 7 1027 45 10000 5 340 12:39 07.10.2019
617 Clouds 7 1027 45 10000 5 340 12:20 07.10.2019
618 Clouds 8 1027 39 10000 6 360 11:59 07.10.2019
619 Clouds 8 1027 39 10000 7 350 11:39 07.10.2019
620 Clouds 8 1027 39 10000 7 350 11:20 07.10.2019
621 Clouds 10 1027 34 10000 6 340 10:43 07.10.2019
622 Clouds 10 1027 34 10000 6 340 10:23 07.10.2019
623 Clouds 8 1027 39 10000 6 350 09:57 07.10.2019
624 Clouds 9 1027 34 10000 7 330 09:38 07.10.2019
625 Clouds 9 1027 34 10000 7 330 09:38 07.10.2019
626 Clouds 9 1027 34 10000 7 330 09:20 07.10.2019
627 Clear 8 1027 31 10000 8 330 08:43 07.10.2019
628 Clear 8 1027 31 10000 8 330 08:20 07.10.2019
629 Clear 8 1027 31 10000 8 330 07:47 07.10.2019
630 Clear 7 1027 30 10000 8 330 07:27 07.10.2019
631 Clear 6 1027 33 10000 9 320 06:58 07.10.2019
632 Clear 5 1027 32 10000 7 320 06:38 07.10.2019
633 Clear 5 1027 32 10000 7 320 06:18 07.10.2019
634 Clear 4 1028 29 10000 7 330 05:26 07.10.2019
635 Clear 3 1027 37 10000 7 340 04:49 07.10.2019
636 Clear 2 1027 47 10000 4 360 03:46 07.10.2019
637 Clear 2 1027 47 10000 4 360 03:46 07.10.2019
638 Clear 1 1027 50 10000 3 290 03:27 07.10.2019
639 Clear 1 1026 55 10000 2 0 02:37 07.10.2019
640 Clear 1 1026 55 10000 2 0 02:18 07.10.2019
641 Clear 1 1026 55 10000 2 0 02:18 07.10.2019
642 Clouds 0 1024 75 10000 1 0 01:23 07.10.2019
643 Clouds 0 1024 75 10000 1 0 00:49 07.10.2019
644 Clouds 1 1023 69 10000 1 0 00:23 07.10.2019
645 Clouds 0 1023 76 10000 2 0 23:59 06.10.2019
646 Clouds 3 1022 59 10000 2 0 23:40 06.10.2019
647 Clouds 3 1022 59 10000 2 0 23:19 06.10.2019
648 Clear 3 1022 59 10000 4 30 22:55 06.10.2019
649 Clear 3 1022 59 10000 4 30 22:55 06.10.2019
650 Clear 3 1022 64 10000 4 10 22:37 06.10.2019
651 Clear 3 1022 64 10000 4 10 22:18 06.10.2019
652 Clear 4 1021 60 10000 6 340 21:55 06.10.2019
653 Clear 4 1021 60 10000 6 340 21:55 06.10.2019
654 Clear 4 1021 60 10000 6 340 21:36 06.10.2019
655 Clear 4 1021 60 10000 6 340 21:18 06.10.2019
656 Clear 5 1020 56 10000 7 320 20:54 06.10.2019
657 -273 0 0 0 0 0 20:54 06.10.2019
658 Clear 5 1020 56 10000 7 320 20:36 06.10.2019
659 Clear 5 1020 56 10000 7 320 20:18 06.10.2019
660 Clear 5 1018 48 10000 5 310 19:54 06.10.2019
661 Clear 5 1018 48 10000 5 310 19:36 06.10.2019
662 Clear 5 1018 48 10000 5 310 19:18 06.10.2019
663 Clear 3 1018 51 10000 1 0 18:54 06.10.2019
664 Clear 3 1018 51 10000 1 0 18:54 06.10.2019
665 Clear 4 1018 48 10000 1 0 18:36 06.10.2019
666 Clear 4 1018 48 10000 1 0 18:18 06.10.2019
667 Clouds 4 1018 48 10000 1 0 17:42 06.10.2019
668 Clouds 4 1018 48 10000 1 0 17:20 06.10.2019
669 Clouds 5 1018 44 10000 1 0 16:55 06.10.2019
670 Clouds 5 1018 44 10000 1 0 16:54 06.10.2019
671 Clouds 5 1018 44 10000 1 0 16:54 06.10.2019
672 Clouds 5 1018 44 10000 2 0 16:36 06.10.2019
673 Clouds 5 1018 44 10000 2 0 16:18 06.10.2019
674 Clouds 5 1018 48 10000 2 160 15:42 06.10.2019
675 Clouds 5 1018 48 10000 2 160 15:19 06.10.2019
676 Clouds 5 1018 48 10000 2 160 15:19 06.10.2019
677 Clouds 5 1018 44 10000 2 0 14:44 06.10.2019
678 Clouds 5 1018 41 10000 2 130 14:25 06.10.2019
679 Clear 7 1018 36 10000 3.48 287.217 13:58 06.10.2019
680 Clear 8 1018 33 10000 3 260 13:39 06.10.2019
681 Clear 8 1018 33 10000 3 260 13:21 06.10.2019
682 Clear 9 1017 34 10000 3 290 12:57 06.10.2019
683 Clear 11 1018 29 10000 4 280 12:39 06.10.2019
684 Clear 11 1018 29 10000 4 280 12:20 06.10.2019
685 Clouds 12 1018 25 10000 5 270 11:57 06.10.2019
686 Clouds 13 1018 24 10000 5 290 11:38 06.10.2019
687 Clouds 13 1018 24 10000 5 290 11:20 06.10.2019
688 Clouds 14 1018 24 10000 7 270 10:44 06.10.2019
689 Clouds 14 1019 22 10000 7 280 10:26 06.10.2019
690 Clouds 14 1019 20 10000 7 270 09:58 06.10.2019
691 Clouds 14 1019 20 10000 5 270 09:40 06.10.2019
692 Clouds 14 1019 20 10000 5 270 09:19 06.10.2019
693 Clouds 13 1019 22 10000 5 270 08:43 06.10.2019
694 Clouds 12 1020 22 10000 5 240 08:21 06.10.2019
695 Clouds 12 1020 22 10000 6 230 07:56 06.10.2019
696 Clouds 12 1021 22 10000 6 250 07:35 06.10.2019
697 Clouds 10 1021 23 10000 5 230 06:23 06.10.2019
698 Clear 8 1022 26 10000 2 0 05:34 06.10.2019
699 Clear 1 1023 50 10000 1 0 03:56 06.10.2019
700 Clear -2 1023 68 10000 1.24 247.309 02:44 06.10.2019
701 Clear -5 1023 73 10000 1 0 02:22 06.10.2019
702 Clear -8 1022 78 10000 1 0 01:45 06.10.2019
703 Clear -5 1022 73 10000 1 0 01:27 06.10.2019
704 Clear -6 1022 73 10000 1.44 240.551 00:53 06.10.2019
705 Clear -6 1022 73 10000 1.44 240.551 00:27 06.10.2019
706 Clear -6 1022 73 10000 1.39 240.937 23:45 05.10.2019
707 Clear -5 1022 73 10000 1.39 240.937 23:22 05.10.2019
708 Clear -5 1022 67 10000 1 0 22:58 05.10.2019
709 Clear -5 1022 67 10000 1 0 22:40 05.10.2019
710 Clear -5 1022 67 10000 1 0 22:40 05.10.2019
711 Clear -5 1022 67 10000 1 0 22:20 05.10.2019
712 Clear -4 1022 68 10000 1.39 240.937 21:57 05.10.2019
713 Clear -6 1022 73 10000 2 0 21:38 05.10.2019
714 Clear -6 1022 73 10000 2 0 21:18 05.10.2019
715 Clear -8 1022 78 10000 1 0 20:56 05.10.2019
716 Clear -4 1023 73 10000 1.71 249.785 20:37 05.10.2019
717 Clear -4 1023 73 10000 1.71 249.785 20:37 05.10.2019
718 Clear -4 1023 73 10000 1.71 249.785 20:18 05.10.2019
719 Clear -5 1022 67 10000 2 0 19:38 05.10.2019
720 Clear -5 1022 67 10000 2 0 19:19 05.10.2019
721 Clear -4 1023 68 10000 1 0 18:56 05.10.2019
722 Clear -4 1023 68 10000 1 340 18:37 05.10.2019
723 Clear -4 1023 68 10000 1 340 18:19 05.10.2019
724 Clear -4 1023 62 10000 2 160 17:43 05.10.2019
725 Clear 0 1023 58 10000 1.84 199.419 17:25 05.10.2019
726 Clear -2 1023 58 10000 1 0 16:58 05.10.2019
727 Clear -1 1023 54 10000 1.84 199.419 16:40 05.10.2019
728 Clear -1 1023 54 10000 1.84 199.419 16:21 05.10.2019
729 Clear 0 1023 58 10000 1 0 15:57 05.10.2019
730 Clear 1 1023 47 10000 2 150 15:38 05.10.2019
731 Clear 1 1023 47 10000 2 150 15:20 05.10.2019
732 Clear 1 1022 47 10000 4 170 14:44 05.10.2019
733 Clear 1 1022 43 10000 4 160 14:25 05.10.2019
734 Clear 1 1022 43 10000 2 170 13:59 05.10.2019
735 Clear 4 1022 35 10000 4 220 13:40 05.10.2019
736 Clear 4 1022 35 10000 4 220 13:20 05.10.2019
737 Clear 6 1022 30 10000 4 230 12:44 05.10.2019
738 Clear 9 1022 24 10000 3 220 12:19 05.10.2019
739 Clear 11 1022 20 10000 3 230 11:44 05.10.2019
740 Clear 11 1022 20 10000 3 230 11:21 05.10.2019
741 Clear 11 1022 21 10000 3 230 10:58 05.10.2019
742 Clear 11 1022 20 10000 3 230 10:40 05.10.2019
743 Clear 11 1022 20 10000 3 230 10:21 05.10.2019
744 Clear 11 1023 20 10000 3 240 09:55 05.10.2019
745 Clear 11 1023 20 10000 4 220 09:37 05.10.2019
746 Clear 11 1023 20 10000 4 220 09:18 05.10.2019
747 Clear 10 1024 21 10000 5 230 08:39 05.10.2019
748 Clear 10 1024 21 10000 5 230 08:19 05.10.2019
749 Clear 10 1025 21 10000 5 240 07:52 05.10.2019
750 Clear 9 1025 24 10000 4 250 07:30 05.10.2019
751 Clouds 8 1025 26 10000 3 270 06:56 05.10.2019
752 -273 0 0 0 0 0 06:24 05.10.2019
753 Clouds 4 1027 44 10000 1 0 05:39 05.10.2019
754 Clear -3 1028 73 10000 3.5 186.34 03:34 05.10.2019
755 Clear -5 1027 79 10000 2.15 152.743 02:45 05.10.2019
756 Clear -10 1027 85 10000 2.06 153.907 01:29 05.10.2019
757 Clear -10 1027 85 10000 2.06 153.907 00:49 05.10.2019
758 Clear -10 1027 85 10000 2.06 153.907 00:28 05.10.2019
759 Clear -11 1028 85 10000 1.72 137.219 23:58 04.10.2019
760 Clear -11 1028 85 10000 1.72 137.219 23:40 04.10.2019
761 Clear -11 1028 85 10000 1.72 137.219 23:22 04.10.2019
762 Clear -9 1028 78 10000 1.72 137.219 22:57 04.10.2019
763 Clear -9 1028 78 10000 1.72 137.219 22:57 04.10.2019
764 Clear -9 1028 78 10000 1.72 137.219 22:38 04.10.2019
765 Clear -9 1028 78 10000 1.72 137.219 22:19 04.10.2019
766 Clear -9 1028 85 10000 2 180 21:40 04.10.2019
767 Clear -9 1028 85 10000 2 180 21:22 04.10.2019
768 Clear -9 1028 85 10000 1 0 20:59 04.10.2019
769 Clear -9 1028 85 10000 1 0 20:41 04.10.2019
770 Clear -9 1028 85 10000 1 0 20:22 04.10.2019
771 Clear -4 1029 73 10000 1.81 154.779 19:56 04.10.2019
772 Clear -4 1029 73 10000 1.81 154.779 19:37 04.10.2019
773 Clear -4 1029 73 10000 1.81 154.779 19:19 04.10.2019
774 Clear -5 1029 73 10000 1.81 154.779 18:54 04.10.2019
775 Clear -5 1029 73 10000 1.81 154.779 18:36 04.10.2019
776 Clear -5 1029 73 10000 1.42 148.814 18:18 04.10.2019
777 Clear -3 1029 68 10000 1 0 17:39 04.10.2019
778 Clear -3 1029 68 10000 1 0 17:21 04.10.2019
779 Clear -4 1029 73 10000 1 0 16:58 04.10.2019
780 Clear -3 1029 68 10000 2 150 16:39 04.10.2019
781 Clear -3 1029 68 10000 2 150 16:18 04.10.2019
782 Clear -3 1029 68 10000 2 150 16:18 04.10.2019
783 Clear -1 1029 63 10000 2 150 15:56 04.10.2019
784 Clear -2 1029 68 10000 1 0 15:37 04.10.2019
785 Clear -2 1029 68 10000 1 0 15:19 04.10.2019
786 Clear -1 1029 63 10000 1 0 14:55 04.10.2019
787 Clear -1 1029 63 10000 1 0 14:55 04.10.2019
788 Clear -2 1029 68 10000 3 160 14:36 04.10.2019
789 Clear -2 1029 68 10000 3 160 14:18 04.10.2019
790 Clear -1 1029 68 10000 3 180 13:43 04.10.2019
791 Clear 0 1029 62 10000 3 220 13:21 04.10.2019
792 Clear 4 1029 44 10000 2 230 12:47 04.10.2019
793 Clear 6 1029 35 10000 2 0 12:29 04.10.2019
794 Clear 7 1029 33 10000 3 240 11:59 04.10.2019
795 Clear 7 1029 33 10000 3 240 11:59 04.10.2019
796 Clear 7 1029 33 10000 3 240 11:59 04.10.2019
797 Clear 7 1029 33 10000 3 230 11:40 04.10.2019
798 Clear 7 1029 33 10000 3 230 11:20 04.10.2019
799 Clear 7 1029 33 10000 3 190 10:41 04.10.2019
800 Clear 7 1029 33 10000 3 190 10:21 04.10.2019
801 Clear 7 1030 33 10000 3 250 09:48 04.10.2019
802 Clear 6 1030 35 10000 3 230 09:30 04.10.2019
803 Clear 6 1030 33 10000 2 0 08:57 04.10.2019
804 Clear 5 1031 35 10000 2 0 08:38 04.10.2019
805 Clear 5 1031 35 10000 2 0 08:20 04.10.2019
806 Clear 5 1031 38 10000 2 0 07:45 04.10.2019
807 Clear 4 1032 41 10000 2 0 07:22 04.10.2019
808 Clear 3 1033 44 10000 2 0 06:44 04.10.2019
809 Clear 3 1033 44 10000 2 0 06:25 04.10.2019
810 Clear 1 1033 50 10000 2 0 05:42 04.10.2019
811 Clear 1 1033 50 10000 2 0 05:18 04.10.2019
812 Clear -2 1034 74 10000 1.87 201.733 03:48 04.10.2019
813 Clear -6 1034 85 10000 1.4 179.1 02:53 04.10.2019
814 Clear -6 1034 85 10000 1.4 179.1 02:53 04.10.2019
815 Clear -11 1034 85 10000 1 0 01:56 04.10.2019
816 Clear -10 1033 85 10000 1 0 01:30 04.10.2019
817 Clear -10 1033 85 10000 1 0 00:58 04.10.2019
818 Clear -10 1033 85 10000 0.94 196.206 23:58 03.10.2019
819 Clear -11 1033 85 10000 1 0 23:37 03.10.2019
820 Clear -11 1033 85 10000 1 0 23:18 03.10.2019
821 Clear -8 1033 85 10000 2 170 22:56 03.10.2019
822 Clear -8 1033 78 10000 2 180 22:37 03.10.2019
823 Clear -8 1033 78 10000 2 180 22:19 03.10.2019
824 Clear -8 1033 85 10000 2 0 21:56 03.10.2019
825 Clear -9 1034 85 10000 2 170 21:37 03.10.2019
826 Clear -9 1034 85 10000 2 170 21:19 03.10.2019
827 Clear -8 1034 78 10000 2 150 20:55 03.10.2019
828 Clear -8 1034 78 10000 2 150 20:55 03.10.2019
829 Clear -6 1034 85 10000 1 0 20:37 03.10.2019
830 Clear -6 1034 85 10000 1 0 20:37 03.10.2019
831 Clear -6 1034 85 10000 1 0 20:19 03.10.2019
832 Clear -7 1034 85 10000 3 160 19:41 03.10.2019
833 Clear -7 1034 85 10000 3 160 19:22 03.10.2019
834 Clear -8 1034 85 10000 3 160 18:58 03.10.2019
835 Clear -6 1034 85 10000 3 170 18:39 03.10.2019
836 Clear -6 1034 85 10000 3 170 18:19 03.10.2019
837 Clear -7 1034 92 10000 3 170 17:56 03.10.2019
838 Clear -7 1034 85 10000 3 170 17:37 03.10.2019
839 Clear -7 1034 85 10000 3 170 17:19 03.10.2019
840 Clouds -6 1034 85 10000 2 180 16:43 03.10.2019
841 Clouds -6 1034 79 10000 2 170 16:25 03.10.2019
842 Clouds -2 1034 74 10000 0.52 346.071 15:56 03.10.2019
843 Clouds -4 1033 73 10000 1 0 15:38 03.10.2019
844 Clouds -4 1033 73 10000 1 0 15:19 03.10.2019
845 Clouds -2 1033 68 10000 1 0 14:45 03.10.2019
846 Clouds 0 1033 90 10000 2 300 14:26 03.10.2019
847 Clouds 1 1033 55 10000 3 310 13:57 03.10.2019
848 Clouds 3 1033 51 10000 3 330 13:39 03.10.2019
849 Clouds 3 1033 51 10000 3 330 13:19 03.10.2019
850 Clouds 4 1032 44 10000 4 340 12:55 03.10.2019
851 -273 0 0 0 0 0 12:55 03.10.2019
852 Clouds 4 1032 44 10000 4 340 12:55 03.10.2019
853 Clouds 4 1032 44 10000 1 0 12:36 03.10.2019
854 Clouds 4 1032 44 10000 1 0 12:18 03.10.2019
855 Clouds 4 1032 48 10000 1 0 11:40 03.10.2019
856 Clouds 4 1032 48 10000 1 0 11:22 03.10.2019
857 Clouds 5 1032 44 10000 1 0 10:58 03.10.2019
858 Clouds 5 1032 44 10000 2 0 10:39 03.10.2019
859 Clouds 5 1032 44 10000 2 0 10:18 03.10.2019
860 Clouds 5 1032 48 10000 3 60 09:57 03.10.2019
861 Clouds 4 1031 51 10000 2 0 09:38 03.10.2019
862 Clouds 4 1031 51 10000 2 0 09:19 03.10.2019
863 Clouds 4 1031 51 10000 1 0 08:43 03.10.2019
864 Clouds 5 1032 48 10000 2 0 08:25 03.10.2019
865 Clouds 4 1032 51 10000 2 0 07:56 03.10.2019
866 Clouds 4 1032 55 10000 2 0 07:37 03.10.2019
867 Clouds 4 1032 55 10000 2 0 07:37 03.10.2019
868 Clouds 4 1032 55 10000 2 0 07:19 03.10.2019
869 Clouds 2 1032 64 10000 2 0 06:35 03.10.2019
870 Clouds 2 1032 59 10000 2 0 05:55 03.10.2019
871 Clouds 2 1032 64 10000 2 0 05:37 03.10.2019
872 Clouds 1 1032 64 10000 2 0 04:48 03.10.2019
873 Clouds 0 1032 82 10000 5 330 04:24 03.10.2019
874 Clouds -1 1032 80 10000 5 330 03:20 03.10.2019
875 Clouds -1 1031 80 10000 2 330 02:33 03.10.2019
876 Clouds -1 1031 80 10000 3 360 01:42 03.10.2019
877 Clouds -1 1031 80 10000 3 360 01:20 03.10.2019
878 Clouds -1 1030 80 10000 5 350 00:41 03.10.2019
879 Clouds -1 1030 80 10000 4 350 23:58 02.10.2019
880 Clouds -1 1030 80 10000 4 340 23:38 02.10.2019
881 Clouds -1 1030 80 10000 4 340 23:38 02.10.2019
882 Clouds -1 1030 80 10000 4 340 23:19 02.10.2019
883 Clouds -1 1029 80 10000 5 10 22:42 02.10.2019
884 Clouds -1 1029 80 10000 5 10 22:20 02.10.2019
885 Clouds -1 1029 86 10000 5 330 21:55 02.10.2019
886 Clouds -1 1029 86 10000 5 330 21:55 02.10.2019
887 Clouds -1 1029 86 10000 5 330 21:37 02.10.2019
888 Clouds -1 1029 86 10000 5 330 21:19 02.10.2019
889 Clouds -1 1029 86 10000 5 340 20:55 02.10.2019
890 Clouds -1 1029 86 10000 5 340 20:37 02.10.2019
891 Clouds -1 1029 86 10000 5 340 20:19 02.10.2019
892 Clouds -1 1028 86 10000 4 350 19:45 02.10.2019
893 Clouds -1 1028 86 10000 4 350 19:45 02.10.2019
894 Clouds -1 1028 86 10000 4 350 19:45 02.10.2019
895 Clouds -1 1028 86 10000 6 340 19:23 02.10.2019
896 Clouds -1 1028 86 10000 6 330 18:59 02.10.2019
897 Snow -1 1028 86 10000 4 320 18:40 02.10.2019
898 Snow -1 1028 86 10000 4 320 18:21 02.10.2019
899 Snow -1 1028 92 10000 3 320 17:58 02.10.2019
900 Snow -1 1027 92 10000 4 330 17:39 02.10.2019
901 Snow -1 1027 92 10000 4 330 17:39 02.10.2019
902 Snow -1 1027 92 10000 4 330 17:20 02.10.2019
903 Snow -1 1027 92 10000 3 330 16:57 02.10.2019
904 Snow -1 1027 92 10000 4 310 16:37 02.10.2019
905 Snow -1 1027 92 10000 4 310 16:18 02.10.2019
906 Snow -1 1027 92 10000 4 310 15:55 02.10.2019
907 Snow 0 1026 95 10000 3 310 15:36 02.10.2019
908 Snow 0 1026 96 10000 3 310 15:18 02.10.2019
909 Snow 0 1026 96 10000 4 300 14:43 02.10.2019
910 Snow 0 1026 96 10000 4 300 14:22 02.10.2019
911 Clouds 1 1025 86 10000 4 310 13:48 02.10.2019
912 Clouds 1 1025 86 10000 4 310 13:29 02.10.2019
913 Snow 1 1024 86 10000 4 300 12:59 02.10.2019
914 Clouds 2 1024 80 10000 4 300 12:39 02.10.2019
915 Clouds 2 1024 80 10000 4 300 12:21 02.10.2019
916 Rain 3 1023 94 10000 3 310 11:45 02.10.2019
917 Rain 3 1023 94 10000 3 310 11:24 02.10.2019
918 -273 0 0 0 0 0 10:55 02.10.2019
919 Rain 3 1023 94 10000 2 0 10:36 02.10.2019
920 Rain 3 1023 94 10000 2 0 10:18 02.10.2019
921 Clouds 2 1022 94 10000 2 0 09:39 02.10.2019
922 Clouds 2 1022 93 10000 2 0 09:20 02.10.2019
923 Rain 2 1023 93 10000 4 310 08:55 02.10.2019
924 Rain 2 1022 88 10000 2 0 08:36 02.10.2019
925 Rain 2 1022 88 10000 2 0 08:18 02.10.2019
926 Rain 2 1022 88 10000 2 0 07:39 02.10.2019
927 Rain 2 1022 88 10000 2 0 07:20 02.10.2019
928 Rain 2 1023 88 3600 2 0 06:46 02.10.2019
929 Rain 2 1023 80 6000 2 0 05:56 02.10.2019
930 Rain 2 1023 80 10000 2 280 05:24 02.10.2019
931 Clouds 2 1023 80 10000 1 0 04:53 02.10.2019
932 Clouds 1 1022 80 10000 2 0 03:52 02.10.2019
933 Snow 1 1022 86 8000 2 360 02:42 02.10.2019
934 Snow 1 1022 86 8000 2 360 02:23 02.10.2019
935 Snow 1 1021 86 8000 3 30 01:40 02.10.2019
936 Snow 1 1021 86 8000 3 30 00:50 02.10.2019
937 Snow 2 1021 69 10000 2 0 00:27 02.10.2019
938 Clouds 2 1020 69 10000 3 300 23:44 01.10.2019
939 Clouds 2 1020 69 10000 3 300 23:25 01.10.2019
940 Clouds 2 1020 69 10000 2 0 22:59 01.10.2019
941 Clouds 3 1020 64 10000 2 0 22:40 01.10.2019
942 Clouds 3 1020 64 10000 2 0 22:20 01.10.2019
943 Clouds 3 1020 64 10000 2 0 22:20 01.10.2019
944 Clouds 3 1020 64 10000 3 360 21:57 01.10.2019
945 Clouds 3 1020 64 10000 3 360 21:38 01.10.2019
946 Clouds 3 1020 64 10000 3 360 21:19 01.10.2019
947 Clouds 2 1020 69 10000 2 290 20:55 01.10.2019
948 Clouds 2 1020 69 10000 2 290 20:55 01.10.2019
949 Clouds 2 1020 69 10000 2 290 20:37 01.10.2019
950 Clouds 2 1020 69 10000 2 290 20:18 01.10.2019
951 -273 0 0 0 0 0 19:55 01.10.2019
952 Clouds 2 1020 74 10000 3 320 19:55 01.10.2019
953 Clouds 2 1020 74 10000 3 320 19:55 01.10.2019
954 Clouds 2 1020 74 10000 3 320 19:37 01.10.2019
955 Clouds 2 1020 74 10000 3 320 19:37 01.10.2019
956 Clouds 2 1020 74 10000 3 320 19:18 01.10.2019
957 Clouds 2 1019 74 10000 3 360 18:40 01.10.2019
958 Clouds 2 1019 74 10000 3 360 18:21 01.10.2019
959 Clouds 3 1019 69 10000 3 360 17:58 01.10.2019
960 Clouds 3 1019 69 10000 4 360 17:39 01.10.2019
961 Clouds 3 1019 69 10000 4 360 17:19 01.10.2019
962 Clouds 3 1018 69 10000 5 360 16:57 01.10.2019
963 Clouds 3 1018 69 10000 5 360 16:39 01.10.2019
964 Clouds 3 1018 69 10000 5 360 16:39 01.10.2019
965 Clouds 3 1018 69 10000 5 360 16:20 01.10.2019
966 Clouds 3 1017 74 10000 4 350 15:42 01.10.2019
967 Clouds 3 1017 74 10000 4 350 15:22 01.10.2019
968 Clouds 4 1016 69 10000 5 10 14:41 01.10.2019
969 Clouds 4 1016 69 10000 5 10 14:20 01.10.2019
970 -273 0 0 0 0 0 14:20 01.10.2019
971 Clouds 4 1016 69 10000 5 10 13:58 01.10.2019
972 Clouds 4 1016 69 10000 5 10 13:58 01.10.2019
973 Clouds 4 1016 69 10000 5 10 13:39 01.10.2019
974 Clouds 4 1016 69 10000 5 10 13:39 01.10.2019
975 Clouds 4 1016 69 10000 5 10 13:39 01.10.2019
976 Clouds 4 1016 69 10000 5 10 13:39 01.10.2019
977 Clouds 4 1016 69 10000 5 10 13:20 01.10.2019
978 Clouds 5 1015 65 10000 4 10 12:57 01.10.2019
979 Clouds 5 1015 91 10000 6 340 12:39 01.10.2019
980 Clouds 5 1015 83 10000 6 340 12:18 01.10.2019
981 Clouds 5 1015 83 10000 6 340 11:57 01.10.2019
982 Clouds 7 1013 65 10000 8 340 11:38 01.10.2019
983 Clouds 7 1013 65 10000 8 340 11:18 01.10.2019
984 Clouds 7 1013 65 10000 8 340 11:18 01.10.2019
985 Clouds 9 1013 61 10000 5 350 10:49 01.10.2019
986 Clouds 9 1013 61 10000 5 350 10:29 01.10.2019
987 Clouds 9 1013 57 10000 5 350 09:47 01.10.2019
988 Clouds 8 1013 61 10000 7 10 09:27 01.10.2019
989 Clouds 8 1013 61 10000 7 10 08:57 01.10.2019
990 Clouds 4 1014 85 0 6.75 352.46 08:39 01.10.2019
991 Clouds 9 1013 61 10000 8 330 08:20 01.10.2019
992 Clouds 9 1013 61 10000 8 330 07:42 01.10.2019
993 Clouds 9 1013 61 10000 8 330 07:22 01.10.2019
994 Clouds 8 1012 65 10000 9 340 06:45 01.10.2019
995 Clouds 8 1011 79 0 5.82 11.42 06:18 01.10.2019
996 Clouds 9 1011 61 10000 6 10 05:45 01.10.2019
997 Clouds 9 1011 61 10000 6 10 04:49 01.10.2019
998 Clouds 8 1011 65 10000 3 20 04:26 01.10.2019
999 Clouds 6 1010 70 10000 7 20 02:26 01.10.2019
1000 Clouds 6 1010 75 10000 7 10 01:57 01.10.2019
1001 Clouds 4 1009 80 10000 1 0 00:53 01.10.2019
1002 Clear 6 1009 70 10000 4 340 00:26 01.10.2019
1003 Clear 7 1008 65 10000 4 330 23:55 30.09.2019
1004 Clouds 8 1008 65 10000 3 330 23:37 30.09.2019
1005 Clouds 8 1008 65 10000 3 330 23:18 30.09.2019
1006 Clouds 7 1007 86 10000 2 0 22:42 30.09.2019
1007 Clouds 7 1007 86 10000 2 0 22:24 30.09.2019
1008 Clear 5 1006 86 10000 3 140 21:56 30.09.2019
1009 Clear 5 1006 86 10000 3 140 21:38 30.09.2019
1010 Clear 5 1006 70 10000 3 140 21:19 30.09.2019
1011 Clear 5 1005 70 10000 1 0 20:55 30.09.2019
1012 Clear 5 1005 70 10000 1 0 20:55 30.09.2019
1013 Clear 5 1005 59 10000 1 0 20:37 30.09.2019
1014 Clear 5 1005 59 10000 1 0 20:19 30.09.2019
1015 Clouds 7 1004 65 10000 3.84 349.302 19:56 30.09.2019
1016 Clouds 7 1004 65 10000 3.84 349.302 19:56 30.09.2019
1017 Clouds 7 1004 65 10000 3.84 349.302 19:38 30.09.2019
1018 Clouds 7 1004 65 10000 3.84 349.302 19:18 30.09.2019
1019 Clouds 9 1004 57 10000 3.84 349.302 18:42 30.09.2019
1020 Clouds 9 1004 57 10000 2.68 177.154 18:22 30.09.2019
1021 Clouds 9 1004 57 10000 2.68 177.154 17:59 30.09.2019
1022 Clouds 9 1004 57 10000 2.68 177.154 17:40 30.09.2019
1023 Clouds 9 1004 57 10000 2.68 177.154 17:21 30.09.2019
1024 Clouds 11 1004 42 10000 1 0 16:56 30.09.2019
1025 Clouds 10 1004 42 10000 2.68 177.154 16:37 30.09.2019
1026 Clouds 10 1004 42 10000 2.68 177.154 16:18 30.09.2019
1027 Clouds 12 1004 42 10000 1 0 15:55 30.09.2019
1028 Clouds 12 1004 42 10000 1 0 15:55 30.09.2019
1029 Clouds 10 1004 53 10000 3 160 15:36 30.09.2019
1030 Clouds 10 1004 53 10000 3 160 15:18 30.09.2019
1031 Clouds 12 1004 47 10000 2 0 14:55 30.09.2019
1032 Clouds 12 1003 47 10000 2 150 14:36 30.09.2019
1033 Clouds 12 1003 47 10000 2 150 14:18 30.09.2019
1034 Clouds 14 1003 47 10000 3 130 13:44 30.09.2019
1035 Clouds 14 1003 41 10000 3 130 13:22 30.09.2019
1036 Clouds 17 1003 41 10000 1 0 12:58 30.09.2019
1037 Clouds 20 1003 41 10000 4 220 12:40 30.09.2019
1038 Clouds 20 1003 36 10000 4 220 12:20 30.09.2019
1039 Clouds 25 1003 15 10000 9 230 11:43 30.09.2019
1040 Clouds 25 1003 15 10000 9 230 11:22 30.09.2019
1041 Clouds 24 1003 17 10000 9 220 10:59 30.09.2019
1042 Clouds 25 1003 16 10000 9 220 10:39 30.09.2019
1043 Clouds 25 1003 16 10000 9 220 10:19 30.09.2019
1044 Clear 25 1003 16 10000 9 210 09:58 30.09.2019
1045 Clear 24 1003 22 10000 10 180 09:39 30.09.2019
1046 Clear 24 1003 22 10000 10 180 09:19 30.09.2019
1047 Clear 23 1004 25 10000 11 170 08:46 30.09.2019
1048 Clear 22 1004 32 10000 11 170 08:27 30.09.2019
1049 Clouds 22 1004 19 10000 10 150 07:44 30.09.2019
1050 Clouds 22 1004 19 10000 10 150 07:44 30.09.2019
1051 Clouds 22 1004 19 10000 10 150 07:44 30.09.2019
1052 Clouds 22 1004 19 10000 10 150 07:25 30.09.2019
1053 Clouds 21 1005 32 10000 7 160 06:50 30.09.2019
1054 Clouds 22 1006 24 10000 5 170 06:31 30.09.2019
1055 Clouds 13 1008 62 10000 1 0 05:46 30.09.2019
1056 Clouds 13 1008 62 10000 1 0 05:46 30.09.2019
1057 Clouds 7 1008 81 10000 1 0 03:33 30.09.2019
1058 Clouds 7 1008 81 10000 1 0 03:33 30.09.2019
1059 Clouds 4 1009 86 10000 1.99 145.736 02:45 30.09.2019
1060 Clouds 4 1008 86 10000 1 0 01:33 30.09.2019
1061 Clouds 4 1008 86 10000 1 0 00:42 30.09.2019
1062 Clouds 4 1008 86 10000 1 0 00:21 30.09.2019
1063 Clear 2 1008 73 10000 1.48 206.064 23:45 29.09.2019
1064 Clear 2 1008 73 10000 1.48 206.064 23:23 29.09.2019
1065 Clear 3 1008 86 10000 1.48 206.064 22:55 29.09.2019
1066 Clear 3 1008 86 10000 1.48 206.064 22:37 29.09.2019
1067 Clear 3 1008 86 10000 1.48 206.064 22:19 29.09.2019
1068 Clear 3 1008 93 10000 2 170 21:56 29.09.2019
1069 Clear 4 1009 93 10000 1 0 21:37 29.09.2019
1070 Clear 4 1009 93 10000 1 0 21:18 29.09.2019
1071 Clear 5 1009 86 10000 1.98 174.751 20:44 29.09.2019
1072 Clear 5 1009 86 10000 1.84 200.231 20:20 29.09.2019
1073 Clouds 6 1008 87 10000 2 140 19:58 29.09.2019
1074 Clouds 6 1008 87 10000 2 140 19:37 29.09.2019
1075 Clouds 6 1008 87 10000 2 140 19:19 29.09.2019
1076 Clouds 6 1008 87 10000 2 140 18:56 29.09.2019
1077 Clouds 6 1008 87 10000 2 140 18:56 29.09.2019
1078 Clouds 6 1008 87 10000 2 140 18:56 29.09.2019
1079 Clouds 6 1008 87 10000 2 140 18:56 29.09.2019
1080 Clouds 6 1008 87 10000 2 140 18:56 29.09.2019
1081 Clouds 5 1008 86 10000 2 170 18:38 29.09.2019
1082 Clouds 7 1008 87 10000 3 110 18:19 29.09.2019
1083 Clouds 7 1008 87 10000 3 110 17:57 29.09.2019
1084 Clouds 7 1008 87 10000 3 170 17:38 29.09.2019
1085 Clouds 7 1008 87 10000 3 170 17:19 29.09.2019
1086 Clouds 9 1008 81 10000 2 0 16:57 29.09.2019
1087 Clouds 11 1008 76 10000 2 140 16:39 29.09.2019
1088 Clouds 11 1008 76 10000 2 140 16:19 29.09.2019
1089 Rain 13 1009 66 10000 9 280 15:41 29.09.2019
1090 Rain 13 1009 66 10000 9 280 15:20 29.09.2019
1091 Rain 18 1007 36 10000 8 270 15:00 29.09.2019
1092 Clouds 16 1006 31 10000 5 220 14:40 29.09.2019
1093 Clouds 16 1006 31 10000 5 220 14:20 29.09.2019
1094 Clouds 14 1005 44 10000 3 170 13:58 29.09.2019
1095 Clouds 15 1005 44 10000 3 150 13:40 29.09.2019
1096 Clouds 15 1005 44 10000 3 150 13:19 29.09.2019
1097 Clouds 15 1005 44 10000 3 150 12:57 29.09.2019
1098 Clouds 15 1005 47 10000 2 170 12:39 29.09.2019
1099 Clouds 15 1005 47 10000 2 170 12:21 29.09.2019
1100 Clouds 19 1005 34 10000 1 0 11:57 29.09.2019
1101 Clouds 21 1005 28 10000 2 0 11:37 29.09.2019
1102 Clouds 21 1005 28 10000 2 0 11:18 29.09.2019
1103 Clouds 21 1005 28 10000 2 0 10:56 29.09.2019
1104 Clouds 21 1005 28 10000 2 0 10:56 29.09.2019
1105 Clouds 21 1006 28 10000 2 0 10:36 29.09.2019
1106 Clouds 21 1006 28 10000 2 0 10:18 29.09.2019
1107 Clouds 21 1006 28 10000 6 150 09:44 29.09.2019
1108 Clouds 21 1006 28 10000 6 150 09:20 29.09.2019
1109 Clouds 21 1006 28 10000 6 150 08:57 29.09.2019
1110 Clouds 20 1007 30 10000 5 160 08:37 29.09.2019
1111 Clouds 20 1007 30 10000 5 160 08:18 29.09.2019
1112 Clouds 20 1007 30 10000 5 160 08:18 29.09.2019
1113 Clouds 20 1007 30 10000 7 180 07:41 29.09.2019
1114 Clouds 20 1007 30 10000 7 180 07:41 29.09.2019
1115 Clouds 20 1007 30 10000 7 180 07:23 29.09.2019
1116 Clouds 20 1008 28 10000 6 160 06:42 29.09.2019
1117 Clouds 17 1010 29 10000 4 140 04:57 29.09.2019
1118 Clouds 14 1010 30 10000 2 0 04:25 29.09.2019
1119 Clouds 13 1010 30 10000 3 50 03:55 29.09.2019
1120 Clouds 9 1011 39 10000 3.05 144.973 02:40 29.09.2019
1121 Clouds 8 1011 39 10000 1 0 01:51 29.09.2019
1122 Clear 9 1011 36 10000 2 0 01:30 29.09.2019
1123 Clear 10 1011 31 10000 2 0 00:42 29.09.2019
1124 Clear 10 1011 31 10000 2 0 00:19 29.09.2019
1125 Clear 12 1011 30 10000 7 130 23:40 28.09.2019
1126 Clear 12 1011 30 10000 7 130 23:21 28.09.2019
1127 Clear 12 1011 30 10000 7 130 22:56 28.09.2019
1128 Clear 12 1011 27 10000 8 140 22:37 28.09.2019
1129 Clear 12 1011 27 10000 8 140 22:19 28.09.2019
1130 Clear 12 1012 27 10000 8 140 21:54 28.09.2019
1131 Clear 12 1012 27 10000 8 140 21:36 28.09.2019
1132 Clear 12 1012 27 10000 8 140 21:18 28.09.2019
1133 Clear 12 1012 25 10000 10 130 20:54 28.09.2019
1134 Clear 12 1013 25 10000 8 140 20:36 28.09.2019
1135 Clear 12 1013 25 10000 8 140 20:36 28.09.2019
1136 Clear 12 1013 25 10000 8 140 20:18 28.09.2019
1137 Clear 13 1013 24 10000 7 140 19:42 28.09.2019
1138 Clear 13 1013 24 10000 10 140 19:22 28.09.2019
1139 Clear 13 1013 24 10000 10 140 18:58 28.09.2019
1140 Clear 13 1013 22 10000 11 150 18:40 28.09.2019
1141 Clear 13 1013 24 10000 11 140 18:21 28.09.2019
1142 Clear 13 1013 24 10000 11 140 18:21 28.09.2019
1143 Clear 13 1013 24 10000 11 140 18:21 28.09.2019
1144 Clear 13 1013 24 10000 11 140 17:57 28.09.2019
1145 Clear 13 1013 24 10000 11 140 17:38 28.09.2019
1146 Clear 13 1013 24 10000 11 140 17:20 28.09.2019
1147 Clouds 14 1014 22 10000 10 140 16:48 28.09.2019
1148 Clouds 15 1014 22 10000 10 140 16:28 28.09.2019
1149 Clouds 15 1014 22 10000 9 150 15:57 28.09.2019
1150 Clouds 15 1014 24 10000 8 150 15:38 28.09.2019
1151 Clouds 15 1014 24 10000 8 150 15:20 28.09.2019
1152 Clouds 15 1014 24 10000 8 140 14:54 28.09.2019
1153 Clouds 15 1014 24 10000 7 140 14:36 28.09.2019
1154 Clouds 15 1014 24 10000 7 140 14:18 28.09.2019
1155 Clouds 16 1014 25 10000 7 150 13:42 28.09.2019
1156 Clouds 16 1014 25 10000 7 150 13:20 28.09.2019
1157 Clouds 15 1014 26 10000 5 150 12:55 28.09.2019
1158 Clouds 16 1014 25 10000 5 160 12:36 28.09.2019
1159 Clouds 16 1014 25 10000 5 160 12:18 28.09.2019
1160 Clouds 18 1015 20 10000 6 180 11:40 28.09.2019
1161 Clouds 18 1015 20 10000 6 180 11:20 28.09.2019
1162 Clouds 18 1015 20 10000 5 170 10:44 28.09.2019
1163 Clouds 18 1015 20 10000 5 170 10:21 28.09.2019
1164 Clouds 18 1016 22 10000 6 190 09:59 28.09.2019
1165 Clouds 18 1016 22 10000 6 160 09:40 28.09.2019
1166 Clouds 18 1016 22 10000 6 160 09:18 28.09.2019
1167 Clouds 17 1016 21 10000 6 170 08:47 28.09.2019
1168 Clear 17 1017 23 10000 5 170 08:29 28.09.2019
1169 Clear 16 1018 26 10000 5 160 07:56 28.09.2019
1170 Clear 16 1018 26 10000 5 160 07:38 28.09.2019
1171 Clouds 14 1019 40 10000 1 0 07:18 28.09.2019
1172 Clouds 12 1019 40 10000 1 0 06:37 28.09.2019
1173 Clouds 12 1019 57 10000 1 0 06:18 28.09.2019
1174 Clouds 9 1020 57 10000 1 0 05:25 28.09.2019
1175 Clouds 6 1021 57 10000 2.27 153.978 04:45 28.09.2019
1176 Clouds 6 1021 57 10000 2.27 153.978 04:26 28.09.2019
1177 Clouds 3 1021 74 10000 1 0 03:35 28.09.2019
1178 Clouds 1 1021 86 10000 1 0 02:58 28.09.2019
1179 Clouds 0 1021 81 10000 1 0 02:37 28.09.2019
1180 Clouds 0 1021 81 10000 1 0 02:18 28.09.2019
1181 Clouds -3 1021 86 10000 2 170 01:41 28.09.2019
1182 Clouds -3 1021 86 10000 2 170 01:19 28.09.2019
1183 Clear -2 1021 86 10000 1 0 00:44 28.09.2019
1184 Clear -2 1021 86 10000 1 0 00:26 28.09.2019
1185 Clear -2 1020 92 10000 3 150 23:39 27.09.2019
1186 Clear -2 1020 92 10000 3 150 23:21 27.09.2019
1187 Clear -1 1020 92 10000 3 170 22:47 27.09.2019
1188 Clear 0 1020 94 10000 3 170 22:21 27.09.2019
1189 Clear -1 1019 86 10000 2 140 21:59 27.09.2019
1190 Clear -1 1019 86 10000 2 140 21:59 27.09.2019
1191 Clear -1 1019 86 10000 2 140 21:40 27.09.2019
1192 Clear -1 1019 86 10000 2 140 21:20 27.09.2019
1193 Clear -1 1019 86 10000 2 140 21:20 27.09.2019
1194 Clear 0 1019 90 10000 2 120 20:58 27.09.2019
1195 Clear 0 1019 90 10000 2 120 20:58 27.09.2019
1196 Clear 0 1019 87 10000 2 120 20:40 27.09.2019
1197 Clear 0 1019 87 10000 2 120 20:19 27.09.2019
1198 Clear 0 1019 87 10000 2 120 20:19 27.09.2019
1199 Clear 1 1019 86 10000 2 0 19:57 27.09.2019
1200 Clear 1 1019 86 10000 2 0 19:38 27.09.2019
1201 Clear 1 1019 86 10000 2 0 19:19 27.09.2019
1202 Clear 4 1019 87 10000 3 310 18:42 27.09.2019
1203 Clear 4 1019 87 10000 3 310 18:23 27.09.2019
1204 Clear 4 1019 87 10000 3 310 17:56 27.09.2019
1205 Clear 5 1019 75 10000 3 330 17:38 27.09.2019
1206 Clear 5 1019 75 10000 3 330 17:19 27.09.2019
1207 Clear 6 1019 70 10000 4 340 16:57 27.09.2019
1208 Clear 7 1018 65 10000 6 320 16:37 27.09.2019
1209 Clear 7 1018 65 10000 6 320 16:37 27.09.2019
1210 Clear 7 1018 65 10000 6 320 16:18 27.09.2019
1211 Clear 7 1018 65 10000 6 320 16:18 27.09.2019
1212 Clear 8 1018 65 10000 5 340 15:45 27.09.2019
1213 Clear 8 1018 65 10000 6 350 15:21 27.09.2019
1214 Clear 8 1017 70 10000 7 340 14:58 27.09.2019
1215 Clear 10 1017 66 10000 5 360 14:40 27.09.2019
1216 Clear 10 1017 66 10000 5 360 14:21 27.09.2019
1217 Clouds 10 1016 71 10000 6 350 13:57 27.09.2019
1218 Clouds 10 1016 71 10000 6 350 13:39 27.09.2019
1219 Clouds 10 1016 71 10000 6 350 13:21 27.09.2019
1220 Clouds 11 1016 66 10000 6 350 12:54 27.09.2019
1221 Clouds 12 1016 62 10000 6 350 12:23 27.09.2019
1222 Clouds 13 1016 62 10000 7 330 11:58 27.09.2019
1223 Clouds 16 1015 51 10000 9 340 11:38 27.09.2019
1224 Clouds 16 1015 51 10000 9 340 11:19 27.09.2019
1225 Clouds 16 1015 51 10000 9 340 11:19 27.09.2019
1226 Clouds 18 1013 45 10000 7 350 10:43 27.09.2019
1227 Clouds 18 1013 45 10000 7 350 10:22 27.09.2019
1228 Clouds 20 1012 37 10000 8 340 09:58 27.09.2019
1229 Clouds 20 1012 37 10000 7 350 09:39 27.09.2019
1230 Clouds 20 1012 37 10000 7 350 09:19 27.09.2019
1231 Clouds 21 1011 26 10000 6 290 08:41 27.09.2019
1232 Clouds 21 1011 26 10000 6 290 08:21 27.09.2019
1233 Clouds 22 1011 19 10000 7 290 07:50 27.09.2019
1234 Clouds 22 1011 19 10000 4 260 07:29 27.09.2019
1235 Clouds 21 1011 21 10000 5 230 06:49 27.09.2019
1236 Clouds 21 1011 21 10000 5 230 06:31 27.09.2019
1237 Clouds 21 1011 19 10000 5 230 05:54 27.09.2019
1238 Clouds 21 1011 19 10000 5 230 05:54 27.09.2019
1239 Clouds 18 1012 35 10000 2.93 207.108 05:33 27.09.2019
1240 Clear 14 1012 41 10000 1 0 04:24 27.09.2019
1241 Clear 12 1012 40 10000 2.93 207.108 03:38 27.09.2019
1242 Clear 4 1012 64 10000 2.17 157.047 01:55 27.09.2019
1243 Clear 4 1012 64 10000 2.17 150.684 01:30 27.09.2019
1244 Clear 3 1012 69 10000 1 0 00:40 27.09.2019
1245 Clear 4 1012 60 10000 1.47 137.07 23:57 26.09.2019
1246 Clear 3 1012 69 10000 1.47 137.07 23:39 26.09.2019
1247 Clear 3 1012 69 10000 1.47 137.07 23:19 26.09.2019
1248 Clear 5 1012 60 10000 1.47 137.07 22:58 26.09.2019
1249 Clear 5 1012 60 10000 1.47 137.07 22:58 26.09.2019
1250 Clear 6 1012 56 10000 1 0 22:39 26.09.2019
1251 Clear 6 1012 56 10000 1 0 22:18 26.09.2019
1252 Clear 6 1012 56 10000 1 0 22:18 26.09.2019
1253 Clouds 7 1012 56 10000 1.47 137.07 21:58 26.09.2019
1254 Clouds 7 1012 56 10000 1.47 137.07 21:37 26.09.2019
1255 Clouds 7 1012 56 10000 0.94 140.977 21:19 26.09.2019
1256 Clouds 7 1012 56 10000 0.94 140.977 21:19 26.09.2019
1257 Clouds 9 1013 49 10000 0.81 132.359 20:58 26.09.2019
1258 Clouds 9 1013 49 10000 0.81 132.359 20:39 26.09.2019
1259 Clouds 9 1013 49 10000 0.81 132.359 20:21 26.09.2019
1260 Clouds 9 1013 49 10000 0.81 132.359 19:56 26.09.2019
1261 Clouds 9 1013 49 10000 0.81 132.359 19:37 26.09.2019
1262 Clouds 9 1013 49 10000 0.81 132.359 19:18 26.09.2019
1263 Clouds 9 1014 49 10000 1 0 18:42 26.09.2019
1264 Clouds 9 1014 49 10000 1 0 18:22 26.09.2019
1265 Clouds 9 1014 49 10000 1 0 17:59 26.09.2019
1266 Clouds 11 1014 40 10000 1 0 17:37 26.09.2019
1267 Clouds 11 1014 40 10000 1 0 17:19 26.09.2019
1268 Clouds 12 1014 37 10000 1 0 16:55 26.09.2019
1269 Clouds 11 1014 40 10000 2 0 16:37 26.09.2019
1270 Clouds 11 1014 40 10000 2 0 16:18 26.09.2019
1271 Clouds 17 1014 25 10000 1 0 15:41 26.09.2019
1272 Clouds 17 1014 25 10000 1 0 15:23 26.09.2019
1273 Clouds 17 1014 23 10000 5 160 14:58 26.09.2019
1274 Clouds 16 1014 26 10000 4 160 14:40 26.09.2019
1275 Clouds 16 1014 26 10000 4 160 14:21 26.09.2019
1276 Clouds 15 1014 28 10000 4 170 13:57 26.09.2019
1277 Clouds 15 1014 28 10000 4 170 13:39 26.09.2019
1278 Clouds 16 1014 29 10000 4 170 13:19 26.09.2019
1279 Clouds 19 1014 25 10000 3 190 12:41 26.09.2019
1280 Clouds 19 1014 25 10000 3 190 12:22 26.09.2019
1281 Clouds 23 1014 17 10000 3 210 11:57 26.09.2019
1282 Clouds 25 1014 14 10000 4 230 11:38 26.09.2019
1283 Clouds 25 1014 14 10000 4 230 11:19 26.09.2019
1284 Clouds 26 1015 13 10000 5 240 10:42 26.09.2019
1285 Clouds 26 1015 13 10000 5 240 10:23 26.09.2019
1286 Clouds 26 1015 15 10000 5 240 09:57 26.09.2019
1287 Clear 26 1015 14 10000 4 240 09:39 26.09.2019
1288 Clear 26 1015 14 10000 4 240 09:18 26.09.2019
1289 Clear 25 1015 17 10000 5 240 08:48 26.09.2019
1290 Clear 25 1016 16 10000 5 230 08:30 26.09.2019
1291 Clear 25 1016 15 10000 6 220 07:47 26.09.2019
1292 Clear 25 1016 15 10000 6 220 07:22 26.09.2019
1293 Clear 24 1017 26 10000 4 270 06:52 26.09.2019
1294 Clear 24 1017 26 10000 4 270 06:28 26.09.2019
1295 Clear 22 1017 32 10000 1 0 05:52 26.09.2019
1296 Clear 18 1018 31 10000 1 0 05:29 26.09.2019
1297 Clear 9 1019 57 10000 1 0 03:33 26.09.2019
1298 Clear 4 1018 45 10000 1 0 02:19 26.09.2019
1299 Clear 2 1019 80 10000 2.49 149.028 01:40 26.09.2019
1300 Clear 2 1019 80 10000 2.33 147.74 01:22 26.09.2019
1301 Clear 1 1018 86 10000 1 0 00:45 26.09.2019
1302 Clear 1 1018 86 10000 1 0 00:25 26.09.2019
1303 Clear 3 1018 74 10000 1 0 23:43 25.09.2019
1304 Clear 3 1018 74 10000 1 0 23:19 25.09.2019
1305 Clear 2 1018 80 10000 1 0 22:55 25.09.2019
1306 Clear 2 1018 80 10000 1 0 22:55 25.09.2019
1307 Clear 2 1018 80 10000 1 0 22:55 25.09.2019
1308 Clear 5 1018 52 10000 2.15 150.265 22:36 25.09.2019
1309 Clear 5 1018 52 10000 2.15 150.265 22:18 25.09.2019
1310 Clear 5 1018 52 10000 1 0 21:55 25.09.2019
1311 Clear 5 1018 52 10000 2.15 150.265 21:36 25.09.2019
1312 Clear 5 1018 55 10000 1.51 141.18 21:18 25.09.2019
1313 Clear 6 1019 55 10000 1.51 141.18 20:55 25.09.2019
1314 Clear 6 1019 54 10000 1.37 144.806 20:37 25.09.2019
1315 Clear 6 1019 54 10000 1.37 144.806 20:18 25.09.2019
1316 Clear 6 1019 54 10000 1 0 19:39 25.09.2019
1317 Clear 6 1019 54 10000 1 0 19:20 25.09.2019
1318 Clear 6 1019 54 10000 1 0 18:56 25.09.2019
1319 Clear 6 1019 54 10000 1 0 18:37 25.09.2019
1320 Clear 6 1019 55 10000 1 0 18:18 25.09.2019
1321 Clear 8 1019 55 10000 1 0 17:40 25.09.2019
1322 Clear 8 1019 55 10000 1 0 17:21 25.09.2019
1323 Clouds 8 1019 55 10000 1 0 16:57 25.09.2019
1324 Clouds 8 1019 55 10000 1 0 16:57 25.09.2019
1325 Clouds 9 1019 55 10000 2 180 16:37 25.09.2019
1326 Clouds 9 1019 55 10000 2 180 16:19 25.09.2019
1327 Clouds 12 1019 46 10000 1 0 15:42 25.09.2019
1328 Clouds 12 1019 46 10000 1 0 15:23 25.09.2019
1329 Clouds 18 1019 51 10000 1 0 15:00 25.09.2019
1330 Clouds 17 1019 29 10000 2 150 14:41 25.09.2019
1331 Clouds 17 1019 29 10000 2 150 14:22 25.09.2019
1332 Clouds 14 1019 41 10000 3 180 13:56 25.09.2019
1333 Clouds 14 1019 41 10000 3 180 13:38 25.09.2019
1334 Clouds 14 1019 41 10000 3 180 13:19 25.09.2019
1335 Clouds 18 1018 36 10000 2 160 12:42 25.09.2019
1336 Clouds 18 1018 36 10000 2 160 12:24 25.09.2019
1337 Clouds 21 1018 28 10000 2 170 11:59 25.09.2019
1338 Clouds 21 1018 28 10000 2 170 11:59 25.09.2019
1339 Clouds 23 1018 42 10000 2 210 11:40 25.09.2019
1340 Clouds 23 1018 42 10000 2 210 11:40 25.09.2019
1341 Clouds 23 1018 42 10000 2 210 11:19 25.09.2019
1342 Clouds 23 1018 42 10000 2 210 11:19 25.09.2019
1343 Clouds 23 1018 18 10000 2 230 10:45 25.09.2019
1344 Clouds 23 1018 18 10000 2 230 10:26 25.09.2019
1345 Clouds 23 1019 20 10000 2 230 09:58 25.09.2019
1346 Clouds 23 1019 18 10000 3 230 09:38 25.09.2019
1347 Clouds 23 1019 18 10000 3 230 09:20 25.09.2019
1348 Clouds 23 1019 17 10000 4 230 08:45 25.09.2019
1349 Clouds 23 1019 17 10000 4 230 08:22 25.09.2019
1350 Clouds 22 1019 17 10000 3 240 07:59 25.09.2019
1351 Clouds 22 1019 17 10000 3 240 07:39 25.09.2019
1352 Clear 22 1019 18 10000 3 260 07:21 25.09.2019
1353 Clear 21 1020 31 10000 1 0 06:45 25.09.2019
1354 Clear 21 1020 35 10000 1 0 06:22 25.09.2019
1355 Clear 16 1021 31 10000 1 0 05:35 25.09.2019
1356 Clear 14 1021 33 10000 1.63 162.656 04:55 25.09.2019
1357 Clear 5 1021 51 10000 0.98 138.366 02:31 25.09.2019
1358 Clear 2 1020 74 10000 1 0 00:46 25.09.2019
1359 Clear 2 1020 74 10000 1 0 00:27 25.09.2019
1360 Clear 3 1020 69 10000 0.46 129.677 23:59 24.09.2019
1361 Clear 2 1020 74 10000 1 0 23:40 24.09.2019
1362 Clear 2 1020 74 10000 1 0 23:21 24.09.2019
1363 Clear 2 1020 74 10000 1 0 22:39 24.09.2019
1364 Clear 2 1020 74 10000 1 0 22:21 24.09.2019
1365 Clear 3 1020 69 10000 0.38 165.482 21:58 24.09.2019
1366 Clear 3 1020 69 10000 0.38 165.482 21:58 24.09.2019
1367 Clear 3 1020 69 10000 0.38 165.482 21:58 24.09.2019
1368 Clear 3 1020 69 10000 1 0 21:38 24.09.2019
1369 Clear 3 1020 69 10000 1 0 21:19 24.09.2019
1370 Clear 3 1021 74 10000 1 0 20:58 24.09.2019
1371 Clear 3 1021 69 10000 1 0 20:40 24.09.2019
1372 Clear 3 1021 69 10000 1 0 20:22 24.09.2019
1373 Clear 3 1021 69 10000 1 0 19:59 24.09.2019
1374 Clear 4 1021 64 10000 0.31 157.352 19:41 24.09.2019
1375 Clear 5 1021 65 10000 0.31 157.352 19:18 24.09.2019
1376 Clear 5 1021 65 10000 0.31 157.352 18:55 24.09.2019
1377 Clear 5 1021 65 10000 0.31 157.352 18:55 24.09.2019
1378 -273 0 0 0 0 0 18:36 24.09.2019
1379 Clear 6 1021 60 10000 1 0 18:18 24.09.2019
1380 Clear 7 1021 45 10000 1.11 182.42 17:54 24.09.2019
1381 Clear 7 1021 45 10000 1.11 182.42 17:36 24.09.2019
1382 Clear 7 1021 45 10000 1.11 182.42 17:18 24.09.2019
1383 Clear 10 1021 46 10000 1.11 182.42 16:41 24.09.2019
1384 Clear 10 1021 46 10000 1.11 182.42 16:20 24.09.2019
1385 Clear 11 1021 43 10000 2 270 15:57 24.09.2019
1386 Clear 15 1021 28 10000 1 0 15:37 24.09.2019
1387 Clear 15 1021 28 10000 1 0 15:19 24.09.2019
1388 Clear 14 1021 30 10000 4 170 14:37 24.09.2019
1389 Clear 14 1021 30 10000 4 170 14:18 24.09.2019
1390 Clear 14 1021 30 10000 4 170 14:18 24.09.2019
1391 Clouds 16 1020 31 10000 4 160 13:41 24.09.2019
1392 Clouds 16 1020 31 10000 4 160 13:21 24.09.2019
1393 Clouds 16 1020 31 10000 4 160 13:21 24.09.2019
1394 Clouds 20 1020 48 10000 3 210 12:42 24.09.2019
1395 Clouds 20 1020 38 10000 3 210 12:21 24.09.2019
1396 Clouds 23 1020 20 10000 4 220 11:57 24.09.2019
1397 Clouds 25 1020 16 10000 4 230 11:39 24.09.2019
1398 Clouds 25 1020 16 10000 4 230 11:21 24.09.2019
1399 Clouds 25 1021 16 10000 6 240 10:40 24.09.2019
1400 Clouds 25 1021 16 10000 6 240 10:21 24.09.2019
1401 Clouds 25 1021 17 10000 6 230 09:58 24.09.2019
1402 Clouds 25 1021 17 10000 4 230 09:40 24.09.2019
1403 Clouds 25 1021 17 10000 4 230 09:19 24.09.2019
1404 Clouds 24 1022 19 10000 3 230 08:55 24.09.2019
1405 Clouds 24 1022 19 10000 3 230 08:55 24.09.2019
1406 Clear 24 1022 19 10000 4 240 08:37 24.09.2019
1407 Clear 24 1022 19 10000 4 240 08:18 24.09.2019
1408 Clear 24 1022 17 10000 4 230 07:42 24.09.2019
1409 Clear 24 1022 17 10000 4 230 07:42 24.09.2019
1410 Clear 23 1023 29 10000 2 0 07:23 24.09.2019
1411 Clear 21 1023 30 10000 2 0 06:47 24.09.2019
1412 Clear 21 1023 30 10000 2 0 06:27 24.09.2019
1413 Clear 17 1024 36 10000 1 0 05:26 24.09.2019
1414 Clear 14 1025 41 10000 1 0 04:58 24.09.2019
1415 Clear 9 1026 36 10000 1 0 03:42 24.09.2019
1416 Clear 6 1025 70 10000 1 0 02:45 24.09.2019
1417 Clear 0 1025 53 10000 1 0 01:44 24.09.2019
1418 Clear 2 1025 80 10000 1 260 00:42 24.09.2019
1419 Clear 2 1025 80 10000 1 260 00:23 24.09.2019
1420 Clear 3 1026 74 10000 2.96 162.251 23:44 23.09.2019
1421 Clear 3 1026 74 10000 2.96 162.251 23:24 23.09.2019
1422 Clear 1 1026 86 10000 1 0 22:57 23.09.2019
1423 Clear 2 1026 80 10000 2.96 162.251 22:38 23.09.2019
1424 Clear 2 1026 80 10000 2.96 162.251 22:20 23.09.2019
1425 Clear 2 1026 80 10000 2.96 162.251 21:56 23.09.2019
1426 Clear 2 1026 80 10000 1 0 21:37 23.09.2019
1427 Clear 2 1026 80 10000 1 0 21:18 23.09.2019
1428 Clear 2 1026 80 10000 1 0 20:41 23.09.2019
1429 Clear 3 1027 74 10000 1 0 20:20 23.09.2019
1430 Clear 3 1027 74 10000 1 0 19:56 23.09.2019
1431 Clear 3 1027 74 10000 1 0 19:38 23.09.2019
1432 Clear 4 1027 55 10000 2.29 154.229 19:20 23.09.2019
1433 Clear 3 1027 55 10000 1 0 18:42 23.09.2019
1434 Clear 3 1027 56 10000 1 0 18:21 23.09.2019
1435 Clear 5 1027 56 10000 1.79 149.305 17:59 23.09.2019
1436 Clear 7 1027 56 10000 1.79 149.305 17:39 23.09.2019
1437 Clear 7 1027 56 10000 1.79 149.305 17:21 23.09.2019
1438 Clear 7 1027 56 10000 1.79 149.305 16:58 23.09.2019
1439 Clear 6 1027 56 10000 1 0 16:37 23.09.2019
1440 Clear 9 1027 56 10000 1.79 149.305 16:19 23.09.2019
1441 Clear 9 1027 56 10000 1.79 149.305 15:57 23.09.2019
1442 Clear 9 1027 49 10000 1.79 149.305 15:39 23.09.2019
1443 Clear 9 1027 49 10000 1 190.418 15:19 23.09.2019
1444 Clear 11 1027 43 10000 2 0 14:40 23.09.2019
1445 Clear 11 1027 43 10000 2 0 14:21 23.09.2019
1446 Clear 12 1026 46 10000 4 160 13:59 23.09.2019
1447 Clear 11 1026 50 10000 4 150 13:39 23.09.2019
1448 Clear 14 1026 47 10000 3 170 13:19 23.09.2019
1449 Clear 14 1026 47 10000 3 170 12:56 23.09.2019
1450 Clear 20 1026 32 10000 1 230 12:37 23.09.2019
1451 Clear 23 1026 20 10000 1 0 12:19 23.09.2019
1452 Clear 24 1026 16 10000 2 0 11:44 23.09.2019
1453 Clear 24 1026 16 10000 2 0 11:26 23.09.2019
1454 Clear 25 1026 15 10000 1 0 10:55 23.09.2019
1455 Clear 24 1026 19 10000 2 0 10:37 23.09.2019
1456 Clear 24 1026 19 10000 2 0 10:19 23.09.2019
1457 Clear 24 1026 19 10000 1 0 09:40 23.09.2019
1458 Clear 24 1026 19 10000 1 0 09:21 23.09.2019
1459 Clear 24 1027 17 10000 2 0 08:51 23.09.2019
1460 Clear 23 1027 18 10000 3 270 08:33 23.09.2019
1461 Clear 22 1028 28 10000 1 0 07:59 23.09.2019
1462 Clear 22 1028 28 10000 1 0 07:33 23.09.2019
1463 Clear 20 1029 32 10000 1 0 06:50 23.09.2019
1464 Clear 19 1029 29 10000 1 0 06:19 23.09.2019
1465 Clear 15 1029 41 10000 1 0 05:22 23.09.2019
1466 Clear 14 1030 41 10000 1 0 04:55 23.09.2019
1467 Clear 10 1030 57 10000 1 0 03:56 23.09.2019
1468 Clear 10 1030 57 10000 1 0 03:56 23.09.2019
1469 Clear 2 1029 80 10000 0.28 124.477 01:25 23.09.2019
1470 Clear 1 1029 86 10000 1 0 00:24 23.09.2019
1471 Clear 0 1028 91 10000 1.72 17.95 23:57 22.09.2019
1472 Clear 2 1028 80 10000 1 0 23:33 22.09.2019
1473 Clear 2 1028 80 10000 1 0 23:33 22.09.2019
1474 Clear 2 1028 80 10000 1 0 22:59 22.09.2019
1475 Clear 4 1028 91 10000 1 0 22:41 22.09.2019
1476 Clear 4 1028 91 10000 1 0 22:41 22.09.2019
1477 Clear 4 1028 91 10000 1 0 22:23 22.09.2019
1478 Clear 2 1027 91 10000 2 180 21:59 22.09.2019
1479 Clear 3 1027 91 10000 1 0 21:39 22.09.2019
1480 Clear 3 1027 89 10000 1 0 21:19 22.09.2019
1481 Clear 3 1027 89 10000 1 0 20:43 22.09.2019
1482 Clear 3 1027 91 10000 1 0 20:24 22.09.2019
1483 Clear 3 1027 91 10000 2 0 19:56 22.09.2019
1484 Clear 5 1027 75 10000 1 0 19:38 22.09.2019
1485 Clear 4 1027 91 10000 1 0 19:19 22.09.2019
1486 Clear 4 1027 91 10000 1 0 18:56 22.09.2019
1487 Clear 4 1027 91 10000 1 0 18:56 22.09.2019
1488 Clear 6 1027 91 10000 1 0 18:36 22.09.2019
1489 Clear 6 1027 91 10000 1 0 18:36 22.09.2019
1490 Clear 7 1027 65 10000 2 0 18:18 22.09.2019
1491 Clear 7 1027 85 10000 1 0 17:42 22.09.2019
1492 Clear 7 1027 85 10000 1 0 17:24 22.09.2019
1493 Clear 8 1026 65 10000 3 160 16:46 22.09.2019
1494 Clear 8 1026 65 10000 3 160 16:27 22.09.2019
1495 Clear 8 1026 65 10000 3 160 16:27 22.09.2019
1496 Clear 10 1026 53 10000 2 150 15:58 22.09.2019
1497 Clear 10 1026 53 10000 2 150 15:40 22.09.2019
1498 Clear 10 1026 53 10000 2 150 15:22 22.09.2019
1499 Clear 9 1026 61 10000 2 170 14:47 22.09.2019
1500 Clouds 11 1025 53 10000 2 170 14:27 22.09.2019
1501 Clouds 11 1025 53 10000 2 170 13:59 22.09.2019
1502 Clouds 12 1025 50 10000 1 0 13:41 22.09.2019
1503 Clouds 12 1025 50 10000 1 0 13:41 22.09.2019
1504 Clouds 12 1025 50 10000 1 0 13:22 22.09.2019
1505 Clouds 17 1025 33 10000 2.32 344.038 12:56 22.09.2019
1506 Clouds 17 1025 33 10000 2.32 344.038 12:56 22.09.2019
1507 Clouds 20 1024 30 0 1 290 12:37 22.09.2019
1508 Clouds 21 1024 26 10000 3 250 12:18 22.09.2019
1509 Clouds 22 1024 48 10000 4 330 11:42 22.09.2019
1510 Clouds 22 1024 48 10000 4 330 11:24 22.09.2019
1511 Clouds 22 1023 19 10000 4 340 10:55 22.09.2019
1512 Clouds 22 1023 19 10000 4 340 10:55 22.09.2019
1513 Clouds 22 1023 19 10000 4 340 10:37 22.09.2019
1514 Clouds 22 1023 19 10000 4 340 10:18 22.09.2019
1515 Clouds 25 1023 16 10000 2 0 09:42 22.09.2019
1516 Clouds 25 1023 16 10000 2 0 09:42 22.09.2019
1517 Clouds 25 1023 16 10000 2 0 09:21 22.09.2019
1518 Clouds 25 1024 16 10000 1 0 08:48 22.09.2019
1519 Clouds 24 1024 17 10000 1 0 08:26 22.09.2019
1520 Clouds 24 1024 17 10000 1 0 07:57 22.09.2019
1521 Clouds 23 1024 20 10000 1 0 07:39 22.09.2019
1522 Clouds 22 1025 24 10000 1 0 07:20 22.09.2019
1523 Clouds 22 1025 24 10000 1 0 06:55 22.09.2019
1524 Clear 15 1025 38 10000 1 0 05:36 22.09.2019
1525 Clear 10 1026 53 10000 0.28 136 03:49 22.09.2019
1526 Clear 4 1025 80 10000 0.76 125.468 02:38 22.09.2019
1527 Clear 4 1025 80 10000 0.76 125.468 02:20 22.09.2019
1528 Clear 2 1025 80 10000 1 0 01:23 22.09.2019
1529 Clear 0 1025 56 10000 1 0 00:37 22.09.2019
1530 Clear 2 1024 80 10000 1 121.92 00:18 22.09.2019
1531 Clear 2 1024 80 10000 1 121.92 00:18 22.09.2019
1532 Clear 0 1024 53 10000 1 0 23:41 21.09.2019
1533 Clear 0 1024 53 10000 1 0 23:22 21.09.2019
1534 Clear 2 1024 53 10000 1 0 22:39 21.09.2019
1535 Clear 2 1024 53 10000 1 0 22:21 21.09.2019
1536 Clear 3 1024 74 10000 1 121.92 21:55 21.09.2019
1537 Clear 3 1024 74 10000 1 121.92 21:37 21.09.2019
1538 Clear 3 1024 74 10000 1.32 138.11 21:18 21.09.2019
1539 Clear 3 1024 53 10000 1 0 20:39 21.09.2019
1540 Clear 3 1024 53 10000 1 0 20:39 21.09.2019
1541 Clear 3 1024 53 10000 1 0 20:21 21.09.2019
1542 Clear 3 1024 53 10000 1 0 19:48 21.09.2019
1543 Clear 3 1024 53 10000 1.34 144.572 19:24 21.09.2019
1544 Clear 4 1024 53 10000 1 0 18:55 21.09.2019
1545 Clear 4 1024 53 10000 1 0 18:55 21.09.2019
1546 Clear 5 1024 75 10000 1.34 144.572 18:37 21.09.2019
1547 Clear 5 1024 75 10000 1.34 144.572 18:37 21.09.2019
1548 Clear 6 1024 70 10000 1 0 18:18 21.09.2019
1549 Clear 5 1024 75 10000 1 0 17:40 21.09.2019
1550 Clear 5 1024 75 10000 1 0 17:21 21.09.2019
1551 Clear 7 1024 65 10000 1 0 16:44 21.09.2019
1552 Clear 7 1024 65 10000 1 0 16:24 21.09.2019
1553 Clear 7 1024 65 10000 1 0 16:24 21.09.2019
1554 Clear 8 1023 61 10000 1 0 15:56 21.09.2019
1555 Clear 8 1023 61 10000 1 0 15:56 21.09.2019
1556 Clear 8 1023 61 10000 1 0 15:38 21.09.2019
1557 Clear 8 1023 61 10000 1 0 15:19 21.09.2019
1558 Clear 12 1023 46 10000 1 0 14:43 21.09.2019
1559 Clear 12 1023 46 10000 1 0 14:43 21.09.2019
1560 Clear 12 1023 46 10000 1 0 14:24 21.09.2019
1561 Clear 12 1022 54 10000 3 150 13:42 21.09.2019
1562 Clear 12 1022 54 10000 3 150 13:23 21.09.2019
1563 Clear 14 1022 54 10000 2 170 12:57 21.09.2019
1564 Clear 22 1022 52 10000 1 0 12:38 21.09.2019
1565 Clouds 22 1022 42 10000 1 0 12:20 21.09.2019
1566 Clouds 22 1022 42 10000 1 0 11:50 21.09.2019
1567 Clouds 24 1022 42 10000 1 0 11:25 21.09.2019
1568 Clouds 23 1022 20 10000 2 0 10:56 21.09.2019
1569 Clouds 24 1022 16 10000 1 0 10:37 21.09.2019
1570 Clouds 24 1022 16 10000 1 0 10:19 21.09.2019
1571 Clouds 23 1023 20 10000 3 190 09:40 21.09.2019
1572 Clouds 23 1023 20 10000 3 190 09:21 21.09.2019
1573 Clear 22 1023 37 10000 2 0 08:59 21.09.2019
1574 Clear 22 1023 38 10000 2 0 08:40 21.09.2019
1575 Clear 22 1023 38 10000 2 0 07:55 21.09.2019
1576 Clear 22 1023 38 10000 2 0 07:55 21.09.2019
1577 Clear 22 1023 38 10000 2 0 07:55 21.09.2019
1578 Clear 21 1023 30 10000 2 0 07:37 21.09.2019
1579 Clear 20 1023 30 10000 1 0 07:18 21.09.2019
1580 Clear 19 1024 32 10000 1 0 06:35 21.09.2019
1581 Clear 17 1024 36 10000 1 0 05:51 21.09.2019
1582 Clear 13 1025 47 10000 1 0 04:39 21.09.2019
1583 Clear 13 1025 47 10000 1 0 04:39 21.09.2019
1584 Clear 7 1025 70 10000 1 0 03:25 21.09.2019
1585 Clear 1 1025 68 10000 1 0 02:23 21.09.2019
1586 Clear -1 1025 92 10000 1.47 121.608 01:47 21.09.2019
1587 Clear -1 1025 92 10000 1.47 121.608 01:21 21.09.2019
1588 Clear 0 1025 75 10000 1 0 00:23 21.09.2019
1589 Clear 0 1025 75 10000 1.57 127.817 23:48 20.09.2019
1590 Clear 0 1025 75 10000 1.57 127.817 23:48 20.09.2019
1591 Clear 0 1025 75 10000 1.57 127.817 23:30 20.09.2019
1592 Clear 1 1025 86 10000 1.57 127.817 22:46 20.09.2019
1593 Clear 1 1025 86 10000 1.57 127.817 22:26 20.09.2019
1594 Clear 0 1025 75 10000 1.57 127.817 21:58 20.09.2019
1595 Clear 0 1025 75 10000 1 0 21:39 20.09.2019
1596 Clear 0 1025 75 10000 1 0 21:21 20.09.2019
1597 Clear 0 1025 75 10000 1 0 21:21 20.09.2019
1598 Clear 1 1025 86 10000 1.45 134.215 20:59 20.09.2019
1599 Clear 1 1025 86 10000 1.44 137.365 20:41 20.09.2019
1600 Clear 1 1025 86 10000 1.44 137.365 20:20 20.09.2019
1601 Clear 2 1025 74 10000 1 0 19:56 20.09.2019
1602 Clear 1 1025 86 10000 1 0 19:36 20.09.2019
1603 Clear 4 1025 80 10000 1.44 137.365 19:18 20.09.2019
1604 Clear 4 1025 80 10000 1 0 18:39 20.09.2019
1605 Clear 4 1025 75 10000 0.98 137.35 18:20 20.09.2019
1606 Clear 4 1025 75 10000 2 170 17:47 20.09.2019
1607 Clear 4 1025 75 10000 2 170 17:27 20.09.2019
1608 Clear 5 1025 75 10000 1 0 16:59 20.09.2019
1609 Clear 5 1025 75 10000 1 0 16:37 20.09.2019
1610 Clear 5 1025 75 10000 1 0 16:19 20.09.2019
1611 Clear 10 1025 53 10000 2 150 15:42 20.09.2019
1612 Clear 10 1025 53 10000 2 150 15:23 20.09.2019
1613 Clear 9 1024 61 10000 4 170 14:55 20.09.2019
1614 Clear 9 1024 61 10000 4 170 14:36 20.09.2019
1615 Clear 9 1024 61 10000 4 170 14:36 20.09.2019
1616 Clear 13 1024 50 10000 2 240 14:18 20.09.2019
1617 Clear 13 1024 50 10000 2 240 14:18 20.09.2019
1618 Clear 13 1024 50 10000 2 240 13:41 20.09.2019
1619 Clear 13 1024 50 10000 2 240 13:22 20.09.2019
1620 Clouds 17 1024 39 10000 2 220 12:42 20.09.2019
1621 Clouds 17 1024 39 10000 2 220 12:23 20.09.2019
1622 Clouds 18 1024 34 10000 4 230 11:52 20.09.2019
1623 Clouds 18 1024 34 10000 2 0 11:27 20.09.2019
1624 Clouds 18 1024 34 10000 2 0 10:59 20.09.2019
1625 Clouds 19 1024 32 10000 5 230 10:41 20.09.2019
1626 Clouds 19 1024 32 10000 5 230 10:22 20.09.2019
1627 Clouds 19 1024 32 10000 5 230 10:22 20.09.2019
1628 Clouds 19 1024 47 10000 3 250 09:38 20.09.2019
1629 Clouds 19 1024 44 10000 3 250 09:19 20.09.2019
1630 Clouds 19 1024 44 10000 3 250 08:48 20.09.2019
1631 Clouds 19 1025 44 10000 4 220 08:29 20.09.2019
1632 Clouds 18 1025 44 10000 3 230 07:59 20.09.2019
1633 Clouds 18 1025 31 10000 2 0 07:40 20.09.2019
1634 Clouds 17 1026 36 10000 2 0 07:22 20.09.2019
1635 Clouds 16 1026 41 10000 1 0 06:42 20.09.2019
1636 Clouds 16 1026 41 10000 1 0 06:42 20.09.2019
1637 Clouds 14 1026 50 10000 1 0 06:18 20.09.2019
1638 Clouds 9 1027 61 10000 2 0 04:32 20.09.2019
1639 Clouds 6 1027 70 10000 1 0 03:27 20.09.2019
1640 Clouds 5 1027 75 10000 1 0 02:22 20.09.2019
1641 Clouds 1 1026 86 10000 0.95 23.581 01:43 20.09.2019
1642 Clouds 1 1026 86 10000 0.95 23.581 01:43 20.09.2019
1643 Clear -1 1026 86 10000 1 0 00:43 20.09.2019
1644 Clear 0 1025 89 10000 1 0 23:50 19.09.2019
1645 Clear 0 1025 89 10000 1 0 23:29 19.09.2019
1646 Clear 0 1025 89 10000 1 0 22:59 19.09.2019
1647 Clear 0 1025 89 10000 1 0 22:40 19.09.2019
1648 Clear 0 1025 89 10000 1 0 22:22 19.09.2019
1649 Clear 2 1025 80 10000 2 170 21:57 19.09.2019
1650 Clear 3 1025 74 10000 2 140 21:39 19.09.2019
1651 Clear 3 1025 74 10000 2 140 21:39 19.09.2019
1652 Clear 3 1025 74 10000 2 140 21:19 19.09.2019
1653 Clear 3 1025 74 10000 2 140 20:57 19.09.2019
1654 Clear 3 1025 74 10000 2 140 20:57 19.09.2019
1655 Clear 2 1024 80 10000 2 0 20:38 19.09.2019
1656 Clear 2 1024 80 10000 2 0 20:19 19.09.2019
1657 Clear 4 1024 85 10000 2 150 19:40 19.09.2019
1658 Clear 4 1024 85 10000 2 150 19:22 19.09.2019
1659 Clear 3 1024 74 10000 2 170 18:59 19.09.2019
1660 Clear 3 1024 74 10000 2 170 18:41 19.09.2019
1661 Clear 3 1024 83 10000 3 170 18:21 19.09.2019
1662 Clear 3 1024 83 10000 2 170 17:43 19.09.2019
1663 Clear 3 1024 83 10000 2 170 17:24 19.09.2019
1664 Clear 4 1024 83 10000 2 0 16:59 19.09.2019
1665 Clear 4 1024 83 10000 2 0 16:40 19.09.2019
1666 Clear 4 1024 83 10000 2 0 16:20 19.09.2019
1667 Clear 6 1023 70 10000 1 0 15:40 19.09.2019
1668 Clear 6 1023 70 10000 1 0 15:21 19.09.2019
1669 Clear 6 1023 70 10000 1 0 14:58 19.09.2019
1670 Clear 8 1023 61 10000 2.15 356.693 14:38 19.09.2019
1671 Clear 8 1023 61 10000 2.15 356.693 14:20 19.09.2019
1672 Clear 15 1022 75 10000 3 360 13:40 19.09.2019
1673 Clear 15 1022 74 10000 3 360 13:21 19.09.2019
1674 Clouds 16 1021 74 10000 3 350 12:58 19.09.2019
1675 Clouds 17 1021 74 10000 4 340 12:36 19.09.2019
1676 Clouds 18 1021 53 10000 5 320 12:18 19.09.2019
1677 Clouds 19 1021 53 10000 6 320 11:41 19.09.2019
1678 Clouds 19 1021 53 10000 6 320 11:21 19.09.2019
1679 Clouds 20 1020 24 10000 4 300 10:58 19.09.2019
1680 Clouds 20 1021 53 10000 4 330 10:38 19.09.2019
1681 Clouds 20 1021 53 10000 4 330 10:20 19.09.2019
1682 Clouds 19 1021 29 10000 5 350 09:55 19.09.2019
1683 Clouds 19 1021 29 10000 5 350 09:55 19.09.2019
1684 Clouds 19 1021 29 10000 5 350 09:55 19.09.2019
1685 -273 0 0 0 0 0 09:55 19.09.2019
1686 Clouds 19 1021 25 10000 4 350 09:36 19.09.2019
1687 Clouds 19 1021 25 10000 4 350 09:36 19.09.2019
1688 Clouds 19 1021 25 10000 4 350 09:18 19.09.2019
1689 Clouds 20 1021 24 10000 2 0 08:41 19.09.2019
1690 Clouds 20 1021 24 10000 2 0 08:22 19.09.2019
1691 Clouds 19 1021 25 10000 3 230 07:43 19.09.2019
1692 Clouds 19 1021 25 10000 3 230 07:43 19.09.2019
1693 Clouds 19 1022 43 10000 1 0 07:22 19.09.2019
1694 Clouds 18 1022 43 10000 2 0 06:48 19.09.2019
1695 Clouds 18 1022 43 10000 2 0 06:28 19.09.2019
1696 Clouds 17 1022 39 10000 1 0 05:52 19.09.2019
1697 Clouds 16 1023 38 10000 1 0 05:31 19.09.2019
1698 Clear 9 1023 57 10000 1 0 03:54 19.09.2019
1699 Clear 8 1023 61 10000 0.8 11.535 02:47 19.09.2019
1700 Clear 1 1022 86 10000 1 0 01:32 19.09.2019
1701 Clear -1 1022 86 10000 0.77 11.484 00:50 19.09.2019
1702 Clear -1 1022 86 10000 0.77 11.484 00:26 19.09.2019
1703 Clear 1 1022 80 10000 1.81 10.092 23:42 18.09.2019
1704 Clear 1 1022 80 10000 1.81 10.092 23:22 18.09.2019
1705 Clouds 2 1022 80 10000 1 0 22:55 18.09.2019
1706 Clouds 2 1022 80 10000 1 0 22:37 18.09.2019
1707 Clouds 2 1022 80 10000 1 0 22:18 18.09.2019
1708 Clouds 3 1022 74 10000 1 0 21:55 18.09.2019
1709 Clouds 4 1021 88 10000 1 0 21:37 18.09.2019
1710 Clouds 4 1021 81 10000 1 0 21:18 18.09.2019
1711 Clouds 5 1021 69 10000 1 0 20:55 18.09.2019
1712 Clouds 5 1021 69 10000 1 0 20:55 18.09.2019
1713 Clouds 5 1021 69 10000 1 0 20:37 18.09.2019
1714 Clouds 5 1021 69 10000 1 0 20:18 18.09.2019
1715 Clouds 5 1021 69 10000 2 150 19:41 18.09.2019
1716 Clouds 5 1021 69 10000 2 150 19:20 18.09.2019
1717 Clouds 6 1021 69 10000 1 0 18:57 18.09.2019
1718 Clouds 6 1021 69 10000 1 0 18:38 18.09.2019
1719 Clouds 6 1021 65 10000 1 0 18:19 18.09.2019
1720 Clouds 6 1021 65 10000 1 0 17:59 18.09.2019
1721 Clouds 6 1021 65 10000 1 0 17:40 18.09.2019
1722 Clouds 6 1021 65 10000 1 0 17:19 18.09.2019
1723 Clouds 8 1021 65 10000 1 0 16:57 18.09.2019
1724 Clouds 8 1021 65 10000 1 0 16:38 18.09.2019
1725 Clouds 8 1021 65 10000 1 0 16:20 18.09.2019
1726 Clouds 8 1021 65 10000 1 0 15:56 18.09.2019
1727 Clouds 8 1021 65 10000 1 0 15:56 18.09.2019
1728 Clouds 9 1020 57 10000 3 170 15:38 18.09.2019
1729 Clouds 9 1020 57 10000 3 170 15:19 18.09.2019
1730 Clouds 11 1020 53 10000 2 0 14:58 18.09.2019
1731 Clouds 11 1020 53 10000 2 0 14:39 18.09.2019
1732 Clouds 11 1020 53 10000 2 0 14:21 18.09.2019
1733 Clouds 11 1020 53 10000 3 160 13:54 18.09.2019
1734 Clouds 11 1020 53 10000 3 160 13:36 18.09.2019
1735 Clouds 17 1020 62 10000 1 0 13:18 18.09.2019
1736 Clouds 18 1020 31 10000 2 0 12:37 18.09.2019
1737 Clouds 19 1020 25 10000 4 240 12:19 18.09.2019
1738 Clouds 20 1020 20 10000 6 230 11:40 18.09.2019
1739 Clouds 20 1020 20 10000 6 230 11:20 18.09.2019
1740 Clouds 21 1020 19 10000 6 230 10:56 18.09.2019
1741 Clouds 21 1020 19 10000 6 230 10:37 18.09.2019
1742 Clouds 21 1020 19 10000 6 230 10:18 18.09.2019
1743 Clouds 21 1021 19 10000 6 230 09:42 18.09.2019
1744 Clouds 21 1021 19 10000 6 230 09:22 18.09.2019
1745 Clouds 21 1021 19 10000 6 230 09:22 18.09.2019
1746 Clouds 21 1021 19 10000 6 230 09:22 18.09.2019
1747 Clouds 21 1021 19 10000 6 230 09:22 18.09.2019
1748 Clouds 20 1022 22 10000 7 230 08:58 18.09.2019
1749 Clouds 20 1022 22 10000 7 230 08:40 18.09.2019
1750 Clouds 20 1022 22 10000 7 230 08:21 18.09.2019
1751 Clouds 19 1023 39 10000 7 240 07:44 18.09.2019
1752 Clouds 19 1023 39 10000 4 230 07:23 18.09.2019
1753 Clouds 17 1024 39 10000 5 220 06:46 18.09.2019
1754 Clouds 17 1024 47 10000 5 220 06:21 18.09.2019
1755 Clouds 17 1024 47 10000 5 220 06:21 18.09.2019
1756 Clouds 12 1025 46 10000 1 0 05:27 18.09.2019
1757 Clear 7 1026 47 10000 4.2 181.037 03:40 18.09.2019
1758 Clear 3 1027 74 10000 1 0 02:40 18.09.2019
1759 Clear -2 1027 92 10000 2.16 139.048 01:44 18.09.2019
1760 Clear -2 1027 92 10000 1 0 00:56 18.09.2019
1761 Clear -2 1027 92 10000 2.2 140.135 00:32 18.09.2019
1762 Clear -2 1027 92 10000 1 0 23:48 17.09.2019
1763 Clear -2 1027 92 10000 1 0 23:25 17.09.2019
1764 Clear -2 1027 92 10000 1 0 23:25 17.09.2019
1765 Clear -1 1027 86 10000 1 0 22:57 17.09.2019
1766 Clear -2 1027 92 10000 1 0 22:38 17.09.2019
1767 Clear -2 1027 92 10000 1 0 22:19 17.09.2019
1768 Clear -1 1027 86 10000 1.73 140.122 21:54 17.09.2019
1769 Clear -1 1027 86 10000 1.73 140.122 21:36 17.09.2019
1770 Clear -1 1027 86 10000 1.8 136.171 21:18 17.09.2019
1771 Clear -1 1027 92 10000 1.8 134.011 20:55 17.09.2019
1772 Clear -2 1028 92 10000 1.8 134.011 20:37 17.09.2019
1773 Clear -2 1028 92 10000 1.8 134.011 20:37 17.09.2019
1774 Clear -2 1028 92 10000 1.8 134.011 20:37 17.09.2019
1775 Clear -2 1028 86 10000 1 0 20:19 17.09.2019
1776 Clear -2 1028 86 10000 1 0 20:19 17.09.2019
1777 Clear -1 1028 86 10000 1 0 19:40 17.09.2019
1778 Clear -1 1028 86 10000 1 0 19:20 17.09.2019
1779 Clear -1 1028 86 10000 1 0 19:20 17.09.2019
1780 Clear -1 1028 86 10000 1 0 18:59 17.09.2019
1781 Clear -1 1028 86 10000 1 0 18:59 17.09.2019
1782 Clear 1 1028 80 10000 1 0 18:41 17.09.2019
1783 Clear 1 1028 80 10000 1 0 18:41 17.09.2019
1784 Clear 2 1028 74 10000 1 0 18:22 17.09.2019
1785 Clear 1 1028 80 10000 1 0 17:55 17.09.2019
1786 Clear 1 1028 80 10000 1 0 17:36 17.09.2019
1787 Clear 1 1028 80 10000 1 0 17:18 17.09.2019
1788 Clear 1 1028 80 10000 1 0 17:18 17.09.2019
1789 Clear 2 1028 74 10000 2 190 16:41 17.09.2019
1790 Clear 2 1028 74 10000 2 190 16:41 17.09.2019
1791 Clear 2 1028 74 10000 2 190 16:22 17.09.2019
1792 Clear 3 1028 74 10000 2 0 15:56 17.09.2019
1793 Clear 3 1028 74 10000 2 0 15:37 17.09.2019
1794 Clear 3 1028 74 10000 2 0 15:19 17.09.2019
1795 Clear 4 1027 69 10000 2 170 14:55 17.09.2019
1796 Clear 4 1027 69 10000 2 170 14:37 17.09.2019
1797 -273 0 0 0 0 0 14:18 17.09.2019
1798 Clear 11 1027 40 10000 2 0 13:42 17.09.2019
1799 Clear 11 1027 40 10000 2 0 13:23 17.09.2019
1800 Clear 13 1027 37 10000 2 0 12:56 17.09.2019
1801 Clear 13 1027 37 10000 2 0 12:37 17.09.2019
1802 Clear 14 1027 33 10000 2 0 12:18 17.09.2019
1803 Clouds 14 1027 33 10000 4 340 11:42 17.09.2019
1804 Clouds 14 1027 33 10000 4 340 11:22 17.09.2019
1805 Clouds 14 1027 30 10000 5 330 10:42 17.09.2019
1806 Clouds 14 1027 30 10000 5 330 10:24 17.09.2019
1807 Clouds 14 1027 30 10000 5 290 09:59 17.09.2019
1808 Clouds 14 1027 30 10000 5 290 09:40 17.09.2019
1809 Clouds 14 1027 30 10000 5 290 09:20 17.09.2019
1810 Clouds 13 1028 35 10000 5 320 08:45 17.09.2019
1811 Clouds 13 1028 35 10000 5 320 08:26 17.09.2019
1812 Clouds 12 1028 34 10000 4 350 07:56 17.09.2019
1813 Clouds 12 1028 34 10000 4 350 07:56 17.09.2019
1814 Clouds 12 1028 34 10000 4 350 07:38 17.09.2019
1815 Clouds 12 1028 37 10000 6 330 07:19 17.09.2019
1816 Clouds 11 1028 34 10000 5 350 06:45 17.09.2019
1817 Clouds 11 1028 34 10000 5 350 06:45 17.09.2019
1818 Clear 11 1028 37 10000 5 340 06:19 17.09.2019
1819 Clear 11 1028 37 10000 5 340 06:19 17.09.2019
1820 Clear 10 1028 29 10000 6 340 05:38 17.09.2019
1821 Clear 8 1028 39 10000 5 340 04:28 17.09.2019
1822 Clouds 6 1027 52 10000 4 330 02:55 17.09.2019
1823 Clouds 5 1027 56 10000 3 320 02:35 17.09.2019
1824 Clouds 3 1026 59 10000 3 340 01:24 17.09.2019
1825 Clear 2 1025 64 10000 2 0 00:32 17.09.2019
1826 Clear 5 1024 48 10000 1 0 23:38 16.09.2019
1827 Clear 5 1024 48 10000 1 0 23:18 16.09.2019
1828 Clear 5 1024 48 10000 1 0 23:18 16.09.2019
1829 Clear 6 1024 52 10000 3 20 22:43 16.09.2019
1830 Clear 6 1024 52 10000 3 20 22:25 16.09.2019
1831 Clear 6 1024 52 10000 3 20 21:59 16.09.2019
1832 Clear 6 1023 63 10000 2 0 21:40 16.09.2019
1833 Clear 6 1023 78 10000 2 0 21:21 16.09.2019
1834 Clear 6 1022 70 10000 2 0 20:59 16.09.2019
1835 Clear 6 1022 70 10000 2 0 20:39 16.09.2019
1836 Clear 6 1022 70 10000 2 0 20:19 16.09.2019
1837 Clear 6 1022 70 10000 2 0 19:56 16.09.2019
1838 Clear 7 1021 65 10000 3 360 19:38 16.09.2019
1839 Clear 7 1021 65 10000 3 360 19:18 16.09.2019
1840 Clear 4 1020 64 10000 1 0 18:44 16.09.2019
1841 Clear 4 1020 64 10000 1 0 18:25 16.09.2019
1842 Clear 3 1019 69 10000 1 0 17:55 16.09.2019
1843 Clear 3 1019 69 10000 1 0 17:37 16.09.2019
1844 Clear 3 1019 69 10000 1 0 17:19 16.09.2019
1845 Clear 3 1018 69 10000 1 0 16:43 16.09.2019
1846 Clear 3 1018 69 10000 1 0 16:21 16.09.2019
1847 Clear 3 1017 69 10000 3 170 15:57 16.09.2019
1848 Clear 4 1017 64 10000 2 170 15:39 16.09.2019
1849 Clear 4 1017 64 10000 2 170 15:20 16.09.2019
1850 Clear 9 1016 45 10000 2.47 311.072 14:58 16.09.2019
1851 Clear 9 1016 45 10000 2.47 311.072 14:39 16.09.2019
1852 Clear 9 1016 45 10000 2.47 311.072 14:20 16.09.2019
1853 Clouds 10 1015 43 10000 3 280 13:43 16.09.2019
1854 Clouds 10 1015 43 10000 3 280 13:22 16.09.2019
1855 Clouds 11 1015 40 10000 4 290 12:57 16.09.2019
1856 Clouds 14 1014 30 10000 5 290 12:38 16.09.2019
1857 Clouds 16 1014 25 10000 6 280 12:19 16.09.2019
1858 Clouds 17 1014 23 10000 7 260 11:45 16.09.2019
1859 Clouds 17 1014 23 10000 7 260 11:23 16.09.2019
1860 Clouds 16 1014 26 10000 8 270 10:56 16.09.2019
1861 Clouds 18 1015 23 10000 7 280 10:37 16.09.2019
1862 Clouds 18 1015 23 10000 7 280 10:18 16.09.2019
1863 Clouds 17 1015 27 10000 6 270 09:42 16.09.2019
1864 Clouds 17 1015 27 10000 6 270 09:21 16.09.2019
1865 Clouds 17 1015 27 10000 6 270 09:21 16.09.2019
1866 Clouds 17 1015 25 10000 7 280 08:55 16.09.2019
1867 Clouds 17 1015 25 10000 7 280 08:35 16.09.2019
1868 Clouds 17 1016 27 10000 6 260 07:59 16.09.2019
1869 Clouds 15 1016 30 10000 3 230 07:41 16.09.2019
1870 Clouds 15 1016 30 10000 3 230 07:21 16.09.2019
1871 Clouds 15 1016 30 10000 3 230 06:55 16.09.2019
1872 Clouds 15 1016 33 10000 4 210 06:36 16.09.2019
1873 Clouds 14 1017 33 10000 3 230 06:18 16.09.2019
1874 Clouds 12 1018 40 10000 2 0 05:41 16.09.2019
1875 Clouds 12 1018 40 10000 2 0 05:18 16.09.2019
1876 Clouds 7 1018 42 10000 1 0 03:36 16.09.2019
1877 Clouds -1 1018 86 10000 2.35 171.22 00:58 16.09.2019
1878 Clouds -1 1018 86 10000 2.35 171.22 00:58 16.09.2019
1879 Clouds -1 1017 92 10000 2.35 171.22 00:38 16.09.2019
1880 Clouds -1 1017 92 10000 2.69 182.985 00:20 16.09.2019
1881 Clear -1 1018 86 10000 1 0 23:39 15.09.2019
1882 Clear -1 1018 86 10000 1 0 23:20 15.09.2019
1883 Clear -2 1018 86 10000 2.69 182.985 22:39 15.09.2019
1884 Clear -2 1018 86 10000 2.69 182.985 22:39 15.09.2019
1885 Clear -2 1018 86 10000 2.69 182.985 22:20 15.09.2019
1886 Clear -2 1018 86 10000 2.69 182.985 21:58 15.09.2019
1887 Clear 0 1018 57 10000 2.69 182.985 21:39 15.09.2019
1888 Clear 0 1018 62 10000 2.2 180.65 21:21 15.09.2019
1889 Clear 0 1018 62 10000 2.2 180.65 21:21 15.09.2019
1890 Clear 0 1018 62 10000 2.2 180.65 20:55 15.09.2019
1891 Clear -1 1018 86 10000 2.3 182.443 20:37 15.09.2019
1892 Clear -1 1018 86 10000 2.3 182.443 20:19 15.09.2019
1893 Clear 1 1018 80 10000 1 0 19:42 15.09.2019
1894 Clear 1 1018 80 10000 1 0 19:22 15.09.2019
1895 Clear 1 1018 80 10000 1 0 18:42 15.09.2019
1896 Clear 1 1018 80 10000 1 0 18:24 15.09.2019
1897 Clear 1 1018 80 10000 1 0 17:56 15.09.2019
1898 Clear 3 1018 69 10000 2.18 179.921 17:37 15.09.2019
1899 Clear 3 1018 69 10000 2.18 179.921 17:19 15.09.2019
1900 Clear 7 1018 56 10000 1 0 16:42 15.09.2019
1901 Clear 7 1018 56 10000 1 0 16:24 15.09.2019
1902 Clear 7 1018 56 10000 1 0 15:58 15.09.2019
1903 Clear 7 1018 56 10000 1 0 15:58 15.09.2019
1904 Clear 6 1018 56 10000 1 0 15:39 15.09.2019
1905 Clear 6 1018 56 10000 1 0 15:19 15.09.2019
1906 Clear 5 1018 65 10000 4 170 14:56 15.09.2019
1907 Clear 6 1018 60 10000 4 160 14:38 15.09.2019
1908 Clear 6 1018 60 10000 4 160 14:19 15.09.2019
1909 Clear 6 1018 67 10000 2 170 13:45 15.09.2019
1910 Clear 6 1018 67 10000 2 170 13:23 15.09.2019
1911 Clear 12 1018 37 10000 3 250 12:44 15.09.2019
1912 Clear 12 1018 37 10000 3 250 12:25 15.09.2019
1913 Clouds 13 1018 32 10000 4 260 11:59 15.09.2019
1914 Clouds 13 1018 30 10000 5 280 11:41 15.09.2019
1915 Clouds 13 1018 30 10000 5 280 11:22 15.09.2019
1916 Clouds 13 1018 30 10000 5 280 10:55 15.09.2019
1917 Clouds 13 1018 32 10000 3 230 10:37 15.09.2019
1918 Clouds 13 1018 32 10000 3 230 10:18 15.09.2019
1919 Clouds 12 1019 40 10000 3 210 09:39 15.09.2019
1920 Clouds 12 1019 40 10000 3 210 09:19 15.09.2019
1921 Clouds 11 1019 43 10000 5 220 08:47 15.09.2019
1922 Clouds 11 1019 43 10000 5 220 08:27 15.09.2019
1923 Clouds 11 1020 34 10000 4 250 07:49 15.09.2019
1924 Clouds 10 1020 43 10000 3 230 07:30 15.09.2019
1925 Clouds 9 1021 42 10000 3 230 06:43 15.09.2019
1926 Clear 5 1021 60 10000 1 0 03:31 15.09.2019
1927 Clear 3 1021 69 10000 1 0 02:41 15.09.2019
1928 Clouds 0 1020 89 10000 1 0 01:41 15.09.2019
1929 Clouds 0 1020 89 10000 1 0 01:41 15.09.2019
1930 Clouds 0 1020 86 10000 1 0 01:21 15.09.2019
1931 Clouds 0 1020 86 10000 1 0 00:43 15.09.2019
1932 Clouds 0 1020 84 10000 1 0 00:22 15.09.2019
1933 Clouds 1 1019 86 10000 2 0 23:58 14.09.2019
1934 Clouds 2 1019 84 10000 4 330 23:40 14.09.2019
1935 Clouds 2 1019 84 10000 4 330 23:21 14.09.2019
1936 Clouds 2 1018 84 10000 4 320 22:59 14.09.2019
1937 Clouds 3 1018 84 10000 5 330 22:40 14.09.2019
1938 Clouds 3 1018 84 10000 5 330 22:21 14.09.2019
1939 Clouds 5 1017 84 10000 6 350 21:56 14.09.2019
1940 Clouds 5 1017 84 10000 6 350 21:38 14.09.2019
1941 Clouds 5 1017 89 10000 6 350 21:19 14.09.2019
1942 Clouds 6 1017 89 10000 4 360 20:54 14.09.2019
1943 Clouds 6 1017 95 10000 4 360 20:36 14.09.2019
1944 Clouds 6 1017 95 10000 4 360 20:18 14.09.2019
1945 Clouds 6 1016 70 10000 1 0 19:41 14.09.2019
1946 Clouds 6 1016 70 10000 1 0 19:20 14.09.2019
1947 Clouds 7 1015 95 10000 6 350 18:42 14.09.2019
1948 Clouds 7 1015 58 10000 6 350 18:22 14.09.2019
1949 Clouds 7 1015 58 10000 6 350 17:59 14.09.2019
1950 Clouds 9 1014 49 10000 2 360 17:39 14.09.2019
1951 Clouds 9 1014 49 10000 2 360 17:21 14.09.2019
1952 Clouds 9 1014 49 10000 2 360 17:21 14.09.2019
1953 Clouds 9 1014 49 10000 2 360 17:21 14.09.2019
1954 Clouds 9 1014 49 10000 2 360 17:21 14.09.2019
1955 Clouds 7 1013 48 10000 1 0 16:44 14.09.2019
1956 Clouds 7 1013 48 10000 1 0 16:22 14.09.2019
1957 Clouds 4 1012 60 10000 2 150 15:56 14.09.2019
1958 Clouds 4 1012 60 10000 2 150 15:56 14.09.2019
1959 Clouds 4 1012 64 10000 3 160 15:37 14.09.2019
1960 Clouds 4 1012 64 10000 3 160 15:18 14.09.2019
1961 Clouds 8 1011 42 10000 1 0 14:43 14.09.2019
1962 Clouds 8 1011 42 10000 1 0 14:43 14.09.2019
1963 Clouds 8 1011 42 10000 1 0 14:19 14.09.2019
1964 Clouds 8 1011 42 10000 1 0 13:48 14.09.2019
1965 Clouds 11 1011 34 10000 4 280 13:22 14.09.2019
1966 Clouds 14 1011 28 10000 5 260 12:48 14.09.2019
1967 Clouds 14 1011 28 10000 5 260 12:27 14.09.2019
1968 Clouds 14 1011 30 10000 7 270 11:44 14.09.2019
1969 Clouds 14 1011 30 10000 7 270 11:22 14.09.2019
1970 Clouds 14 1011 28 10000 6 270 10:59 14.09.2019
1971 Clouds 14 1012 28 10000 5 290 10:37 14.09.2019
1972 Clouds 14 1012 28 10000 5 290 10:19 14.09.2019
1973 Clouds 14 1012 28 10000 5 290 09:56 14.09.2019
1974 Clouds 15 1012 28 10000 7 270 09:38 14.09.2019
1975 Clouds 15 1012 28 10000 7 270 09:18 14.09.2019
1976 Clouds 14 1012 28 10000 6 270 08:44 14.09.2019
1977 Clouds 14 1012 28 10000 6 270 08:23 14.09.2019
1978 Clouds 14 1012 28 10000 6 270 08:23 14.09.2019
1979 Clouds 14 1013 30 10000 6 290 07:46 14.09.2019
1980 Clouds 14 1013 30 10000 6 290 07:28 14.09.2019
1981 Clouds 14 1013 28 10000 4 290 06:40 14.09.2019
1982 Clouds 13 1014 30 10000 4 280 06:18 14.09.2019
1983 Clouds 12 1014 50 10000 1 0 05:21 14.09.2019
1984 Clouds 7 1014 65 10000 1 0 03:43 14.09.2019
1985 Clouds 7 1014 65 10000 1 0 02:52 14.09.2019
1986 Clear 1 1014 86 10000 1 0 01:50 14.09.2019
1987 Clouds 0 1014 63 10000 1 0 01:22 14.09.2019
1988 Clouds 0 1014 63 10000 1 0 00:57 14.09.2019
1989 Clouds -1 1014 86 10000 2 170 00:37 14.09.2019
1990 Clouds 1 1013 80 0 1.56 155.623 00:18 14.09.2019
1991 Clear -1 1013 86 10000 1 0 23:38 13.09.2019
1992 Clear -1 1013 86 10000 1 0 23:19 13.09.2019
1993 Clouds 0 1013 61 10000 1 0 22:56 13.09.2019
1994 Clouds 2 1014 61 10000 1 0 22:38 13.09.2019
1995 Clouds 2 1014 61 10000 1 0 22:38 13.09.2019
1996 Clouds 2 1014 61 10000 1 0 22:19 13.09.2019
1997 Clouds 3 1014 61 10000 1 0 21:41 13.09.2019
1998 Clouds 3 1014 58 10000 1 0 21:20 13.09.2019
1999 Clouds 3 1014 58 10000 1 0 21:20 13.09.2019
2000 Clouds 3 1014 58 10000 1 0 20:58 13.09.2019
2001 Clouds 3 1014 58 10000 1 0 20:58 13.09.2019
2002 Clouds 2 1015 80 10000 1 0 20:39 13.09.2019
2003 Clouds 2 1015 80 10000 1 0 20:21 13.09.2019
2004 Clouds 1 1015 86 10000 1.99 164.619 19:56 13.09.2019
2005 Clouds 1 1015 86 10000 1.99 164.619 19:37 13.09.2019
2006 Clouds 1 1015 86 10000 1.99 164.619 19:19 13.09.2019
2007 Clear 3 1015 74 10000 1 0 18:54 13.09.2019
2008 Clear 3 1015 74 10000 1 0 18:36 13.09.2019
2009 Clear 4 1015 69 10000 1 0 18:18 13.09.2019
2010 Clear 5 1015 65 10000 1 0 17:37 13.09.2019
2011 Clear 5 1015 65 10000 1 0 17:18 13.09.2019
2012 Clear 5 1015 65 10000 3 170 16:41 13.09.2019
2013 Clear 5 1015 65 10000 3 170 16:20 13.09.2019
2014 Clear 6 1016 62 10000 3 170 16:20 13.09.2019
2015 Clear 5 1015 62 10000 3 160 15:46 13.09.2019
2016 Clear 5 1015 62 10000 3 160 15:27 13.09.2019
2017 Clear 5 1015 63 10000 3 170 14:57 13.09.2019
2018 Clear 7 1015 63 10000 3 220 14:39 13.09.2019
2019 Clear 7 1015 63 10000 3 220 14:19 13.09.2019
2020 Clear 7 1015 63 10000 3 220 14:19 13.09.2019
2021 Clouds 9 1015 63 10000 3 230 13:46 13.09.2019
2022 Clouds 9 1015 64 10000 3 230 13:24 13.09.2019
2023 Clouds 11 1015 43 10000 4 230 12:56 13.09.2019
2024 Clouds 13 1015 37 10000 4 250 12:38 13.09.2019
2025 Clouds 12 1015 40 10000 4 260 12:20 13.09.2019
2026 Clouds 12 1015 40 10000 4 260 11:54 13.09.2019
2027 Clouds 14 1015 54 10000 4 270 11:18 13.09.2019
2028 Clouds 13 1016 54 10000 5 250 10:38 13.09.2019
2029 Clouds 13 1016 54 10000 5 250 10:19 13.09.2019
2030 Clouds 12 1016 54 10000 2 0 09:44 13.09.2019
2031 Clouds 12 1016 54 10000 2 0 09:23 13.09.2019
2032 Clouds 12 1016 50 10000 4 280 08:58 13.09.2019
2033 Clouds 12 1016 50 10000 4 280 08:40 13.09.2019
2034 Clouds 12 1016 50 10000 4 280 08:20 13.09.2019
2035 Clouds 12 1016 50 10000 4 280 08:20 13.09.2019
2036 Clouds 13 1017 54 10000 3 220 07:44 13.09.2019
2037 Clouds 13 1017 54 10000 3 220 07:26 13.09.2019
2038 Clouds 12 1017 54 10000 2 0 06:41 13.09.2019
2039 Clouds 9 1018 61 10000 2 230 05:47 13.09.2019
2040 Clouds 8 1018 65 10000 1 0 04:51 13.09.2019
2041 Clouds 5 1018 80 10000 1 0 03:38 13.09.2019
2042 Clouds 4 1018 80 10000 1 0 02:20 13.09.2019
2043 Clouds 0 1017 77 10000 1 0 01:42 13.09.2019
2044 Clouds 0 1017 78 10000 1 0 01:21 13.09.2019
2045 Clouds 1 1017 78 10000 1 0 00:37 13.09.2019
2046 Clouds 1 1017 88 10000 1.54 150.851 23:57 12.09.2019
2047 Clouds -1 1017 92 10000 1 0 23:35 12.09.2019
2048 Clear -2 1017 92 10000 1 0 22:59 12.09.2019
2049 Clear -2 1017 92 10000 1 0 22:40 12.09.2019
2050 Clear -2 1017 92 10000 1 0 22:22 12.09.2019
2051 Clear -1 1017 92 10000 1 0 21:56 12.09.2019
2052 Clear -1 1017 92 10000 1 0 21:37 12.09.2019
2053 Clear 0 1016 86 10000 1 0 21:19 12.09.2019
2054 Clear 0 1016 87 10000 1 0 20:54 12.09.2019
2055 Clear 0 1016 87 10000 1 0 20:36 12.09.2019
2056 Clear 0 1016 87 10000 1 0 20:18 12.09.2019
2057 Clear 0 1017 87 10000 2 160 19:41 12.09.2019
2058 Clear 0 1017 87 10000 2 160 19:20 12.09.2019
2059 Clear 0 1017 87 10000 2 160 18:57 12.09.2019
2060 Clear 1 1017 86 10000 1 0 18:36 12.09.2019
2061 Clear 1 1017 86 10000 1 0 18:18 12.09.2019
2062 Clear 1 1016 86 10000 2 170 17:41 12.09.2019
2063 Clear 1 1016 86 10000 2 170 17:21 12.09.2019
2064 Clear 1 1016 86 10000 2 170 16:58 12.09.2019
2065 Clear 2 1016 93 10000 2 170 16:40 12.09.2019
2066 Clear 2 1016 93 10000 2 170 16:19 12.09.2019
2067 Clouds 3 1016 86 10000 1 0 15:41 12.09.2019
2068 Clouds 3 1016 86 10000 1 0 15:23 12.09.2019
2069 Clouds 3 1016 86 10000 1 0 15:23 12.09.2019
2070 Clouds 3 1016 86 10000 1 0 15:23 12.09.2019
2071 Clouds 8 1015 65 10000 3 360 14:47 12.09.2019
2072 Clouds 8 1015 65 10000 3 360 14:23 12.09.2019
2073 Clouds 8 1015 65 10000 3 360 13:59 12.09.2019
2074 Clouds 8 1015 65 10000 3 360 13:38 12.09.2019
2075 Clouds 8 1015 65 10000 3 360 13:20 12.09.2019
2076 Clouds 10 1014 57 10000 4 20 12:47 12.09.2019
2077 Clouds 10 1014 61 10000 5 340 12:19 12.09.2019
2078 Clouds 10 1014 61 10000 5 340 11:57 12.09.2019
2079 Clouds 11 1013 53 10000 7 340 11:39 12.09.2019
2080 Clouds 11 1013 53 10000 7 340 11:19 12.09.2019
2081 Clouds 10 1013 61 10000 7 340 10:45 12.09.2019
2082 Clouds 10 1013 61 10000 7 340 10:26 12.09.2019
2083 Clouds 11 1012 62 10000 8 350 09:45 12.09.2019
2084 Clouds 11 1012 62 10000 8 350 09:25 12.09.2019
2085 Clouds 11 1012 66 10000 7 350 08:59 12.09.2019
2086 Clouds 11 1012 66 10000 8 330 08:40 12.09.2019
2087 Clouds 11 1012 66 10000 8 330 08:22 12.09.2019
2088 Clouds 11 1012 66 10000 7 310 07:44 12.09.2019
2089 Clouds 11 1012 76 10000 6 330 07:20 12.09.2019
2090 Clouds 11 1012 71 10000 7 330 06:51 12.09.2019
2091 Clouds 11 1011 71 10000 6 320 06:23 12.09.2019
2092 Rain 9 1012 87 10000 5 230 05:51 12.09.2019
2093 Rain 9 1012 87 10000 5 230 05:32 12.09.2019
2094 Clouds 9 1012 87 10000 3 230 04:40 12.09.2019
2095 Rain 9 1012 87 10000 1 0 02:43 12.09.2019
2096 Rain 9 1012 81 10000 2 0 01:37 12.09.2019
2097 Rain 9 1012 81 10000 2 0 01:18 12.09.2019
2098 Rain 10 1011 76 10000 4 10 00:42 12.09.2019
2099 Rain 10 1011 76 10000 4 10 00:24 12.09.2019
2100 Clouds 12 1011 62 10000 7 310 23:42 11.09.2019
2101 Clouds 12 1011 62 10000 7 310 23:22 11.09.2019
2102 Clouds 14 1010 50 10000 7 310 22:56 11.09.2019
2103 Clouds 14 1010 54 10000 6 310 22:37 11.09.2019
2104 Clouds 14 1010 54 10000 6 310 22:19 11.09.2019
2105 Clouds 15 1009 67 10000 4 190 21:43 11.09.2019
2106 Clouds 15 1009 67 10000 4 190 21:24 11.09.2019
2107 Clouds 16 1009 63 10000 5 180 20:58 11.09.2019
2108 Clouds 16 1009 63 10000 5 180 20:39 11.09.2019
2109 Clouds 16 1009 63 10000 5 180 20:19 11.09.2019
2110 Clouds 16 1008 59 10000 7 170 19:58 11.09.2019
2111 Clouds 16 1008 59 10000 7 170 19:39 11.09.2019
2112 Clouds 16 1008 59 10000 10 150 19:21 11.09.2019
2113 Clouds 16 1008 59 10000 10 150 18:58 11.09.2019
2114 Clouds 17 1008 55 10000 12 150 18:38 11.09.2019
2115 Clouds 17 1008 55 10000 11 160 18:19 11.09.2019
2116 Clouds 17 1008 55 10000 11 160 17:56 11.09.2019
2117 Clouds 17 1008 59 10000 11 150 17:37 11.09.2019
2118 Clouds 17 1008 59 10000 11 150 17:19 11.09.2019
2119 Clouds 18 1009 59 10000 9 150 16:48 11.09.2019
2120 Clouds 18 1009 63 10000 9 150 16:25 11.09.2019
2121 Clouds 19 1010 59 10000 10 160 15:54 11.09.2019
2122 Clouds 19 1009 55 10000 9 160 15:36 11.09.2019
2123 Clouds 19 1009 55 10000 9 160 15:18 11.09.2019
2124 Clear 13 1006 59 0 2.84 154.492 14:42 11.09.2019
2125 Clear 13 1006 59 0 2.84 154.492 14:21 11.09.2019
2126 Clear 13 1006 59 0 2.84 154.492 13:59 11.09.2019
2127 Clear 13 1006 59 0 2.84 154.492 13:38 11.09.2019
2128 Clouds 23 1009 35 10000 7 170 13:20 11.09.2019
2129 Clouds 23 1009 35 10000 7 170 13:20 11.09.2019
2130 Clouds 23 1009 35 10000 7 170 12:56 11.09.2019
2131 Clouds 23 1009 35 10000 7 170 12:37 11.09.2019
2132 Clouds 23 1009 35 10000 7 170 12:19 11.09.2019
2133 Clouds 23 1010 33 10000 8 150 11:39 11.09.2019
2134 Clouds 23 1010 33 10000 8 150 11:21 11.09.2019
2135 Clouds 23 1010 33 10000 8 150 11:21 11.09.2019
2136 Clouds 23 1010 31 10000 9 160 10:56 11.09.2019
2137 Clouds 23 1010 31 10000 9 160 10:38 11.09.2019
2138 Clouds 23 1010 31 10000 9 160 10:19 11.09.2019
2139 Clouds 23 1012 25 10000 10 150 09:39 11.09.2019
2140 Clouds 22 1013 26 10000 9 150 09:19 11.09.2019
2141 Clouds 22 1013 26 10000 9 150 08:55 11.09.2019
2142 Clouds 23 1013 27 10000 9 150 08:36 11.09.2019
2143 Clouds 23 1013 27 10000 9 150 08:18 11.09.2019
2144 Clouds 22 1014 33 10000 8 140 07:39 11.09.2019
2145 Clouds 21 1015 40 10000 7 160 07:21 11.09.2019
2146 Clouds 22 1016 33 10000 8 170 06:46 11.09.2019
2147 Clouds 22 1016 33 10000 8 170 06:24 11.09.2019
2148 Clear 21 1017 35 10000 6 150 05:36 11.09.2019
2149 Clear 21 1017 35 10000 6 150 05:18 11.09.2019
2150 Clear 20 1018 32 10000 6 160 04:22 11.09.2019
2151 Clear 18 1018 34 10000 6 160 03:29 11.09.2019
2152 Clear 16 1018 41 10000 6 160 02:37 11.09.2019
2153 Clear 14 1018 44 10000 5 150 01:33 11.09.2019
2154 Clear 11 1018 57 10000 4 170 00:40 11.09.2019
2155 Clear 11 1018 57 10000 4 170 00:20 11.09.2019
2156 Clear 11 1018 57 10000 4 170 00:20 11.09.2019
2157 Clear 12 1018 50 10000 4 180 23:41 10.09.2019
2158 Clear 12 1018 50 10000 4 180 23:22 10.09.2019
2159 Clear 10 1018 57 10000 2 0 22:57 10.09.2019
2160 Clear 11 1018 53 10000 4 180 22:37 10.09.2019
2161 Clear 11 1018 53 10000 4 180 22:19 10.09.2019
2162 Clear 12 1018 50 10000 5 150 21:55 10.09.2019
2163 Clear 12 1018 50 10000 5 150 21:36 10.09.2019
2164 Clear 12 1018 50 10000 5 150 21:18 10.09.2019
2165 Clear 12 1018 50 10000 5 150 21:18 10.09.2019
2166 Clear 11 1018 53 10000 1 0 20:56 10.09.2019
2167 Clear 11 1018 53 10000 1 0 20:37 10.09.2019
2168 Clear 11 1018 53 10000 1 0 20:18 10.09.2019
2169 Clear 15 1018 41 10000 3 190 19:55 10.09.2019
2170 Clear 15 1018 41 10000 3 190 19:55 10.09.2019
2171 Clear 15 1018 41 10000 3 190 19:36 10.09.2019
2172 Clear 15 1018 41 10000 3 190 19:36 10.09.2019
2173 Clear 15 1018 41 10000 3 190 19:18 10.09.2019
2174 Clear 11 1018 62 10000 2 0 18:45 10.09.2019
2175 Clear 11 1018 62 10000 2 0 18:22 10.09.2019
2176 Clear 11 1018 62 10000 2 0 17:57 10.09.2019
2177 Clear 14 1018 54 10000 2 0 17:39 10.09.2019
2178 Clear 14 1018 54 10000 2 0 17:20 10.09.2019
2179 Clear 13 1018 54 10000 2 0 16:57 10.09.2019
2180 Clear 16 1018 36 10000 3 130 16:38 10.09.2019
2181 Clear 16 1018 36 10000 3 130 16:19 10.09.2019
2182 Clear 16 1017 41 10000 6 140 15:43 10.09.2019
2183 Clear 16 1017 41 10000 6 140 15:23 10.09.2019
2184 Clear 16 1017 44 10000 5 140 14:57 10.09.2019
2185 Clear 16 1017 44 10000 6 140 14:39 10.09.2019
2186 Clear 17 1017 45 10000 5 140 14:20 10.09.2019
2187 Clouds 18 1016 42 10000 6 140 13:47 10.09.2019
2188 Clouds 18 1016 42 10000 6 140 13:47 10.09.2019
2189 Clouds 18 1016 42 10000 6 140 13:23 10.09.2019
2190 Clouds 18 1016 42 10000 6 140 12:54 10.09.2019
2191 Clouds 19 1016 39 10000 5 140 12:36 10.09.2019
2192 Clouds 21 1017 35 10000 5 160 12:18 10.09.2019
2193 Clouds 22 1017 33 10000 5 160 11:42 10.09.2019
2194 Clouds 22 1017 33 10000 5 160 11:22 10.09.2019
2195 Clouds 22 1017 30 10000 6 180 10:57 10.09.2019
2196 Clouds 22 1017 30 10000 6 180 10:36 10.09.2019
2197 Clouds 22 1017 30 10000 6 180 10:18 10.09.2019
2198 Clouds 22 1017 30 10000 6 170 09:44 10.09.2019
2199 Clouds 22 1018 26 10000 6 190 09:20 10.09.2019
2200 Clouds 20 1018 37 10000 5 160 08:49 10.09.2019
2201 Clouds 20 1018 37 10000 5 160 08:29 10.09.2019
2202 Clouds 21 1019 35 10000 6 150 07:59 10.09.2019
2203 Clouds 20 1019 37 10000 5 140 07:41 10.09.2019
2204 Clouds 20 1019 37 10000 5 140 07:41 10.09.2019
2205 Clouds 19 1019 37 10000 5 160 07:23 10.09.2019
2206 Clouds 18 1020 39 10000 5 160 06:42 10.09.2019
2207 Clouds 18 1020 36 10000 5 150 06:21 10.09.2019
2208 Clear 13 1021 54 10000 2 0 04:24 10.09.2019
2209 Clear 6 1021 81 10000 1 0 02:40 10.09.2019
2210 Clear 3 1021 93 10000 1.82 131.978 02:21 10.09.2019
2211 Clear 3 1021 93 10000 1.82 131.978 01:50 10.09.2019
2212 Clear 2 1021 93 10000 2 0 01:23 10.09.2019
2213 Clear 2 1021 76 10000 1 0 00:36 10.09.2019
2214 Clear 2 1021 87 10000 1 0 00:00 10.09.2019
2215 Clear 2 1021 93 10000 1 0 23:40 09.09.2019
2216 Clear 2 1021 93 10000 1.71 115.952 23:18 09.09.2019
2217 Clear 2 1021 93 10000 1.71 115.952 22:55 09.09.2019
2218 Clear 2 1021 93 10000 1.71 115.952 22:37 09.09.2019
2219 Clear 2 1021 93 10000 1.71 115.952 22:18 09.09.2019
2220 Clear 2 1021 93 10000 1.71 115.952 21:55 09.09.2019
2221 Clear 2 1021 93 10000 1.71 115.952 21:55 09.09.2019
2222 Clear 3 1021 86 10000 1.71 115.952 21:37 09.09.2019
2223 Clear 3 1021 93 10000 1.05 119.934 21:18 09.09.2019
2224 Clear 3 1021 93 10000 1.05 119.934 20:55 09.09.2019
2225 Clear 3 1021 86 10000 1.3 141.182 20:36 09.09.2019
2226 Clear 3 1021 86 10000 1.3 141.182 20:18 09.09.2019
2227 Clear 3 1021 86 10000 1.3 141.182 19:56 09.09.2019
2228 Clear 3 1021 93 10000 1 0 19:37 09.09.2019
2229 Clear 3 1021 93 10000 1 0 19:19 09.09.2019
2230 Clear 3 1021 93 10000 1 0 19:19 09.09.2019
2231 Clear 4 1021 80 10000 1 0 18:55 09.09.2019
2232 Clear 4 1021 80 10000 1 0 18:36 09.09.2019
2233 Clear 4 1021 86 10000 2 150 18:18 09.09.2019
2234 Clear 4 1021 86 10000 2 170 17:56 09.09.2019
2235 Clear 4 1021 86 10000 2 170 17:37 09.09.2019
2236 Clear 4 1021 86 10000 1 0 17:19 09.09.2019
2237 Clear 5 1021 80 10000 1 0 16:40 09.09.2019
2238 Clear 7 1021 75 10000 2 160 16:21 09.09.2019
2239 Clear 7 1021 75 10000 2 160 15:56 09.09.2019
2240 Clear 7 1021 75 10000 1 0 15:38 09.09.2019
2241 Clear 6 1020 81 10000 3 160 15:20 09.09.2019
2242 Clear 6 1020 81 10000 3 160 14:57 09.09.2019
2243 Clear 7 1020 81 10000 3 160 14:39 09.09.2019
2244 Clear 7 1020 81 10000 3 160 14:20 09.09.2019
2245 Clear 10 1019 71 10000 2 180 13:54 09.09.2019
2246 Clear 10 1019 71 10000 2 180 13:36 09.09.2019
2247 Clear 13 1019 58 10000 1 0 13:18 09.09.2019
2248 Clouds 14 1019 50 10000 2 0 12:41 09.09.2019
2249 Clouds 14 1019 50 10000 2 0 12:21 09.09.2019
2250 Clouds 14 1019 50 10000 2 0 11:58 09.09.2019
2251 Clouds 15 1019 44 10000 1 0 11:40 09.09.2019
2252 Clouds 14 1019 44 10000 2 0 11:18 09.09.2019
2253 Clouds 14 1019 44 10000 2 0 10:42 09.09.2019
2254 Clouds 14 1019 44 10000 2 0 10:23 09.09.2019
2255 Clouds 14 1019 47 10000 1 0 09:58 09.09.2019
2256 Clouds 14 1019 50 10000 3 210 09:39 09.09.2019
2257 Clouds 14 1019 47 10000 1 0 09:21 09.09.2019
2258 Clouds 13 1019 50 10000 3 250 08:39 09.09.2019
2259 Clouds 13 1020 50 10000 2 0 08:21 09.09.2019
2260 Clouds 13 1020 50 10000 2 0 07:57 09.09.2019
2261 Clouds 12 1020 58 10000 3 310 07:38 09.09.2019
2262 Clouds 11 1020 62 10000 2 290 07:20 09.09.2019
2263 Clouds 12 1020 58 10000 2 0 06:46 09.09.2019
2264 Clouds 11 1021 62 10000 2 0 05:34 09.09.2019
2265 Clouds 8 1020 70 10000 1 0 02:59 09.09.2019
2266 Clouds 7 1020 75 10000 1 0 02:40 09.09.2019
2267 Clouds 6 1020 75 10000 3 50 01:20 09.09.2019
2268 Clouds 6 1019 75 10000 2 0 00:23 09.09.2019
2269 Rain 6 1020 75 10000 3 170 23:46 08.09.2019
2270 Rain 6 1020 75 10000 3 170 23:27 08.09.2019
2271 Rain 6 1020 75 10000 3 170 23:27 08.09.2019
2272 Rain 5 1020 80 10000 1 0 22:59 08.09.2019
2273 Clouds 5 1020 80 10000 2 0 22:38 08.09.2019
2274 Clouds 6 1020 70 10000 1 0 22:20 08.09.2019
2275 Clouds 6 1020 70 10000 1 0 21:57 08.09.2019
2276 Clouds 5 1019 75 10000 2 360 21:38 08.09.2019
2277 Clouds 5 1019 75 10000 2 360 21:20 08.09.2019
2278 Clouds 3 1019 86 0 1 0 20:40 08.09.2019
2279 Clouds 3 1019 86 0 1 0 20:22 08.09.2019
2280 Clouds 3 1019 86 0 1 0 19:59 08.09.2019
2281 Clouds 3 1019 86 10000 2 170 19:39 08.09.2019
2282 Clouds 3 1019 86 10000 2 170 19:21 08.09.2019
2283 Clouds 3 1019 86 10000 2 170 18:58 08.09.2019
2284 Clouds 2 1019 80 10000 2 0 18:38 08.09.2019
2285 Clouds 2 1019 73 10000 2 0 18:19 08.09.2019
2286 Clouds 2 1019 73 10000 2 0 17:57 08.09.2019
2287 Clouds 2 1019 80 10000 1 0 17:37 08.09.2019
2288 Clouds 4 1020 80 10000 1.9 1.966 17:18 08.09.2019
2289 Clouds 5 1019 75 10000 2 0 16:45 08.09.2019
2290 Clouds 3 1019 86 10000 1 0 16:22 08.09.2019
2291 Clouds 3 1019 86 10000 1 0 15:59 08.09.2019
2292 Clouds 7 1019 65 10000 1 0 15:41 08.09.2019
2293 Clouds 7 1019 65 10000 1 0 15:21 08.09.2019
2294 Clouds 7 1019 65 10000 1 0 14:57 08.09.2019
2295 Clouds 8 1019 61 10000 1 0 14:39 08.09.2019
2296 Clouds 8 1019 65 10000 2 0 14:20 08.09.2019
2297 Clouds 8 1019 65 10000 2 0 13:56 08.09.2019
2298 Clouds 9 1018 57 10000 4 340 13:37 08.09.2019
2299 Clear 11 1018 50 10000 4 340 13:19 08.09.2019
2300 Clear 11 1018 50 10000 5 320 12:42 08.09.2019
2301 Clear 12 1018 53 10000 6 320 12:24 08.09.2019
2302 Clear 12 1018 53 10000 6 320 11:59 08.09.2019
2303 Clear 12 1018 46 10000 5 330 11:40 08.09.2019
2304 Clear 12 1018 46 10000 5 340 11:20 08.09.2019
2305 Clear 12 1018 46 10000 5 340 10:58 08.09.2019
2306 Clouds 13 1018 37 10000 6 320 10:40 08.09.2019
2307 Clouds 13 1018 53 10000 6 340 10:21 08.09.2019
2308 Clouds 13 1018 37 10000 7 330 09:39 08.09.2019
2309 Clouds 12 1018 40 10000 7 310 09:21 08.09.2019
2310 Clouds 12 1018 40 10000 7 310 08:57 08.09.2019
2311 Clear 13 1018 37 10000 7 310 08:38 08.09.2019
2312 Clear 12 1018 37 10000 6 310 08:18 08.09.2019
2313 Clear 11 1018 32 10000 5 310 07:39 08.09.2019
2314 Clear 11 1019 34 10000 6 300 07:21 08.09.2019
2315 Clear 11 1019 37 10000 5 310 06:53 08.09.2019
2316 Clear 11 1019 37 10000 5 310 06:31 08.09.2019
2317 Clear 11 1019 37 10000 5 310 06:31 08.09.2019
2318 Clouds 9 1019 36 10000 5 330 05:38 08.09.2019
2319 Clouds 8 1020 49 10000 3 350 03:56 08.09.2019
2320 Clouds 7 1020 56 10000 4 330 02:59 08.09.2019
2321 Clouds 6 1019 68 10000 2 0 02:26 08.09.2019
2322 Clouds 5 1020 65 10000 6 10 01:49 08.09.2019
2323 Clouds 5 1019 65 10000 6 20 01:22 08.09.2019
2324 Clouds 5 1019 65 10000 5 30 00:45 08.09.2019
2325 Clouds 5 1019 65 10000 5 30 00:26 08.09.2019
2326 Clouds 5 1019 80 10000 6 340 23:39 07.09.2019
2327 Clouds 6 1018 81 10000 5 340 23:21 07.09.2019
2328 Clouds 6 1018 81 10000 5 340 22:58 07.09.2019
2329 Clouds 6 1018 87 10000 5 340 22:39 07.09.2019
2330 Clouds 7 1017 87 10000 4 330 22:20 07.09.2019
2331 Clear 6 1017 87 10000 2 350 21:42 07.09.2019
2332 Clear 6 1017 87 10000 2 350 21:24 07.09.2019
2333 Clear 6 1017 87 10000 2 350 20:57 07.09.2019
2334 Clear 4 1016 93 10000 1 0 20:38 07.09.2019
2335 Clear 4 1016 93 10000 1 0 20:19 07.09.2019
2336 Clear 4 1016 93 10000 1 0 19:55 07.09.2019
2337 Clear 5 1016 86 10000 1 0 19:37 07.09.2019
2338 Clear 5 1016 86 10000 1 0 19:19 07.09.2019
2339 Clear 5 1016 86 10000 1 0 18:55 07.09.2019
2340 Clear 5 1016 86 10000 1 0 18:55 07.09.2019
2341 Clear 5 1016 86 10000 1 0 18:36 07.09.2019
2342 Clear 5 1016 86 10000 1 0 18:18 07.09.2019
2343 Clear 5 1016 86 10000 1 0 17:55 07.09.2019
2344 Clear 5 1016 86 10000 1 0 17:55 07.09.2019
2345 Clear 5 1016 86 10000 1 0 17:36 07.09.2019
2346 Clear 8 1016 81 10000 1 0 17:18 07.09.2019
2347 Clear 9 1016 76 10000 3.09 2.766 16:43 07.09.2019
2348 Clear 8 1016 87 10000 1 0 16:21 07.09.2019
2349 Clear 7 1016 87 10000 1 0 15:50 07.09.2019
2350 Clear 7 1016 87 10000 1 0 15:27 07.09.2019
2351 Clear 10 1016 71 10000 2 0 14:58 07.09.2019
2352 Clear 10 1015 76 10000 2 330 14:38 07.09.2019
2353 Clear 11 1015 71 10000 2 340 14:20 07.09.2019
2354 Clear 11 1015 71 10000 2 340 14:20 07.09.2019
2355 Clear 11 1015 71 10000 2 340 13:59 07.09.2019
2356 Clouds 12 1015 66 10000 2 330 13:41 07.09.2019
2357 Clouds 14 1014 54 10000 3 340 13:23 07.09.2019
2358 Clouds 14 1015 58 10000 4 300 12:45 07.09.2019
2359 Clouds 14 1015 58 10000 4 300 12:26 07.09.2019
2360 Clouds 15 1015 47 10000 5 290 11:58 07.09.2019
2361 Clouds 15 1014 44 10000 5 290 11:39 07.09.2019
2362 Clouds 16 1014 44 10000 4 320 11:19 07.09.2019
2363 Clouds 16 1014 41 10000 4 310 10:41 07.09.2019
2364 Clouds 15 1014 44 10000 4 310 10:22 07.09.2019
2365 Clouds 15 1014 44 10000 4 310 09:57 07.09.2019
2366 Clouds 15 1014 44 10000 4 310 09:38 07.09.2019
2367 Clouds 15 1014 44 10000 3 340 09:20 07.09.2019
2368 Clouds 15 1014 44 10000 3 340 09:20 07.09.2019
2369 Clouds 14 1014 54 10000 3 300 08:44 07.09.2019
2370 Clouds 14 1014 54 10000 3 300 08:26 07.09.2019
2371 Clouds 13 1015 50 10000 4 300 07:47 07.09.2019
2372 Clouds 13 1015 50 10000 4 300 07:28 07.09.2019
2373 Clouds 13 1015 54 10000 4 280 06:52 07.09.2019
2374 Clouds 12 1015 50 10000 2 0 06:20 07.09.2019
2375 Clouds 11 1016 50 10000 5 330 05:31 07.09.2019
2376 Clouds 9 1016 61 10000 4 350 04:23 07.09.2019
2377 Clouds 7 1015 81 10000 3 360 02:50 07.09.2019
2378 Clouds 7 1015 81 10000 6 330 02:20 07.09.2019
2379 Clouds 7 1015 81 10000 6 330 01:26 07.09.2019
2380 Clouds 7 1014 87 10000 5 330 00:41 07.09.2019
2381 Clouds 7 1014 87 10000 6 320 00:19 07.09.2019
2382 Clouds 8 1013 81 10000 6 330 23:41 06.09.2019
2383 Clouds 8 1013 87 10000 6 330 23:22 06.09.2019
2384 Clouds 8 1013 87 10000 6 330 22:58 06.09.2019
2385 Clouds 8 1013 87 10000 6 330 22:58 06.09.2019
2386 Clouds 8 1013 81 10000 5 340 22:38 06.09.2019
2387 Clouds 8 1013 87 10000 5 350 22:19 06.09.2019
2388 Clouds 8 1013 87 10000 5 350 21:57 06.09.2019
2389 Clouds 9 1012 81 10000 6 340 21:39 06.09.2019
2390 Clouds 9 1012 81 10000 6 340 21:39 06.09.2019
2391 Clouds 9 1012 81 10000 6 340 21:20 06.09.2019
2392 Clouds 9 1012 81 10000 6 340 20:57 06.09.2019
2393 Clouds 9 1011 87 10000 6 340 20:39 06.09.2019
2394 Clouds 9 1011 87 10000 6 340 20:39 06.09.2019
2395 Clouds 9 1011 87 10000 6 340 20:21 06.09.2019
2396 Clouds 9 1011 87 10000 6 340 19:55 06.09.2019
2397 Rain 9 1011 87 10000 7 330 19:37 06.09.2019
2398 Rain 9 1011 87 10000 7 330 19:18 06.09.2019
2399 Rain 10 1011 81 10000 9 330 18:41 06.09.2019
2400 Rain 10 1011 81 10000 9 330 18:41 06.09.2019
2401 Clouds 10 1010 87 10000 4 340 18:23 06.09.2019
2402 Clouds 10 1010 87 10000 4 340 17:58 06.09.2019
2403 Clouds 11 1010 76 10000 7 350 17:37 06.09.2019
2404 Clouds 10 1010 87 10000 6 360 17:19 06.09.2019
2405 Clouds 10 1010 81 10000 5 10 16:39 06.09.2019
2406 Rain 10 1011 87 10000 3 360 16:19 06.09.2019
2407 Rain 10 1011 87 10000 3 10 15:42 06.09.2019
2408 Rain 10 1011 87 10000 3 10 15:24 06.09.2019
2409 Rain 10 1011 87 10000 4 30 14:55 06.09.2019
2410 Rain 11 1011 87 10000 3 330 14:37 06.09.2019
2411 Thunderstorm 11 1010 87 3200 6 300 14:18 06.09.2019
2412 Thunderstorm 11 1010 87 3200 6 300 13:41 06.09.2019
2413 Thunderstorm 11 1010 87 3200 6 300 13:41 06.09.2019
2414 Thunderstorm 14 1009 76 10000 5 30 13:20 06.09.2019
2415 Thunderstorm 14 1009 76 10000 5 30 12:38 06.09.2019
2416 Clouds 14 1009 71 10000 5 20 12:20 06.09.2019
2417 Clouds 14 1009 71 10000 5 20 11:54 06.09.2019
2418 Clouds 15 1009 72 10000 5 10 11:36 06.09.2019
2419 Clouds 15 1009 72 10000 7 340 11:18 06.09.2019
2420 Clouds 17 1009 67 10000 6 350 10:40 06.09.2019
2421 Clouds 18 1008 63 10000 5 360 10:22 06.09.2019
2422 Clouds 18 1008 63 10000 5 360 09:57 06.09.2019
2423 Clouds 18 1009 63 10000 7 330 09:36 06.09.2019
2424 Thunderstorm 20 1008 60 10000 6 340 09:18 06.09.2019
2425 Clouds 21 1008 60 10000 6 320 08:43 06.09.2019
2426 Clouds 21 1008 60 10000 6 320 08:25 06.09.2019
2427 Clouds 22 1009 53 10000 5 250 07:49 06.09.2019
2428 Clouds 22 1009 53 10000 5 250 07:27 06.09.2019
2429 Clouds 22 1009 53 10000 4 250 06:58 06.09.2019
2430 Clouds 22 1009 46 10000 3 240 06:28 06.09.2019
2431 Clouds 19 1009 59 10000 1 0 05:43 06.09.2019
2432 Clouds 19 1010 63 10000 1 0 04:52 06.09.2019
2433 Clouds 18 1010 68 10000 4.16 17.251 04:19 06.09.2019
2434 Clouds 15 1010 82 10000 1 0 02:27 06.09.2019
2435 Clouds 15 1009 77 10000 5 50 00:48 06.09.2019
2436 Clouds 15 1009 77 10000 4 40 23:57 05.09.2019
2437 Clouds 15 1009 77 10000 4 40 23:57 05.09.2019
2438 Clouds 14 1010 82 10000 1 0 23:39 05.09.2019
2439 Clouds 14 1009 82 10000 1 0 23:19 05.09.2019
2440 Clouds 14 1010 82 10000 2 0 22:44 05.09.2019
2441 -273 0 0 0 0 0 22:25 05.09.2019
2442 Clouds 14 1010 82 10000 2 0 21:57 05.09.2019
2443 Rain 14 1011 82 10000 3 130 21:38 05.09.2019
2444 Clouds 15 1011 77 10000 4 80 21:19 05.09.2019
2445 Clouds 15 1011 77 10000 4 80 20:57 05.09.2019
2446 Rain 16 1011 67 10000 2 0 20:38 05.09.2019
2447 Rain 16 1011 67 10000 5 80 20:19 05.09.2019
2448 Rain 16 1011 67 10000 5 80 19:55 05.09.2019
2449 Thunderstorm 15 1011 72 10000 6 320 19:37 05.09.2019
2450 Clouds 16 1010 59 10000 2 0 19:18 05.09.2019
2451 Thunderstorm 16 1009 63 10000 2 0 18:41 05.09.2019
2452 Thunderstorm 16 1009 59 10000 2 0 18:21 05.09.2019
2453 Thunderstorm 17 1010 51 10000 2 0 17:57 05.09.2019
2454 Thunderstorm 17 1010 51 10000 2 0 17:38 05.09.2019
2455 Clouds 17 1009 55 10000 1 0 17:20 05.09.2019
2456 Clouds 16 1010 59 10000 1 0 16:42 05.09.2019
2457 Clouds 18 1009 55 10000 1 0 16:21 05.09.2019
2458 Clouds 18 1009 55 10000 1 0 15:58 05.09.2019
2459 Clouds 16 1009 59 10000 3 310 15:39 05.09.2019
2460 Clouds 18 1009 52 10000 2 320 15:19 05.09.2019
2461 Clouds 18 1009 52 10000 2 320 14:55 05.09.2019
2462 Clouds 19 1009 42 10000 2 0 14:37 05.09.2019
2463 Clouds 19 1009 42 10000 2 0 14:37 05.09.2019
2464 Clouds 18 1009 45 10000 3 150 14:18 05.09.2019
2465 Clouds 19 1009 55 10000 3 150 13:41 05.09.2019
2466 Clouds 22 1010 40 10000 1 0 13:18 05.09.2019
2467 Clouds 22 1010 40 10000 1 0 12:42 05.09.2019
2468 Clouds 24 1010 31 10000 2 220 12:24 05.09.2019
2469 Clouds 24 1010 31 10000 2 220 11:56 05.09.2019
2470 Clear 24 1010 22 10000 1 0 11:36 05.09.2019
2471 Clear 25 1010 20 10000 1 0 11:18 05.09.2019
2472 Clouds 25 1010 22 10000 1 0 10:37 05.09.2019
2473 Clouds 25 1010 49 10000 1 0 10:19 05.09.2019
2474 Clouds 25 1010 49 10000 1 0 09:57 05.09.2019
2475 Clouds 24 1011 23 10000 2 0 09:38 05.09.2019
2476 Clouds 24 1011 23 10000 1 0 09:18 05.09.2019
2477 Clouds 24 1011 23 10000 1 0 09:18 05.09.2019
2478 Clouds 23 1011 27 10000 1 0 08:43 05.09.2019
2479 Clouds 23 1011 27 10000 1 0 08:24 05.09.2019
2480 Clouds 21 1012 43 10000 1 0 07:44 05.09.2019
2481 Clouds 21 1012 43 10000 1 0 07:25 05.09.2019
2482 Clouds 19 1013 55 10000 1 0 06:50 05.09.2019
2483 Clouds 18 1013 55 10000 1 0 06:29 05.09.2019
2484 Clouds 17 1013 63 10000 1 0 05:49 05.09.2019
2485 Clouds 17 1013 63 10000 1 0 05:28 05.09.2019
2486 Clouds 14 1013 76 10000 1.28 114.844 04:45 05.09.2019
2487 Mist 14 1014 71 3600 1 0 04:19 05.09.2019
2488 Mist 11 1014 87 3600 3 40 03:22 05.09.2019
2489 Mist 11 1014 87 3600 2 0 02:40 05.09.2019
2490 Clouds 11 1014 87 8000 3 50 02:18 05.09.2019
2491 Clouds 11 1014 87 8000 1.11 46.643 00:58 05.09.2019
2492 Clouds 10 1014 93 10000 1.11 46.643 00:40 05.09.2019
2493 Clouds 10 1014 87 10000 1 0 00:19 05.09.2019
2494 Clouds 9 1014 93 10000 2 160 23:42 04.09.2019
2495 Clouds 9 1014 93 10000 2 160 23:23 04.09.2019
2496 Clear 7 1014 87 10000 2 130 22:49 04.09.2019
2497 Clear 7 1014 93 10000 1 0 22:21 04.09.2019
2498 Clear 7 1014 93 10000 1 0 21:58 04.09.2019
2499 Clear 7 1014 93 10000 2 170 21:39 04.09.2019
2500 Clear 7 1014 93 10000 2 170 21:19 04.09.2019
2501 Clear 7 1014 93 10000 2 170 20:55 04.09.2019
2502 Clear 8 1014 87 10000 2 150 20:37 04.09.2019
2503 Clear 8 1014 87 10000 2 150 20:18 04.09.2019
2504 Clear 8 1014 87 10000 2 150 20:18 04.09.2019
2505 Clouds 9 1014 87 10000 2 190 19:43 04.09.2019
2506 Clouds 9 1014 87 10000 2 190 19:23 04.09.2019
2507 Clouds 9 1014 93 10000 2 160 18:55 04.09.2019
2508 Clouds 9 1014 93 10000 2 160 18:36 04.09.2019
2509 Clouds 10 1014 87 10000 2 0 18:18 04.09.2019
2510 Clouds 9 1014 87 10000 1 0 17:41 04.09.2019
2511 Clouds 9 1014 87 10000 1 0 17:23 04.09.2019
2512 Clouds 11 1014 87 10000 1 0 16:57 04.09.2019
2513 Clouds 11 1013 87 10000 1 0 16:38 04.09.2019
2514 Clouds 12 1013 87 10000 2 0 16:19 04.09.2019
2515 Clouds 11 1013 87 10000 2 150 15:41 04.09.2019
2516 Clouds 13 1013 87 10000 1 0 15:22 04.09.2019
2517 Clouds 13 1013 87 10000 1 0 14:58 04.09.2019
2518 Clouds 13 1013 87 10000 1 0 14:39 04.09.2019
2519 Clouds 13 1013 87 10000 1 0 14:39 04.09.2019
2520 Clouds 14 1013 82 10000 5 310 14:21 04.09.2019
2521 Clouds 14 1013 82 10000 5 310 13:59 04.09.2019
2522 Clouds 20 1011 49 10000 4 40 13:39 04.09.2019
2523 Clouds 20 1011 49 10000 4 40 13:21 04.09.2019
2524 Clouds 20 1011 49 10000 4 40 12:44 04.09.2019
2525 Clouds 20 1011 49 10000 4 40 12:26 04.09.2019
2526 Clouds 19 1012 55 10000 5 80 11:58 04.09.2019
2527 Clouds 18 1013 59 10000 4 360 11:39 04.09.2019
2528 Clouds 19 1013 59 10000 3 20 11:20 04.09.2019
2529 Clouds 19 1013 59 10000 3 20 10:56 04.09.2019
2530 Clouds 19 1013 55 10000 4 350 10:38 04.09.2019
2531 Clouds 19 1013 55 10000 4 350 10:38 04.09.2019
2532 Clouds 20 1013 60 10000 6 320 10:19 04.09.2019
2533 Clouds 20 1013 60 10000 6 320 09:45 04.09.2019
2534 Clouds 21 1013 52 10000 6 330 09:21 04.09.2019
2535 Clouds 22 1012 46 10000 4 290 08:43 04.09.2019
2536 Clouds 22 1012 46 10000 4 290 08:24 04.09.2019
2537 Clouds 22 1012 37 10000 3 260 07:59 04.09.2019
2538 Clouds 22 1012 35 10000 3 240 07:36 04.09.2019
2539 Clouds 22 1012 33 10000 4 250 06:58 04.09.2019
2540 Clouds 21 1012 37 10000 5 280 06:38 04.09.2019
2541 Clouds 21 1012 35 10000 1 0 04:55 04.09.2019
2542 Clouds 21 1012 37 10000 1 0 04:22 04.09.2019
2543 Clouds 15 1012 58 10000 1 0 02:51 04.09.2019
2544 Clouds 15 1012 41 10000 2 0 01:20 04.09.2019
2545 Clouds 14 1011 44 10000 1.08 59.29 00:45 04.09.2019
2546 Clouds 16 1011 38 10000 3 200 00:27 04.09.2019
2547 Clouds 16 1011 38 10000 5 170 23:51 03.09.2019
2548 Clouds 16 1011 38 10000 5 170 23:27 03.09.2019
2549 Clouds 14 1011 44 10000 4 170 22:43 03.09.2019
2550 Clouds 17 1012 46 10000 5 160 22:24 03.09.2019
2551 Clouds 17 1012 41 10000 5 160 21:59 03.09.2019
2552 Clouds 18 1012 41 10000 5 180 21:38 03.09.2019
2553 Clouds 20 1012 43 10000 6 220 21:20 03.09.2019
2554 Clouds 20 1012 43 10000 6 220 20:57 03.09.2019
2555 Clouds 18 1012 34 10000 1 0 20:38 03.09.2019
2556 Clouds 20 1012 43 10000 1 0 20:20 03.09.2019
2557 Clouds 20 1012 28 10000 4 240 19:55 03.09.2019
2558 Clouds 20 1012 28 10000 4 240 19:55 03.09.2019
2559 Clouds 20 1012 28 10000 4 240 19:36 03.09.2019
2560 Clouds 21 1012 26 10000 3 240 19:18 03.09.2019
2561 Clouds 21 1012 26 10000 3 240 19:18 03.09.2019
2562 Clouds 20 1012 30 10000 4 170 18:41 03.09.2019
2563 Clouds 21 1012 28 10000 6 150 18:23 03.09.2019
2564 Clouds 21 1012 28 10000 7 150 17:56 03.09.2019
2565 Clouds 21 1012 28 10000 7 150 17:38 03.09.2019
2566 Clouds 22 1012 26 10000 7 150 17:18 03.09.2019
2567 Clouds 22 1012 26 10000 7 150 16:43 03.09.2019
2568 Clouds 22 1012 26 10000 6 150 16:22 03.09.2019
2569 Clouds 22 1012 26 10000 6 150 15:56 03.09.2019
2570 Clear 21 1012 30 10000 6 160 15:37 03.09.2019
2571 Clear 22 1012 28 10000 5 170 15:19 03.09.2019
2572 Clear 22 1012 28 10000 5 170 15:19 03.09.2019
2573 Clear 22 1012 28 10000 5 170 14:56 03.09.2019
2574 Clear 21 1011 32 10000 4 180 14:37 03.09.2019
2575 Clear 21 1011 35 10000 5 180 14:18 03.09.2019
2576 Clear 21 1011 35 10000 5 180 13:55 03.09.2019
2577 Clear 21 1011 35 10000 5 180 13:55 03.09.2019
2578 Clear 21 1011 35 10000 5 180 13:55 03.09.2019
2579 Clouds 21 1011 35 10000 4 160 13:36 03.09.2019
2580 Clouds 26 1011 26 10000 4 190 13:18 03.09.2019
2581 Clouds 26 1011 26 10000 4 190 12:45 03.09.2019
2582 Clouds 26 1011 26 10000 4 190 12:26 03.09.2019
2583 Clouds 29 1011 17 10000 6 190 11:43 03.09.2019
2584 Clouds 29 1011 42 10000 7 190 11:23 03.09.2019
2585 Clouds 29 1011 42 10000 7 190 10:58 03.09.2019
2586 Clouds 30 1011 15 10000 6 180 10:40 03.09.2019
2587 Clouds 30 1011 17 10000 7 200 10:21 03.09.2019
2588 Clouds 30 1011 16 10000 5 210 09:49 03.09.2019
2589 Clouds 30 1011 16 10000 5 210 09:31 03.09.2019
2590 Clouds 29 1012 16 10000 6 200 08:57 03.09.2019
2591 Clouds 29 1012 20 10000 6 180 08:37 03.09.2019
2592 Clouds 27 1013 24 10000 5 150 08:19 03.09.2019
2593 Clouds 27 1013 24 10000 5 150 07:43 03.09.2019
2594 Clouds 27 1013 24 10000 5 150 07:24 03.09.2019
2595 Clouds 27 1014 21 10000 4 160 06:47 03.09.2019
2596 Clouds 27 1014 21 10000 4 160 06:28 03.09.2019
2597 Clear 18 1015 55 10000 1 0 03:44 03.09.2019
2598 Clear 14 1015 71 10000 1 0 02:48 03.09.2019
2599 Clear 14 1015 71 10000 1 0 02:27 03.09.2019
2600 Clouds 10 1015 81 10000 1 0 01:53 03.09.2019
2601 Clouds 10 1015 81 10000 1 0 01:34 03.09.2019
2602 Clouds 11 1014 81 10000 1.79 135.951 00:56 03.09.2019
2603 Clouds 11 1014 81 10000 1.79 135.951 00:26 03.09.2019
2604 Clouds 11 1015 81 10000 1 0 23:40 02.09.2019
2605 Clouds 11 1015 81 10000 1 0 23:40 02.09.2019
2606 Clouds 12 1015 76 10000 1.59 207.354 23:20 02.09.2019
2607 Clouds 12 1015 76 10000 1.59 207.354 22:57 02.09.2019
2608 Clear 11 1015 81 10000 1 0 22:39 02.09.2019
2609 Clear 10 1015 81 10000 1 0 22:20 02.09.2019
2610 Clear 10 1015 81 10000 1 0 21:58 02.09.2019
2611 Clear 9 1015 81 10000 1 0 21:40 02.09.2019
2612 Clear 10 1015 76 10000 2 140 21:20 02.09.2019
2613 Clear 10 1015 76 10000 2 140 21:20 02.09.2019
2614 Clear 10 1015 76 10000 2 140 20:59 02.09.2019
2615 Clouds 10 1015 81 10000 1 0 20:40 02.09.2019
2616 Clouds 10 1015 81 10000 2 140.771 20:18 02.09.2019
2617 Clouds 10 1015 81 10000 1 0 19:56 02.09.2019
2618 Clouds 10 1015 81 10000 1 0 19:38 02.09.2019
2619 Clouds 11 1015 81 10000 1 0 19:19 02.09.2019
2620 Clouds 14 1016 71 10000 1 0 18:40 02.09.2019
2621 Clouds 14 1016 71 10000 1 0 18:40 02.09.2019
2622 Clouds 14 1016 71 10000 1 0 18:40 02.09.2019
2623 Clouds 14 1016 71 10000 1 0 18:40 02.09.2019
2624 Clouds 14 1016 71 10000 1 0 18:40 02.09.2019
2625 Clouds 14 1016 71 10000 4 310 18:22 02.09.2019
2626 Clouds 14 1016 71 10000 3 150 17:57 02.09.2019
2627 Clouds 14 1016 71 10000 3 150 17:39 02.09.2019
2628 Clouds 16 1016 63 10000 1 0 17:20 02.09.2019
2629 Clouds 17 1016 59 10000 1 0 16:42 02.09.2019
2630 Clouds 16 1016 59 10000 2 0 16:23 02.09.2019
2631 Clouds 16 1016 59 10000 2 0 15:59 02.09.2019
2632 Clouds 14 1016 67 10000 2 0 15:41 02.09.2019
2633 Clouds 14 1015 67 10000 2 180 15:21 02.09.2019
2634 Clouds 14 1015 67 10000 2 180 14:56 02.09.2019
2635 Clouds 16 1015 67 10000 1 0 14:37 02.09.2019
2636 Clouds 18 1015 59 10000 1.22 37.132 14:19 02.09.2019
2637 Clouds 19 1015 48 10000 2 140 13:45 02.09.2019
2638 -273 0 0 0 0 0 13:25 02.09.2019
2639 Clouds 24 1015 29 10000 3 60 13:25 02.09.2019
2640 Clouds 25 1015 29 10000 3 60 12:57 02.09.2019
2641 Clouds 25 1015 29 10000 3 60 12:38 02.09.2019
2642 Clouds 26 1015 27 10000 3 70 12:18 02.09.2019
2643 Clouds 26 1015 27 10000 3 70 11:55 02.09.2019
2644 Clouds 26 1015 26 10000 4 50 11:36 02.09.2019
2645 Clouds 27 1015 26 10000 3 20 11:18 02.09.2019
2646 Clouds 27 1015 24 10000 3 30 10:42 02.09.2019
2647 Clouds 27 1016 22 10000 2 0 10:22 02.09.2019
2648 Clouds 27 1016 22 10000 2 0 09:58 02.09.2019
2649 Clouds 27 1016 24 10000 1 0 09:38 02.09.2019
2650 Clouds 26 1016 27 10000 1 0 09:20 02.09.2019
2651 Clouds 25 1017 29 10000 2 0 08:42 02.09.2019
2652 Clouds 25 1017 29 10000 2 0 08:42 02.09.2019
2653 Clouds 24 1017 33 10000 2 0 08:21 02.09.2019
2654 Clouds 24 1017 33 10000 2 0 07:54 02.09.2019
2655 Clouds 24 1017 33 10000 2 0 07:54 02.09.2019
2656 Clouds 23 1017 38 8000 1 0 07:36 02.09.2019
2657 Clouds 21 1017 46 8000 3 90 07:18 02.09.2019
2658 Clouds 20 1017 45 8000 2 0 06:39 02.09.2019
2659 Clouds 20 1017 49 10000 1 0 05:53 02.09.2019
2660 Clouds 19 1017 48 10000 2 0 05:22 02.09.2019
2661 Clouds 17 1018 55 10000 1 0 04:47 02.09.2019
2662 Clouds 11 1017 81 10000 1 0 01:59 02.09.2019
2663 Clouds 11 1017 81 10000 1 0 00:58 02.09.2019
2664 Clouds 11 1017 81 10000 1 0 00:32 02.09.2019
2665 Clouds 11 1016 76 10000 1.23 211.586 23:59 01.09.2019
2666 Clouds 10 1016 81 10000 1 0 23:38 01.09.2019
2667 Clouds 10 1016 81 10000 1 0 23:18 01.09.2019
2668 Clouds 10 1016 81 10000 1 0 22:54 01.09.2019
2669 Clear 9 1016 81 10000 1 0 22:36 01.09.2019
2670 Clear 9 1016 81 10000 1 0 22:18 01.09.2019
2671 Clear 8 1016 87 10000 1 0 21:42 01.09.2019
2672 Clear 10 1016 76 10000 2.47 147.443 21:23 01.09.2019
2673 Clear 10 1016 76 10000 2.47 147.443 21:23 01.09.2019
2674 Clear 10 1016 76 10000 2.47 147.443 20:58 01.09.2019
2675 Clear 10 1016 76 10000 2.47 147.443 20:39 01.09.2019
2676 Clear 9 1016 81 10000 1 0 20:19 01.09.2019
2677 Clear 9 1016 81 10000 1 0 19:58 01.09.2019
2678 Clear 9 1016 81 10000 2.47 147.443 19:39 01.09.2019
2679 Clear 9 1016 81 10000 1 0 19:20 01.09.2019
2680 Clear 9 1016 81 10000 1 0 18:44 01.09.2019
2681 Clear 11 1016 76 10000 1 0 18:25 01.09.2019
2682 Clear 12 1015 71 10000 1.32 214.992 17:57 01.09.2019
2683 Clear 12 1015 71 10000 1.32 214.992 17:38 01.09.2019
2684 Clear 12 1015 71 10000 1 0 17:19 01.09.2019
2685 Clear 14 1015 67 10000 1.32 214.992 16:41 01.09.2019
2686 Clear 14 1015 67 10000 1.32 214.992 16:20 01.09.2019
2687 Clear 14 1015 67 10000 1.32 214.992 15:56 01.09.2019
2688 Clear 14 1015 67 10000 1.32 214.992 15:55 01.09.2019
2689 Clear 16 1015 55 10000 1 0 15:37 01.09.2019
2690 Clear 18 1015 42 10000 1 0 15:19 01.09.2019
2691 Clouds 17 1015 51 10000 2 0 14:41 01.09.2019
2692 Clouds 18 1014 55 10000 3 150 14:21 01.09.2019
2693 Clouds 18 1014 55 10000 3 150 13:58 01.09.2019
2694 Clouds 19 1014 55 10000 3 140 13:39 01.09.2019
2695 Clouds 22 1014 56 10000 2 0 13:20 01.09.2019
2696 Clouds 22 1014 56 10000 2 0 13:20 01.09.2019
2697 Clouds 25 1014 36 10000 2 220 12:42 01.09.2019
2698 Clouds 27 1014 26 10000 2.68 184.148 12:24 01.09.2019
2699 -273 0 0 0 0 0 11:55 01.09.2019
2700 Clouds 28 1014 24 10000 2 240 11:36 01.09.2019
2701 Clouds 27 1014 24 10000 3 200 11:18 01.09.2019
2702 Clouds 29 1014 17 10000 4 200 10:43 01.09.2019
2703 Clouds 29 1014 17 10000 4 200 10:23 01.09.2019
2704 Clouds 28 1015 23 10000 3 190 09:44 01.09.2019
2705 Clouds 28 1015 23 10000 3 190 09:25 01.09.2019
2706 Clouds 28 1015 21 10000 3 170 08:45 01.09.2019
2707 Clouds 28 1015 21 10000 3 170 08:25 01.09.2019
2708 Clouds 26 1015 36 10000 1 0 07:59 01.09.2019
2709 Clouds 25 1016 36 10000 2 0 07:40 01.09.2019
2710 Clouds 25 1016 31 10000 2 0 06:59 01.09.2019
2711 Clouds 25 1016 31 10000 1 0 06:34 01.09.2019
2712 Clouds 21 1017 40 10000 1 0 05:57 01.09.2019
2713 Clouds 21 1017 40 10000 1 0 05:57 01.09.2019
2714 Clouds 17 1018 48 10000 2 0 04:32 01.09.2019
2715 Clouds 15 1017 62 10000 2.17 160.13 03:43 01.09.2019
2716 Clouds 13 1017 66 10000 1 0 02:59 01.09.2019
2717 Clear 12 1017 71 10000 1.24 119.451 02:28 01.09.2019
2718 Clear 8 1018 87 10000 1.24 119.451 01:51 01.09.2019
2719 Clear 6 1017 93 10000 1 118.711 01:24 01.09.2019
2720 Clear 5 1017 86 10000 1 118.711 00:47 01.09.2019
2721 Clear 7 1017 87 10000 0.67 95.574 00:23 01.09.2019
2722 Clear 6 1017 87 10000 0.67 95.574 23:55 31.08.2019
2723 Clear 6 1017 87 10000 0.67 95.574 23:36 31.08.2019
2724 Clear 6 1017 93 10000 1 0 23:18 31.08.2019
2725 Clear 6 1017 87 10000 0.67 95.574 22:44 31.08.2019
2726 Clear 6 1017 87 10000 0.67 95.574 22:25 31.08.2019
2727 Clear 7 1017 87 10000 1 0 21:58 31.08.2019
2728 Clear 7 1017 87 10000 1 0 21:39 31.08.2019
2729 Clear 7 1017 87 10000 1 0 21:19 31.08.2019
2730 Clear 9 1017 81 10000 0.73 94.17 20:47 31.08.2019
2731 Clear 9 1017 81 10000 0.73 94.17 20:29 31.08.2019
2732 Clear 9 1017 81 10000 0.73 94.17 19:56 31.08.2019
2733 Clear 10 1017 76 10000 1 0 19:38 31.08.2019
2734 Clear 10 1017 76 10000 1 0 19:38 31.08.2019
2735 Clear 10 1017 76 10000 1 0 19:20 31.08.2019
2736 Clear 10 1017 76 10000 1 0 18:40 31.08.2019
2737 Clear 10 1017 76 10000 1 0 18:20 31.08.2019
2738 Clear 10 1016 76 10000 1 0 17:57 31.08.2019
2739 Clear 10 1016 76 10000 1 0 17:37 31.08.2019
2740 Clear 10 1016 76 10000 1 0 17:37 31.08.2019
2741 Clear 10 1016 81 10000 1.32 28.371 17:18 31.08.2019
2742 Clear 10 1016 81 10000 1.32 28.371 16:57 31.08.2019
2743 Clear 12 1016 71 10000 2 0 16:39 31.08.2019
2744 Clear 13 1016 66 10000 2 0 16:20 31.08.2019
2745 Clear 13 1016 66 10000 2 0 15:55 31.08.2019
2746 Clear 14 1016 67 10000 3 170 15:36 31.08.2019
2747 Clouds 14 1016 67 10000 2 120 15:18 31.08.2019
2748 Clouds 17 1015 59 10000 2 160 14:41 31.08.2019
2749 Clouds 17 1015 59 10000 2 160 14:41 31.08.2019
2750 Clouds 18 1015 52 10000 4 160 14:22 31.08.2019
2751 Clouds 19 1015 55 10000 3 160 13:41 31.08.2019
2752 Clouds 24 1015 33 10000 3 200 13:23 31.08.2019
2753 Clouds 24 1015 33 10000 3 200 12:59 31.08.2019
2754 Clouds 24 1015 33 10000 3 200 12:59 31.08.2019
2755 Clouds 24 1015 33 10000 3 200 12:39 31.08.2019
2756 Clouds 26 1015 27 10000 3 240 12:20 31.08.2019
2757 Clouds 26 1015 27 10000 3 240 11:55 31.08.2019
2758 Clouds 26 1015 27 10000 3 240 11:36 31.08.2019
2759 Clouds 26 1015 27 10000 3 240 11:18 31.08.2019
2760 Clouds 26 1015 27 10000 3 240 11:18 31.08.2019
2761 Clouds 26 1015 24 10000 3 250 10:41 31.08.2019
2762 Clouds 26 1015 27 10000 2 0 10:19 31.08.2019
2763 Clouds 26 1015 27 10000 2 0 09:56 31.08.2019
2764 Clouds 25 1015 31 10000 3 230 09:37 31.08.2019
2765 Clouds 25 1016 25 10000 3 240 09:19 31.08.2019
2766 Clouds 24 1016 29 10000 3 240 08:42 31.08.2019
2767 Clouds 24 1017 29 10000 3 220 08:22 31.08.2019
2768 Clouds 24 1017 29 10000 3 220 07:40 31.08.2019
2769 Clear 24 1017 31 10000 4 240 07:21 31.08.2019
2770 Clouds 24 1017 31 10000 2 0 06:28 31.08.2019
2771 Clouds 24 1017 31 10000 2 0 06:28 31.08.2019
2772 Clouds 19 1018 48 10000 1 0 05:58 31.08.2019
2773 Clouds 19 1018 48 10000 1 0 05:31 31.08.2019
2774 Clouds 18 1018 48 10000 2.59 192.03 04:32 31.08.2019
2775 Clouds 15 1018 58 10000 1 0 03:44 31.08.2019
2776 Clear 6 1018 87 10000 1.32 141.015 02:30 31.08.2019
2777 Clear 6 1018 87 10000 1.32 141.015 01:53 31.08.2019
2778 Clear 6 1018 87 10000 1.28 136.143 01:33 31.08.2019
2779 Clear 5 1018 86 10000 1 0 00:49 31.08.2019
2780 Clear 5 1018 86 10000 1.28 136.143 00:30 31.08.2019
2781 Clear 5 1018 86 10000 1 0 23:57 30.08.2019
2782 Clear 5 1018 86 10000 1 0 23:38 30.08.2019
2783 Clear 6 1018 87 10000 1 0 23:18 30.08.2019
2784 Clear 6 1018 87 10000 1 0 23:18 30.08.2019
2785 Clear 7 1018 81 10000 1.01 133.318 22:40 30.08.2019
2786 Clear 6 1018 87 10000 1.01 133.318 22:22 30.08.2019
2787 Clear 6 1018 87 10000 1.01 133.318 21:58 30.08.2019
2788 Clear 6 1018 87 10000 1.01 130.897 21:37 30.08.2019
2789 Clear 6 1018 87 10000 0.47 110.014 21:19 30.08.2019
2790 Clear 7 1018 87 10000 0.47 110.014 20:58 30.08.2019
2791 Clear 7 1018 87 10000 0.47 110.014 20:39 30.08.2019
2792 Clear 7 1018 87 10000 0.47 110.014 20:20 30.08.2019
2793 Clear 7 1018 87 10000 0.47 110.014 19:57 30.08.2019
2794 Clear 8 1018 81 10000 2 170 19:38 30.08.2019
2795 Clear 8 1018 81 10000 2 170 19:19 30.08.2019
2796 Clear 9 1018 81 10000 2 170 18:47 30.08.2019
2797 Clear 9 1018 81 10000 2 170 18:25 30.08.2019
2798 Clear 9 1018 81 10000 1 0 17:58 30.08.2019
2799 Clear 9 1018 81 10000 1 0 17:40 30.08.2019
2800 Clear 10 1018 76 10000 2 160 17:19 30.08.2019
2801 Clear 10 1018 76 10000 2 160 16:57 30.08.2019
2802 Clear 11 1018 76 10000 2 160 16:39 30.08.2019
2803 -273 0 0 0 0 0 16:21 30.08.2019
2804 Clear 13 1018 66 10000 3 190 15:43 30.08.2019
2805 Clear 13 1018 66 10000 3 180 15:22 30.08.2019
2806 Clear 14 1018 67 10000 2 160 14:46 30.08.2019
2807 Clear 14 1018 67 10000 2 160 14:28 30.08.2019
2808 Clear 16 1017 63 10000 2 0 13:58 30.08.2019
2809 Clouds 21 1017 40 10000 2 0 13:40 30.08.2019
2810 Clouds 23 1017 31 10000 4 330 13:21 30.08.2019
2811 Clouds 23 1017 31 10000 4 330 12:45 30.08.2019
2812 Clouds 23 1017 31 10000 4 330 12:26 30.08.2019
2813 Clouds 24 1017 25 10000 5 310 11:58 30.08.2019
2814 Clouds 24 1017 25 10000 5 310 11:39 30.08.2019
2815 Clouds 24 1017 25 10000 5 310 11:21 30.08.2019
2816 Clouds 24 1017 25 10000 5 310 11:21 30.08.2019
2817 Clouds 24 1017 27 10000 3 280 10:39 30.08.2019
2818 Clouds 24 1017 25 10000 2 0 10:20 30.08.2019
2819 Clouds 24 1017 25 10000 2 0 09:56 30.08.2019
2820 Clouds 24 1017 22 10000 3 290 09:36 30.08.2019
2821 Clouds 24 1017 22 10000 3 290 09:36 30.08.2019
2822 Clouds 24 1017 22 10000 4 280 09:18 30.08.2019
2823 Clouds 23 1018 23 10000 2 0 08:44 30.08.2019
2824 Clouds 23 1018 23 10000 2 0 08:24 30.08.2019
2825 Clouds 23 1018 31 10000 2 0 07:47 30.08.2019
2826 Clouds 23 1018 31 10000 2 0 07:27 30.08.2019
2827 Clouds 21 1018 37 10000 2 0 06:58 30.08.2019
2828 Clouds 21 1019 40 10000 2 0 06:40 30.08.2019
2829 Clouds 20 1019 45 10000 1 0 06:20 30.08.2019
2830 Clouds 19 1020 52 10000 1 0 05:28 30.08.2019
2831 Clear 15 1020 62 10000 1 0 03:57 30.08.2019
2832 Clear 14 1020 67 10000 1.47 16.923 03:37 30.08.2019
2833 Clear 14 1020 67 10000 1.47 16.923 03:37 30.08.2019
2834 Clear 11 1020 76 10000 0.53 76.692 02:41 30.08.2019
2835 Clear 8 1020 87 10000 0.53 76.692 01:40 30.08.2019
2836 Clear 4 1020 93 10000 1 0 00:53 30.08.2019
2837 Clear 4 1020 93 10000 0.72 51.576 00:20 30.08.2019
2838 Clear 5 1020 86 10000 0.72 51.576 23:48 29.08.2019
2839 Clear 6 1020 87 10000 0.72 51.576 23:23 29.08.2019
2840 Clear 6 1020 87 10000 0.72 51.576 22:56 29.08.2019
2841 Clear 6 1020 87 10000 1 0 22:37 29.08.2019
2842 Clear 6 1020 87 10000 1 0 22:19 29.08.2019
2843 Clear 6 1020 87 10000 2 0 21:41 29.08.2019
2844 Clear 6 1020 87 10000 1.01 36.006 21:21 29.08.2019
2845 Clear 6 1020 87 10000 1.01 36.006 20:59 29.08.2019
2846 Clear 7 1020 87 10000 1 0 20:40 29.08.2019
2847 Clear 7 1020 87 10000 1 0 20:19 29.08.2019
2848 Clear 8 1020 81 10000 1 0 19:47 29.08.2019
2849 Clear 8 1020 81 10000 1 0 19:27 29.08.2019
2850 Clear 8 1020 81 10000 1 0 18:59 29.08.2019
2851 Clear 8 1020 81 10000 1 0 18:41 29.08.2019
2852 Clear 8 1020 81 10000 1 0 18:19 29.08.2019
2853 Clear 8 1020 81 10000 1 0 17:56 29.08.2019
2854 Clear 10 1020 76 10000 1.46 16.021 17:36 29.08.2019
2855 Clear 9 1020 81 10000 2 0 17:18 29.08.2019
2856 Clear 10 1020 76 10000 3 170 16:43 29.08.2019
2857 Clear 10 1020 76 10000 3 170 16:23 29.08.2019
2858 Clear 10 1020 76 10000 3 170 15:57 29.08.2019
2859 Clear 11 1020 76 10000 2 160 15:37 29.08.2019
2860 Clear 12 1019 71 10000 2 150 15:18 29.08.2019
2861 Clear 13 1019 71 10000 3 160 14:43 29.08.2019
2862 Clear 14 1019 67 10000 3 160 14:21 29.08.2019
2863 Clear 14 1019 67 10000 3 160 13:58 29.08.2019
2864 Clear 14 1019 67 10000 3 160 13:58 29.08.2019
2865 Clouds 18 1019 59 10000 2 170 13:39 29.08.2019
2866 Clouds 18 1019 59 10000 2 170 13:39 29.08.2019
2867 Clouds 20 1019 42 10000 2 170 13:20 29.08.2019
2868 Clouds 20 1019 42 10000 2 170 12:58 29.08.2019
2869 Clouds 21 1019 40 10000 1 0 12:38 29.08.2019
2870 Clouds 22 1019 30 10000 1 0 12:20 29.08.2019
2871 Clouds 22 1019 28 10000 1 0 11:57 29.08.2019
2872 Clouds 22 1019 28 10000 1 0 11:36 29.08.2019
2873 Clouds 22 1019 26 10000 2 0 11:18 29.08.2019
2874 Clouds 23 1019 27 10000 1 0 10:41 29.08.2019
2875 Clouds 22 1019 26 10000 2 0 10:23 29.08.2019
2876 Clouds 22 1019 26 10000 1 0 09:42 29.08.2019
2877 Clouds 22 1019 26 10000 2 0 09:20 29.08.2019
2878 Clouds 22 1019 26 10000 2 0 08:56 29.08.2019
2879 Clouds 22 1020 28 10000 2 0 08:37 29.08.2019
2880 Clouds 21 1020 28 10000 2 0 08:19 29.08.2019
2881 Clouds 20 1020 35 10000 3 280 07:43 29.08.2019
2882 Clouds 20 1021 34 10000 2 0 07:23 29.08.2019
2883 Clouds 19 1021 42 10000 2 0 06:42 29.08.2019
2884 Clouds 19 1021 48 10000 2 0 06:21 29.08.2019
2885 Clouds 18 1021 52 10000 1 0 05:38 29.08.2019
2886 Clouds 16 1022 63 10000 1 0 04:50 29.08.2019
2887 Clouds 16 1022 63 10000 1 0 04:28 29.08.2019
2888 Clear 10 1022 81 10000 2 0 02:44 29.08.2019
2889 Clear 7 1022 93 10000 1.07 128.385 01:42 29.08.2019
2890 Clear 5 1022 93 10000 1 0 00:58 29.08.2019
2891 Clear 4 1022 93 10000 1 0 00:40 29.08.2019
2892 Clear 6 1022 87 10000 0.75 138.929 00:20 29.08.2019
2893 Clear 5 1022 93 10000 1 0 23:42 28.08.2019
2894 Clear 5 1022 93 10000 1 0 23:23 28.08.2019
2895 Clear 6 1022 93 10000 0.75 138.929 22:58 28.08.2019
2896 Clear 7 1022 87 10000 0.75 138.929 22:38 28.08.2019
2897 Clear 7 1022 87 10000 0.75 138.929 22:18 28.08.2019
2898 Clear 7 1022 87 10000 0.72 139.381 21:57 28.08.2019
2899 Clear 6 1022 87 10000 1 0 21:38 28.08.2019
2900 Clear 7 1022 87 10000 1 0 21:20 28.08.2019
2901 Clear 8 1022 87 10000 1 0 20:41 28.08.2019
2902 Clear 8 1022 87 10000 1 0 20:22 28.08.2019
2903 Clear 7 1022 93 10000 2 170 19:55 28.08.2019
2904 Clear 7 1022 93 10000 2 170 19:37 28.08.2019
2905 Clear 8 1022 81 10000 0.67 127.006 19:18 28.08.2019
2906 Clear 9 1022 81 10000 1 0 18:42 28.08.2019
2907 Clear 9 1022 81 10000 1 0 18:21 28.08.2019
2908 Clear 9 1022 81 10000 2 160 17:40 28.08.2019
2909 Clear 9 1022 81 10000 2 160 17:21 28.08.2019
2910 Clear 9 1022 81 10000 2 160 16:59 28.08.2019
2911 Clear 9 1022 87 10000 2 160 16:41 28.08.2019
2912 Clear 9 1022 87 10000 2 160 16:18 28.08.2019
2913 Clear 10 1022 81 10000 2 170 15:39 28.08.2019
2914 Clear 12 1022 81 10000 2 190 15:20 28.08.2019
2915 Clear 12 1022 81 10000 2 190 14:59 28.08.2019
2916 Clouds 13 1022 76 10000 2 180 14:41 28.08.2019
2917 Clouds 18 1021 48 10000 2 0 14:21 28.08.2019
2918 Clouds 18 1021 48 10000 2 0 13:59 28.08.2019
2919 Clouds 19 1021 45 10000 3 360 13:39 28.08.2019
2920 Clouds 19 1021 52 10000 2 330 13:20 28.08.2019
2921 Clouds 19 1021 52 10000 2 330 12:56 28.08.2019
2922 Clouds 20 1021 45 10000 2 0 12:38 28.08.2019
2923 Clouds 20 1021 45 10000 2 0 12:20 28.08.2019
2924 Clouds 20 1021 49 10000 4 320 11:40 28.08.2019
2925 Clouds 20 1021 45 10000 3 320 11:21 28.08.2019
2926 Clouds 20 1021 45 10000 3 320 10:56 28.08.2019
2927 -273 0 0 0 0 0 10:56 28.08.2019
2928 Clouds 20 1021 45 10000 3 320 10:56 28.08.2019
2929 Clouds 20 1021 49 10000 3 300 10:37 28.08.2019
2930 Clouds 21 1021 43 10000 3 320 10:19 28.08.2019
2931 Clouds 20 1022 45 10000 3 330 09:41 28.08.2019
2932 Clouds 20 1022 42 10000 3 270 09:21 28.08.2019
2933 Clouds 19 1022 42 10000 3 270 08:40 28.08.2019
2934 Clouds 19 1023 48 10000 3 300 08:22 28.08.2019
2935 Clouds 19 1023 48 10000 3 300 07:59 28.08.2019
2936 Clouds 19 1023 48 10000 3 300 07:37 28.08.2019
2937 Clouds 18 1023 52 10000 2 0 07:18 28.08.2019
2938 Clouds 18 1023 52 10000 2 0 06:44 28.08.2019
2939 Clouds 16 1024 63 10000 2 0 05:52 28.08.2019
2940 Clouds 13 1024 71 10000 2 0 04:28 28.08.2019
2941 Clouds 5 1023 93 10000 2 120 01:56 28.08.2019
2942 Clouds 5 1023 93 10000 2 120 01:30 28.08.2019
2943 Clear 4 1023 93 10000 2 190 00:43 28.08.2019
2944 Clear 4 1022 93 10000 2 140 00:21 28.08.2019
2945 Clear 5 1022 86 10000 1 0 23:40 27.08.2019
2946 Clear 6 1022 87 10000 2 170 23:22 27.08.2019
2947 Clear 6 1022 87 10000 2 170 23:22 27.08.2019
2948 Clear 6 1022 87 10000 2 170 22:57 27.08.2019
2949 Clear 5 1022 93 10000 2 0 22:38 27.08.2019
2950 Clear 7 1022 87 10000 1 0 22:20 27.08.2019
2951 Clear 7 1022 87 10000 1 0 21:55 27.08.2019
2952 Clear 6 1022 93 10000 2 0 21:37 27.08.2019
2953 Clear 6 1022 93 10000 2 0 21:18 27.08.2019
2954 Clear 8 1022 81 10000 2 0 20:42 27.08.2019
2955 Clear 9 1022 81 10000 1 0 20:21 27.08.2019
2956 Clear 9 1022 81 10000 1 0 19:58 27.08.2019
2957 Clouds 9 1021 81 10000 2 320 19:40 27.08.2019
2958 Clouds 10 1021 81 10000 2 350 19:22 27.08.2019
2959 Clouds 12 1021 71 10000 4 350 18:54 27.08.2019
2960 Clouds 12 1021 71 10000 4 350 18:36 27.08.2019
2961 Clouds 12 1021 71 10000 4 350 18:18 27.08.2019
2962 Clouds 12 1021 71 10000 4 350 17:42 27.08.2019
2963 Clouds 12 1021 71 10000 4 20 17:22 27.08.2019
2964 Clouds 12 1021 71 0 4 360 16:48 27.08.2019
2965 Clouds 12 1021 71 0 4 360 16:28 27.08.2019
2966 Clouds 12 1021 71 0 4 360 16:28 27.08.2019
2967 Clouds 13 1021 66 10000 6 350 15:58 27.08.2019
2968 Clouds 13 1021 62 10000 5 360 15:40 27.08.2019
2969 Clouds 13 1021 62 10000 4 350 15:21 27.08.2019
2970 Clouds 13 1021 62 10000 4 350 14:57 27.08.2019
2971 Clouds 13 1021 62 10000 4 350 14:39 27.08.2019
2972 Clouds 13 1020 62 10000 4 350 14:19 27.08.2019
2973 Clouds 14 1020 58 10000 4 340 13:42 27.08.2019
2974 Clouds 14 1020 58 10000 5 350 13:21 27.08.2019
2975 Clouds 14 1020 58 10000 7 340 12:55 27.08.2019
2976 Clouds 14 1020 58 10000 7 340 12:36 27.08.2019
2977 Clouds 14 1020 54 10000 7 340 12:18 27.08.2019
2978 Clouds 14 1020 54 10000 7 340 12:18 27.08.2019
2979 Clouds 14 1020 54 10000 7 340 12:18 27.08.2019
2980 Clouds 14 1019 54 10000 8 340 11:42 27.08.2019
2981 Clouds 14 1019 58 10000 7 340 11:22 27.08.2019
2982 Clouds 15 1019 51 10000 9 340 10:41 27.08.2019
2983 Clouds 15 1019 51 10000 8 340 10:20 27.08.2019
2984 Clouds 15 1019 51 10000 8 340 09:57 27.08.2019
2985 Clouds 15 1019 54 10000 8 350 09:38 27.08.2019
2986 Clouds 16 1019 48 10000 9 340 09:19 27.08.2019
2987 Clouds 16 1019 48 10000 9 340 08:46 27.08.2019
2988 Clouds 16 1019 48 10000 9 340 08:26 27.08.2019
2989 Clouds 15 1019 51 10000 10 340 07:56 27.08.2019
2990 Clouds 15 1019 51 10000 10 340 07:37 27.08.2019
2991 Clouds 15 1019 47 10000 10 340 07:18 27.08.2019
2992 Clouds 14 1019 50 10000 10 340 06:48 27.08.2019
2993 Clouds 15 1019 51 10000 10 330 06:20 27.08.2019
2994 Clouds 14 1020 54 10000 8 340 05:29 27.08.2019
2995 Clouds 12 1020 62 10000 6 320 04:20 27.08.2019
2996 Clouds 12 1020 62 10000 5 320 03:31 27.08.2019
2997 Clouds 7 1020 81 10000 2 330 01:55 27.08.2019
2998 Clouds 7 1020 81 10000 2 330 01:30 27.08.2019
2999 Clouds 7 1020 81 10000 4 300 00:50 27.08.2019
3000 Clouds 7 1020 81 10000 4 300 00:29 27.08.2019
3001 Clear 5 1020 86 10000 1 0 23:46 26.08.2019
3002 Clear 5 1020 86 10000 1 0 23:26 26.08.2019
3003 Clear 6 1020 81 10000 1 0 22:59 26.08.2019
3004 Clear 6 1020 81 10000 2 0 22:37 26.08.2019
3005 Clear 5 1020 80 10000 2.76 310.879 22:19 26.08.2019
3006 Clear 4 1020 86 10000 2 150 21:40 26.08.2019
3007 Clear 4 1020 86 10000 2 150 21:22 26.08.2019
3008 Clear 4 1020 86 10000 2 150 20:59 26.08.2019
3009 Clear 5 1020 86 10000 2 230 20:41 26.08.2019
3010 Clear 5 1020 86 10000 2 230 20:21 26.08.2019
3011 Clear 6 1020 81 10000 1 0 19:59 26.08.2019
3012 Clear 6 1020 81 10000 1 0 19:41 26.08.2019
3013 Clear 6 1020 81 10000 1 0 19:19 26.08.2019
3014 Clear 6 1020 81 10000 1 0 18:55 26.08.2019
3015 Clear 8 1020 75 10000 3.87 303.628 18:37 26.08.2019
3016 Clear 8 1020 75 10000 2.34 301.232 18:18 26.08.2019
3017 Clear 10 1020 71 10000 1 0 17:43 26.08.2019
3018 Clear 10 1020 71 10000 1 0 17:19 26.08.2019
3019 Clear 9 1020 76 10000 1 0 16:57 26.08.2019
3020 Clear 9 1021 76 10000 2.34 301.232 16:38 26.08.2019
3021 Clear 10 1020 76 10000 2 280 16:18 26.08.2019
3022 Clouds 9 1021 81 10000 3 280 15:42 26.08.2019
3023 Clouds 9 1021 81 10000 3 280 15:22 26.08.2019
3024 Clouds 12 1020 66 10000 3 330 14:58 26.08.2019
3025 Clouds 13 1020 62 10000 4 330 14:38 26.08.2019
3026 Clouds 14 1020 54 10000 6 330 14:19 26.08.2019
3027 Clouds 14 1019 50 10000 7 330 13:43 26.08.2019
3028 Clouds 14 1019 50 10000 7 330 13:22 26.08.2019
3029 Clouds 15 1019 54 10000 5 330 12:54 26.08.2019
3030 Clouds 15 1019 54 10000 5 330 12:36 26.08.2019
3031 Clouds 15 1019 54 10000 6 350 12:18 26.08.2019
3032 Clouds 15 1018 51 10000 7 330 11:38 26.08.2019
3033 Clouds 16 1018 44 10000 7 320 11:19 26.08.2019
3034 Clouds 16 1018 44 10000 7 320 10:55 26.08.2019
3035 Clouds 15 1019 51 10000 7 340 10:36 26.08.2019
3036 Clouds 16 1019 44 10000 8 340 10:18 26.08.2019
3037 Clouds 16 1019 44 10000 8 340 09:41 26.08.2019
3038 Clouds 16 1019 44 10000 8 340 09:23 26.08.2019
3039 Clouds 15 1019 54 10000 5 330 08:56 26.08.2019
3040 Clouds 15 1019 54 10000 5 330 08:37 26.08.2019
3041 Clouds 14 1019 54 10000 8 340 08:19 26.08.2019
3042 Clouds 14 1019 54 10000 8 340 07:42 26.08.2019
3043 Clouds 14 1019 54 10000 8 340 07:24 26.08.2019
3044 Clouds 15 1019 54 10000 5 330 06:50 26.08.2019
3045 Clouds 15 1019 51 10000 6 350 06:26 26.08.2019
3046 Clouds 14 1019 54 10000 7 330 05:58 26.08.2019
3047 Clouds 12 1019 71 10000 4 340 04:35 26.08.2019
3048 Clouds 11 1019 71 10000 3.8 357.978 03:48 26.08.2019
3049 Clouds 8 1019 87 10000 1 0 02:19 26.08.2019
3050 Clouds 5 1018 93 10000 2 190 01:22 26.08.2019
3051 Clear 4 1018 86 10000 1 0 00:43 26.08.2019
3052 Clear 4 1018 86 10000 1 0 00:24 26.08.2019
3053 Clear 5 1017 86 10000 2 0 23:44 25.08.2019
3054 Clear 5 1017 86 10000 2 0 23:44 25.08.2019
3055 Clear 5 1017 86 10000 2 0 23:20 25.08.2019
3056 Clear 6 1017 87 10000 1 0 22:58 25.08.2019
3057 Clear 6 1017 87 10000 1 0 22:58 25.08.2019
3058 Clear 6 1017 87 10000 1 0 22:39 25.08.2019
3059 Clear 6 1017 87 10000 1 0 22:20 25.08.2019
3060 Clear 5 1017 86 10000 3 180 21:58 25.08.2019
3061 Clear 5 1017 86 10000 3 180 21:58 25.08.2019
3062 Clear 5 1017 86 10000 3 180 21:39 25.08.2019
3063 Clear 5 1017 86 10000 3 180 21:18 25.08.2019
3064 Clear 5 1017 86 10000 2 180 20:41 25.08.2019
3065 Clear 5 1017 86 10000 2 180 20:20 25.08.2019
3066 Clear 8 1017 75 10000 2 0 19:59 25.08.2019
3067 Clear 8 1017 75 10000 2 0 19:39 25.08.2019
3068 Clear 8 1017 75 10000 2 0 19:20 25.08.2019
3069 Clear 7 1017 87 10000 2 170 18:58 25.08.2019
3070 Clear 7 1016 87 10000 1.44 272.316 18:39 25.08.2019
3071 Clear 7 1016 87 10000 1.99 300.126 18:21 25.08.2019
3072 Clear 8 1016 81 10000 1 0 17:46 25.08.2019
3073 Clear 8 1016 81 10000 1 0 17:25 25.08.2019
3074 Clear 8 1016 81 10000 1 0 16:59 25.08.2019
3075 Clear 9 1016 81 10000 3 170 16:37 25.08.2019
3076 Clear 9 1016 81 10000 3 170 16:18 25.08.2019
3077 Clear 13 1016 62 10000 1 0 15:43 25.08.2019
3078 Clear 13 1016 62 10000 1 0 15:25 25.08.2019
3079 Clear 13 1016 66 10000 2 320 14:43 25.08.2019
3080 Clear 13 1016 66 10000 2 320 14:25 25.08.2019
3081 Clouds 16 1015 48 10000 3 320 13:57 25.08.2019
3082 Clouds 16 1015 48 10000 3 320 13:38 25.08.2019
3083 Clouds 18 1015 42 10000 5 320 13:19 25.08.2019
3084 Clouds 18 1015 42 10000 5 320 12:48 25.08.2019
3085 Clouds 18 1015 42 10000 5 320 12:26 25.08.2019
3086 Clouds 19 1015 34 10000 6 300 11:59 25.08.2019
3087 Clouds 20 1015 37 10000 6 310 11:40 25.08.2019
3088 Clouds 20 1015 37 10000 6 310 11:21 25.08.2019
3089 Clouds 20 1015 37 10000 6 310 11:21 25.08.2019
3090 Clouds 20 1015 34 10000 6 290 10:57 25.08.2019
3091 Clouds 20 1015 34 10000 6 290 10:39 25.08.2019
3092 Clouds 20 1015 34 10000 6 290 10:19 25.08.2019
3093 Clouds 19 1015 39 10000 7 280 09:44 25.08.2019
3094 Clouds 19 1015 39 10000 7 280 09:25 25.08.2019
3095 Clouds 21 1015 35 10000 6 260 08:48 25.08.2019
3096 Clouds 21 1015 35 10000 6 260 08:30 25.08.2019
3097 Clouds 20 1015 45 10000 6 300 07:55 25.08.2019
3098 Clouds 19 1015 48 10000 4 270 07:34 25.08.2019
3099 Clouds 19 1015 48 10000 4 270 07:34 25.08.2019
3100 Clouds 19 1015 52 10000 5 300 06:45 25.08.2019
3101 Clouds 19 1015 52 10000 4 290 05:42 25.08.2019
3102 Clouds 17 1015 67 10000 3 270 04:23 25.08.2019
3103 Clouds 15 1015 82 10000 1 0 02:58 25.08.2019
3104 Clouds 14 1015 87 10000 1 0 02:38 25.08.2019
3105 Clouds 13 1014 82 10000 1 0 01:18 25.08.2019
3106 Clouds 13 1013 87 10000 1 0 00:37 25.08.2019
3107 Clouds 13 1013 93 10000 2 0 00:18 25.08.2019
3108 Clouds 14 1013 87 10000 1 0 23:45 24.08.2019
3109 Clouds 14 1013 87 10000 1 0 23:22 24.08.2019
3110 Clouds 13 1013 93 10000 2 160 22:54 24.08.2019
3111 Clouds 11 1011 86 0 1.68 307.899 22:36 24.08.2019
3112 Clouds 12 1013 87 10000 2 150 22:18 24.08.2019
3113 Clouds 12 1013 87 10000 2 150 21:42 24.08.2019
3114 Clouds 12 1013 87 10000 2 150 21:24 24.08.2019
3115 Clouds 13 1013 87 10000 1 0 20:59 24.08.2019
3116 Clouds 13 1013 87 10000 1 0 20:41 24.08.2019
3117 Clouds 13 1013 87 10000 1 0 20:20 24.08.2019
3118 Clouds 14 1013 87 10000 2 0 19:59 24.08.2019
3119 Clouds 14 1013 87 10000 2 0 19:40 24.08.2019
3120 Clouds 14 1013 87 10000 2 0 19:22 24.08.2019
3121 Clouds 14 1013 87 10000 2 0 18:56 24.08.2019
3122 Thunderstorm 16 1012 82 10000 2 0 18:36 24.08.2019
3123 Thunderstorm 15 1012 82 10000 0.94 242.346 18:18 24.08.2019
3124 Thunderstorm 15 1012 82 10000 0.94 242.346 17:42 24.08.2019
3125 Thunderstorm 15 1012 87 10000 1 0 17:23 24.08.2019
3126 Thunderstorm 15 1012 87 10000 1 0 16:42 24.08.2019
3127 Thunderstorm 15 1012 87 10000 1 0 16:19 24.08.2019
3128 Clouds 16 1011 82 10000 0.94 242.346 15:55 24.08.2019
3129 Clouds 16 1011 82 10000 0.94 242.346 15:37 24.08.2019
3130 Clouds 19 1011 68 10000 2 0 15:19 24.08.2019
3131 Clouds 19 1011 68 10000 2 0 14:42 24.08.2019
3132 Clouds 19 1011 68 10000 2 0 14:20 24.08.2019
3133 Clouds 21 1011 56 10000 3 30 13:55 24.08.2019
3134 Thunderstorm 21 1011 60 10000 2 0 13:37 24.08.2019
3135 Thunderstorm 21 1011 60 10000 4 340 13:18 24.08.2019
3136 Thunderstorm 21 1011 60 10000 4 340 12:42 24.08.2019
3137 Thunderstorm 21 1011 60 10000 4 340 12:23 24.08.2019
3138 Clouds 21 1011 56 10000 4 330 11:55 24.08.2019
3139 Clouds 22 1010 46 10000 6 320 11:37 24.08.2019
3140 Clouds 24 1010 47 10000 2 0 11:18 24.08.2019
3141 Clouds 23 1010 46 10000 3 260 10:41 24.08.2019
3142 Clouds 23 1010 46 10000 3 260 10:21 24.08.2019
3143 Clouds 23 1011 46 10000 4 260 09:44 24.08.2019
3144 Clouds 23 1011 46 10000 4 260 09:19 24.08.2019
3145 Clouds 23 1011 53 10000 3 220 08:44 24.08.2019
3146 Clouds 23 1011 53 10000 3 220 08:26 24.08.2019
3147 Clouds 23 1011 53 10000 3 170 07:54 24.08.2019
3148 Clouds 23 1011 53 10000 3 170 07:54 24.08.2019
3149 Clouds 22 1011 53 10000 4 180 07:33 24.08.2019
3150 Clouds 21 1012 52 10000 4 170 06:58 24.08.2019
3151 Clouds 21 1012 52 10000 4 170 06:23 24.08.2019
3152 Clouds 20 1012 60 10000 4 150 05:40 24.08.2019
3153 Clouds 18 1012 63 10000 5 150 03:51 24.08.2019
3154 Clouds 18 1012 63 10000 6 140 03:32 24.08.2019
3155 Clouds 16 1012 67 10000 1 0 02:23 24.08.2019
3156 Clouds 13 1012 82 10000 1 0 01:29 24.08.2019
3157 Clouds 12 1012 87 10000 1 0 00:49 24.08.2019
3158 Clouds 12 1012 87 10000 1 0 00:24 24.08.2019
3159 Clouds 13 1012 82 0 2 0 23:49 23.08.2019
3160 Clouds 13 1012 82 0 2 0 23:23 23.08.2019
3161 Clouds 12 1013 87 10000 1 0 22:58 23.08.2019
3162 Clouds 12 1013 87 10000 1 0 22:40 23.08.2019
3163 Clouds 12 1013 87 10000 1 0 22:20 23.08.2019
3164 Clouds 13 1013 82 10000 2 0 21:38 23.08.2019
3165 Clouds 13 1013 82 10000 2 0 21:19 23.08.2019
3166 Clouds 13 1013 82 10000 2 0 20:53 23.08.2019
3167 Clouds 13 1013 82 10000 2 0 20:35 23.08.2019
3168 Clouds 13 1013 87 10000 1 0 19:55 23.08.2019
3169 Clouds 13 1013 87 10000 1 0 19:55 23.08.2019
3170 Clouds 14 1014 76 10000 2 0 19:36 23.08.2019
3171 Clouds 14 1014 76 10000 2 0 19:18 23.08.2019
3172 Clouds 14 1014 76 10000 2 0 19:18 23.08.2019
3173 Clouds 14 1014 82 10000 2 0 18:42 23.08.2019
3174 Clouds 14 1014 82 10000 2 0 18:24 23.08.2019
3175 Rain 14 1015 76 10000 5 130 17:46 23.08.2019
3176 Rain 14 1015 76 10000 5 130 17:28 23.08.2019
3177 Rain 15 1015 77 10000 5 130 16:59 23.08.2019
3178 Clouds 15 1015 77 10000 6 130 16:40 23.08.2019
3179 Clouds 15 1015 77 10000 6 130 16:22 23.08.2019
3180 Rain 14 1016 87 10000 5 140 15:41 23.08.2019
3181 Rain 14 1016 87 10000 5 140 15:22 23.08.2019
3182 Rain 14 1017 87 10000 3 230 14:58 23.08.2019
3183 Rain 14 1017 87 10000 3 230 14:39 23.08.2019
3184 Rain 14 1017 87 10000 3 230 14:20 23.08.2019
3185 Rain 16 1015 72 10000 4 170 13:56 23.08.2019
3186 Clouds 17 1015 59 10000 6 130 13:37 23.08.2019
3187 Rain 17 1015 63 10000 6 140 13:19 23.08.2019
3188 Rain 17 1015 63 10000 6 140 13:19 23.08.2019
3189 Rain 17 1015 63 10000 6 140 12:42 23.08.2019
3190 Rain 17 1015 63 10000 6 140 12:24 23.08.2019
3191 Clouds 18 1015 59 10000 7 130 11:59 23.08.2019
3192 Clouds 18 1015 55 10000 8 130 11:40 23.08.2019
3193 Clouds 18 1015 55 10000 8 130 11:20 23.08.2019
3194 Clouds 18 1015 59 10000 7 140 10:58 23.08.2019
3195 Clouds 18 1015 59 10000 7 140 10:58 23.08.2019
3196 Clouds 19 1015 55 10000 7 140 10:40 23.08.2019
3197 Clouds 19 1015 55 10000 7 140 10:21 23.08.2019
3198 Clouds 19 1016 55 10000 5 130 09:45 23.08.2019
3199 Clouds 19 1016 55 10000 5 130 09:45 23.08.2019
3200 Clouds 19 1016 55 10000 5 130 09:26 23.08.2019
3201 Clouds 18 1016 59 10000 2 0 08:57 23.08.2019
3202 Clouds 16 1017 67 10000 4 130 08:37 23.08.2019
3203 Clouds 16 1017 67 10000 4 130 08:18 23.08.2019
3204 Clouds 15 1017 67 10000 5 100 07:41 23.08.2019
3205 Rain 15 1017 67 10000 6 130 07:23 23.08.2019
3206 Rain 14 1018 76 10000 5 140 06:43 23.08.2019
3207 Rain 14 1018 76 10000 5 140 06:23 23.08.2019
3208 Rain 15 1018 62 10000 4 170 05:46 23.08.2019
3209 Rain 15 1018 62 10000 4 170 05:26 23.08.2019
3210 Clouds 16 1017 51 10000 8 140 03:59 23.08.2019
3211 Clouds 17 1018 48 10000 2 0 02:39 23.08.2019
3212 Clouds 17 1018 48 10000 2 0 02:21 23.08.2019
3213 Clouds 13 1018 71 10000 2 0 01:36 23.08.2019
3214 Clouds 10 1017 81 10000 2 0 00:43 23.08.2019
3215 Clouds 9 1017 87 10000 2.38 142.866 00:18 23.08.2019
3216 Clear 9 1017 87 10000 2 0 23:43 22.08.2019
3217 Clear 9 1017 87 10000 2 0 23:22 22.08.2019
3218 Clouds 10 1017 81 10000 1 0 22:54 22.08.2019
3219 Clouds 11 1018 76 10000 1 0 22:36 22.08.2019
3220 Clouds 11 1018 76 10000 1 0 22:18 22.08.2019
3221 Clear 10 1018 81 10000 1 0 21:41 22.08.2019
3222 Clear 10 1018 81 10000 1 0 21:23 22.08.2019
3223 Clear 9 1018 87 10000 1 0 20:59 22.08.2019
3224 Clear 9 1018 87 10000 1 0 20:40 22.08.2019
3225 Clear 9 1018 87 10000 1 0 20:20 22.08.2019
3226 Clear 11 1018 81 10000 1 0 19:57 22.08.2019
3227 Clear 10 1018 87 10000 1 0 19:39 22.08.2019
3228 Clear 10 1018 87 10000 1 0 19:20 22.08.2019
3229 Clear 10 1018 87 10000 1 0 18:58 22.08.2019
3230 Clear 11 1018 81 10000 1 0 18:39 22.08.2019
3231 Clear 11 1018 81 10000 1 0 18:19 22.08.2019
3232 Clear 11 1018 81 10000 1 0 17:56 22.08.2019
3233 Clear 11 1018 81 10000 1 0 17:56 22.08.2019
3234 Clear 14 1018 67 10000 3 60 17:38 22.08.2019
3235 Clear 14 1018 67 10000 2 0 17:19 22.08.2019
3236 Clear 14 1018 67 10000 1 0 16:56 22.08.2019
3237 Clear 14 1018 67 10000 1 0 16:56 22.08.2019
3238 Clear 14 1018 67 10000 1 0 16:37 22.08.2019
3239 Clear 15 1018 67 10000 1 0 16:18 22.08.2019
3240 Clear 15 1018 67 10000 1 0 16:18 22.08.2019
3241 Clear 15 1018 67 10000 1 0 16:18 22.08.2019
3242 Clear 15 1018 67 10000 1 0 16:18 22.08.2019
3243 Clear 15 1018 67 10000 1 0 16:18 22.08.2019
3244 Clear 15 1018 67 10000 1 0 15:41 22.08.2019
3245 Clear 15 1018 67 10000 1 0 15:41 22.08.2019
3246 Clear 15 1018 67 10000 1 0 15:41 22.08.2019
3247 Clear 15 1018 67 10000 1 0 15:23 22.08.2019
3248 Clouds 15 1017 67 10000 3 130 14:58 22.08.2019
3249 Clouds 15 1017 72 10000 4 140 14:40 22.08.2019
3250 Clouds 15 1017 72 10000 4 140 14:20 22.08.2019
3251 Clouds 15 1017 72 10000 4 140 14:20 22.08.2019
3252 Clouds 15 1017 72 10000 4 140 13:56 22.08.2019
3253 Clouds 21 1017 46 10000 2 140 13:38 22.08.2019
3254 Clouds 22 1017 40 10000 3 140 13:18 22.08.2019
3255 Clouds 22 1017 35 10000 2 0 12:41 22.08.2019
3256 Clouds 22 1017 35 10000 2 0 12:23 22.08.2019
3257 Clouds 22 1017 35 10000 2 0 11:58 22.08.2019
3258 Clouds 22 1017 35 10000 2 0 11:58 22.08.2019
3259 Clouds 22 1017 40 10000 2 0 11:40 22.08.2019
3260 Clouds 22 1017 40 10000 2 0 11:20 22.08.2019
3261 Clouds 22 1017 40 10000 2 0 11:20 22.08.2019
3262 Clouds 23 1017 35 10000 2 0 10:57 22.08.2019
3263 Clouds 23 1017 35 10000 2 0 10:38 22.08.2019
3264 Clouds 23 1017 35 10000 2 0 10:19 22.08.2019
3265 Clouds 23 1017 35 10000 2 0 09:54 22.08.2019
3266 Clouds 22 1018 37 10000 2 0 09:36 22.08.2019
3267 Clouds 21 1018 37 10000 3 120 09:18 22.08.2019
3268 Clouds 21 1018 35 10000 4 140 08:41 22.08.2019
3269 Clouds 20 1018 40 10000 4 140 08:21 22.08.2019
3270 Clouds 20 1018 40 10000 4 140 07:56 22.08.2019
3271 Clouds 20 1018 40 10000 4 140 07:38 22.08.2019
3272 Clouds 19 1018 45 10000 2 100 07:18 22.08.2019
3273 Clouds 20 1019 40 10000 2 340 06:45 22.08.2019
3274 Clouds 19 1019 48 10000 3 40 06:21 22.08.2019
3275 Clouds 17 1019 51 10000 3 50 05:26 22.08.2019
3276 Clouds 11 1020 76 10000 1 0 03:22 22.08.2019
3277 Clouds 10 1020 76 10000 1 0 02:36 22.08.2019
3278 Clouds 7 1020 93 10000 1 0 01:36 22.08.2019
3279 Clear 5 1020 93 10000 1 0 00:52 22.08.2019
3280 Clear 5 1020 93 10000 1 0 00:30 22.08.2019
3281 Clear 3 1019 93 10000 1.15 106.996 23:59 21.08.2019
3282 Clear 4 1019 93 10000 1 0 23:40 21.08.2019
3283 Clear 4 1019 93 10000 1 0 23:21 21.08.2019
3284 Clear 4 1019 93 10000 1 0 22:57 21.08.2019
3285 Clear 4 1019 93 10000 1 0 22:39 21.08.2019
3286 Clear 4 1019 93 10000 1 0 22:20 21.08.2019
3287 Clear 4 1019 93 10000 1 0 22:20 21.08.2019
3288 Clear 6 1019 93 10000 1.15 106.996 21:55 21.08.2019
3289 Clear 6 1019 93 10000 1.01 120.175 21:37 21.08.2019
3290 Clear 6 1019 93 10000 1.01 120.175 21:37 21.08.2019
3291 Clear 6 1019 93 10000 0.75 70.167 21:18 21.08.2019
3292 Clear 6 1019 93 10000 0.75 70.167 20:44 21.08.2019
3293 Clear 6 1019 93 10000 0.75 70.167 20:25 21.08.2019
3294 Clear 7 1019 87 10000 1 0 20:00 21.08.2019
3295 Clear 7 1019 87 10000 1 0 19:41 21.08.2019
3296 Clear 7 1019 87 10000 1 0 19:23 21.08.2019
3297 Clear 7 1019 87 10000 1 0 18:56 21.08.2019
3298 Clear 8 1019 81 10000 2 170 18:56 21.08.2019
3299 Clear 8 1019 81 10000 2 170 18:38 21.08.2019
3300 Clear 8 1019 81 10000 2 170 18:20 21.08.2019
3301 Clear 9 1019 81 10000 1 0 17:44 21.08.2019
3302 Clear 9 1019 81 10000 1 0 17:21 21.08.2019
3303 Clear 9 1019 81 10000 2 180 16:56 21.08.2019
3304 Clear 9 1019 81 10000 2 180 16:37 21.08.2019
3305 Clear 11 1019 76 10000 1 0 16:18 21.08.2019
3306 Clear 11 1019 76 10000 1 0 15:56 21.08.2019
3307 Clear 11 1018 76 10000 2 160 15:38 21.08.2019
3308 Clear 14 1018 62 10000 1 0 15:18 21.08.2019
3309 Clear 14 1018 62 10000 1 0 14:54 21.08.2019
3310 Clear 17 1018 45 10000 2 360 14:36 21.08.2019
3311 Clouds 17 1018 51 10000 2 340 14:18 21.08.2019
3312 Clouds 18 1018 42 10000 3 340 13:43 21.08.2019
3313 Clouds 18 1018 42 10000 3 340 13:20 21.08.2019
3314 Clouds 19 1018 42 10000 4 340 12:57 21.08.2019
3315 Clouds 19 1018 42 10000 4 340 12:39 21.08.2019
3316 Clouds 19 1018 42 10000 3 350 12:19 21.08.2019
3317 Clouds 19 1017 42 10000 3 340 11:44 21.08.2019
3318 Clouds 19 1017 42 10000 3 340 11:24 21.08.2019
3319 Clouds 19 1017 42 10000 3 290 10:59 21.08.2019
3320 Clouds 19 1017 42 10000 3 290 10:40 21.08.2019
3321 Clouds 19 1017 42 10000 3 290 10:22 21.08.2019
3322 Clouds 19 1018 39 10000 3 310 09:58 21.08.2019
3323 Clouds 19 1018 39 10000 3 310 09:40 21.08.2019
3324 Clouds 19 1018 39 10000 3 310 09:21 21.08.2019
3325 Clouds 18 1018 48 10000 3 240 08:50 21.08.2019
3326 Clouds 18 1018 48 10000 3 240 08:26 21.08.2019
3327 Clouds 18 1018 48 10000 3 260 07:56 21.08.2019
3328 Clouds 17 1018 55 10000 1 0 07:37 21.08.2019
3329 Clouds 16 1019 59 10000 2 0 07:18 21.08.2019
3330 Clouds 17 1019 55 10000 2 0 06:43 21.08.2019
3331 Clouds 15 1019 62 10000 2 0 06:19 21.08.2019
3332 Clouds 14 1020 67 10000 2 0 05:29 21.08.2019
3333 Clouds 14 1020 67 10000 2 0 04:51 21.08.2019
3334 Clouds 9 1020 87 10000 0.88 226.892 02:44 21.08.2019
3335 Clouds 7 1020 93 10000 0.88 226.892 01:36 21.08.2019
3336 Clear 4 1020 93 10000 0.87 232.16 00:43 21.08.2019
3337 Clear 4 1020 93 10000 1 0 00:21 21.08.2019
3338 Clear 5 1020 93 10000 0.83 236.927 23:45 20.08.2019
3339 Clear 5 1020 93 10000 0.83 236.927 23:45 20.08.2019
3340 Clear 5 1020 93 10000 0.83 236.927 23:21 20.08.2019
3341 Clear 4 1020 93 10000 2 170 22:59 20.08.2019
3342 Clear 4 1020 93 10000 2 170 22:41 20.08.2019
3343 Clear 4 1020 93 10000 2 170 22:22 20.08.2019
3344 Clear 5 1020 86 10000 2 170 21:58 20.08.2019
3345 Clear 5 1020 93 10000 2 160 21:39 20.08.2019
3346 Clear 5 1020 93 10000 2 160 21:39 20.08.2019
3347 Clear 5 1020 93 10000 2 160 21:20 20.08.2019
3348 Clear 5 1020 93 10000 2 160 20:59 20.08.2019
3349 Clear 5 1020 93 10000 3 180 20:41 20.08.2019
3350 Clear 5 1020 93 10000 3 180 20:23 20.08.2019
3351 Clear 5 1020 86 10000 2 140 19:40 20.08.2019
3352 Clear 5 1020 86 10000 2 140 19:22 20.08.2019
3353 Clear 6 1020 87 10000 1 0 18:58 20.08.2019
3354 Clear 6 1018 90 0 1.15 249.304 18:40 20.08.2019
3355 Clear 7 1020 81 10000 1.19 290.5 18:19 20.08.2019
3356 Clear 7 1020 81 10000 1.19 290.5 17:57 20.08.2019
3357 Clear 7 1020 81 10000 1.19 290.5 17:38 20.08.2019
3358 Clear 7 1020 81 10000 1.19 290.5 17:19 20.08.2019
3359 Clear 9 1020 87 10000 1 0 16:45 20.08.2019
3360 Clear 9 1020 87 10000 1 0 16:26 20.08.2019
3361 Clouds 8 1019 87 10000 1 0 15:56 20.08.2019
3362 Clouds 8 1019 87 10000 1 0 15:38 20.08.2019
3363 Clouds 12 1019 71 10000 3 360 15:18 20.08.2019
3364 Clouds 12 1019 71 10000 3 350 14:43 20.08.2019
3365 Clouds 13 1019 66 10000 5 350 14:22 20.08.2019
3366 Clouds 13 1019 66 10000 5 350 14:22 20.08.2019
3367 Clouds 13 1019 66 10000 5 350 13:57 20.08.2019
3368 Clouds 13 1019 66 10000 5 350 13:38 20.08.2019
3369 Clouds 14 1018 58 10000 8 330 13:20 20.08.2019
3370 Clouds 14 1018 58 10000 8 330 12:51 20.08.2019
3371 Clouds 14 1018 58 10000 8 330 12:31 20.08.2019
3372 Clouds 15 1018 54 10000 6 340 11:59 20.08.2019
3373 Clouds 15 1018 54 10000 6 350 11:40 20.08.2019
3374 Clouds 14 1018 58 0 7 340 11:20 20.08.2019
3375 Clouds 14 1018 58 0 7 340 10:57 20.08.2019
3376 Clouds 15 1018 54 10000 7 330 10:38 20.08.2019
3377 Clouds 14 1018 67 10000 6 340 10:20 20.08.2019
3378 Clouds 14 1018 67 10000 6 340 09:54 20.08.2019
3379 Clouds 14 1018 58 10000 7 320 09:36 20.08.2019
3380 Clouds 15 1018 62 10000 8 320 09:18 20.08.2019
3381 Clouds 14 1018 67 10000 7 310 08:41 20.08.2019
3382 Clouds 15 1017 58 10000 7 340 08:21 20.08.2019
3383 Clouds 15 1017 58 10000 7 340 07:57 20.08.2019
3384 Clouds 14 1017 62 10000 7 350 07:38 20.08.2019
3385 Clouds 14 1017 62 10000 8 330 07:18 20.08.2019
3386 Clouds 13 1017 66 10000 5 350 06:41 20.08.2019
3387 Rain 13 1017 66 10000 6 340 06:19 20.08.2019
3388 Clouds 12 1017 71 10000 8 340 05:40 20.08.2019
3389 Clouds 12 1016 76 10000 6 330 04:21 20.08.2019
3390 Clouds 12 1015 71 10000 4 350 02:47 20.08.2019
3391 Clouds 11 1015 71 10000 4 350 01:45 20.08.2019
3392 Clouds 10 1015 81 10000 4 350 01:19 20.08.2019
3393 Clouds 10 1014 81 10000 4 330 00:43 20.08.2019
3394 Clouds 10 1014 81 10000 4 320 00:21 20.08.2019
3395 Clouds 10 1014 81 10000 3 330 23:42 19.08.2019
3396 Clouds 10 1013 81 10000 4 320 23:18 19.08.2019
3397 Clouds 10 1013 81 10000 4 320 22:57 19.08.2019
3398 Clouds 10 1013 81 10000 5 320 22:39 19.08.2019
3399 Clouds 10 1013 81 10000 2 330 22:19 19.08.2019
3400 Clouds 10 1013 81 10000 2 330 21:56 19.08.2019
3401 Clouds 10 1013 81 10000 2 330 21:37 19.08.2019
3402 Clouds 10 1013 81 10000 2 330 21:37 19.08.2019
3403 Clouds 10 1013 81 10000 2 350 21:18 19.08.2019
3404 Clouds 10 1013 81 10000 2 320 20:40 19.08.2019
3405 Clouds 10 1012 81 10000 4 350 20:20 19.08.2019
3406 Clouds 10 1012 81 10000 4 350 19:59 19.08.2019
3407 Clouds 11 1012 81 10000 4 350 19:40 19.08.2019
3408 Clouds 11 1012 87 10000 3 300 19:19 19.08.2019
3409 Clouds 12 1012 76 10000 3 330 18:58 19.08.2019
3410 Clouds 12 1012 76 10000 3 330 18:39 19.08.2019
3411 Clouds 12 1012 76 10000 3 350 18:20 19.08.2019
3412 Clouds 12 1012 76 10000 4 340 17:54 19.08.2019
3413 Clouds 12 1012 76 10000 4 340 17:36 19.08.2019
3414 Clouds 12 1011 81 10000 3 320 17:18 19.08.2019
3415 Clouds 12 1011 81 10000 4 330 16:38 19.08.2019
3416 Clouds 12 1011 81 10000 1 0 16:20 19.08.2019
3417 Clouds 12 1011 81 10000 1 0 16:20 19.08.2019
3418 Clouds 12 1011 76 10000 3 340 15:56 19.08.2019
3419 Clouds 12 1011 76 10000 3 340 15:37 19.08.2019
3420 Clouds 13 1010 76 10000 4 350 15:19 19.08.2019
3421 Clouds 13 1010 76 10000 4 360 14:43 19.08.2019
3422 Clouds 13 1010 76 10000 4 360 14:23 19.08.2019
3423 Clouds 13 1010 76 10000 4 360 13:58 19.08.2019
3424 Clouds 15 1009 67 10000 5 340 13:38 19.08.2019
3425 Clouds 15 1009 67 10000 5 340 13:19 19.08.2019
3426 Clouds 16 1009 67 10000 6 340 12:57 19.08.2019
3427 Clouds 16 1009 67 10000 6 340 12:57 19.08.2019
3428 Clouds 16 1009 67 10000 6 340 12:39 19.08.2019
3429 Clouds 17 1009 67 10000 4 320 12:19 19.08.2019
3430 Clouds 17 1009 67 10000 4 320 11:39 19.08.2019
3431 Clouds 18 1008 59 10000 4 280 11:21 19.08.2019
3432 Clouds 18 1008 59 10000 4 280 10:58 19.08.2019
3433 Clouds 18 1008 59 10000 4 280 10:37 19.08.2019
3434 Clouds 19 1008 63 10000 5 280 10:18 19.08.2019
3435 Clouds 19 1008 63 10000 5 280 09:45 19.08.2019
3436 Clouds 19 1008 63 10000 5 280 09:24 19.08.2019
3437 Clouds 19 1008 63 10000 5 280 09:24 19.08.2019
3438 Clouds 18 1008 68 10000 5 280 08:57 19.08.2019
3439 Clouds 18 1008 68 10000 4 290 08:39 19.08.2019
3440 Clouds 18 1008 68 10000 4 290 08:19 19.08.2019
3441 Clouds 18 1009 72 10000 6 230 07:48 19.08.2019
3442 Clouds 18 1009 72 10000 6 230 07:30 19.08.2019
3443 Clouds 16 1009 77 10000 5 230 06:48 19.08.2019
3444 Clouds 16 1009 77 10000 5 230 06:26 19.08.2019
3445 Clouds 14 1010 82 10000 5 180 04:57 19.08.2019
3446 Clouds 13 1010 82 10000 6 170 04:26 19.08.2019
3447 Rain 12 1010 81 8000 5 150 03:22 19.08.2019
3448 Rain 12 1010 76 10000 7 140 02:23 19.08.2019
3449 Rain 11 1011 81 8000 2 0 01:34 19.08.2019
3450 Rain 10 1011 87 8000 2 0 00:43 19.08.2019
3451 Rain 10 1011 87 8000 2 0 00:23 19.08.2019
3452 Rain 11 1012 81 10000 2 0 23:42 18.08.2019
3453 Rain 11 1012 81 10000 2 0 23:21 18.08.2019
3454 Rain 10 1013 87 10000 1 0 22:56 18.08.2019
3455 Rain 11 1013 81 10000 2 70 22:38 18.08.2019
3456 Rain 11 1013 81 10000 2 70 22:20 18.08.2019
3457 Clouds 11 1013 87 10000 1.07 82.596 21:55 18.08.2019
3458 Rain 10 1013 87 10000 1.07 82.596 21:37 18.08.2019
3459 Rain 11 1013 87 10000 1 0 21:18 18.08.2019
3460 Rain 11 1013 87 10000 1 0 21:18 18.08.2019
3461 Rain 10 1014 87 10000 1 0 20:42 18.08.2019
3462 Rain 10 1014 87 10000 1 0 20:24 18.08.2019
3463 Clouds 10 1013 87 10000 1.47 149.384 19:55 18.08.2019
3464 Clouds 10 1013 87 10000 1.47 149.384 19:36 18.08.2019
3465 Clouds 10 1013 81 10000 2 130 19:18 18.08.2019
3466 Clouds 9 1013 87 10000 1 0 18:41 18.08.2019
3467 Clouds 9 1013 87 10000 1 0 18:41 18.08.2019
3468 Clouds 9 1013 87 10000 1 0 18:23 18.08.2019
3469 Clouds 12 1013 76 10000 1 0 17:57 18.08.2019
3470 Clouds 12 1013 76 10000 1 0 17:39 18.08.2019
3471 Clouds 14 1013 67 10000 3 40 17:19 18.08.2019
3472 Clouds 14 1013 67 10000 3 40 16:56 18.08.2019
3473 Clouds 13 1013 66 10000 2 80 16:38 18.08.2019
3474 Clouds 13 1013 66 10000 2 80 16:19 18.08.2019
3475 Clouds 13 1013 66 10000 2 80 15:55 18.08.2019
3476 Clouds 13 1014 66 10000 2 350 15:36 18.08.2019
3477 Clouds 14 1014 62 10000 3 360 15:18 18.08.2019
3478 Clouds 14 1014 62 10000 3 360 14:40 18.08.2019
3479 Clouds 14 1014 62 10000 3 360 14:20 18.08.2019
3480 Clouds 15 1014 54 10000 4 340 13:59 18.08.2019
3481 Clouds 15 1013 58 10000 4 340 13:40 18.08.2019
3482 Clouds 15 1013 58 10000 4 340 13:22 18.08.2019
3483 Clouds 16 1013 51 10000 5 340 12:55 18.08.2019
3484 Clouds 16 1013 51 10000 5 340 12:37 18.08.2019
3485 Clouds 16 1013 51 10000 4 350 12:18 18.08.2019
3486 Clouds 17 1013 51 10000 5 340 11:42 18.08.2019
3487 Clouds 17 1013 51 10000 5 340 11:23 18.08.2019
3488 Clouds 17 1013 51 10000 5 320 10:56 18.08.2019
3489 Clouds 17 1013 51 10000 5 320 10:38 18.08.2019
3490 Clouds 17 1013 51 10000 4 340 10:18 18.08.2019
3491 Clouds 17 1013 51 10000 4 340 10:18 18.08.2019
3492 Clouds 17 1013 48 10000 4 330 09:42 18.08.2019
3493 Clouds 17 1013 48 10000 4 330 09:19 18.08.2019
3494 Clouds 16 1014 51 10000 5 340 08:43 18.08.2019
3495 Clouds 16 1014 51 10000 5 340 08:25 18.08.2019
3496 Clouds 16 1014 55 10000 4 350 07:54 18.08.2019
3497 Clouds 16 1014 55 10000 4 350 07:29 18.08.2019
3498 Clouds 14 1015 67 10000 4 330 06:32 18.08.2019
3499 Clouds 14 1015 67 10000 4 310 05:41 18.08.2019
3500 Clouds 13 1015 71 10000 4 330 03:51 18.08.2019
3501 Clouds 12 1014 76 10000 1 0 02:52 18.08.2019
3502 Clouds 12 1014 76 10000 1 0 02:34 18.08.2019
3503 Clouds 11 1014 81 10000 1 0 01:57 18.08.2019
3504 Clouds 11 1014 81 10000 1 0 01:26 18.08.2019
3505 Clouds 11 1014 81 10000 1 0 01:26 18.08.2019
3506 Clouds 9 1013 87 10000 2 0 00:41 18.08.2019
3507 Clouds 9 1013 87 10000 2 0 00:20 18.08.2019
3508 Clear 10 1012 87 10000 2 0 23:58 17.08.2019
3509 Clear 10 1012 87 10000 2 0 23:38 17.08.2019
3510 Clear 10 1012 87 10000 2 0 23:19 17.08.2019
3511 Clouds 8 1012 87 10000 2 0 22:57 17.08.2019
3512 Clouds 9 1012 87 10000 2.56 337.52 22:38 17.08.2019
3513 Clouds 9 1012 87 10000 2.56 337.52 22:20 17.08.2019
3514 Clouds 10 1011 81 10000 2.56 337.52 21:44 17.08.2019
3515 Clouds 10 1011 81 10000 2.56 337.52 21:26 17.08.2019
3516 Clouds 11 1011 81 10000 2 340 20:59 17.08.2019
3517 Clouds 11 1011 81 10000 2 340 20:37 17.08.2019
3518 Clouds 13 1010 71 10000 3 350 20:19 17.08.2019
3519 Clouds 13 1010 71 10000 3 350 19:43 17.08.2019
3520 Clouds 13 1010 71 10000 3 350 19:24 17.08.2019
3521 Clouds 13 1010 71 10000 3 350 18:58 17.08.2019
3522 Clouds 14 1010 67 10000 5 70 18:38 17.08.2019
3523 Thunderstorm 12 1011 76 10000 5 350 18:18 17.08.2019
3524 Thunderstorm 12 1011 76 10000 5 350 18:18 17.08.2019
3525 Thunderstorm 12 1011 76 10000 5 350 18:18 17.08.2019
3526 Thunderstorm 14 1009 76 10000 2 0 17:43 17.08.2019
3527 Thunderstorm 14 1009 76 10000 2 0 17:22 17.08.2019
3528 Clouds 13 1009 82 10000 3 170 16:57 17.08.2019
3529 Clouds 13 1009 82 10000 3 170 16:38 17.08.2019
3530 Clouds 13 1009 82 10000 3 170 16:20 17.08.2019
3531 Clouds 13 1009 82 10000 3 150 15:54 17.08.2019
3532 Clouds 13 1009 82 10000 3 150 15:54 17.08.2019
3533 Clouds 15 1009 72 10000 2 0 15:36 17.08.2019
3534 Clouds 14 1009 82 10000 2 170 15:18 17.08.2019
3535 Clouds 14 1009 82 10000 2 170 14:40 17.08.2019
3536 Clouds 14 1009 82 10000 2 170 14:21 17.08.2019
3537 Clouds 17 1008 72 10000 1 0 13:45 17.08.2019
3538 Clouds 17 1008 72 10000 1 0 13:21 17.08.2019
3539 Clouds 19 1008 52 10000 2 0 12:45 17.08.2019
3540 Clouds 19 1008 52 10000 2 0 12:45 17.08.2019
3541 Clouds 20 1009 49 10000 2 0 12:21 17.08.2019
3542 Clouds 20 1009 49 10000 2 0 11:59 17.08.2019
3543 Clouds 20 1008 49 10000 2 0 11:39 17.08.2019
3544 Clouds 20 1009 45 10000 2 0 11:20 17.08.2019
3545 Clouds 20 1009 45 10000 1 0 10:42 17.08.2019
3546 Clouds 20 1009 45 10000 1 0 10:42 17.08.2019
3547 Clouds 20 1009 42 10000 2 0 10:22 17.08.2019
3548 Clouds 20 1009 42 10000 2 0 09:59 17.08.2019
3549 Clouds 20 1010 45 10000 3 230 09:40 17.08.2019
3550 Clouds 20 1010 45 10000 3 230 09:21 17.08.2019
3551 Clouds 20 1010 42 10000 3 230 08:51 17.08.2019
3552 Clouds 19 1010 48 10000 2 0 08:22 17.08.2019
3553 Clouds 19 1010 48 10000 2 0 07:44 17.08.2019
3554 Clouds 19 1010 48 10000 2 0 07:20 17.08.2019
3555 Clouds 19 1011 45 10000 3 240 06:34 17.08.2019
3556 Clouds 14 1012 62 10000 1.2 128.995 04:48 17.08.2019
3557 Clouds 14 1012 62 10000 1.2 128.995 04:21 17.08.2019
3558 Clouds 10 1013 81 10000 0.46 188.69 02:45 17.08.2019
3559 Clouds 7 1013 93 10000 0.46 188.69 01:40 17.08.2019
3560 Clouds 7 1013 93 10000 2.1 167.456 01:20 17.08.2019
3561 Clouds 5 1013 86 10000 2.1 167.456 00:47 17.08.2019
3562 Clouds 5 1013 86 10000 1.24 122.958 00:24 17.08.2019
3563 Clear 4 1013 93 10000 1 0 23:46 16.08.2019
3564 Clear 4 1013 93 10000 1 0 23:25 16.08.2019
3565 Clear 5 1013 93 10000 1 0 22:43 16.08.2019
3566 Clear 5 1013 93 10000 1 0 22:20 16.08.2019
3567 Clear 6 1013 87 10000 1.24 122.958 21:59 16.08.2019
3568 Clear 6 1013 87 10000 1.24 122.958 21:39 16.08.2019
3569 Clear 7 1013 87 10000 1 0 21:19 16.08.2019
3570 Clear 7 1013 87 10000 1 0 20:43 16.08.2019
3571 Clear 7 1013 87 10000 1 0 20:21 16.08.2019
3572 Clear 7 1014 87 10000 1 0 19:59 16.08.2019
3573 Clear 7 1014 87 10000 1 0 19:39 16.08.2019
3574 Clear 7 1014 87 10000 1 0 19:19 16.08.2019
3575 Clear 7 1014 87 10000 1 0 19:19 16.08.2019
3576 Clear 8 1014 81 10000 2 140 18:42 16.08.2019
3577 Clear 8 1014 81 10000 2 140 18:23 16.08.2019
3578 Clear 8 1014 87 10000 2 170 17:48 16.08.2019
3579 Clear 8 1014 87 10000 2 170 17:30 16.08.2019
3580 Clear 8 1014 87 10000 2 170 17:30 16.08.2019
3581 Clear 9 1014 81 10000 2 150 16:59 16.08.2019
3582 Clear 9 1014 81 10000 2 150 16:40 16.08.2019
3583 Clear 9 1014 81 10000 2 150 16:19 16.08.2019
3584 Clear 10 1014 81 10000 2 180 15:56 16.08.2019
3585 Clear 10 1014 81 10000 2 180 15:38 16.08.2019
3586 Clear 10 1014 81 10000 2 180 15:19 16.08.2019
3587 Clear 12 1013 71 10000 1 0 14:56 16.08.2019
3588 Clouds 16 1013 51 10000 2 350 14:38 16.08.2019
3589 Clouds 17 1013 48 10000 3 340 14:18 16.08.2019
3590 Clouds 17 1013 48 10000 3 340 13:40 16.08.2019
3591 Clouds 17 1013 48 10000 3 340 13:22 16.08.2019
3592 Clouds 18 1013 42 10000 4 300 12:42 16.08.2019
3593 Clouds 18 1013 42 10000 4 300 12:23 16.08.2019
3594 Clouds 18 1013 36 10000 4 310 11:59 16.08.2019
3595 Clouds 19 1013 32 10000 2 300 11:40 16.08.2019
3596 Clouds 19 1013 32 10000 2 300 11:22 16.08.2019
3597 Clouds 18 1013 36 10000 4 310 10:43 16.08.2019
3598 Clouds 18 1013 36 10000 4 310 10:22 16.08.2019
3599 Clouds 18 1014 34 10000 3 310 09:55 16.08.2019
3600 Clouds 18 1014 34 10000 3 310 09:36 16.08.2019
3601 Clouds 18 1014 36 10000 4 280 09:18 16.08.2019
3602 Clouds 18 1014 36 10000 2 0 08:39 16.08.2019
3603 Clouds 18 1014 36 10000 2 0 08:20 16.08.2019
3604 Clouds 18 1014 39 10000 3 250 07:52 16.08.2019
3605 Clouds 17 1014 45 10000 2 0 07:29 16.08.2019
3606 Clouds 17 1015 45 10000 2 0 06:55 16.08.2019
3607 Clouds 14 1016 67 10000 2 0 06:19 16.08.2019
3608 Clouds 13 1016 66 10000 2 0 05:34 16.08.2019
3609 Clouds 10 1017 76 10000 1 0 03:22 16.08.2019
3610 Clear 7 1016 87 10000 1.73 0.958 01:59 16.08.2019
3611 Clear 7 1016 87 10000 1.65 359.965 01:29 16.08.2019
3612 Clear 4 1017 93 10000 1.65 359.965 00:57 16.08.2019
3613 Clear 4 1017 93 10000 1.65 359.965 00:38 16.08.2019
3614 Clear 5 1016 86 10000 2 90 00:18 16.08.2019
3615 Clear 5 1016 86 10000 2 90 23:42 15.08.2019
3616 Clear 5 1016 86 10000 2 90 23:20 15.08.2019
3617 Clear 4 1016 93 10000 1 0 22:57 15.08.2019
3618 Clear 6 1016 87 10000 1 0 22:38 15.08.2019
3619 Clear 6 1016 87 10000 1 0 22:20 15.08.2019
3620 Clear 7 1015 87 10000 1 0 21:40 15.08.2019
3621 Clear 7 1015 87 10000 1 0 21:40 15.08.2019
3622 Clear 7 1015 87 10000 1 0 21:20 15.08.2019
3623 Clear 9 1016 81 10000 2 60 20:59 15.08.2019
3624 Clear 9 1016 81 10000 2 60 20:41 15.08.2019
3625 Clear 9 1016 81 10000 2 60 20:21 15.08.2019
3626 Clear 9 1016 81 10000 1 0 19:56 15.08.2019
3627 Clear 9 1016 81 10000 1 0 19:38 15.08.2019
3628 Clear 9 1016 81 10000 1 0 19:19 15.08.2019
3629 Clear 10 1016 81 10000 2 0 18:45 15.08.2019
3630 Clear 10 1016 81 10000 2 0 18:22 15.08.2019
3631 Clear 10 1016 81 10000 2 0 17:56 15.08.2019
3632 Clear 11 1016 76 10000 2 0 17:37 15.08.2019
3633 Clear 11 1016 76 10000 2 0 17:19 15.08.2019
3634 Clear 11 1016 76 10000 2 330 16:48 15.08.2019
3635 Clear 11 1016 76 10000 2 330 16:27 15.08.2019
3636 Clear 11 1016 76 10000 2 330 15:56 15.08.2019
3637 Clouds 12 1016 71 10000 2 0 15:38 15.08.2019
3638 Clouds 12 1016 71 10000 3 340 15:19 15.08.2019
3639 Clouds 12 1016 71 10000 3 340 14:42 15.08.2019
3640 Clouds 12 1016 71 10000 3 340 14:23 15.08.2019
3641 Clouds 13 1016 66 10000 5 340 13:57 15.08.2019
3642 Clouds 14 1015 62 10000 7 340 13:39 15.08.2019
3643 Clouds 14 1015 62 10000 7 340 13:20 15.08.2019
3644 Clouds 15 1015 58 10000 7 340 12:57 15.08.2019
3645 Clouds 15 1015 62 10000 8 340 12:38 15.08.2019
3646 Clouds 16 1015 55 10000 8 350 12:18 15.08.2019
3647 Clouds 16 1015 55 10000 8 350 11:57 15.08.2019
3648 Clouds 16 1015 51 10000 9 350 11:36 15.08.2019
3649 Clouds 17 1015 51 10000 9 340 11:18 15.08.2019
3650 Clouds 16 1015 55 10000 8 340 10:39 15.08.2019
3651 Clouds 16 1015 55 10000 8 340 10:20 15.08.2019
3652 Clouds 16 1015 63 10000 6 340 09:55 15.08.2019
3653 Clouds 16 1015 63 10000 7 340 09:37 15.08.2019
3654 Clouds 16 1015 59 10000 7 340 09:18 15.08.2019
3655 Clouds 16 1015 59 10000 7 340 08:37 15.08.2019
3656 Clouds 15 1015 62 10000 8 340 08:19 15.08.2019
3657 Clouds 14 1014 67 10000 9 340 07:45 15.08.2019
3658 Clouds 14 1014 67 10000 9 340 07:27 15.08.2019
3659 Clouds 14 1014 67 10000 9 340 06:55 15.08.2019
3660 Clouds 13 1014 71 10000 9 340 06:33 15.08.2019
3661 Clouds 14 1014 67 10000 9 330 05:51 15.08.2019
3662 Clouds 12 1014 76 10000 8 340 05:29 15.08.2019
3663 Clouds 11 1013 76 10000 8 330 04:35 15.08.2019
3664 Clouds 11 1013 76 10000 7 340 03:45 15.08.2019
3665 Clouds 10 1012 81 10000 7 340 02:46 15.08.2019
3666 Clouds 9 1012 87 10000 7 330 01:54 15.08.2019
3667 Clouds 10 1011 81 10000 8 330 01:36 15.08.2019
3668 Clouds 10 1011 87 10000 7 330 00:41 15.08.2019
3669 Clouds 10 1011 87 10000 7 330 00:21 15.08.2019
3670 Clouds 10 1011 87 10000 6 320 23:58 14.08.2019
3671 Clouds 10 1011 87 10000 7 330 23:38 14.08.2019
3672 Clouds 10 1011 87 10000 7 330 23:38 14.08.2019
3673 Clouds 10 1011 87 10000 7 330 23:19 14.08.2019
3674 Clouds 10 1010 87 10000 6 340 22:57 14.08.2019
3675 Clouds 11 1010 81 10000 4 340 22:39 14.08.2019
3676 Clouds 11 1010 81 10000 4 340 22:20 14.08.2019
3677 Clouds 11 1010 81 10000 4 340 21:55 14.08.2019
3678 Clouds 11 1010 81 10000 4 340 21:55 14.08.2019
3679 Clouds 11 1010 81 10000 4 340 21:55 14.08.2019
3680 Clouds 10 1010 87 10000 1 0 21:37 14.08.2019
3681 Clouds 10 1010 87 10000 3 320 21:18 14.08.2019
3682 Clouds 10 1010 87 10000 3 320 20:42 14.08.2019
3683 Rain 11 1009 76 10000 3 120 20:21 14.08.2019
3684 Rain 11 1009 76 10000 3 120 20:21 14.08.2019
3685 Rain 11 1009 76 10000 3 120 20:21 14.08.2019
3686 Rain 11 1009 76 10000 3 120 19:56 14.08.2019
3687 Rain 11 1008 81 10000 7 130 19:38 14.08.2019
3688 Thunderstorm 11 1010 81 10000 3 120 19:19 14.08.2019
3689 Thunderstorm 11 1010 81 10000 3 120 18:57 14.08.2019
3690 Thunderstorm 12 1011 76 10000 4 10 18:38 14.08.2019
3691 Thunderstorm 12 1010 76 10000 4 360 18:19 14.08.2019
3692 Thunderstorm 12 1010 76 10000 4 360 17:56 14.08.2019
3693 Thunderstorm 12 1008 81 10000 1 0 17:37 14.08.2019
3694 Clouds 12 1008 81 10000 2 0 17:18 14.08.2019
3695 Clouds 12 1008 81 10000 2 0 16:42 14.08.2019
3696 Clouds 12 1008 81 10000 2 0 16:20 14.08.2019
3697 Clouds 12 1008 81 10000 1 0 15:55 14.08.2019
3698 Clouds 12 1008 81 10000 1 0 15:55 14.08.2019
3699 Clouds 12 1008 81 10000 2 150 15:36 14.08.2019
3700 Clouds 13 1008 82 10000 1 0 15:18 14.08.2019
3701 Clouds 13 1008 82 10000 1 0 14:40 14.08.2019
3702 Clouds 13 1008 82 10000 1 0 14:19 14.08.2019
3703 Clouds 16 1008 59 10000 2 30 13:56 14.08.2019
3704 Clouds 16 1008 63 10000 2 330 13:38 14.08.2019
3705 Clouds 16 1008 63 10000 2 330 13:20 14.08.2019
3706 Thunderstorm 17 1008 51 10000 4 20 12:56 14.08.2019
3707 Thunderstorm 17 1008 51 10000 4 20 12:37 14.08.2019
3708 Thunderstorm 17 1008 51 10000 4 20 12:37 14.08.2019
3709 Thunderstorm 18 1008 52 10000 5 10 12:19 14.08.2019
3710 Thunderstorm 19 1008 52 10000 4 310 11:45 14.08.2019
3711 Thunderstorm 19 1008 52 10000 4 310 11:23 14.08.2019
3712 Clouds 20 1008 49 10000 2 280 10:56 14.08.2019
3713 Clouds 20 1008 49 10000 1 0 10:37 14.08.2019
3714 Clouds 20 1008 49 10000 1 0 10:37 14.08.2019
3715 Clouds 20 1008 49 10000 1 0 10:19 14.08.2019
3716 Clouds 21 1009 40 10000 2 280 09:42 14.08.2019
3717 Clouds 21 1009 40 10000 2 280 09:21 14.08.2019
3718 Clouds 19 1009 48 10000 2 0 08:44 14.08.2019
3719 Clouds 19 1009 48 10000 2 0 08:25 14.08.2019
3720 Clouds 19 1009 48 10000 2 0 07:56 14.08.2019
3721 Clouds 19 1010 48 10000 2 0 07:37 14.08.2019
3722 Clouds 19 1010 39 10000 2 0 06:51 14.08.2019
3723 Clouds 19 1010 39 10000 2 0 06:28 14.08.2019
3724 Clouds 17 1010 63 10000 2 0 05:33 14.08.2019
3725 Clouds 15 1010 72 10000 1 0 03:52 14.08.2019
3726 Clouds 12 1011 76 10000 1.12 45.938 02:39 14.08.2019
3727 Clouds 10 1011 87 10000 2 0 02:18 14.08.2019
3728 Clouds 10 1011 87 10000 2 0 01:30 14.08.2019
3729 Clouds 7 1011 87 10000 1.29 42.674 00:31 14.08.2019
3730 Clouds 9 1011 87 10000 0.53 39.487 23:43 13.08.2019
3731 Clouds 9 1011 87 10000 0.53 39.487 23:20 13.08.2019
3732 Clouds 9 1011 87 10000 1 0 22:56 13.08.2019
3733 Clouds 9 1011 87 10000 1 0 22:38 13.08.2019
3734 Clouds 9 1011 87 10000 1 0 22:19 13.08.2019
3735 Clouds 10 1011 87 10000 1 0 21:55 13.08.2019
3736 Clouds 11 1012 87 10000 1 0 21:36 13.08.2019
3737 Clouds 10 1012 93 10000 0.85 353.067 21:18 13.08.2019
3738 Clouds 10 1012 93 10000 0.85 353.067 20:42 13.08.2019
3739 Clouds 10 1012 93 10000 0.85 353.067 20:20 13.08.2019
3740 Clouds 11 1011 87 10000 0.85 353.067 19:56 13.08.2019
3741 Rain 11 1011 87 10000 3 230 19:38 13.08.2019
3742 Rain 11 1011 87 10000 3 230 19:19 13.08.2019
3743 Clouds 12 1011 81 10000 2 0 18:41 13.08.2019
3744 Clouds 12 1011 81 10000 2 0 18:41 13.08.2019
3745 Clouds 12 1011 81 10000 2 0 18:22 13.08.2019
3746 Clouds 10 1011 93 10000 1 0 17:54 13.08.2019
3747 Clouds 11 1012 93 10000 1 0 17:36 13.08.2019
3748 Clouds 11 1011 87 10000 1.11 18.746 17:18 13.08.2019
3749 Clouds 11 1011 87 10000 1.11 18.746 16:54 13.08.2019
3750 Clouds 11 1011 87 10000 1.11 18.746 16:54 13.08.2019
3751 Clouds 11 1011 87 10000 1.11 18.746 16:36 13.08.2019
3752 Clouds 12 1011 81 10000 2 160 16:18 13.08.2019
3753 Clouds 12 1011 87 10000 2 0 15:38 13.08.2019
3754 Clouds 12 1011 87 10000 2 0 15:20 13.08.2019
3755 Clouds 15 1011 77 10000 1 0 14:47 13.08.2019
3756 Clouds 15 1011 77 10000 1 0 14:20 13.08.2019
3757 Clouds 16 1011 67 10000 2 110 13:59 13.08.2019
3758 Clouds 16 1011 67 10000 2 110 13:59 13.08.2019
3759 Clouds 18 1011 59 10000 2 0 13:40 13.08.2019
3760 Clouds 18 1011 59 10000 2 0 13:20 13.08.2019
3761 Clouds 17 1011 63 10000 3 30 12:57 13.08.2019
3762 Clouds 17 1011 63 10000 3 30 12:39 13.08.2019
3763 Clouds 17 1011 63 10000 3 30 12:21 13.08.2019
3764 Clouds 18 1010 59 10000 4 60 11:42 13.08.2019
3765 Clouds 18 1010 59 10000 4 60 11:23 13.08.2019
3766 Clouds 18 1010 63 10000 4 50 10:58 13.08.2019
3767 Clouds 17 1011 63 10000 4 80 10:38 13.08.2019
3768 Clouds 17 1011 63 10000 4 80 10:20 13.08.2019
3769 Thunderstorm 17 1011 72 10000 1 0 09:46 13.08.2019
3770 Thunderstorm 17 1011 72 10000 1 0 09:25 13.08.2019
3771 Clouds 17 1011 55 10000 1 0 08:59 13.08.2019
3772 Clouds 17 1011 55 10000 1 0 08:39 13.08.2019
3773 Clouds 17 1011 55 10000 1 0 08:20 13.08.2019
3774 Clouds 16 1012 55 10000 4.32 204.189 07:46 13.08.2019
3775 Clouds 16 1012 55 10000 4.32 204.189 07:25 13.08.2019
3776 Rain 16 1011 63 10000 6 130 06:44 13.08.2019
3777 Rain 16 1011 63 10000 6 130 05:58 13.08.2019
3778 Clouds 15 1013 62 10000 2 0 05:32 13.08.2019
3779 Clouds 10 1014 81 10000 1 0 02:22 13.08.2019
3780 Clouds 9 1014 87 10000 1 0 01:41 13.08.2019
3781 Clouds 9 1014 87 10000 1 0 00:52 13.08.2019
3782 Clouds 7 1014 93 10000 1 0 00:22 13.08.2019
3783 Clear 7 1014 93 10000 1 0 23:44 12.08.2019
3784 Clear 7 1014 93 10000 1 0 23:21 12.08.2019
3785 Clear 6 1014 93 10000 1 0 22:55 12.08.2019
3786 Clear 6 1014 93 10000 1 0 22:37 12.08.2019
3787 Clear 7 1014 93 10000 1 0 22:18 12.08.2019
3788 Clear 7 1014 93 10000 1 0 21:54 12.08.2019
3789 Clear 7 1014 93 10000 1 0 21:36 12.08.2019
3790 Clear 9 1015 87 10000 1 0 21:18 12.08.2019
3791 Clear 9 1015 87 10000 1 0 20:41 12.08.2019
3792 Clear 9 1015 87 10000 1 0 20:21 12.08.2019
3793 Clear 8 1015 93 10000 2 180 19:58 12.08.2019
3794 Clear 9 1015 87 10000 2 0 19:39 12.08.2019
3795 Clear 9 1015 87 10000 2 0 19:21 12.08.2019
3796 Clear 9 1015 87 10000 2 0 18:59 12.08.2019
3797 Clear 9 1015 87 10000 1 0 18:39 12.08.2019
3798 Clear 10 1015 87 10000 1 0 18:20 12.08.2019
3799 Clear 10 1015 87 10000 1 0 17:55 12.08.2019
3800 Clear 12 1015 81 10000 1 0 17:37 12.08.2019
3801 Clear 12 1015 81 10000 1 0 17:19 12.08.2019
3802 Clear 13 1015 76 10000 1 0 16:39 12.08.2019
3803 Clear 13 1015 76 10000 1 0 16:20 12.08.2019
3804 Clear 13 1015 76 10000 1 0 15:59 12.08.2019
3805 Clear 13 1015 76 10000 1 0 15:59 12.08.2019
3806 Clear 13 1015 82 10000 1.36 344.02 15:41 12.08.2019
3807 Clear 13 1015 82 10000 1.86 344.537 15:22 12.08.2019
3808 Clouds 15 1014 72 10000 2 0 14:58 12.08.2019
3809 Clouds 15 1014 72 10000 2 0 14:39 12.08.2019
3810 Clouds 15 1014 72 10000 2 0 14:20 12.08.2019
3811 Clouds 16 1014 63 10000 3 340 13:54 12.08.2019
3812 Clouds 16 1013 63 10000 3 340 13:36 12.08.2019
3813 Clouds 18 1013 55 10000 3 330 13:18 12.08.2019
3814 Clouds 18 1013 55 10000 3 330 12:41 12.08.2019
3815 Clouds 18 1013 52 10000 3 310 12:19 12.08.2019
3816 Clouds 19 1013 52 10000 3 320 11:43 12.08.2019
3817 Clouds 19 1013 52 10000 3 320 11:25 12.08.2019
3818 Clouds 19 1013 52 10000 3 340 10:54 12.08.2019
3819 Clouds 18 1014 59 10000 2 0 10:36 12.08.2019
3820 Clouds 18 1014 59 10000 2 0 10:18 12.08.2019
3821 Clouds 18 1014 63 10000 2 0 09:42 12.08.2019
3822 Clouds 18 1014 63 10000 2 0 09:20 12.08.2019
3823 Clouds 17 1014 63 10000 4 300 08:58 12.08.2019
3824 Clouds 17 1014 67 10000 4 320 08:39 12.08.2019
3825 Clouds 16 1014 67 10000 3 340 08:21 12.08.2019
3826 Clouds 16 1014 67 10000 3 340 07:53 12.08.2019
3827 Clouds 16 1014 67 10000 4 320 07:33 12.08.2019
3828 Clouds 16 1014 67 10000 4 320 06:52 12.08.2019
3829 Clouds 15 1014 77 10000 4 310 05:41 12.08.2019
3830 Clouds 14 1014 87 10000 3 280 03:25 12.08.2019
3831 Clouds 14 1013 93 10000 2 240 02:41 12.08.2019
3832 Clouds 14 1013 87 10000 2 0 01:22 12.08.2019
3833 Clouds 14 1013 93 10000 1 0 00:58 12.08.2019
3834 Clouds 14 1013 93 10000 1 0 00:58 12.08.2019
3835 Rain 14 1013 87 10000 3.54 330.111 00:40 12.08.2019
3836 Rain 14 1013 93 10000 2 0 00:20 12.08.2019
3837 Rain 14 1013 93 10000 2 0 23:56 11.08.2019
3838 Rain 14 1013 93 10000 1 0 23:38 11.08.2019
3839 Rain 14 1012 93 10000 1 0 23:18 11.08.2019
3840 Rain 15 1013 87 10000 1.9 279.982 22:40 11.08.2019
3841 Rain 15 1013 87 10000 1.9 279.982 22:20 11.08.2019
3842 Rain 15 1013 87 10000 1.9 279.982 21:59 11.08.2019
3843 Rain 15 1013 87 10000 1.9 279.982 21:59 11.08.2019
3844 Rain 15 1013 87 10000 1.9 279.982 21:41 11.08.2019
3845 Rain 15 1013 87 10000 2.02 245.276 21:22 11.08.2019
3846 Rain 15 1013 87 10000 1 0 20:58 11.08.2019
3847 Rain 15 1013 87 10000 1 0 20:40 11.08.2019
3848 Rain 15 1013 87 10000 1 0 20:22 11.08.2019
3849 Rain 15 1013 87 10000 2 0 19:45 11.08.2019
3850 Rain 15 1013 87 10000 2 0 19:20 11.08.2019
3851 Rain 15 1013 87 10000 2 180 18:56 11.08.2019
3852 Thunderstorm 14 1013 93 10000 2 0 18:36 11.08.2019
3853 Thunderstorm 14 1013 87 10000 2 0 18:18 11.08.2019
3854 Thunderstorm 14 1012 87 10000 3 110 17:41 11.08.2019
3855 Thunderstorm 14 1012 87 10000 3 110 17:20 11.08.2019
3856 Thunderstorm 17 1014 72 8000 7 240 16:58 11.08.2019
3857 Thunderstorm 18 1011 68 10000 9 330 16:38 11.08.2019
3858 Thunderstorm 18 1011 68 10000 9 330 16:20 11.08.2019
3859 Thunderstorm 19 1010 72 10000 8 300 15:44 11.08.2019
3860 Thunderstorm 19 1010 72 10000 8 300 15:26 11.08.2019
3861 Thunderstorm 19 1010 72 10000 8 300 14:59 11.08.2019
3862 Thunderstorm 19 1010 72 10000 8 300 14:59 11.08.2019
3863 Clouds 22 1009 56 10000 9 140 14:40 11.08.2019
3864 Clouds 22 1009 56 10000 9 140 14:21 11.08.2019
3865 Clouds 23 1009 53 10000 7 140 13:46 11.08.2019
3866 Clouds 23 1009 53 10000 7 140 13:46 11.08.2019
3867 Clouds 23 1009 53 10000 7 140 13:26 11.08.2019
3868 Clouds 25 1009 47 10000 6 160 12:58 11.08.2019
3869 Clouds 25 1009 47 10000 6 160 12:58 11.08.2019
3870 Clouds 25 1009 47 10000 6 160 12:38 11.08.2019
3871 Clouds 26 1009 44 10000 7 160 12:19 11.08.2019
3872 Clouds 26 1009 47 10000 6 160 11:40 11.08.2019
3873 Clouds 26 1009 47 10000 6 160 11:40 11.08.2019
3874 Clouds 26 1009 47 10000 6 160 11:22 11.08.2019
3875 Clouds 26 1010 47 10000 7 160 10:56 11.08.2019
3876 Clouds 26 1010 47 10000 7 160 10:38 11.08.2019
3877 Clouds 26 1010 47 10000 7 160 10:19 11.08.2019
3878 Clouds 25 1010 57 10000 5 180 09:43 11.08.2019
3879 Clouds 25 1010 57 10000 5 180 09:24 11.08.2019
3880 Clouds 25 1011 53 10000 6 170 08:56 11.08.2019
3881 Clouds 25 1011 53 10000 6 170 08:38 11.08.2019
3882 Clouds 25 1011 53 10000 6 170 08:20 11.08.2019
3883 Clouds 24 1012 57 10000 6 170 07:32 11.08.2019
3884 Clouds 24 1012 57 10000 6 170 06:52 11.08.2019
3885 Clouds 23 1012 60 10000 5 160 06:31 11.08.2019
3886 Clouds 19 1013 68 0 1 0 04:46 11.08.2019
3887 Clouds 16 1014 77 10000 1.83 129.777 02:53 11.08.2019
3888 Clouds 12 1014 93 10000 1 0 01:58 11.08.2019
3889 Clear 11 1014 93 10000 1.83 129.777 01:32 11.08.2019
3890 Clear 9 1014 93 10000 1 0 00:56 11.08.2019
3891 Clear 9 1014 93 10000 1 0 00:36 11.08.2019
3892 Clear 10 1013 93 10000 1 0 23:56 10.08.2019
3893 Clear 10 1013 93 10000 1 0 23:37 10.08.2019
3894 Clear 10 1013 87 10000 1 0 23:18 10.08.2019
3895 Clear 10 1013 87 10000 1 0 22:38 10.08.2019
3896 Clear 10 1013 87 10000 1 0 22:20 10.08.2019
3897 Clear 11 1013 93 10000 1.16 117.097 21:41 10.08.2019
3898 Clear 11 1013 93 10000 0.72 94.87 21:22 10.08.2019
3899 Clear 11 1013 93 10000 0.72 94.87 21:22 10.08.2019
3900 Clear 11 1013 93 10000 0.54 62.959 20:59 10.08.2019
3901 Clear 11 1013 93 10000 0.54 62.959 20:59 10.08.2019
3902 Clear 12 1013 93 10000 2 270 20:40 10.08.2019
3903 Clear 12 1013 93 10000 2 270 20:20 10.08.2019
3904 Clear 12 1013 87 10000 1 0 19:54 10.08.2019
3905 Clear 12 1013 87 10000 1 0 19:36 10.08.2019
3906 Clear 12 1013 87 10000 1 0 19:18 10.08.2019
3907 Clear 13 1013 87 10000 0.54 62.959 18:38 10.08.2019
3908 Clear 13 1013 87 10000 2 0 18:20 10.08.2019
3909 Clouds 14 1013 82 10000 1 0 17:40 10.08.2019
3910 Clouds 14 1013 82 10000 1 0 17:21 10.08.2019
3911 Clouds 14 1013 87 10000 1 0 16:43 10.08.2019
3912 Clouds 14 1013 87 10000 1 0 16:25 10.08.2019
3913 Clouds 18 1013 68 10000 1 0 15:51 10.08.2019
3914 Clouds 18 1013 68 10000 1 0 15:23 10.08.2019
3915 Clouds 19 1012 68 10000 1 0 14:44 10.08.2019
3916 Clouds 19 1012 68 10000 1 0 14:21 10.08.2019
3917 Clouds 22 1012 53 10000 2 340 13:42 10.08.2019
3918 Clouds 22 1012 53 10000 2 340 13:21 10.08.2019
3919 Clouds 23 1011 43 10000 2 0 12:57 10.08.2019
3920 Clouds 23 1011 43 10000 2 0 12:39 10.08.2019
3921 Clouds 23 1010 46 10000 2 0 12:20 10.08.2019
3922 Clouds 23 1010 46 10000 2 0 11:42 10.08.2019
3923 Clouds 23 1010 46 10000 2 0 11:23 10.08.2019
3924 Clouds 22 1010 53 10000 3 270 10:58 10.08.2019
3925 Clouds 22 1010 53 10000 3 270 10:37 10.08.2019
3926 Clouds 22 1010 53 10000 3 270 10:19 10.08.2019
3927 Clouds 21 1011 60 10000 3 290 09:43 10.08.2019
3928 Clouds 21 1011 60 10000 3 290 09:24 10.08.2019
3929 Clouds 22 1011 49 10000 2 0 08:55 10.08.2019
3930 Clouds 22 1011 49 10000 2 0 08:55 10.08.2019
3931 Clouds 22 1011 46 10000 3 270 08:37 10.08.2019
3932 Clouds 22 1011 40 10000 2 0 08:18 10.08.2019
3933 Clouds 20 1011 64 10000 3 260 07:43 10.08.2019
3934 Clouds 20 1011 64 10000 3 260 07:19 10.08.2019
3935 Clouds 19 1011 68 10000 2 0 06:43 10.08.2019
3936 Clouds 18 1011 68 10000 1 0 05:44 10.08.2019
3937 Clouds 18 1011 68 10000 1 0 05:44 10.08.2019
3938 Clouds 17 1011 77 10000 1 0 05:18 10.08.2019
3939 Clouds 16 1011 82 10000 2 0 03:32 10.08.2019
3940 Mist 13 1011 93 2000 1 0 02:32 10.08.2019
3941 Clouds 12 1011 93 6000 0.72 352.128 01:44 10.08.2019
3942 Clouds 12 1011 93 6000 0.89 351.239 01:23 10.08.2019
3943 Clouds 10 1011 93 10000 0.89 351.239 00:57 10.08.2019
3944 Clouds 10 1011 93 10000 1 0 00:39 10.08.2019
3945 Clouds 11 1010 93 10000 1 0 00:18 10.08.2019
3946 Clouds 11 1010 93 10000 1 0 23:38 09.08.2019
3947 Clouds 11 1010 93 10000 1 0 23:20 09.08.2019
3948 Clouds 11 1010 93 10000 1 0 22:41 09.08.2019
3949 Clouds 11 1010 93 10000 1 0 22:23 09.08.2019
3950 Clouds 11 1010 93 10000 0.31 341.97 21:59 09.08.2019
3951 Clouds 11 1010 93 10000 0.31 341.97 21:39 09.08.2019
3952 Clouds 11 1010 93 10000 0.13 134.091 21:21 09.08.2019
3953 Clouds 12 1010 87 10000 1 0 20:56 09.08.2019
3954 Clouds 13 1010 93 10000 1 0 20:38 09.08.2019
3955 Clouds 14 1010 87 10000 1 0 20:18 09.08.2019
3956 Clouds 14 1010 87 10000 1 0 19:43 09.08.2019
3957 Clouds 14 1010 87 10000 1 0 19:22 09.08.2019
3958 Clouds 15 1010 87 10000 2 140 18:55 09.08.2019
3959 Clouds 15 1010 87 10000 2 140 18:36 09.08.2019
3960 Clouds 15 1010 87 10000 1 0 18:18 09.08.2019
3961 Clouds 15 1011 87 10000 1 0 17:42 09.08.2019
3962 Clouds 15 1011 87 10000 1 0 17:23 09.08.2019
3963 Clouds 15 1011 87 10000 1 0 16:54 09.08.2019
3964 Clouds 16 1010 77 10000 3 40 16:36 09.08.2019
3965 Clouds 15 1010 87 10000 1 0 16:18 09.08.2019
3966 Clouds 16 1010 77 10000 3 40 15:41 09.08.2019
3967 Clouds 16 1010 77 10000 3 40 15:21 09.08.2019
3968 Clouds 16 1010 77 10000 3 40 14:57 09.08.2019
3969 Clouds 16 1010 82 10000 2 360 14:38 09.08.2019
3970 Clouds 17 1009 72 10000 4 80 14:19 09.08.2019
3971 Clouds 16 1009 82 10000 4 70 13:44 09.08.2019
3972 Clouds 16 1009 82 10000 4 70 13:21 09.08.2019
3973 Clouds 17 1009 77 10000 3 60 12:48 09.08.2019
3974 Clouds 17 1009 77 10000 3 60 12:26 09.08.2019
3975 Clouds 17 1009 77 10000 2 0 11:59 09.08.2019
3976 Clouds 17 1009 77 10000 2 0 11:40 09.08.2019
3977 Clouds 17 1009 77 10000 2 0 11:20 09.08.2019
3978 Clouds 17 1009 77 10000 4 70 10:41 09.08.2019
3979 Clouds 17 1009 77 10000 4 70 10:22 09.08.2019
3980 Rain 17 1009 82 10000 3 30 09:59 09.08.2019
3981 Clouds 17 1009 77 10000 2 30 09:37 09.08.2019
3982 Rain 17 1009 77 10000 2 30 09:18 09.08.2019
3983 Rain 17 1009 77 10000 2 300 08:44 09.08.2019
3984 Rain 17 1009 77 10000 2 300 08:25 09.08.2019
3985 Clouds 18 1009 72 10000 1 0 07:55 09.08.2019
3986 Clouds 18 1009 72 10000 1 0 07:55 09.08.2019
3987 Clouds 17 1009 72 10000 2 340 07:24 09.08.2019
3988 Clouds 17 1009 77 10000 2 310 06:57 09.08.2019
3989 Rain 16 1009 82 10000 1 0 06:36 09.08.2019
3990 Rain 16 1009 82 10000 2 10 06:18 09.08.2019
3991 Rain 14 1010 87 10000 2 30 04:37 09.08.2019
3992 Rain 13 1010 93 8000 2 0 02:26 09.08.2019
3993 Rain 13 1009 93 8000 3 40 00:58 09.08.2019
3994 Rain 13 1009 93 6000 3 40 00:40 09.08.2019
3995 Rain 13 1009 93 6000 3 40 00:22 09.08.2019
3996 Rain 13 1009 87 10000 2 50 23:39 08.08.2019
3997 Rain 13 1009 87 10000 2 50 23:20 08.08.2019
3998 Rain 13 1010 93 10000 2 70 22:59 08.08.2019
3999 Rain 13 1010 87 10000 3 60 22:37 08.08.2019
4000 Rain 13 1010 87 10000 3 50 22:19 08.08.2019
4001 Rain 13 1010 87 10000 3 50 21:59 08.08.2019
4002 Rain 13 1010 87 10000 3 50 21:41 08.08.2019
4003 Rain 13 1010 87 10000 3 50 21:22 08.08.2019
4004 Rain 13 1011 93 10000 1 0 20:56 08.08.2019
4005 Rain 13 1011 93 10000 1 0 20:38 08.08.2019
4006 Rain 13 1011 93 10000 2 50 20:19 08.08.2019
4007 Rain 13 1011 93 10000 2 50 19:44 08.08.2019
4008 Rain 13 1011 93 10000 2 50 19:22 08.08.2019
4009 Rain 13 1011 93 10000 2 20 18:44 08.08.2019
4010 Rain 13 1011 93 10000 2 20 18:24 08.08.2019
4011 Rain 14 1012 87 10000 2 0 17:58 08.08.2019
4012 Rain 14 1012 87 10000 1 0 17:40 08.08.2019
4013 Rain 14 1012 87 10000 1 0 17:22 08.08.2019
4014 Rain 14 1012 87 10000 2 300 16:55 08.08.2019
4015 Rain 14 1012 87 10000 2 0 16:37 08.08.2019
4016 Rain 14 1012 87 10000 2 0 16:37 08.08.2019
4017 Rain 14 1012 87 10000 2 0 16:18 08.08.2019
4018 Rain 15 1013 87 10000 2 0 15:41 08.08.2019
4019 Rain 15 1013 87 10000 2 0 15:23 08.08.2019
4020 Rain 15 1012 87 8000 1 0 14:56 08.08.2019
4021 Rain 15 1012 87 8000 1 0 14:37 08.08.2019
4022 Rain 15 1012 87 8000 1 0 14:18 08.08.2019
4023 Rain 15 1012 87 8000 1 0 13:39 08.08.2019
4024 Clouds 15 1012 87 8000 2 270 13:20 08.08.2019
4025 Clouds 15 1012 87 8000 2 270 12:40 08.08.2019
4026 Rain 16 1012 87 8000 3 240 12:21 08.08.2019
4027 Rain 16 1012 87 8000 3 240 11:59 08.08.2019
4028 Rain 16 1012 87 10000 3 250 11:39 08.08.2019
4029 -273 0 0 0 0 0 11:21 08.08.2019
4030 Rain 17 1012 77 10000 5 240 10:41 08.08.2019
4031 Rain 17 1012 77 10000 5 240 10:21 08.08.2019
4032 Rain 18 1012 72 10000 4 230 09:52 08.08.2019
4033 Rain 18 1012 72 10000 4 230 09:31 08.08.2019
4034 Clouds 19 1012 63 10000 5 180 08:57 08.08.2019
4035 Clouds 20 1013 56 10000 5 180 08:39 08.08.2019
4036 Clouds 20 1013 56 10000 5 180 08:19 08.08.2019
4037 Clouds 20 1012 56 10000 3 200 07:41 08.08.2019
4038 Clouds 20 1013 52 10000 2 0 07:20 08.08.2019
4039 Clouds 20 1013 56 10000 2 0 06:49 08.08.2019
4040 Clouds 20 1013 56 10000 2 0 06:30 08.08.2019
4041 Clouds 19 1014 55 10000 1 0 05:53 08.08.2019
4042 Clouds 18 1014 59 10000 2 0 05:18 08.08.2019
4043 Clouds 17 1014 55 10000 1 0 03:53 08.08.2019
4044 Clouds 13 1014 76 10000 1 0 02:51 08.08.2019
4045 Clouds 11 1014 81 10000 2 350 01:38 08.08.2019
4046 Clouds 8 1014 93 10000 0.93 46.572 00:26 08.08.2019
4047 Clouds 8 1014 93 10000 1.22 22.663 23:56 07.08.2019
4048 Clouds 9 1014 87 10000 1.22 22.663 23:21 07.08.2019
4049 Clear 8 1014 87 10000 1 0 22:57 07.08.2019
4050 Clear 9 1014 87 10000 1 0 22:39 07.08.2019
4051 Clear 9 1014 87 10000 1 0 22:20 07.08.2019
4052 Clear 9 1014 87 10000 1 0 22:20 07.08.2019
4053 Clear 9 1014 81 10000 1.22 22.663 21:56 07.08.2019
4054 Clear 9 1014 81 10000 1.22 22.663 21:37 07.08.2019
4055 Clear 9 1014 81 10000 1.22 22.663 21:37 07.08.2019
4056 Clear 9 1014 81 10000 1.75 24.563 21:18 07.08.2019
4057 Clear 10 1014 81 10000 1 0 20:43 07.08.2019
4058 Clear 10 1014 81 10000 1 0 20:24 07.08.2019
4059 Clear 12 1015 81 10000 2 0 19:58 07.08.2019
4060 Clear 12 1015 81 10000 2 0 19:39 07.08.2019
4061 Clear 12 1015 81 10000 2 0 19:21 07.08.2019
4062 Clear 11 1015 87 10000 1 0 18:44 07.08.2019
4063 Clear 11 1015 87 10000 1 0 18:22 07.08.2019
4064 Clear 11 1015 87 10000 1 0 17:59 07.08.2019
4065 Clear 11 1015 81 10000 2 200 17:40 07.08.2019
4066 Clear 11 1015 81 10000 2 200 17:21 07.08.2019
4067 Clear 11 1015 81 10000 2 200 17:21 07.08.2019
4068 Clear 12 1014 81 10000 2 160 16:57 07.08.2019
4069 Clear 12 1014 81 10000 2 160 16:39 07.08.2019
4070 Clear 12 1014 81 10000 2 160 16:20 07.08.2019
4071 Clear 15 1014 67 10000 2.14 19.594 15:57 07.08.2019
4072 Clear 15 1014 67 10000 1 0 15:38 07.08.2019
4073 Clear 15 1014 67 10000 1 0 15:19 07.08.2019
4074 Clear 18 1013 55 10000 3 340 14:49 07.08.2019
4075 Clear 18 1013 55 10000 3 340 14:28 07.08.2019
4076 Clouds 19 1013 48 10000 4 330 13:55 07.08.2019
4077 Clouds 19 1013 48 10000 4 330 13:36 07.08.2019
4078 Clouds 20 1013 42 10000 6 340 13:18 07.08.2019
4079 Clouds 20 1013 42 10000 6 340 12:55 07.08.2019
4080 Clouds 20 1013 42 10000 6 340 12:36 07.08.2019
4081 Clouds 21 1013 43 10000 5 340 12:18 07.08.2019
4082 Clouds 21 1013 46 10000 5 340 11:42 07.08.2019
4083 Clouds 21 1013 46 10000 5 340 11:20 07.08.2019
4084 Clouds 21 1013 40 10000 5 330 10:56 07.08.2019
4085 Clouds 21 1013 43 10000 5 340 10:38 07.08.2019
4086 Clouds 20 1013 42 10000 6 340 10:18 07.08.2019
4087 Clouds 21 1014 40 10000 4 340 09:44 07.08.2019
4088 Clouds 21 1014 40 10000 4 340 09:22 07.08.2019
4089 Clouds 21 1014 40 10000 6 330 08:56 07.08.2019
4090 Clouds 21 1014 40 10000 6 330 08:38 07.08.2019
4091 Clouds 21 1014 40 10000 6 330 08:20 07.08.2019
4092 Clouds 21 1014 30 10000 3 360 07:39 07.08.2019
4093 Clouds 21 1015 32 10000 4 330 07:20 07.08.2019
4094 Clouds 20 1015 40 10000 3 320 06:29 07.08.2019
4095 Clouds 20 1015 45 10000 4 40 05:50 07.08.2019
4096 Clouds 18 1015 59 10000 2 0 04:53 07.08.2019
4097 Clouds 17 1015 72 10000 2 20 03:21 07.08.2019
4098 Clouds 16 1015 77 10000 3 60 02:49 07.08.2019
4099 Clouds 14 1016 87 10000 1 0 01:58 07.08.2019
4100 Clouds 14 1016 87 10000 1.3 354.083 01:39 07.08.2019
4101 Clouds 13 1016 87 10000 0.98 314.38 00:43 07.08.2019
4102 Clouds 13 1016 87 10000 0.92 222.664 00:22 07.08.2019
4103 Clouds 13 1015 87 10000 0.92 222.664 23:41 06.08.2019
4104 Clouds 13 1015 87 10000 0.92 222.664 23:21 06.08.2019
4105 Clouds 13 1015 87 10000 1 0 22:56 06.08.2019
4106 Clouds 13 1015 87 10000 1 0 22:37 06.08.2019
4107 Clouds 13 1015 87 10000 2 360 22:18 06.08.2019
4108 Clouds 13 1015 87 10000 1 0 21:42 06.08.2019
4109 Clouds 13 1015 87 10000 1 0 21:24 06.08.2019
4110 Clouds 13 1015 93 10000 2 0 20:57 06.08.2019
4111 Clouds 14 1015 87 10000 1 0 20:39 06.08.2019
4112 Clouds 14 1015 87 10000 1 0 20:21 06.08.2019
4113 Clouds 14 1016 87 10000 0.97 158.924 19:43 06.08.2019
4114 Clouds 14 1016 87 10000 0.97 158.924 19:25 06.08.2019
4115 Clouds 15 1016 87 10000 0.97 158.924 18:46 06.08.2019
4116 Clouds 15 1016 87 10000 0.97 158.924 18:27 06.08.2019
4117 Clouds 15 1016 87 10000 1 0 17:59 06.08.2019
4118 Clouds 15 1016 87 10000 1 0 17:39 06.08.2019
4119 Clouds 15 1016 87 10000 1 0 17:21 06.08.2019
4120 Clouds 16 1016 87 10000 1 0 16:59 06.08.2019
4121 Clouds 16 1015 87 10000 1 0 16:38 06.08.2019
4122 Clouds 16 1015 87 10000 1 0 16:19 06.08.2019
4123 Clouds 16 1015 87 10000 1 0 15:56 06.08.2019
4124 Clouds 16 1015 87 10000 0.92 159.868 15:38 06.08.2019
4125 Rain 16 1015 87 10000 1.53 180.261 15:18 06.08.2019
4126 Clouds 17 1015 82 10000 1 0 14:41 06.08.2019
4127 Clouds 17 1015 82 10000 1 0 14:41 06.08.2019
4128 Clouds 17 1015 82 10000 1 0 14:22 06.08.2019
4129 Clouds 17 1015 82 10000 1 0 13:57 06.08.2019
4130 Clouds 17 1015 82 10000 1 0 13:57 06.08.2019
4131 Clouds 17 1014 82 10000 2 0 13:38 06.08.2019
4132 Clouds 17 1014 82 10000 2 0 13:19 06.08.2019
4133 Rain 17 1015 82 10000 2 250 12:55 06.08.2019
4134 Rain 17 1015 82 10000 2 250 12:36 06.08.2019
4135 Clouds 17 1015 77 10000 3 210 12:18 06.08.2019
4136 Clouds 18 1015 72 10000 4 220 11:40 06.08.2019
4137 Clouds 18 1015 72 10000 4 220 11:40 06.08.2019
4138 Clouds 18 1015 72 10000 4 220 11:40 06.08.2019
4139 Clouds 19 1015 68 10000 2 0 11:18 06.08.2019
4140 Clouds 18 1015 72 10000 2 0 10:41 06.08.2019
4141 Clouds 18 1015 72 10000 2 0 10:22 06.08.2019
4142 Clouds 17 1015 77 10000 3 180 09:48 06.08.2019
4143 Clouds 17 1015 77 10000 3 180 09:24 06.08.2019
4144 Rain 17 1015 72 10000 3 170 08:57 06.08.2019
4145 Rain 17 1015 72 10000 3 170 08:37 06.08.2019
4146 Clouds 17 1015 77 10000 1 0 08:19 06.08.2019
4147 Clouds 17 1015 77 10000 1 0 07:35 06.08.2019
4148 Clouds 15 1015 93 10000 2 340 06:51 06.08.2019
4149 Rain 15 1015 93 8000 2 0 06:26 06.08.2019
4150 Rain 14 1016 93 3600 1 0 05:47 06.08.2019
4151 Rain 14 1015 93 6000 2.09 14.269 02:59 06.08.2019
4152 Rain 15 1014 93 8000 1 0 01:46 06.08.2019
4153 Rain 15 1014 93 8000 1 0 01:22 06.08.2019
4154 Rain 15 1014 93 8000 1 0 00:29 06.08.2019
4155 Rain 15 1014 93 10000 1 0 23:40 05.08.2019
4156 Rain 15 1014 93 10000 2.04 325.662 23:18 05.08.2019
4157 Rain 15 1014 93 10000 1 0 22:40 05.08.2019
4158 Rain 15 1014 93 10000 1 0 22:22 05.08.2019
4159 Rain 16 1013 87 10000 2 60 21:44 05.08.2019
4160 Rain 16 1013 87 10000 2 60 21:21 05.08.2019
4161 Rain 16 1013 87 10000 1.29 324.529 20:59 05.08.2019
4162 Rain 16 1013 87 10000 1.29 324.529 20:40 05.08.2019
4163 Rain 16 1013 87 10000 1.29 324.529 20:22 05.08.2019
4164 Clouds 16 1013 87 10000 1.29 324.529 19:59 05.08.2019
4165 Clouds 16 1013 87 10000 2 60 19:39 05.08.2019
4166 Clouds 16 1013 87 10000 2 60 19:20 05.08.2019
4167 Clouds 16 1013 87 10000 1 0 18:43 05.08.2019
4168 Clouds 16 1013 87 10000 2 0 18:22 05.08.2019
4169 Clouds 16 1013 87 10000 2 0 17:57 05.08.2019
4170 Clouds 16 1013 87 10000 1.52 303.189 17:39 05.08.2019
4171 Clouds 16 1013 87 10000 1.52 303.189 17:20 05.08.2019
4172 Rain 16 1013 93 10000 1.52 303.189 16:43 05.08.2019
4173 Rain 16 1013 93 10000 1.52 303.189 16:23 05.08.2019
4174 Rain 16 1013 87 10000 1 0 15:43 05.08.2019
4175 Rain 16 1013 87 10000 1 0 15:21 05.08.2019
4176 Clouds 16 1013 87 10000 1 0 14:43 05.08.2019
4177 Clouds 16 1013 87 10000 1 0 14:23 05.08.2019
4178 Clouds 16 1013 87 10000 1 0 13:57 05.08.2019
4179 Clouds 16 1013 87 10000 2 320 13:39 05.08.2019
4180 Clouds 16 1012 87 10000 1 0 13:18 05.08.2019
4181 Clouds 16 1012 87 10000 1 0 12:42 05.08.2019
4182 Thunderstorm 16 1012 87 10000 1 0 12:19 05.08.2019
4183 Thunderstorm 15 1012 93 10000 1 0 11:44 05.08.2019
4184 Thunderstorm 15 1012 93 10000 1 0 11:25 05.08.2019
4185 Thunderstorm 15 1012 93 10000 1 0 10:49 05.08.2019
4186 Thunderstorm 15 1013 93 5000 7 300 10:31 05.08.2019
4187 Thunderstorm 15 1013 93 5000 7 300 10:31 05.08.2019
4188 Thunderstorm 15 1011 87 10000 4 140 09:57 05.08.2019
4189 Thunderstorm 15 1011 87 10000 4 140 09:57 05.08.2019
4190 Thunderstorm 14 1011 93 3600 7 100 09:38 05.08.2019
4191 Thunderstorm 14 1011 93 3600 7 100 09:20 05.08.2019
4192 Clouds 24 1010 50 10000 4 290 08:44 05.08.2019
4193 Clouds 24 1010 50 10000 4 290 08:25 05.08.2019
4194 Clouds 22 1010 56 10000 3 290 07:49 05.08.2019
4195 Clouds 22 1010 56 10000 3 290 07:30 05.08.2019
4196 Clouds 22 1010 56 10000 3 290 06:57 05.08.2019
4197 Clouds 22 1011 60 10000 2 0 06:24 05.08.2019
4198 Clouds 20 1012 68 10000 2 0 05:31 05.08.2019
4199 Clouds 20 1012 68 10000 2 10 04:50 05.08.2019
4200 Clouds 19 1012 72 10000 1 0 03:50 05.08.2019
4201 Clouds 17 1012 72 10000 1 0 02:38 05.08.2019
4202 Clouds 15 1012 82 10000 1 0 01:47 05.08.2019
4203 Clouds 15 1012 82 10000 1 0 01:19 05.08.2019
4204 Clouds 15 1011 82 10000 2 0 00:39 05.08.2019
4205 Clouds 15 1012 82 10000 2 0 00:19 05.08.2019
4206 Clear 14 1012 87 10000 1 220 23:43 04.08.2019
4207 Clear 14 1012 87 10000 1 220 23:23 04.08.2019
4208 Clear 14 1012 87 10000 2.41 336.279 22:57 04.08.2019
4209 Clear 13 1012 93 10000 1 0 22:38 04.08.2019
4210 Clear 13 1012 93 10000 1 0 22:19 04.08.2019
4211 Clear 13 1012 93 10000 1 0 22:19 04.08.2019
4212 Clear 13 1012 87 10000 1 0 21:45 04.08.2019
4213 Clear 13 1012 87 10000 1 0 21:45 04.08.2019
4214 Clear 13 1012 87 10000 1 0 21:24 04.08.2019
4215 Clear 14 1011 82 10000 1 0 20:58 04.08.2019
4216 Clouds 14 1011 87 10000 1 0 20:40 04.08.2019
4217 Clouds 14 1011 87 10000 1 0 20:18 04.08.2019
4218 Clouds 15 1011 82 10000 1 0 19:48 04.08.2019
4219 Clouds 15 1011 82 10000 1 0 19:27 04.08.2019
4220 Clouds 15 1011 82 10000 1 0 18:57 04.08.2019
4221 Clouds 16 1011 77 10000 1 0 18:39 04.08.2019
4222 Clouds 17 1011 77 10000 4 30 18:19 04.08.2019
4223 Clouds 17 1011 77 10000 4 40 17:42 04.08.2019
4224 Clouds 17 1011 77 10000 4 40 17:21 04.08.2019
4225 Clouds 18 1011 72 10000 1 0 16:44 04.08.2019
4226 Clouds 18 1011 72 10000 1 0 16:26 04.08.2019
4227 Clouds 18 1011 77 10000 2 0 15:55 04.08.2019
4228 Clouds 18 1011 77 10000 1 0 15:37 04.08.2019
4229 Clouds 18 1011 77 10000 1 0 15:37 04.08.2019
4230 Clouds 18 1011 77 10000 1 0 15:18 04.08.2019
4231 Clouds 18 1011 77 10000 2 170 14:42 04.08.2019
4232 Clouds 18 1011 77 10000 2 170 14:20 04.08.2019
4233 Thunderstorm 18 1010 77 10000 6 320 13:43 04.08.2019
4234 Thunderstorm 18 1010 77 10000 6 320 13:23 04.08.2019
4235 Thunderstorm 18 1011 77 10000 5 60 12:47 04.08.2019
4236 Thunderstorm 18 1011 77 10000 5 60 12:28 04.08.2019
4237 Thunderstorm 19 1010 63 10000 2 0 11:58 04.08.2019
4238 Thunderstorm 24 1010 33 10000 4 100 11:39 04.08.2019
4239 Thunderstorm 24 1010 33 10000 4 100 11:21 04.08.2019
4240 Clouds 27 1009 47 10000 6 330 10:41 04.08.2019
4241 Clouds 27 1009 47 10000 6 330 10:21 04.08.2019
4242 Clouds 28 1009 45 10000 6 310 09:45 04.08.2019
4243 Clouds 28 1009 45 10000 6 310 09:25 04.08.2019
4244 Clouds 27 1009 34 10000 2 0 08:53 04.08.2019
4245 Clouds 27 1010 36 10000 3 300 08:32 04.08.2019
4246 Clouds 27 1010 39 10000 2 0 07:53 04.08.2019
4247 Clouds 26 1010 44 10000 3 320 07:22 04.08.2019
4248 Clouds 26 1011 39 10000 2 0 06:28 04.08.2019
4249 Clouds 23 1011 46 10000 3 60 04:43 04.08.2019
4250 Clouds 18 1012 59 10000 1 0 02:47 04.08.2019
4251 Clouds 17 1011 63 10000 3 330 01:51 04.08.2019
4252 Clouds 17 1011 63 10000 3 330 01:27 04.08.2019
4253 Clouds 16 1010 67 10000 1 0 00:41 04.08.2019
4254 Clouds 16 1010 67 10000 1 0 00:21 04.08.2019
4255 Clouds 17 1010 59 10000 2 0 23:41 03.08.2019
4256 Clouds 16 1011 67 10000 2 0 23:19 03.08.2019
4257 Clouds 16 1011 67 10000 2 0 22:55 03.08.2019
4258 Clouds 15 1011 72 10000 2 180 22:37 03.08.2019
4259 Clouds 14 1010 76 10000 1 0 22:18 03.08.2019
4260 Clear 13 1011 76 10000 1 0 21:37 03.08.2019
4261 Clear 15 1011 62 10000 2 0 21:19 03.08.2019
4262 Clear 15 1011 62 10000 2 0 20:42 03.08.2019
4263 Clear 15 1011 62 10000 2 0 20:22 03.08.2019
4264 Clear 16 1010 63 10000 2 120 19:43 03.08.2019
4265 Clear 16 1010 63 10000 2 120 19:24 03.08.2019
4266 Clear 16 1010 63 10000 2 120 18:56 03.08.2019
4267 Clear 18 1011 59 10000 1 0 18:27 03.08.2019
4268 Clear 18 1010 55 10000 1 0 17:50 03.08.2019
4269 Clear 23 1011 38 10000 2 0 17:22 03.08.2019
4270 Clouds 23 1010 38 10000 2 350 16:57 03.08.2019
4271 Clouds 23 1010 38 10000 2 350 16:37 03.08.2019
4272 Clouds 23 1010 38 10000 2 350 16:19 03.08.2019
4273 Clouds 24 1009 33 10000 5 140 15:43 03.08.2019
4274 Clouds 24 1009 33 10000 5 140 15:23 03.08.2019
4275 Clouds 24 1009 36 10000 5 140 14:42 03.08.2019
4276 Clouds 24 1009 36 10000 5 140 14:21 03.08.2019
4277 Clouds 25 1009 41 10000 3 170 13:52 03.08.2019
4278 Clouds 25 1009 41 10000 3 170 13:52 03.08.2019
4279 Clouds 27 1009 39 10000 3 150 13:25 03.08.2019
4280 Clouds 29 1009 32 10000 3 180 12:58 03.08.2019
4281 Clouds 29 1009 32 10000 3 180 12:40 03.08.2019
4282 Clouds 29 1009 32 10000 3 180 12:21 03.08.2019
4283 Clouds 31 1010 19 10000 4 160 11:49 03.08.2019
4284 Clouds 31 1010 19 10000 4 160 11:28 03.08.2019
4285 Clouds 31 1011 18 10000 4 160 10:42 03.08.2019
4286 Clouds 31 1011 18 10000 4 160 10:24 03.08.2019
4287 Clouds 31 1011 16 10000 5 170 09:44 03.08.2019
4288 Clouds 31 1011 16 10000 5 170 09:22 03.08.2019
4289 Clouds 31 1011 20 10000 3 150 08:52 03.08.2019
4290 Clouds 30 1012 20 10000 5 180 07:55 03.08.2019
4291 Clouds 30 1012 23 10000 6 170 07:32 03.08.2019
4292 Clouds 28 1013 34 10000 5 160 06:36 03.08.2019
4293 Clouds 25 1013 41 10000 2 0 04:41 03.08.2019
4294 Clouds 18 1013 63 10000 1 0 02:38 03.08.2019
4295 Clouds 16 1013 72 10000 2 0 01:49 03.08.2019
4296 Clouds 16 1013 67 10000 2 0 00:49 03.08.2019
4297 Clouds 14 1013 82 10000 2 0 23:59 02.08.2019
4298 Clouds 16 1013 67 10000 1 0 23:40 02.08.2019
4299 Clouds 14 1013 82 10000 3 170 23:19 02.08.2019
4300 Clouds 14 1013 82 10000 3 170 22:57 02.08.2019
4301 Clouds 14 1014 82 10000 2 160 22:38 02.08.2019
4302 Clouds 15 1014 77 10000 1 0 22:19 02.08.2019
4303 Clouds 15 1014 67 10000 2 0 21:43 02.08.2019
4304 Clouds 15 1014 67 10000 2 0 21:24 02.08.2019
4305 Clouds 15 1014 77 10000 1 0 20:57 02.08.2019
4306 Clouds 15 1014 77 10000 1 0 20:39 02.08.2019
4307 Clouds 15 1014 77 10000 1 0 20:20 02.08.2019
4308 Clouds 17 1014 67 10000 1 0 19:45 02.08.2019
4309 Clouds 17 1014 67 10000 1 0 19:25 02.08.2019
4310 Clouds 20 1014 56 10000 4 60 18:44 02.08.2019
4311 Clouds 20 1014 56 10000 4 60 18:25 02.08.2019
4312 Clouds 21 1014 46 10000 6 140 17:48 02.08.2019
4313 Clouds 21 1014 46 10000 6 140 17:25 02.08.2019
4314 Clouds 21 1014 40 10000 1 0 16:58 02.08.2019
4315 Clouds 20 1014 45 10000 1.98 134.2 16:38 02.08.2019
4316 Clouds 19 1013 48 10000 2 130 16:18 02.08.2019
4317 Clouds 19 1013 52 10000 3 150 15:39 02.08.2019
4318 Clouds 19 1013 52 10000 3 150 15:19 02.08.2019
4319 Clouds 21 1013 68 10000 2 0 14:46 02.08.2019
4320 Clouds 25 1013 50 10000 2 140 14:18 02.08.2019
4321 Clouds 25 1013 50 10000 2 140 13:48 02.08.2019
4322 -273 0 0 0 0 0 13:26 02.08.2019
4323 Clouds 28 1013 26 10000 2.49 177.324 12:45 02.08.2019
4324 Clouds 28 1013 26 10000 3.52 208.246 12:22 02.08.2019
4325 Clouds 28 1013 32 10000 1 0 11:53 02.08.2019
4326 Clouds 28 1013 32 10000 3 240 11:34 02.08.2019
4327 Clouds 28 1013 34 10000 4 240 10:57 02.08.2019
4328 Clouds 28 1013 37 10000 4 240 10:39 02.08.2019
4329 Clouds 28 1013 37 10000 4 240 10:20 02.08.2019
4330 Clouds 28 1013 30 10000 3 230 09:52 02.08.2019
4331 Clouds 28 1013 28 0 2 0 09:25 02.08.2019
4332 Clouds 27 1013 34 10000 2 0 08:49 02.08.2019
4333 Clouds 27 1013 34 10000 2 0 08:49 02.08.2019
4334 Clouds 27 1014 39 10000 2 0 08:22 02.08.2019
4335 Clouds 27 1014 39 10000 2 0 07:50 02.08.2019
4336 Clouds 27 1014 34 10000 3 240 07:31 02.08.2019
4337 Clouds 26 1014 36 10000 3 260 06:51 02.08.2019
4338 Clouds 25 1014 47 8000 2 0 06:24 02.08.2019
4339 Clouds 23 1014 49 8000 2 0 05:25 02.08.2019
4340 Clouds 20 1015 56 8000 1 0 03:28 02.08.2019
4341 Clouds 18 1015 59 8000 3 50 02:33 02.08.2019
4342 Clouds 14 1015 76 8000 1 0 00:41 02.08.2019
4343 Clouds 14 1015 76 8000 4 330 23:56 01.08.2019
4344 Clouds 13 1014 87 10000 1.76 21.033 23:38 01.08.2019
4345 Clouds 14 1014 76 10000 1 0 23:18 01.08.2019
4346 Clouds 14 1014 82 10000 1 0 22:40 01.08.2019
4347 Clouds 14 1014 82 10000 1 0 22:21 01.08.2019
4348 Clouds 14 1014 82 10000 1 0 21:44 01.08.2019
4349 Clouds 14 1014 82 10000 1 0 21:24 01.08.2019
4350 Clouds 13 1014 87 10000 1 0 20:59 01.08.2019
4351 Clouds 13 1014 87 10000 1 0 20:40 01.08.2019
4352 Clouds 13 1014 87 10000 1 0 20:21 01.08.2019
4353 Clouds 15 1014 82 10000 1 0 19:42 01.08.2019
4354 Clouds 15 1014 82 10000 1 0 19:20 01.08.2019
4355 Clouds 16 1014 72 10000 2.95 330.44 18:44 01.08.2019
4356 Clouds 16 1014 72 10000 1.42 80.823 18:25 01.08.2019
4357 Clouds 16 1014 77 10000 1 0 17:55 01.08.2019
4358 Clouds 15 1014 77 10000 2 0 17:36 01.08.2019
4359 Clouds 15 1014 82 10000 2 180 17:18 01.08.2019
4360 Clouds 16 1014 77 10000 2 160 16:44 01.08.2019
4361 Clouds 16 1014 77 10000 2 160 16:21 01.08.2019
4362 Clouds 19 1013 59 8000 2 0 15:41 01.08.2019
4363 Clouds 19 1013 59 8000 2 0 15:20 01.08.2019
4364 Clouds 21 1013 73 8000 2 180 14:44 01.08.2019
4365 Clouds 21 1013 73 8000 2 180 14:21 01.08.2019
4366 Clouds 24 1013 53 8000 1 0 13:58 01.08.2019
4367 Clouds 24 1013 53 8000 1 0 13:40 01.08.2019
4368 Clouds 24 1013 53 8000 1 0 13:21 01.08.2019
4369 Clouds 27 1013 30 8000 1 0 12:49 01.08.2019
4370 Clouds 27 1013 30 8000 1 0 12:28 01.08.2019
4371 Clouds 27 1013 28 8000 2 0 11:44 01.08.2019
4372 Clouds 27 1013 28 8000 2 0 11:26 01.08.2019
4373 Clouds 28 1013 30 8000 1 0 10:59 01.08.2019
4374 Clouds 27 1013 26 8000 2 0 10:40 01.08.2019
4375 Clouds 27 1013 26 8000 2 0 10:22 01.08.2019
4376 Clouds 26 1014 31 8000 1 0 09:47 01.08.2019
4377 Clouds 26 1014 31 8000 1 0 09:23 01.08.2019
4378 Clouds 26 1014 36 8000 1 0 08:48 01.08.2019
4379 Clouds 26 1014 36 8000 1 0 08:21 01.08.2019
4380 Clouds 25 1014 38 8000 2 0 07:52 01.08.2019
4381 Clouds 25 1014 38 8000 2 0 07:29 01.08.2019
4382 Clouds 25 1015 47 8000 1 0 06:49 01.08.2019
4383 Clouds 25 1015 47 8000 1 0 06:29 01.08.2019
4384 Clouds 21 1016 64 8000 2 0 05:31 01.08.2019
4385 Clear 14 1016 82 8000 1 0 02:36 01.08.2019
4386 Clear 10 1015 93 8000 1.07 115.681 00:55 01.08.2019
4387 Clear 9 1015 93 8000 1.07 115.681 00:27 01.08.2019
4388 Clouds 8 1015 93 8000 1 0 23:57 31.07.2019
4389 Clouds 9 1015 87 8000 2 140 23:39 31.07.2019
4390 Clouds 9 1015 87 8000 2 140 23:19 31.07.2019
4391 Clouds 12 1011 85 0 1 123.452 22:44 31.07.2019
4392 Clouds 12 1011 85 0 1 123.452 22:24 31.07.2019
4393 Clear 10 1015 87 10000 1 0 21:41 31.07.2019
4394 Clear 10 1015 87 10000 1 0 21:22 31.07.2019
4395 Clear 12 1015 87 10000 0.66 121.756 20:49 31.07.2019
4396 Clear 12 1015 87 10000 0.66 121.756 20:24 31.07.2019
4397 Clear 12 1015 87 10000 0.66 121.756 19:49 31.07.2019
4398 Clear 12 1015 87 10000 0.66 121.756 19:31 31.07.2019
4399 Clear 12 1015 87 10000 0.66 121.756 18:57 31.07.2019
4400 Clear 14 1015 82 10000 2 0 18:37 31.07.2019
4401 Clear 13 1015 87 10000 2 190 18:18 31.07.2019
4402 Clear 13 1014 87 10000 1 0 17:44 31.07.2019
4403 Clear 13 1014 87 10000 1 0 17:20 31.07.2019
4404 Clouds 15 1014 77 10000 1 0 16:54 31.07.2019
4405 Clouds 15 1014 82 10000 3 170 16:27 31.07.2019
4406 Clouds 16 1014 77 8000 2 130 15:58 31.07.2019
4407 Clouds 16 1014 82 8000 3 140 15:38 31.07.2019
4408 Clouds 16 1014 82 8000 3 140 15:38 31.07.2019
4409 Clouds 16 1014 82 8000 3 140 15:20 31.07.2019
4410 Clouds 20 1013 68 8000 1.39 359.587 14:42 31.07.2019
4411 Clouds 20 1013 68 8000 1.39 359.587 14:19 31.07.2019
4412 Clouds 22 1013 53 8000 1 0 13:55 31.07.2019
4413 Clouds 23 1013 49 8000 1 0 13:37 31.07.2019
4414 Rain 24 1013 44 8000 2 300 13:18 31.07.2019
4415 Rain 24 1013 44 8000 2 0 12:40 31.07.2019
4416 Rain 24 1013 44 8000 2 0 12:22 31.07.2019
4417 Clouds 24 1013 41 8000 2 0 11:39 31.07.2019
4418 Clouds 24 1013 41 8000 2 0 11:21 31.07.2019
4419 Clouds 24 1013 44 6000 3 280 10:55 31.07.2019
4420 Clouds 24 1013 38 6000 3 300 10:37 31.07.2019
4421 Clouds 23 1013 40 6000 3 280 10:18 31.07.2019
4422 Clouds 23 1013 43 6000 3 260 09:42 31.07.2019
4423 Clouds 23 1013 43 6000 3 260 09:23 31.07.2019
4424 Smoke 22 1014 49 5000 3 270 08:43 31.07.2019
4425 Smoke 22 1014 49 5000 3 270 08:24 31.07.2019
4426 Smoke 21 1014 60 4000 3 250 07:47 31.07.2019
4427 Smoke 21 1014 60 4000 3 250 07:27 31.07.2019
4428 Smoke 18 1015 68 3200 1 0 05:23 31.07.2019
4429 Smoke 14 1015 82 3000 1 0 03:56 31.07.2019
4430 Clear 8 1014 93 6000 1 0 00:37 31.07.2019
4431 Clear 9 1014 87 6000 2 170 23:49 30.07.2019
4432 Clear 9 1014 87 6000 2 170 23:27 30.07.2019
4433 Clouds 9 1013 93 6000 3 190 22:49 30.07.2019
4434 Clouds 9 1013 93 6000 3 190 22:26 30.07.2019
4435 Clouds 9 1013 87 6000 2 0 21:59 30.07.2019
4436 Clouds 10 1013 93 6000 1 0 21:37 30.07.2019
4437 Clouds 10 1013 93 6000 1 0 21:19 30.07.2019
4438 Clouds 10 1013 93 6000 1 0 20:55 30.07.2019
4439 Clouds 10 1014 87 6000 2 0 20:36 30.07.2019
4440 Clouds 11 1014 93 6000 1.95 342.813 20:18 30.07.2019
4441 Clouds 12 1014 93 6000 2 360 19:42 30.07.2019
4442 Clouds 11 1014 93 6000 2 0 19:24 30.07.2019
4443 Clouds 11 1014 93 6000 2 0 18:45 30.07.2019
4444 Clouds 11 1014 93 6000 2 0 18:21 30.07.2019
4445 Clouds 13 1014 87 6000 3 340 17:43 30.07.2019
4446 Clouds 13 1014 87 6000 3 340 17:20 30.07.2019
4447 Clouds 13 1014 87 6000 2 0 16:55 30.07.2019
4448 Clouds 14 1014 87 6000 3 30 16:37 30.07.2019
4449 Smoke 14 1014 87 5000 3 350 16:18 30.07.2019
4450 Smoke 14 1013 87 5000 2 0 15:39 30.07.2019
4451 Smoke 14 1013 87 5000 2 0 15:39 30.07.2019
4452 Smoke 14 1013 87 5000 2 0 15:19 30.07.2019
4453 Smoke 14 1013 87 5000 3 360 14:43 30.07.2019
4454 Smoke 14 1013 87 5000 3 360 14:22 30.07.2019
4455 Clouds 14 1013 87 6000 4 350 13:55 30.07.2019
4456 Clouds 14 1013 87 6000 5 340 13:36 30.07.2019
4457 Clouds 15 1012 82 8000 5 350 13:18 30.07.2019
4458 Clouds 15 1012 82 8000 5 350 12:43 30.07.2019
4459 Clouds 15 1012 82 8000 5 350 12:24 30.07.2019
4460 Clouds 15 1012 77 10000 6 340 11:44 30.07.2019
4461 Clouds 15 1012 77 10000 6 340 11:23 30.07.2019
4462 Clouds 15 1012 77 10000 6 340 10:55 30.07.2019
4463 Clouds 15 1013 77 10000 6 350 10:37 30.07.2019
4464 Clouds 15 1013 77 10000 4 330 10:19 30.07.2019
4465 Clouds 14 1013 82 10000 5 350 09:45 30.07.2019
4466 Clouds 14 1013 82 10000 5 350 09:26 30.07.2019
4467 Clouds 15 1012 77 10000 4 340 08:32 30.07.2019
4468 Clouds 14 1012 82 10000 5 330 07:52 30.07.2019
4469 Clouds 14 1012 76 10000 7 330 07:34 30.07.2019
4470 Clouds 14 1012 82 10000 7 330 06:52 30.07.2019
4471 Clouds 13 1012 82 10000 8 330 06:32 30.07.2019
4472 Clouds 13 1012 82 10000 5 330 05:34 30.07.2019
4473 Clouds 12 1012 87 10000 5 330 03:29 30.07.2019
4474 Clouds 12 1011 87 8000 4 350 01:22 30.07.2019
4475 Clouds 12 1011 87 8000 5 330 00:26 30.07.2019
4476 Rain 12 1010 87 10000 5 340 23:57 29.07.2019
4477 Rain 12 1010 87 10000 5 330 23:38 29.07.2019
4478 Rain 12 1010 87 10000 5 330 23:19 29.07.2019
4479 Clouds 12 1011 87 10000 6 320 22:54 29.07.2019
4480 Rain 12 1010 87 10000 6 320 22:36 29.07.2019
4481 Clouds 12 1010 87 10000 6 330 22:18 29.07.2019
4482 Rain 12 1010 87 10000 6 330 21:41 29.07.2019
4483 Rain 12 1010 87 10000 6 330 21:23 29.07.2019
4484 Rain 12 1010 93 10000 7 330 20:55 29.07.2019
4485 Clouds 13 1009 82 10000 8 330 20:37 29.07.2019
4486 Clouds 13 1009 82 10000 7 340 20:19 29.07.2019
4487 Clouds 13 1010 87 10000 6 340 19:42 29.07.2019
4488 Clouds 13 1010 87 10000 6 340 19:21 29.07.2019
4489 Rain 13 1010 87 10000 5 340 18:43 29.07.2019
4490 Rain 13 1010 87 10000 5 340 18:23 29.07.2019
4491 Rain 13 1010 87 10000 5 340 17:57 29.07.2019
4492 Clouds 13 1010 87 10000 3 330 17:39 29.07.2019
4493 Clouds 13 1010 87 10000 3 330 17:20 29.07.2019
4494 Clouds 12 1010 87 10000 3 320 16:43 29.07.2019
4495 Clouds 12 1010 87 10000 3 320 16:23 29.07.2019
4496 Clouds 12 1010 87 10000 2 0 15:54 29.07.2019
4497 Rain 12 1009 87 10000 2 290 15:35 29.07.2019
4498 Rain 12 1009 87 10000 2 0 14:57 29.07.2019
4499 Rain 12 1009 87 10000 3 330 14:39 29.07.2019
4500 Rain 12 1009 87 10000 3 330 14:20 29.07.2019
4501 Rain 12 1009 87 10000 5 340 13:43 29.07.2019
4502 Rain 12 1009 87 10000 5 340 13:23 29.07.2019
4503 Rain 13 1008 87 10000 6 300 12:43 29.07.2019
4504 Rain 13 1008 87 10000 6 300 12:25 29.07.2019
4505 Clouds 14 1008 76 10000 6 310 11:45 29.07.2019
4506 Clouds 14 1008 76 10000 6 310 11:24 29.07.2019
4507 -273 0 0 0 0 0 10:57 29.07.2019
4508 Clouds 13 1008 82 10000 7 300 10:39 29.07.2019
4509 Clouds 13 1008 82 10000 7 300 10:20 29.07.2019
4510 Clouds 14 1008 76 10000 6 310 09:40 29.07.2019
4511 Clouds 14 1008 76 10000 6 310 09:19 29.07.2019
4512 Rain 13 1008 82 10000 5 320 08:41 29.07.2019
4513 Rain 13 1008 82 10000 5 320 08:20 29.07.2019
4514 Rain 13 1007 87 10000 4 320 07:45 29.07.2019
4515 Rain 13 1007 87 10000 4 320 07:23 29.07.2019
4516 Rain 12 1007 87 10000 5 300 05:50 29.07.2019
4517 Rain 12 1007 87 10000 4 300 04:54 29.07.2019
4518 Rain 11 1006 87 10000 3 300 02:27 29.07.2019
4519 Rain 11 1006 87 10000 3 290 01:45 29.07.2019
4520 Rain 11 1006 87 10000 3 290 01:23 29.07.2019
4521 Rain 11 1005 93 10000 3 300 00:43 29.07.2019
4522 Rain 11 1005 87 8000 3 310 00:20 29.07.2019
4523 Clouds 11 1005 87 10000 3 300 23:41 28.07.2019
4524 Clouds 11 1005 87 10000 3 290 23:18 28.07.2019
4525 Clouds 12 1005 81 10000 3 290 22:40 28.07.2019
4526 Clouds 12 1005 81 10000 3 290 22:22 28.07.2019
4527 Clouds 12 1004 81 10000 4 280 21:48 28.07.2019
4528 Clouds 12 1004 81 10000 4 280 21:19 28.07.2019
4529 Clouds 12 1004 81 10000 3 270 20:48 28.07.2019
4530 Clouds 12 1004 81 10000 3 270 20:29 28.07.2019
4531 Clouds 12 1004 81 10000 3 270 19:54 28.07.2019
4532 Clouds 12 1004 81 10000 4 280 19:36 28.07.2019
4533 Clouds 12 1004 81 10000 4 280 19:36 28.07.2019
4534 Clouds 12 1004 81 10000 4 270 19:18 28.07.2019
4535 Clouds 12 1004 81 10000 4 270 18:42 28.07.2019
4536 Rain 12 1004 81 10000 4 260 18:19 28.07.2019
4537 Rain 12 1004 81 10000 3 270 17:42 28.07.2019
4538 Clouds 12 1004 81 10000 4 280 17:22 28.07.2019
4539 Clouds 12 1004 81 10000 4 280 16:57 28.07.2019
4540 Clouds 12 1004 81 10000 1 0 16:39 28.07.2019
4541 Clouds 12 1004 81 10000 1 0 16:20 28.07.2019
4542 Clouds 12 1003 81 10000 4 300 15:43 28.07.2019
4543 Clouds 12 1003 81 10000 4 300 15:21 28.07.2019
4544 Clouds 14 1003 76 10000 2 280 14:37 28.07.2019
4545 Clouds 14 1003 76 10000 2 280 14:37 28.07.2019
4546 Clouds 14 1003 76 10000 2 280 14:37 28.07.2019
4547 Clouds 14 1003 76 10000 2 280 14:19 28.07.2019
4548 Clouds 14 1002 76 10000 5 280 13:45 28.07.2019
4549 Clouds 14 1002 76 10000 5 280 13:25 28.07.2019
4550 Clouds 15 1002 67 10000 5 250 12:59 28.07.2019
4551 Clouds 15 1002 72 10000 4 270 12:40 28.07.2019
4552 Clouds 15 1002 72 10000 4 270 12:22 28.07.2019
4553 Rain 16 1001 63 10000 5 270 11:47 28.07.2019
4554 Rain 16 1001 63 10000 5 270 11:27 28.07.2019
4555 Clouds 16 1001 67 10000 5 270 10:41 28.07.2019
4556 Clouds 16 1001 67 10000 5 270 10:22 28.07.2019
4557 Clouds 15 1001 72 10000 8 280 09:47 28.07.2019
4558 Clouds 15 1001 72 10000 8 280 09:29 28.07.2019
4559 Clouds 16 1000 67 10000 7 270 08:52 28.07.2019
4560 Clouds 16 1000 72 10000 5 270 08:29 28.07.2019
4561 Clouds 16 1000 72 10000 5 270 07:57 28.07.2019
4562 Rain 14 1000 82 10000 6 280 07:37 28.07.2019
4563 Rain 14 1000 82 10000 6 280 07:37 28.07.2019
4564 Clouds 18 1000 55 10000 6 260 06:42 28.07.2019
4565 Clouds 17 999 63 10000 6 240 05:44 28.07.2019
4566 Clouds 15 999 72 10000 5 230 03:31 28.07.2019
4567 Clouds 14 999 76 10000 4 230 02:24 28.07.2019
4568 Clouds 13 999 82 10000 4 230 01:19 28.07.2019
4569 Clouds 13 999 82 10000 4 210 00:45 28.07.2019
4570 Clouds 13 998 76 10000 3 220 00:18 28.07.2019
4571 Clouds 13 998 76 10000 4 210 23:46 27.07.2019
4572 Clouds 13 998 76 10000 4 210 23:20 27.07.2019
4573 Clouds 11 998 87 10000 3 180 22:41 27.07.2019
4574 Clouds 11 998 87 10000 3 180 22:20 27.07.2019
4575 Clouds 13 997 76 10000 2 0 21:41 27.07.2019
4576 Clouds 13 997 76 10000 2 0 21:20 27.07.2019
4577 Clouds 12 997 81 10000 2 270 20:51 27.07.2019
4578 Clouds 12 997 87 10000 1 0 20:25 27.07.2019
4579 Clouds 13 997 82 10000 3 220 19:48 27.07.2019
4580 Clouds 13 997 82 10000 3 220 19:27 27.07.2019
4581 Clouds 13 997 82 10000 3 220 18:55 27.07.2019
4582 Clouds 15 996 77 10000 4 220 18:36 27.07.2019
4583 Clouds 15 996 77 10000 4 220 17:57 27.07.2019
4584 Clouds 15 996 77 10000 4 220 17:57 27.07.2019
4585 Clouds 15 996 77 10000 4 210 17:36 27.07.2019
4586 Clouds 16 996 72 10000 4 200 17:18 27.07.2019
4587 Clouds 15 996 77 10000 4 200 16:46 27.07.2019
4588 Clouds 15 996 77 10000 4 200 16:28 27.07.2019
4589 Clouds 16 996 72 10000 4 210 15:53 27.07.2019
4590 Clouds 17 996 63 10000 5 220 15:22 27.07.2019
4591 Clouds 17 996 63 10000 4 220 14:51 27.07.2019
4592 Clouds 17 996 63 10000 5 220 14:32 27.07.2019
4593 Clouds 17 996 63 10000 5 220 13:56 27.07.2019
4594 Clouds 18 996 59 10000 2 0 13:38 27.07.2019
4595 Clouds 17 996 63 10000 5 260 13:19 27.07.2019
4596 Clouds 17 996 63 10000 5 260 12:41 27.07.2019
4597 Clouds 17 996 63 10000 5 260 12:21 27.07.2019
4598 Clouds 17 995 67 10000 7 250 11:42 27.07.2019
4599 Clouds 17 995 67 10000 7 250 11:24 27.07.2019
4600 Clouds 16 994 77 10000 9 230 10:42 27.07.2019
4601 Clouds 16 994 77 10000 9 230 10:23 27.07.2019
4602 Rain 15 994 82 10000 8 230 09:45 27.07.2019
4603 Rain 15 994 82 10000 8 230 09:26 27.07.2019
4604 Rain 17 995 63 10000 5 230 08:58 27.07.2019
4605 Clouds 16 995 72 10000 4 200 08:40 27.07.2019
4606 Clouds 16 995 72 10000 4 200 08:20 27.07.2019
4607 Clouds 15 995 67 0 6 220 07:41 27.07.2019
4608 Clouds 15 994 72 10000 9 230 07:20 27.07.2019
4609 Clouds 20 994 56 10000 8 210 06:50 27.07.2019
4610 Clouds 20 994 56 10000 8 210 06:22 27.07.2019
4611 Clouds 20 994 60 10000 8 190 05:35 27.07.2019
4612 Clouds 20 994 60 10000 9 190 04:46 27.07.2019
4613 Clouds 20 994 60 10000 9 180 03:46 27.07.2019
4614 Clouds 21 993 52 10000 7 160 02:43 27.07.2019
4615 Clouds 20 993 52 10000 8 150 01:57 27.07.2019
4616 Clouds 20 993 52 10000 8 150 01:57 27.07.2019
4617 Clouds 20 993 49 10000 9 140 01:32 27.07.2019
4618 Clouds 20 992 49 10000 10 140 00:38 27.07.2019
4619 Clouds 21 992 46 10000 10 130 00:19 27.07.2019
4620 Clouds 21 992 43 10000 12 130 23:42 26.07.2019
4621 Clouds 21 992 43 10000 12 130 23:23 26.07.2019
4622 Clouds 17 994 59 10000 4 40 22:43 26.07.2019
4623 Clouds 17 994 59 10000 4 40 22:25 26.07.2019
4624 Rain 16 997 77 10000 2 0 21:52 26.07.2019
4625 Clouds 15 997 82 10000 1 0 21:20 26.07.2019
4626 Clouds 15 997 82 10000 1 0 20:52 26.07.2019
4627 Clouds 15 997 82 10000 1 0 20:33 26.07.2019
4628 Clouds 16 999 77 10000 1 0 19:55 26.07.2019
4629 Clouds 16 999 77 10000 1 0 19:36 26.07.2019
4630 Clouds 16 999 77 10000 1 0 19:18 26.07.2019
4631 Clouds 15 999 82 10000 2 150 18:41 26.07.2019
4632 Clouds 15 1000 82 10000 1 0 18:21 26.07.2019
4633 Clouds 15 1000 82 10000 1 0 17:56 26.07.2019
4634 Clouds 16 1000 72 10000 3 310 17:37 26.07.2019
4635 Clouds 17 1000 63 10000 1 0 17:18 26.07.2019
4636 Clouds 17 1000 63 10000 1 0 16:54 26.07.2019
4637 Clouds 17 1000 59 10000 1 0 16:36 26.07.2019
4638 Clouds 16 1000 67 10000 2 0 16:18 26.07.2019
4639 Clouds 17 1000 67 10000 2 150 15:43 26.07.2019
4640 Clouds 18 1000 63 10000 2 140 15:21 26.07.2019
4641 Clouds 20 1000 56 10000 2 0 14:45 26.07.2019
4642 Clouds 20 1000 56 10000 2 0 14:25 26.07.2019
4643 Clouds 22 1000 43 10000 2 0 13:47 26.07.2019
4644 Clouds 22 1000 43 10000 2 0 13:28 26.07.2019
4645 Clouds 22 1001 46 10000 4 200 12:50 26.07.2019
4646 Clouds 22 1001 46 10000 4 200 12:24 26.07.2019
4647 Clouds 23 1001 38 10000 6 210 11:58 26.07.2019
4648 Clouds 23 1001 43 10000 4 180 11:37 26.07.2019
4649 Clouds 23 1001 49 10000 3 180 11:18 26.07.2019
4650 Clouds 23 1001 40 10000 3 180 10:42 26.07.2019
4651 Clouds 23 1001 40 10000 3 180 10:24 26.07.2019
4652 Clouds 23 1001 40 10000 3 0 09:50 26.07.2019
4653 Clouds 22 1001 46 10000 3 230 09:30 26.07.2019
4654 Clouds 22 1001 46 10000 3 210 08:41 26.07.2019
4655 Clouds 22 1001 46 10000 3 210 08:21 26.07.2019
4656 Clouds 20 1001 56 10000 1 0 07:43 26.07.2019
4657 Clouds 20 1001 56 10000 1 0 07:24 26.07.2019
4658 Clouds 20 1002 56 10000 2 200 06:30 26.07.2019
4659 Clouds 18 1002 59 10000 3 230 04:30 26.07.2019
4660 Clear 18 1002 59 10000 4 240 03:54 26.07.2019
4661 Clouds 15 1001 77 10000 1 0 01:50 26.07.2019
4662 Clouds 15 1001 77 10000 1 0 01:24 26.07.2019
4663 Clouds 12 1000 81 10000 1 0 00:29 26.07.2019
4664 Clouds 13 1001 82 10000 1 0 23:48 25.07.2019
4665 Clouds 13 1001 82 10000 1 0 23:22 25.07.2019
4666 Clouds 14 1000 71 10000 2 0 22:42 25.07.2019
4667 Clouds 14 1000 71 10000 2 0 22:23 25.07.2019
4668 Clouds 13 1000 82 10000 2 220 21:56 25.07.2019
4669 Clouds 12 1000 87 10000 5 230 21:37 25.07.2019
4670 Clouds 12 1000 87 10000 5 230 21:19 25.07.2019
4671 Clouds 15 999 72 10000 2 0 20:40 25.07.2019
4672 Clouds 15 999 72 10000 2 0 20:20 25.07.2019
4673 Clouds 15 999 72 10000 2 0 19:40 25.07.2019
4674 Clouds 15 999 72 10000 2 0 19:22 25.07.2019
4675 Thunderstorm 17 999 63 10000 4 20 18:43 25.07.2019
4676 Thunderstorm 17 999 63 10000 4 20 18:25 25.07.2019
4677 Clouds 18 999 59 10000 5 310 17:50 25.07.2019
4678 Clouds 19 998 55 10000 3 80 17:32 25.07.2019
4679 Thunderstorm 19 998 63 10000 2 0 16:57 25.07.2019
4680 Thunderstorm 21 997 49 10000 8 140 16:39 25.07.2019
4681 Thunderstorm 21 997 49 10000 8 140 16:20 25.07.2019
4682 Thunderstorm 21 997 52 10000 11 130 15:50 25.07.2019
4683 Thunderstorm 21 996 52 10000 10 110 15:21 25.07.2019
4684 Thunderstorm 21 997 60 10000 10 120 14:43 25.07.2019
4685 Thunderstorm 21 997 60 10000 10 120 14:23 25.07.2019
4686 Thunderstorm 21 997 64 10000 7 110 13:59 25.07.2019
4687 Thunderstorm 23 997 49 10000 10 120 13:36 25.07.2019
4688 Clouds 23 997 53 10000 8 120 13:18 25.07.2019
4689 Clouds 23 997 53 10000 8 120 12:30 25.07.2019
4690 Clouds 23 997 56 10000 10 120 11:56 25.07.2019
4691 Clouds 23 998 53 10000 8 130 11:37 25.07.2019
4692 Clouds 23 998 53 10000 8 130 11:19 25.07.2019
4693 Clouds 25 999 47 10000 9 140 10:42 25.07.2019
4694 Clouds 25 999 47 10000 9 140 10:23 25.07.2019
4695 Clouds 24 1001 53 10000 8 140 09:44 25.07.2019
4696 Clouds 24 1001 53 10000 8 140 09:44 25.07.2019
4697 Clouds 24 1001 53 10000 8 140 09:25 25.07.2019
4698 Clouds 24 1001 53 10000 7 140 08:44 25.07.2019
4699 Clouds 24 1001 53 10000 7 140 08:20 25.07.2019
4700 Clouds 23 1002 53 10000 9 140 07:36 25.07.2019
4701 Clouds 22 1002 56 10000 9 140 06:44 25.07.2019
4702 Clouds 21 1003 60 10000 9 140 05:48 25.07.2019
4703 Clouds 21 1003 60 10000 9 140 05:30 25.07.2019
4704 Clouds 20 1003 64 10000 7 140 04:38 25.07.2019
4705 Clouds 15 1004 82 10000 3 260 01:48 25.07.2019
4706 Clouds 15 1004 82 10000 3 260 01:20 25.07.2019
4707 Clouds 14 1003 82 10000 2 0 00:20 25.07.2019
4708 Clouds 14 1003 82 10000 2 0 23:50 24.07.2019
4709 Clouds 14 1003 82 10000 2 0 23:31 24.07.2019
4710 Clouds 15 1003 77 10000 3 360 22:56 24.07.2019
4711 Clouds 16 1003 77 10000 2 0 22:38 24.07.2019
4712 Clouds 16 1003 77 10000 2 0 22:19 24.07.2019
4713 Clouds 16 1004 72 10000 5 150 21:43 24.07.2019
4714 Clouds 16 1004 72 10000 5 150 21:43 24.07.2019
4715 Clouds 16 1004 72 10000 5 150 21:22 24.07.2019
4716 Clouds 16 1005 72 10000 5 120 20:57 24.07.2019
4717 Thunderstorm 15 1005 77 10000 3 180 20:38 24.07.2019
4718 Thunderstorm 15 1005 77 10000 3 180 20:19 24.07.2019
4719 Clouds 15 1004 82 10000 2 0 19:54 24.07.2019
4720 Clouds 15 1004 82 10000 2 0 19:36 24.07.2019
4721 Clouds 15 1004 82 10000 2 0 19:36 24.07.2019
4722 Clouds 15 1004 82 10000 2 0 19:36 24.07.2019
4723 Clouds 15 1004 77 10000 1 0 19:18 24.07.2019
4724 Clouds 15 1004 77 10000 1 0 18:37 24.07.2019
4725 Thunderstorm 16 1004 72 10000 1 0 18:19 24.07.2019
4726 Clouds 16 1004 72 10000 2 0 17:42 24.07.2019
4727 Clouds 16 1004 72 10000 2 0 17:20 24.07.2019
4728 Clouds 15 1005 82 10000 2 160 16:41 24.07.2019
4729 Clouds 15 1005 82 10000 2 160 16:21 24.07.2019
4730 Clouds 18 1004 72 10000 1 0 15:40 24.07.2019
4731 Clouds 20 1004 60 10000 1 0 15:21 24.07.2019
4732 Clouds 20 1003 60 10000 1 0 14:50 24.07.2019
4733 Clouds 20 1003 60 10000 1 0 14:24 24.07.2019
4734 Clouds 22 1003 46 10000 2 230 13:59 24.07.2019
4735 Clouds 21 1003 56 10000 2 230 13:36 24.07.2019
4736 Clouds 22 1003 46 10000 3 230 13:18 24.07.2019
4737 Clouds 22 1004 49 10000 3 230 12:46 24.07.2019
4738 Clouds 22 1004 49 10000 3 230 12:24 24.07.2019
4739 Clouds 22 1004 49 10000 5 260 11:38 24.07.2019
4740 Clouds 22 1004 49 10000 5 260 11:19 24.07.2019
4741 Clouds 22 1004 53 10000 5 240 10:43 24.07.2019
4742 Clouds 22 1004 53 10000 5 240 10:24 24.07.2019
4743 Clouds 22 1004 56 10000 6 230 09:45 24.07.2019
4744 Clouds 22 1004 56 10000 6 230 09:24 24.07.2019
4745 Clouds 21 1004 56 10000 5 230 08:56 24.07.2019
4746 Clouds 21 1004 56 10000 4 240 08:30 24.07.2019
4747 Clouds 20 1004 60 10000 5 230 07:51 24.07.2019
4748 Clouds 20 1004 60 10000 4 260 07:24 24.07.2019
4749 Clouds 19 1005 63 10000 4 270 06:29 24.07.2019
4750 Clouds 16 1005 82 10000 3 320 05:33 24.07.2019
4751 Clouds 16 1005 82 10000 2 0 02:45 24.07.2019
4752 Clouds 15 1004 87 10000 4 230 01:29 24.07.2019
4753 Clouds 14 1004 93 10000 3 220 00:57 24.07.2019
4754 Clouds 14 1004 93 10000 3 220 00:22 24.07.2019
4755 Clouds 15 1005 87 10000 3 230 23:42 23.07.2019
4756 Clouds 15 1005 87 10000 3 230 23:42 23.07.2019
4757 Clouds 15 1005 87 10000 3 230 23:23 23.07.2019
4758 Rain 14 1005 93 10000 1 0 22:39 23.07.2019
4759 Rain 14 1005 93 10000 1 0 22:19 23.07.2019
4760 Rain 14 1005 93 10000 1 0 21:58 23.07.2019
4761 Rain 14 1005 93 10000 1 0 21:58 23.07.2019
4762 Rain 14 1005 93 10000 1 0 21:40 23.07.2019
4763 Rain 14 1005 93 10000 1 0 21:40 23.07.2019
4764 Rain 14 1005 93 10000 1 0 21:21 23.07.2019
4765 Rain 14 1005 93 10000 2 230 20:44 23.07.2019
4766 Rain 14 1005 93 10000 2 230 20:21 23.07.2019
4767 Rain 15 1005 87 10000 1 0 19:42 23.07.2019
4768 Rain 15 1005 87 10000 1 0 19:19 23.07.2019
4769 Rain 15 1005 87 10000 1 0 18:47 23.07.2019
4770 Rain 15 1005 87 10000 1 0 18:23 23.07.2019
4771 Rain 15 1005 87 10000 1 0 17:45 23.07.2019
4772 Rain 15 1005 87 10000 1 0 17:25 23.07.2019
4773 Rain 15 1005 87 10000 1 0 16:57 23.07.2019
4774 Rain 15 1005 87 10000 2 260 16:39 23.07.2019
4775 Clouds 16 1005 82 10000 3 260 16:18 23.07.2019
4776 Clouds 16 1005 82 10000 2 270 15:43 23.07.2019
4777 Clouds 16 1005 82 10000 2 270 15:23 23.07.2019
4778 Clouds 16 1005 82 10000 2 290 14:39 23.07.2019
4779 Clouds 17 1004 77 10000 3 290 14:20 23.07.2019
4780 Clouds 17 1004 77 10000 3 290 13:57 23.07.2019
4781 Clouds 17 1004 77 10000 3 290 13:38 23.07.2019
4782 Clouds 17 1004 77 10000 3 290 13:20 23.07.2019
4783 Clouds 17 1003 77 10000 5 300 12:47 23.07.2019
4784 Clouds 17 1003 77 10000 5 300 12:25 23.07.2019
4785 Clouds 16 1003 82 10000 5 290 11:47 23.07.2019
4786 Clouds 16 1003 82 10000 5 290 11:29 23.07.2019
4787 Rain 17 1003 77 10000 5 310 10:57 23.07.2019
4788 Rain 17 1003 77 10000 5 300 10:38 23.07.2019
4789 Rain 17 1003 77 10000 5 300 10:19 23.07.2019
4790 Clouds 17 1003 77 10000 6 300 09:40 23.07.2019
4791 Clouds 17 1003 82 10000 6 320 09:18 23.07.2019
4792 Rain 17 1003 77 10000 5 280 08:40 23.07.2019
4793 Rain 16 1003 82 10000 5 270 08:19 23.07.2019
4794 Clouds 17 1002 77 10000 5 280 07:53 23.07.2019
4795 Clouds 17 1002 77 10000 5 280 07:33 23.07.2019
4796 Clouds 17 1002 77 10000 5 290 06:38 23.07.2019
4797 Clouds 16 1002 87 10000 3 270 05:51 23.07.2019
4798 Clouds 15 1002 87 10000 3 290 01:58 23.07.2019
4799 Clouds 15 1002 87 10000 2 290 01:29 23.07.2019
4800 Clouds 15 1002 87 10000 2 290 00:30 23.07.2019
4801 Clouds 15 1002 87 10000 2 290 23:42 22.07.2019
4802 Clouds 15 1002 87 10000 2 290 23:21 22.07.2019
4803 Clouds 15 1002 87 10000 1 0 22:58 22.07.2019
4804 Clouds 15 1002 87 10000 2 300 22:40 22.07.2019
4805 Clouds 15 1002 87 10000 2 300 22:20 22.07.2019
4806 Clouds 15 1002 87 10000 2 300 22:20 22.07.2019
4807 Clouds 15 1002 87 10000 1 0 21:42 22.07.2019
4808 Clouds 15 1002 87 10000 1 0 21:21 22.07.2019
4809 Rain 15 1003 93 10000 3.08 287.095 20:48 22.07.2019
4810 Rain 15 1003 93 10000 3.08 287.095 20:29 22.07.2019
4811 Rain 15 1003 93 10000 1 0 19:54 22.07.2019
4812 Rain 15 1003 93 10000 1 0 19:36 22.07.2019
4813 Rain 15 1003 93 10000 1 0 19:18 22.07.2019
4814 Clouds 15 1003 93 10000 1 0 18:40 22.07.2019
4815 Clouds 15 1003 93 10000 1 0 18:22 22.07.2019
4816 Rain 15 1004 93 10000 1 0 17:42 22.07.2019
4817 Rain 15 1004 93 10000 1 0 17:24 22.07.2019
4818 Rain 16 1004 87 10000 1 0 16:42 22.07.2019
4819 Rain 16 1004 87 10000 1 0 16:22 22.07.2019
4820 Rain 16 1004 87 10000 1 0 15:59 22.07.2019
4821 Clouds 15 1004 93 10000 1 0 15:38 22.07.2019
4822 Clouds 16 1004 87 10000 1 0 15:18 22.07.2019
4823 Clouds 16 1004 87 10000 1 0 14:43 22.07.2019
4824 Clouds 16 1004 87 10000 1 0 14:21 22.07.2019
4825 Clouds 16 1004 87 10000 1 0 14:21 22.07.2019
4826 Rain 15 1003 93 3200 4 260 13:48 22.07.2019
4827 Rain 15 1003 93 3200 4 260 13:29 22.07.2019
4828 Rain 16 1003 87 8000 5 240 12:47 22.07.2019
4829 Rain 16 1003 87 8000 5 240 12:28 22.07.2019
4830 Clouds 16 1003 87 8000 6 220 11:45 22.07.2019
4831 Clouds 16 1003 87 8000 6 220 11:25 22.07.2019
4832 Clouds 17 1003 88 10000 4 230 10:58 22.07.2019
4833 Clouds 17 1003 82 10000 1 0 10:33 22.07.2019
4834 Clouds 17 1004 82 10000 2 260 09:45 22.07.2019
4835 Clouds 17 1004 82 10000 2 260 09:26 22.07.2019
4836 Rain 17 1004 82 10000 3 260 08:56 22.07.2019
4837 Rain 16 1004 87 8000 5 250 08:36 22.07.2019
4838 Rain 16 1004 93 8000 7 230 08:18 22.07.2019
4839 Rain 17 1004 88 10000 7 240 07:41 22.07.2019
4840 Rain 17 1004 88 10000 7 240 07:22 22.07.2019
4841 Clouds 20 1005 60 10000 1 0 03:59 22.07.2019
4842 Clouds 18 1005 68 10000 3 30 02:45 22.07.2019
4843 Clouds 18 1006 68 10000 4 20 00:58 22.07.2019
4844 Clouds 17 1006 72 10000 4 360 00:38 22.07.2019
4845 Clouds 17 1006 72 10000 4 360 00:38 22.07.2019
4846 Clouds 18 1006 68 10000 4 40 00:18 22.07.2019
4847 Clouds 17 1006 77 10000 2 0 23:42 21.07.2019
4848 Clouds 17 1007 77 10000 4.37 356.574 22:56 21.07.2019
4849 Thunderstorm 17 1007 77 10000 1 0 22:37 21.07.2019
4850 Thunderstorm 17 1007 77 10000 2 0 22:19 21.07.2019
4851 Thunderstorm 17 1007 72 10000 2 0 21:47 21.07.2019
4852 Thunderstorm 17 1007 72 10000 2 0 21:25 21.07.2019
4853 Rain 17 1007 77 10000 4 280 20:56 21.07.2019
4854 Thunderstorm 18 1007 72 10000 2 250 20:38 21.07.2019
4855 Thunderstorm 18 1007 72 10000 2 250 20:19 21.07.2019
4856 Rain 19 1006 68 10000 1 0 19:47 21.07.2019
4857 Rain 19 1006 68 10000 1 0 19:26 21.07.2019
4858 Thunderstorm 21 1006 46 10000 1 0 18:48 21.07.2019
4859 Thunderstorm 21 1006 46 10000 1 0 18:26 21.07.2019
4860 Thunderstorm 21 1006 56 10000 2 0 17:44 21.07.2019
4861 Thunderstorm 21 1006 56 10000 2 0 17:21 21.07.2019
4862 Clouds 21 1006 49 10000 3 100 16:59 21.07.2019
4863 Thunderstorm 22 1007 43 10000 3 360 16:40 21.07.2019
4864 Thunderstorm 22 1007 43 10000 3 360 16:20 21.07.2019
4865 Thunderstorm 21 1008 52 10000 9 170 15:39 21.07.2019
4866 Thunderstorm 23 1007 40 10000 3 290 15:19 21.07.2019
4867 Thunderstorm 25 1006 36 10000 4 330 14:42 21.07.2019
4868 Thunderstorm 25 1006 36 10000 4 330 14:23 21.07.2019
4869 Rain 25 1007 44 10000 2 0 13:53 21.07.2019
4870 Thunderstorm 25 1007 47 10000 2 180 13:32 21.07.2019
4871 Clouds 27 1006 36 10000 3 120 12:46 21.07.2019
4872 Clouds 27 1006 36 10000 3 120 12:28 21.07.2019
4873 Clouds 29 1006 28 10000 4 160 11:55 21.07.2019
4874 Clouds 29 1006 28 10000 4 160 11:37 21.07.2019
4875 Clouds 29 1006 32 10000 5 140 11:18 21.07.2019
4876 Clouds 29 1006 30 10000 3 130 10:41 21.07.2019
4877 Clouds 29 1007 28 10000 3 150 10:22 21.07.2019
4878 Clouds 29 1007 28 10000 4 160 09:42 21.07.2019
4879 Clouds 29 1007 28 10000 4 160 09:24 21.07.2019
4880 Clouds 29 1007 28 10000 3 160 08:45 21.07.2019
4881 Clouds 29 1007 28 10000 3 160 08:45 21.07.2019
4882 Clouds 29 1007 28 10000 3 160 08:26 21.07.2019
4883 Clouds 28 1007 30 10000 1 0 07:38 21.07.2019
4884 Clouds 27 1007 32 10000 2 0 06:50 21.07.2019
4885 Clouds 25 1008 41 10000 2 0 05:43 21.07.2019
4886 Clear 20 1008 56 10000 1.15 105.439 02:52 21.07.2019
4887 Clouds 16 1008 72 10000 2 0 01:19 21.07.2019
4888 Clouds 16 1008 72 10000 2 0 00:40 21.07.2019
4889 Clouds 16 1008 67 0 1 0 00:18 21.07.2019
4890 Clouds 15 1008 72 10000 2 0 23:40 20.07.2019
4891 Clouds 15 1008 72 10000 2 0 23:21 20.07.2019
4892 Clouds 18 1008 59 10000 3 10 22:43 20.07.2019
4893 Clouds 18 1008 59 10000 3 10 22:21 20.07.2019
4894 Clouds 15 1008 77 10000 2 0 21:45 20.07.2019
4895 Clouds 15 1008 77 10000 2 0 21:26 20.07.2019
4896 Clouds 17 1008 67 10000 2 0 20:57 20.07.2019
4897 Clouds 19 1007 55 10000 1 0 20:38 20.07.2019
4898 Clouds 19 1007 55 10000 1 0 20:38 20.07.2019
4899 Clouds 19 1007 55 10000 3 80 20:18 20.07.2019
4900 Clouds 19 1007 55 10000 3 350 19:42 20.07.2019
4901 Clouds 18 1008 68 10000 1 0 19:19 20.07.2019
4902 Clouds 19 1007 59 10000 1 0 18:40 20.07.2019
4903 Clouds 18 1007 68 10000 3 310 18:20 20.07.2019
4904 Thunderstorm 17 1007 72 10000 2 210 17:48 20.07.2019
4905 Clouds 19 1007 63 10000 2 0 17:20 20.07.2019
4906 Clouds 19 1007 63 10000 2 180 16:44 20.07.2019
4907 Clouds 19 1007 63 10000 2 180 16:25 20.07.2019
4908 Clouds 20 1007 56 10000 3 180 15:57 20.07.2019
4909 Clouds 19 1006 68 10000 3 160 15:38 20.07.2019
4910 Clouds 19 1006 68 10000 3 160 15:19 20.07.2019
4911 Clouds 23 1006 49 10000 2 240 14:43 20.07.2019
4912 Clouds 23 1006 49 10000 2 240 14:21 20.07.2019
4913 Clouds 26 1005 31 10000 3 280 13:38 20.07.2019
4914 Clouds 26 1005 31 10000 3 240 13:20 20.07.2019
4915 Clouds 26 1005 31 10000 3 240 12:52 20.07.2019
4916 Clouds 27 1005 28 10000 5 280 12:21 20.07.2019
4917 Clouds 27 1005 28 10000 5 280 11:56 20.07.2019
4918 Clouds 27 1005 30 10000 5 260 11:24 20.07.2019
4919 Clouds 27 1005 30 10000 5 280 10:55 20.07.2019
4920 Clouds 27 1005 30 10000 5 280 10:36 20.07.2019
4921 Clouds 26 1005 34 10000 4 250 10:18 20.07.2019
4922 Clouds 26 1006 39 10000 3 220 09:43 20.07.2019
4923 Clouds 25 1006 38 10000 4 230 09:18 20.07.2019
4924 Clouds 25 1006 38 10000 4 230 09:18 20.07.2019
4925 Clouds 25 1006 38 10000 3 210 08:39 20.07.2019
4926 Clouds 24 1006 41 10000 2 0 08:19 20.07.2019
4927 Clouds 23 1007 43 10000 2 250 07:18 20.07.2019
4928 Clouds 22 1007 46 10000 2 0 06:35 20.07.2019
4929 Clear 19 1008 63 10000 2 260 04:31 20.07.2019
4930 Clear 15 1007 77 10000 2 0 02:38 20.07.2019
4931 Clouds 14 1007 82 10000 1 0 01:21 20.07.2019
4932 Clouds 13 1007 82 10000 1 0 00:46 20.07.2019
4933 Clouds 12 1007 93 10000 3 110 00:19 20.07.2019
4934 Clouds 12 1007 87 10000 3 340 23:43 19.07.2019
4935 Clouds 12 1007 87 10000 3 340 23:24 19.07.2019
4936 Clouds 12 1006 87 10000 1 0 22:45 19.07.2019
4937 Clouds 12 1006 87 10000 1 0 22:26 19.07.2019
4938 Clouds 12 1008 87 10000 3 150 21:49 19.07.2019
4939 Clouds 12 1008 87 10000 3 150 21:31 19.07.2019
4940 Clouds 12 1009 93 10000 2 0 20:58 19.07.2019
4941 Clouds 12 1009 93 10000 2 0 20:37 19.07.2019
4942 Clouds 12 1007 87 10000 0.3 207.24 20:18 19.07.2019
4943 Clouds 12 1007 87 10000 0.3 207.24 19:35 19.07.2019
4944 Clouds 13 1007 87 10000 0.3 207.24 18:43 19.07.2019
4945 Clouds 13 1007 87 10000 0.76 302.061 18:25 19.07.2019
4946 Clouds 13 1007 87 10000 1 0 17:55 19.07.2019
4947 Clouds 13 1007 87 10000 3 150 17:29 19.07.2019
4948 Clouds 15 1006 82 10000 3 90 16:57 19.07.2019
4949 Clouds 15 1006 82 10000 3 90 16:39 19.07.2019
4950 Clouds 15 1006 82 10000 2 0 16:18 19.07.2019
4951 Clouds 17 1006 67 10000 2 0 15:43 19.07.2019
4952 Clouds 17 1006 67 10000 2 0 15:24 19.07.2019
4953 Clouds 17 1006 72 10000 5 320 14:45 19.07.2019
4954 Clouds 17 1006 72 10000 5 320 14:25 19.07.2019
4955 Clouds 17 1005 72 10000 6 80 13:47 19.07.2019
4956 Clouds 17 1005 72 10000 6 80 13:27 19.07.2019
4957 Clouds 19 1008 63 10000 7 310 12:58 19.07.2019
4958 Clouds 19 1008 63 10000 7 310 12:38 19.07.2019
4959 Clouds 23 1006 49 10000 4 10 12:19 19.07.2019
4960 Clouds 23 1006 49 10000 3 350 11:45 19.07.2019
4961 Clouds 22 1006 56 10000 3 10 11:18 19.07.2019
4962 Clouds 21 1006 60 10000 3 10 10:48 19.07.2019
4963 Clouds 21 1006 60 10000 3 10 10:23 19.07.2019
4964 Clouds 21 1006 56 0 4 20 09:59 19.07.2019
4965 Clouds 21 1006 56 0 4 20 09:41 19.07.2019
4966 Clouds 21 1006 56 0 4 20 09:22 19.07.2019
4967 Clouds 20 1007 64 10000 5 340 08:49 19.07.2019
4968 Clouds 20 1007 64 10000 5 340 08:22 19.07.2019
4969 Rain 18 1007 77 10000 4 330 07:29 19.07.2019
4970 Rain 17 1007 82 10000 3 320 06:19 19.07.2019
4971 Rain 15 1007 93 6000 1 0 02:55 19.07.2019
4972 Rain 15 1007 93 8000 2.38 10.513 01:21 19.07.2019
4973 Rain 15 1008 93 10000 1 0 00:45 19.07.2019
4974 Rain 16 1007 87 10000 1 0 23:58 18.07.2019
4975 Rain 16 1007 87 10000 1 0 23:39 18.07.2019
4976 Rain 16 1007 87 10000 1 0 23:21 18.07.2019
4977 Rain 16 1008 87 10000 3 350 22:41 18.07.2019
4978 Clouds 18 1008 72 10000 2 350 22:20 18.07.2019
4979 Clouds 18 1008 72 10000 2 350 21:49 18.07.2019
4980 Clouds 18 1008 72 10000 2 350 21:30 18.07.2019
4981 Clouds 17 1008 77 10000 1 0 20:54 18.07.2019
4982 Clouds 17 1008 77 10000 1 0 20:36 18.07.2019
4983 Clouds 18 1008 72 10000 4 50 20:18 18.07.2019
4984 Clouds 18 1008 72 10000 2 50 19:43 18.07.2019
4985 Clouds 18 1008 72 10000 2 60 19:20 18.07.2019
4986 Clouds 19 1008 68 10000 1 0 18:43 18.07.2019
4987 Clouds 19 1008 68 10000 1 0 18:21 18.07.2019
4988 Clouds 18 1009 72 10000 2 150 17:44 18.07.2019
4989 Clouds 18 1009 72 10000 2 150 17:25 18.07.2019
4990 Clouds 19 1009 68 10000 4 150 16:58 18.07.2019
4991 Clouds 18 1010 68 10000 3 160 16:39 18.07.2019
4992 Clouds 18 1010 68 10000 3 160 16:19 18.07.2019
4993 Clouds 20 1009 60 10000 2 0 15:51 18.07.2019
4994 Clouds 20 1009 60 10000 2 0 15:33 18.07.2019
4995 Clouds 20 1009 60 10000 4 150 14:53 18.07.2019
4996 Clouds 20 1009 60 10000 4 150 14:33 18.07.2019
4997 Clouds 21 1009 56 10000 4 160 13:50 18.07.2019
4998 Clouds 21 1009 56 10000 4 150 13:27 18.07.2019
4999 Clouds 21 1009 56 10000 5 150 12:55 18.07.2019
5000 Clouds 21 1009 56 10000 5 150 12:36 18.07.2019
5001 Clouds 22 1010 53 10000 5 150 12:18 18.07.2019
5002 Clouds 23 1009 53 10000 6 130 11:47 18.07.2019
5003 Clouds 23 1009 53 10000 6 130 11:26 18.07.2019
5004 Clouds 22 1011 53 10000 4 140 10:51 18.07.2019
5005 Rain 21 1011 60 10000 3 160 09:51 18.07.2019
5006 Rain 21 1012 60 10000 2 0 09:27 18.07.2019
5007 Clouds 21 1011 60 10000 3 50 08:54 18.07.2019
5008 Clouds 21 1012 60 10000 1 0 08:25 18.07.2019
5009 Clouds 20 1012 60 10000 1 0 07:59 18.07.2019
5010 Clouds 20 1012 60 10000 1 0 07:36 18.07.2019
5011 Rain 22 1013 53 10000 4 240 06:55 18.07.2019
5012 Clouds 23 1012 46 10000 4 250 06:30 18.07.2019
5013 Clouds 21 1011 56 10000 2 0 03:46 18.07.2019
5014 Clouds 20 1012 64 10000 2.39 169.16 02:50 18.07.2019
5015 Clouds 19 1011 72 10000 1 0 01:36 18.07.2019
5016 Clouds 17 1011 72 10000 1.68 154.841 00:22 18.07.2019
5017 Clouds 18 1011 68 10000 1.68 154.841 23:22 17.07.2019
5018 Clouds 18 1011 68 10000 1.68 154.841 23:22 17.07.2019
5019 Clouds 18 1011 68 10000 1.68 154.841 22:59 17.07.2019
5020 Clouds 18 1011 68 10000 2 150 22:41 17.07.2019
5021 Clouds 18 1011 68 10000 1 0 22:22 17.07.2019
5022 Clouds 18 1011 68 10000 1 0 21:58 17.07.2019
5023 Clouds 19 1011 63 10000 1.68 154.841 21:38 17.07.2019
5024 Clouds 20 1011 60 10000 2 180 21:19 17.07.2019
5025 Clouds 21 1011 56 0 2 160 20:55 17.07.2019
5026 Clouds 21 1011 56 0 2 160 20:37 17.07.2019
5027 Clouds 20 1011 60 10000 2 170 20:18 17.07.2019
5028 Clouds 20 1011 60 10000 2 170 20:18 17.07.2019
5029 Clouds 21 1011 56 10000 2 180 19:41 17.07.2019
5030 Clouds 22 1011 53 10000 1 0 19:20 17.07.2019
5031 Clouds 22 1011 53 10000 3 130 18:45 17.07.2019
5032 Clouds 23 1011 49 10000 3 180 18:21 17.07.2019
5033 Clouds 23 1011 49 10000 3 180 17:57 17.07.2019
5034 Clouds 23 1011 49 10000 3 180 17:39 17.07.2019
5035 Clouds 23 1010 49 10000 6 140 17:20 17.07.2019
5036 Clouds 23 1010 49 10000 6 140 16:40 17.07.2019
5037 Clouds 23 1010 53 10000 7 140 16:20 17.07.2019
5038 Clouds 24 1010 47 10000 9 170 15:51 17.07.2019
5039 Clouds 24 1010 47 10000 9 170 15:31 17.07.2019
5040 Clouds 26 1010 39 10000 7 180 14:56 17.07.2019
5041 Clouds 28 1009 26 10000 5 250 14:38 17.07.2019
5042 Clouds 28 1009 26 10000 5 250 14:19 17.07.2019
5043 Clouds 29 1009 25 10000 5 250 13:48 17.07.2019
5044 Clouds 29 1009 25 10000 5 250 13:30 17.07.2019
5045 Clouds 29 1009 26 10000 6 240 12:44 17.07.2019
5046 Clouds 30 1009 25 10000 6 250 12:24 17.07.2019
5047 Clouds 30 1009 25 10000 6 250 11:59 17.07.2019
5048 Clouds 30 1009 25 10000 8 240 11:39 17.07.2019
5049 Clouds 30 1009 25 10000 8 250 11:19 17.07.2019
5050 Clouds 30 1009 23 10000 6 240 10:43 17.07.2019
5051 Clouds 30 1009 27 10000 5 230 10:20 17.07.2019
5052 Clouds 30 1010 25 10000 5 250 09:44 17.07.2019
5053 Clouds 30 1010 25 10000 5 250 09:26 17.07.2019
5054 Clouds 29 1010 30 10000 6 200 08:44 17.07.2019
5055 Clouds 29 1010 30 10000 6 200 08:44 17.07.2019
5056 Clouds 29 1010 30 10000 6 200 08:22 17.07.2019
5057 Clouds 28 1011 34 10000 4 160 07:51 17.07.2019
5058 Clouds 28 1011 34 10000 4 160 07:27 17.07.2019
5059 Clouds 27 1011 39 10000 4 140 06:58 17.07.2019
5060 Clouds 25 1011 44 10000 4 120 06:31 17.07.2019
5061 Clouds 25 1011 44 10000 5 140 05:59 17.07.2019
5062 Clouds 26 1012 41 10000 4 140 05:32 17.07.2019
5063 Clouds 24 1012 47 10000 6 140 04:49 17.07.2019
5064 Clouds 22 1011 49 10000 6 140 03:46 17.07.2019
5065 Clouds 21 1011 56 10000 1 0 02:31 17.07.2019
5066 Clouds 18 1011 72 10000 3 60 01:28 17.07.2019
5067 Clouds 18 1011 72 10000 3 60 00:59 17.07.2019
5068 Thunderstorm 18 1012 68 10000 3 130 00:38 17.07.2019
5069 Rain 19 1012 63 10000 2 0 00:19 17.07.2019
5070 Clouds 21 1011 49 10000 1 0 23:42 16.07.2019
5071 Clouds 21 1011 49 10000 1 0 23:22 16.07.2019
5072 Clouds 20 1010 56 10000 9 150 22:43 16.07.2019
5073 Clouds 20 1010 56 10000 9 150 22:24 16.07.2019
5074 Clouds 20 1010 60 10000 8 140 21:56 16.07.2019
5075 Clouds 20 1010 60 10000 8 140 21:36 16.07.2019
5076 Clouds 19 1010 63 10000 9 140 21:18 16.07.2019
5077 Rain 22 1010 49 10000 10 140 20:41 16.07.2019
5078 Rain 22 1010 49 10000 10 140 20:22 16.07.2019
5079 Clouds 23 1009 46 10000 9 120 19:54 16.07.2019
5080 Clouds 23 1009 46 10000 9 120 19:30 16.07.2019
5081 Clouds 23 1009 46 10000 9 120 18:58 16.07.2019
5082 Clouds 19 1010 63 10000 2 0 18:40 16.07.2019
5083 Clouds 20 1010 64 10000 1.21 73.21 18:20 16.07.2019
5084 Clouds 21 1010 60 10000 3 350 17:44 16.07.2019
5085 Clouds 21 1010 60 10000 3 350 17:26 16.07.2019
5086 Clouds 19 1010 68 10000 1 0 16:49 16.07.2019
5087 Clouds 19 1010 68 10000 1 0 16:25 16.07.2019
5088 Clouds 20 1010 64 10000 2 0 15:57 16.07.2019
5089 Clouds 21 1009 60 10000 1 0 15:38 16.07.2019
5090 Clouds 21 1009 60 10000 1 0 15:38 16.07.2019
5091 Clouds 21 1009 60 10000 1 0 15:38 16.07.2019
5092 Clouds 23 1009 53 10000 4 120 15:19 16.07.2019
5093 Clouds 25 1008 44 0 2 0 14:47 16.07.2019
5094 Clouds 25 1008 44 0 2 0 14:28 16.07.2019
5095 Clouds 25 1008 44 0 2 0 13:57 16.07.2019
5096 Rain 26 1008 44 10000 2 0 13:37 16.07.2019
5097 Clouds 27 1008 32 10000 3 80 13:18 16.07.2019
5098 Clouds 27 1008 32 10000 3 80 12:43 16.07.2019
5099 Clouds 26 1007 36 10000 3 20 12:20 16.07.2019
5100 Clouds 26 1007 36 10000 3 20 11:54 16.07.2019
5101 Clouds 27 1007 34 10000 5 60 11:36 16.07.2019
5102 Clouds 25 1007 44 10000 5 60 11:18 16.07.2019
5103 Thunderstorm 21 1007 60 10000 7 70 10:43 16.07.2019
5104 Thunderstorm 21 1007 60 10000 7 70 10:19 16.07.2019
5105 Thunderstorm 28 1007 30 10000 4 50 09:43 16.07.2019
5106 Clouds 29 1007 28 10000 2 0 09:21 16.07.2019
5107 Clouds 28 1007 30 10000 1 0 08:48 16.07.2019
5108 Clouds 28 1007 30 10000 1 0 08:27 16.07.2019
5109 Clouds 28 1007 30 10000 1 0 08:27 16.07.2019
5110 Clouds 28 1007 32 10000 2 0 07:54 16.07.2019
5111 Clouds 28 1008 34 10000 3 270 07:35 16.07.2019
5112 Clouds 28 1008 34 10000 3 330 06:58 16.07.2019
5113 Clouds 28 1008 34 10000 3 330 06:37 16.07.2019
5114 Clouds 27 1008 36 10000 1 0 05:52 16.07.2019
5115 Clouds 27 1008 36 10000 1 0 05:27 16.07.2019
5116 Clouds 24 1008 47 10000 1 0 04:36 16.07.2019
5117 Clear 22 1008 49 10000 2 0 03:43 16.07.2019
5118 Clear 19 1008 63 10000 1.42 128.691 02:44 16.07.2019
5119 Clear 19 1008 63 10000 1.42 128.691 02:24 16.07.2019
5120 Clear 15 1008 82 10000 1.42 128.691 01:26 16.07.2019
5121 Clear 13 1008 87 10000 2 270 00:24 16.07.2019
5122 Clear 11 1007 87 10000 1 0 23:58 15.07.2019
5123 Clear 12 1007 87 10000 1 0 23:38 15.07.2019
5124 Clouds 12 1007 87 10000 1.69 129.323 23:18 15.07.2019
5125 Clouds 12 1007 87 10000 1 0 22:43 15.07.2019
5126 Clouds 14 1006 82 10000 1 0 22:20 15.07.2019
5127 Clouds 14 1006 82 10000 1 0 21:57 15.07.2019
5128 Clouds 14 1006 82 10000 1 0 21:38 15.07.2019
5129 Clouds 15 1006 77 10000 1 0 21:19 15.07.2019
5130 Clouds 15 1006 77 10000 1 0 20:44 15.07.2019
5131 Clouds 15 1006 77 10000 1 0 20:44 15.07.2019
5132 Clouds 15 1006 77 10000 1 0 20:23 15.07.2019
5133 Clouds 15 1006 77 10000 1 0 19:56 15.07.2019
5134 Clouds 17 1007 72 10000 1 0 19:38 15.07.2019
5135 Clouds 17 1006 67 10000 1 0 19:18 15.07.2019
5136 Clouds 18 1006 68 10000 1 0 18:44 15.07.2019
5137 Clouds 19 1006 68 10000 2 0 18:21 15.07.2019
5138 Clouds 19 1006 68 10000 2 0 17:56 15.07.2019
5139 Clouds 19 1006 63 10000 1 0 17:37 15.07.2019
5140 Clouds 20 1006 60 10000 1 0 17:19 15.07.2019
5141 Clouds 20 1006 60 10000 1 0 16:57 15.07.2019
5142 Clouds 21 1006 52 10000 1 0 16:36 15.07.2019
5143 Clouds 21 1006 56 10000 5 140 16:18 15.07.2019
5144 Clouds 21 1005 56 10000 5 140 15:38 15.07.2019
5145 Clouds 21 1005 56 10000 5 140 15:38 15.07.2019
5146 Clouds 21 1005 56 10000 5 140 15:20 15.07.2019
5147 Clouds 21 1005 56 10000 5 140 14:55 15.07.2019
5148 Clouds 20 1005 60 10000 6 140 14:37 15.07.2019
5149 Clouds 22 1004 49 10000 6 140 14:18 15.07.2019
5150 Clouds 22 1004 49 10000 6 140 13:43 15.07.2019
5151 Clouds 22 1005 53 10000 2 0 13:18 15.07.2019
5152 Clouds 22 1005 53 10000 2 0 12:42 15.07.2019
5153 Clouds 20 1005 68 10000 3 60 12:23 15.07.2019
5154 Clouds 20 1005 72 10000 3 80 11:44 15.07.2019
5155 Clouds 20 1005 72 10000 3 80 11:26 15.07.2019
5156 Clouds 21 1007 56 10000 2 0 10:49 15.07.2019
5157 Clouds 21 1007 56 10000 2 0 10:30 15.07.2019
5158 Clouds 20 1006 72 10000 4 240 09:58 15.07.2019
5159 Thunderstorm 19 1007 72 10000 5 240 09:39 15.07.2019
5160 Thunderstorm 21 1006 64 10000 5 100 09:18 15.07.2019
5161 Thunderstorm 21 1006 64 10000 5 100 08:42 15.07.2019
5162 Thunderstorm 21 1006 64 10000 5 100 08:23 15.07.2019
5163 Rain 25 1004 41 10000 11 240 07:41 15.07.2019
5164 Clouds 29 1004 28 10000 5 280 07:20 15.07.2019
5165 Clouds 29 1004 28 10000 4 230 06:39 15.07.2019
5166 Clouds 29 1005 23 10000 7 190 05:50 15.07.2019
5167 Clouds 29 1005 23 10000 7 190 05:30 15.07.2019
5168 Clouds 27 1004 26 10000 9 140 04:43 15.07.2019
5169 Clouds 27 1004 26 10000 8 140 03:58 15.07.2019
5170 Clouds 27 1004 26 10000 8 140 03:58 15.07.2019
5171 Clouds 26 1004 27 10000 8 140 02:47 15.07.2019
5172 Clouds 25 1004 27 10000 6 140 01:53 15.07.2019
5173 Clouds 25 1004 27 10000 6 140 01:28 15.07.2019
5174 Clouds 23 1004 31 10000 7 150 00:53 15.07.2019
5175 Clouds 23 1004 31 10000 7 150 00:23 15.07.2019
5176 Clouds 23 1004 31 10000 7 150 23:57 14.07.2019
5177 Clouds 24 1004 27 10000 8 150 23:39 14.07.2019
5178 Clouds 24 1005 27 10000 7 140 23:18 14.07.2019
5179 Clouds 24 1005 27 10000 7 140 23:18 14.07.2019
5180 Clouds 24 1005 27 10000 7 140 22:55 14.07.2019
5181 Clouds 24 1005 27 10000 7 140 22:37 14.07.2019
5182 Clouds 25 1005 27 10000 6 140 22:18 14.07.2019
5183 Clouds 25 1005 27 10000 6 140 21:42 14.07.2019
5184 Clouds 25 1005 27 10000 6 140 21:19 14.07.2019
5185 Clouds 25 1005 27 10000 6 140 20:57 14.07.2019
5186 Clouds 25 1005 27 10000 6 140 20:57 14.07.2019
5187 Clouds 25 1005 27 10000 6 140 20:37 14.07.2019
5188 Clouds 25 1005 27 10000 5 150 20:19 14.07.2019
5189 Clouds 25 1005 29 10000 7 140 19:44 14.07.2019
5190 Clouds 25 1005 29 10000 7 140 19:25 14.07.2019
5191 Clouds 25 1005 29 10000 7 140 18:57 14.07.2019
5192 Clouds 25 1005 29 10000 7 140 18:38 14.07.2019
5193 Clouds 25 1005 29 10000 7 140 18:20 14.07.2019
5194 Clouds 26 1005 27 10000 6 140 17:47 14.07.2019
5195 Clouds 26 1005 26 10000 6 140 17:21 14.07.2019
5196 Clouds 26 1005 26 10000 6 140 16:47 14.07.2019
5197 Clouds 26 1005 26 10000 6 140 16:24 14.07.2019
5198 Clouds 27 1005 26 10000 5 140 15:54 14.07.2019
5199 Clouds 27 1005 26 10000 5 140 15:29 14.07.2019
5200 Clouds 29 1005 23 10000 4 130 14:50 14.07.2019
5201 Clouds 29 1005 23 10000 4 130 14:22 14.07.2019
5202 Clouds 29 1005 23 10000 4 130 13:58 14.07.2019
5203 Clouds 29 1005 26 10000 4 60 13:38 14.07.2019
5204 Clouds 30 1005 27 10000 6 50 13:20 14.07.2019
5205 Clouds 30 1005 27 10000 6 50 12:43 14.07.2019
5206 Clouds 30 1005 23 10000 3 70 12:22 14.07.2019
5207 Clouds 30 1005 23 10000 3 70 11:55 14.07.2019
5208 Clouds 30 1006 25 10000 3 50 11:28 14.07.2019
5209 Clouds 30 1006 27 10000 5 310 10:59 14.07.2019
5210 Clouds 29 1007 26 10000 4 280 10:40 14.07.2019
5211 Clouds 30 1007 25 10000 2 0 10:19 14.07.2019
5212 Clouds 31 1007 23 10000 3 150 09:42 14.07.2019
5213 Clouds 31 1007 23 10000 3 150 09:23 14.07.2019
5214 Clouds 30 1008 25 10000 2 0 08:43 14.07.2019
5215 Clouds 30 1008 23 10000 2 0 07:58 14.07.2019
5216 Rain 27 1009 28 10000 5 230 07:38 14.07.2019
5217 Clouds 28 1009 28 10000 2 0 06:55 14.07.2019
5218 Clouds 28 1010 30 10000 2 0 05:44 14.07.2019
5219 Clouds 21 1011 52 10000 1 0 03:47 14.07.2019
5220 Clouds 21 1011 52 10000 1 0 03:29 14.07.2019
5221 Clouds 21 1011 52 10000 2 0 02:41 14.07.2019
5222 Clouds 18 1011 63 10000 1 0 02:21 14.07.2019
5223 Clouds 18 1011 63 10000 1 0 01:32 14.07.2019
5224 Clouds 16 1011 72 10000 2 160 00:57 14.07.2019
5225 Clouds 16 1011 72 10000 2 160 00:38 14.07.2019
5226 Clouds 16 1011 72 10000 1 0 00:19 14.07.2019
5227 Clouds 16 1011 72 10000 0.85 148.437 23:44 13.07.2019
5228 Clouds 16 1011 72 10000 0.85 148.437 23:25 13.07.2019
5229 Clouds 16 1011 72 10000 0.85 148.437 22:47 13.07.2019
5230 Clouds 16 1011 72 10000 0.85 148.437 22:26 13.07.2019
5231 Clouds 16 1011 72 10000 1 0 21:58 13.07.2019
5232 Clouds 16 1011 72 10000 1 0 21:39 13.07.2019
5233 Clouds 16 1011 72 10000 1 0 21:19 13.07.2019
5234 Clouds 17 1011 67 10000 1 0 20:41 13.07.2019
5235 Clouds 17 1011 67 10000 1 0 20:23 13.07.2019
5236 Clouds 18 1011 59 10000 1 0 19:43 13.07.2019
5237 Clouds 18 1011 59 10000 1 0 19:25 13.07.2019
5238 Clouds 19 1011 55 10000 2 150 18:42 13.07.2019
5239 Clouds 20 1011 52 10000 1.03 70.618 18:20 13.07.2019
5240 Clouds 20 1011 52 10000 1.03 70.618 17:38 13.07.2019
5241 Clouds 21 1011 49 10000 1 0 17:19 13.07.2019
5242 Clouds 21 1011 49 10000 1 0 16:46 13.07.2019
5243 Clouds 21 1011 49 10000 1 0 16:26 13.07.2019
5244 Clouds 21 1011 56 10000 3 270 15:54 13.07.2019
5245 Clouds 21 1011 56 10000 3 270 15:36 13.07.2019
5246 Thunderstorm 22 1011 53 10000 8 280 15:18 13.07.2019
5247 Clouds 25 1010 36 10000 3 160 14:41 13.07.2019
5248 Clouds 25 1010 36 10000 3 160 14:20 13.07.2019
5249 Clouds 27 1009 30 10000 3 140 13:44 13.07.2019
5250 Clouds 27 1009 30 10000 3 140 13:23 13.07.2019
5251 Clouds 28 1009 26 10000 3 120 12:42 13.07.2019
5252 Clouds 28 1009 26 10000 4 130 12:23 13.07.2019
5253 Clouds 28 1009 26 10000 4 130 11:58 13.07.2019
5254 Clouds 30 1010 20 10000 4 40 11:37 13.07.2019
5255 Clouds 30 1010 22 0 3 60 11:18 13.07.2019
5256 Clouds 30 1010 22 0 3 60 10:41 13.07.2019
5257 Clouds 30 1010 22 0 3 60 10:23 13.07.2019
5258 Clouds 30 1010 22 10000 3 100 09:48 13.07.2019
5259 Clouds 30 1010 22 10000 3 100 09:28 13.07.2019
5260 Clouds 29 1011 26 10000 3 60 08:56 13.07.2019
5261 Clouds 29 1011 26 10000 3 60 08:28 13.07.2019
5262 Clouds 29 1011 26 10000 3 60 08:28 13.07.2019
5263 Clouds 28 1011 28 10000 4 30 07:53 13.07.2019
5264 Clouds 27 1012 32 10000 2 330 07:25 13.07.2019
5265 Clouds 27 1012 30 10000 2 0 06:31 13.07.2019
5266 Clouds 25 1013 33 10000 3 340 05:48 13.07.2019
5267 Clouds 22 1014 40 10000 3 280 04:40 13.07.2019
5268 Clouds 22 1014 40 10000 3 280 04:20 13.07.2019
5269 Clouds 21 1014 46 10000 1 0 03:41 13.07.2019
5270 Clouds 20 1015 49 10000 1 0 03:18 13.07.2019
5271 Clouds 17 1014 59 0 1 0 01:53 13.07.2019
5272 Clouds 15 1015 67 0 1 0 01:21 13.07.2019
5273 Clouds 12 1015 76 10000 1 0 00:58 13.07.2019
5274 Clouds 12 1015 76 10000 1 0 00:21 13.07.2019
5275 Clouds 12 1015 76 10000 1 0 23:53 12.07.2019
5276 Clear 10 1014 81 10000 1.66 5.363 23:33 12.07.2019
5277 Clouds 12 1014 76 10000 1 0 22:58 12.07.2019
5278 Clouds 13 1013 71 10000 1 0 22:40 12.07.2019
5279 Clouds 13 1013 71 10000 1 0 22:21 12.07.2019
5280 Clouds 13 1013 71 10000 1 0 21:42 12.07.2019
5281 Clouds 12 1014 76 10000 2 0 21:21 12.07.2019
5282 Clouds 12 1014 76 10000 2 0 20:47 12.07.2019
5283 Clouds 12 1014 76 10000 2 0 20:23 12.07.2019
5284 Clouds 15 1014 62 10000 2 160 19:44 12.07.2019
5285 Clouds 15 1014 62 10000 2 160 19:26 12.07.2019
5286 Clouds 15 1014 62 10000 2 160 18:58 12.07.2019
5287 Clouds 14 1014 62 10000 1 0 18:37 12.07.2019
5288 Clouds 17 1014 55 10000 1 0 18:19 12.07.2019
5289 Clouds 18 1013 52 10000 2 170 17:45 12.07.2019
5290 Clouds 18 1013 52 10000 2 170 17:27 12.07.2019
5291 Clouds 19 1013 48 10000 1 0 16:38 12.07.2019
5292 Clouds 21 1013 43 10000 1 0 16:20 12.07.2019
5293 Clouds 22 1012 43 10000 4 140 15:41 12.07.2019
5294 Clouds 25 1011 31 10000 6 70 15:20 12.07.2019
5295 Clouds 25 1011 31 10000 6 70 14:47 12.07.2019
5296 Clouds 25 1011 31 10000 6 70 14:47 12.07.2019
5297 Clouds 26 1010 31 10000 6 100 14:22 12.07.2019
5298 Clouds 26 1010 31 10000 6 100 13:55 12.07.2019
5299 Clouds 29 1010 20 10000 5 10 13:37 12.07.2019
5300 Clouds 29 1010 21 10000 6 30 12:55 12.07.2019
5301 Clouds 29 1010 21 10000 6 30 12:37 12.07.2019
5302 Clouds 30 1010 16 10000 7 350 12:18 12.07.2019
5303 Clouds 30 1010 16 10000 7 350 11:43 12.07.2019
5304 Clouds 30 1010 19 10000 5 350 11:20 12.07.2019
5305 Clouds 30 1010 19 10000 5 350 10:43 12.07.2019
5306 Clouds 30 1010 19 10000 5 350 10:23 12.07.2019
5307 Clouds 29 1010 23 10000 4 320 09:54 12.07.2019
5308 Clouds 29 1010 23 10000 4 320 09:29 12.07.2019
5309 Clouds 30 1011 25 10000 5 10 08:58 12.07.2019
5310 Clouds 28 1011 28 10000 2 0 08:26 12.07.2019
5311 Clouds 27 1011 32 10000 2 0 07:55 12.07.2019
5312 Clouds 27 1011 32 10000 2 0 07:32 12.07.2019
5313 Clouds 27 1012 32 10000 3 330 06:59 12.07.2019
5314 Clouds 28 1012 28 10000 2 0 06:28 12.07.2019
5315 Clouds 27 1013 32 10000 1 0 05:42 12.07.2019
5316 Clear 19 1014 59 10000 1 0 03:21 12.07.2019
5317 Clear 16 1014 67 10000 1 0 01:39 12.07.2019
5318 Clear 13 1014 87 10000 1 0 00:54 12.07.2019
5319 Clear 12 1014 87 10000 0.53 22.41 00:20 12.07.2019
5320 Clear 12 1014 87 10000 0.53 22.41 23:47 11.07.2019
5321 Clear 12 1014 87 10000 0.53 22.41 23:26 11.07.2019
5322 Clear 12 1013 87 10000 2 150 22:52 11.07.2019
5323 Clear 12 1013 87 10000 3 180 22:27 11.07.2019
5324 Clear 13 1013 82 10000 1 0 21:59 11.07.2019
5325 Clear 13 1013 82 10000 1 0 21:40 11.07.2019
5326 Clouds 17 1013 67 10000 3 50 21:18 11.07.2019
5327 Clouds 17 1013 67 10000 3 50 20:42 11.07.2019
5328 Clouds 17 1013 67 10000 3 50 20:24 11.07.2019
5329 Clouds 18 1013 59 10000 3 40 19:58 11.07.2019
5330 Clouds 18 1013 59 10000 3 40 19:39 11.07.2019
5331 Clouds 18 1013 59 10000 3 40 19:21 11.07.2019
5332 Clouds 17 1013 67 10000 1 0 18:43 11.07.2019
5333 Clouds 17 1013 67 10000 1 0 18:43 11.07.2019
5334 Rain 18 1014 68 10000 2 0 18:24 11.07.2019
5335 Rain 18 1014 68 10000 6 170 17:50 11.07.2019
5336 Rain 18 1014 68 10000 6 170 17:31 11.07.2019
5337 Rain 20 1013 60 10000 2 0 16:56 11.07.2019
5338 Clouds 21 1013 49 10000 3 70 16:37 11.07.2019
5339 Clouds 22 1012 46 10000 1 0 16:18 11.07.2019
5340 Clouds 22 1012 46 10000 1 0 15:40 11.07.2019
5341 Clouds 23 1011 43 10000 4 50 15:21 11.07.2019
5342 Clouds 24 1011 38 10000 3 90 14:45 11.07.2019
5343 Clouds 24 1011 38 10000 3 90 14:25 11.07.2019
5344 Clouds 24 1012 36 10000 5 130 13:59 11.07.2019
5345 Clouds 24 1011 41 10000 6 120 13:40 11.07.2019
5346 Clouds 25 1011 33 0 3 250 13:22 11.07.2019
5347 Clouds 25 1011 33 0 3 250 12:38 11.07.2019
5348 Clouds 26 1011 31 10000 5 230 12:19 11.07.2019
5349 Clouds 28 1010 30 10000 5 50 11:45 11.07.2019
5350 Clouds 28 1010 30 10000 5 50 11:27 11.07.2019
5351 Clouds 29 1010 23 10000 3 300 10:52 11.07.2019
5352 Thunderstorm 28 1010 24 10000 6 250 10:20 11.07.2019
5353 Thunderstorm 28 1010 24 10000 6 250 10:20 11.07.2019
5354 Thunderstorm 28 1010 24 10000 6 250 09:53 11.07.2019
5355 Thunderstorm 29 1010 21 10000 6 230 09:32 11.07.2019
5356 Thunderstorm 29 1010 21 10000 6 230 08:59 11.07.2019
5357 Clouds 30 1011 19 10000 4 250 08:39 11.07.2019
5358 Clouds 30 1011 22 10000 3 230 08:19 11.07.2019
5359 Clouds 29 1011 23 10000 2 0 07:43 11.07.2019
5360 Clouds 27 1012 26 10000 1 0 06:55 11.07.2019
5361 Clouds 27 1012 26 10000 1 0 06:18 11.07.2019
5362 Clouds 27 1012 28 10000 3 280 05:32 11.07.2019
5363 Clouds 26 1013 29 10000 3 180 04:56 11.07.2019
5364 Clouds 25 1013 31 10000 2 0 03:57 11.07.2019
5365 Clouds 22 1013 40 10000 3 140 02:25 11.07.2019
5366 Clouds 17 1013 63 10000 2 0 00:35 11.07.2019
5367 Clouds 16 1012 67 10000 1 0 23:51 10.07.2019
5368 Clouds 16 1012 67 10000 1 0 23:27 10.07.2019
5369 Clouds 18 1012 59 10000 4 90 22:57 10.07.2019
5370 Clouds 19 1013 52 10000 3 260 22:26 10.07.2019
5371 Clouds 20 1012 45 10000 5 10 21:57 10.07.2019
5372 Clouds 20 1012 45 10000 5 10 21:38 10.07.2019
5373 Clouds 19 1013 55 10000 4 80 21:20 10.07.2019
5374 Clouds 19 1013 55 10000 4 80 20:46 10.07.2019
5375 Clouds 19 1013 55 10000 4 80 20:26 10.07.2019
5376 Rain 20 1013 49 10000 2 0 19:57 10.07.2019
5377 Rain 20 1013 49 10000 2 0 19:38 10.07.2019
5378 Rain 21 1012 43 10000 6 20 19:20 10.07.2019
5379 Rain 21 1012 43 10000 6 20 18:46 10.07.2019
5380 Rain 21 1012 43 10000 6 20 18:23 10.07.2019
5381 Clouds 22 1011 37 10000 5 40 17:47 10.07.2019
5382 Clouds 22 1011 37 10000 5 40 17:29 10.07.2019
5383 Clouds 22 1012 35 10000 2 0 16:47 10.07.2019
5384 Clouds 21 1012 46 10000 1 0 16:21 10.07.2019
5385 Clouds 23 1011 35 10000 3 40 15:47 10.07.2019
5386 Clouds 23 1011 35 10000 3 40 15:26 10.07.2019
5387 Clouds 22 1011 43 10000 4 40 14:48 10.07.2019
5388 Clouds 22 1011 43 10000 4 40 14:29 10.07.2019
5389 Clouds 23 1011 35 10000 6 60 13:59 10.07.2019
5390 Rain 24 1012 38 10000 4 260 13:36 10.07.2019
5391 Clouds 26 1011 26 10000 1 0 13:18 10.07.2019
5392 Clouds 26 1011 26 10000 1 0 12:41 10.07.2019
5393 Clouds 25 1011 27 10000 3 100 12:21 10.07.2019
5394 Clouds 26 1011 24 10000 5 230 11:49 10.07.2019
5395 Clouds 26 1011 24 10000 5 230 11:22 10.07.2019
5396 Clouds 26 1011 24 10000 5 230 10:58 10.07.2019
5397 Clouds 26 1011 24 10000 5 230 10:58 10.07.2019
5398 Clouds 26 1011 24 10000 7 230 10:24 10.07.2019
5399 Clouds 28 1011 23 10000 3 20 09:56 10.07.2019
5400 Clouds 28 1011 23 10000 3 20 09:37 10.07.2019
5401 Clouds 25 1012 27 10000 3 40 09:19 10.07.2019
5402 Clouds 25 1012 27 10000 3 40 08:48 10.07.2019
5403 Clouds 25 1012 27 10000 3 40 08:23 10.07.2019
5404 Clouds 25 1012 27 10000 2 0 07:46 10.07.2019
5405 Clouds 25 1012 27 10000 2 0 07:23 10.07.2019
5406 Clouds 24 1013 27 10000 4 40 06:36 10.07.2019
5407 Rain 22 1013 28 10000 1 0 05:40 10.07.2019
5408 Clouds 21 1014 35 10000 2 0 04:30 10.07.2019
5409 Clouds 17 1013 45 10000 1 0 01:59 10.07.2019
5410 Clouds 14 1013 58 0 2.05 152.512 00:43 10.07.2019
5411 Clouds 12 1012 58 10000 1.79 138.082 23:42 09.07.2019
5412 Clouds 12 1012 58 10000 1.79 138.082 23:23 09.07.2019
5413 Clear 12 1012 58 10000 2 250 22:57 09.07.2019
5414 Clear 12 1012 58 10000 2 250 22:37 09.07.2019
5415 Clear 11 1012 66 10000 2 0 22:18 09.07.2019
5416 Clear 11 1012 66 10000 2 0 21:45 09.07.2019
5417 Clear 11 1012 66 10000 2 0 21:25 09.07.2019
5418 Clear 14 1012 54 10000 1 0 20:45 09.07.2019
5419 Clear 14 1012 54 10000 1 0 20:26 09.07.2019
5420 Clear 15 1012 54 10000 1 0 19:45 09.07.2019
5421 Clear 15 1012 54 10000 1 0 19:26 09.07.2019
5422 Clear 15 1012 54 10000 2 0 18:58 09.07.2019
5423 Clear 17 1011 42 10000 1 0 18:36 09.07.2019
5424 Clear 18 1011 39 10000 2 0 18:18 09.07.2019
5425 Clear 20 1011 32 10000 1 0 17:42 09.07.2019
5426 Clear 22 1011 28 10000 1 0 17:21 09.07.2019
5427 Clear 22 1011 28 10000 1 0 16:50 09.07.2019
5428 Clear 22 1011 28 10000 1 0 16:26 09.07.2019
5429 Clear 19 1011 37 10000 3 150 15:57 09.07.2019
5430 Clouds 22 1011 30 10000 3 170 15:36 09.07.2019
5431 Clouds 24 1011 25 10000 3 180 14:59 09.07.2019
5432 Clouds 24 1011 25 10000 3 180 14:40 09.07.2019
5433 Clouds 26 1010 22 10000 4 190 14:21 09.07.2019
5434 Clouds 27 1010 19 10000 4 200 13:45 09.07.2019
5435 Clouds 27 1010 19 10000 4 200 13:27 09.07.2019
5436 Clouds 29 1010 16 10000 1 0 12:56 09.07.2019
5437 Clouds 29 1010 16 10000 1 0 12:37 09.07.2019
5438 Clouds 29 1010 16 10000 2 0 12:18 09.07.2019
5439 Clouds 29 1010 17 10000 2 0 11:41 09.07.2019
5440 Clouds 29 1010 17 10000 2 0 11:22 09.07.2019
5441 Clouds 30 1011 17 10000 2 0 10:58 09.07.2019
5442 Clouds 30 1011 17 10000 2 0 10:34 09.07.2019
5443 Clouds 28 1011 20 10000 2 0 09:56 09.07.2019
5444 Clouds 28 1011 20 10000 2 0 09:37 09.07.2019
5445 Clouds 29 1011 17 10000 3 170 09:19 09.07.2019
5446 Clouds 29 1012 20 10000 3 290 08:41 09.07.2019
5447 Clouds 18 1015 52 10000 2 0 04:19 05.07.2019
5448 Clouds 18 1015 52 10000 2 0 03:39 05.07.2019
5449 Clouds 17 1015 55 10000 2 0 03:19 05.07.2019
5450 Clear 16 1015 59 10000 2 0 02:51 05.07.2019
5451 Clear 15 1015 62 10000 1 0 01:55 05.07.2019
5452 Clear 15 1015 62 10000 1 0 01:28 05.07.2019
5453 Clear 11 1014 76 10000 3 330 00:51 05.07.2019
5454 Clear 11 1014 76 10000 3 330 00:29 05.07.2019
5455 Clear 12 1014 76 10000 1 0 23:38 04.07.2019
5456 Clear 14 1013 67 10000 5 20 23:18 04.07.2019
5457 Clear 14 1013 67 10000 5 20 22:41 04.07.2019
5458 Clear 14 1013 67 10000 5 20 22:41 04.07.2019
5459 Clear 14 1012 67 10000 4 360 22:20 04.07.2019
5460 Clear 14 1012 67 10000 4 360 21:44 04.07.2019
5461 Clear 14 1012 67 10000 4 360 21:25 04.07.2019
5462 Clear 14 1012 67 10000 4 360 20:58 04.07.2019
5463 Clear 14 1012 67 10000 1 0 20:37 04.07.2019
5464 Clear 15 1011 62 10000 3 360 20:19 04.07.2019
5465 Clear 15 1011 62 10000 3 360 19:41 04.07.2019
5466 Clear 15 1011 62 10000 3 360 19:21 04.07.2019
5467 Clear 15 1011 62 10000 3 360 18:55 04.07.2019
5468 Clear 16 1011 59 10000 4 40 18:36 04.07.2019
5469 Clear 15 1011 67 10000 3 360 18:18 04.07.2019
5470 Clouds 16 1011 63 10000 2 0 17:41 04.07.2019
5471 Clouds 16 1011 67 10000 2 0 17:18 04.07.2019
5472 Clouds 17 1010 63 10000 3 50 15:45 04.07.2019
5473 Clouds 17 1010 63 10000 3 50 15:25 04.07.2019
5474 Clouds 17 1010 63 10000 3 50 14:59 04.07.2019
5475 Clouds 18 1009 59 10000 3 40 14:39 04.07.2019
5476 Clouds 18 1009 59 10000 6 60 14:20 04.07.2019
5477 Clouds 18 1009 59 10000 6 60 13:57 04.07.2019
5478 Clouds 20 1007 60 10000 4 360 13:38 04.07.2019
5479 Clouds 19 1006 68 10000 3 50 13:19 04.07.2019
5480 Clouds 18 1006 68 10000 4 30 12:39 04.07.2019
5481 Clouds 18 1006 68 10000 4 30 12:39 04.07.2019
5482 Clouds 18 1006 68 10000 4 20 12:20 04.07.2019
5483 Clouds 18 1006 68 10000 4 20 11:55 04.07.2019
5484 Rain 17 1006 72 10000 5 30 11:36 04.07.2019
5485 Thunderstorm 19 1007 52 10000 9 20 11:18 04.07.2019
5486 Rain 21 1006 56 10000 3 10 10:39 04.07.2019
5487 Rain 21 1006 56 10000 3 10 10:18 04.07.2019
5488 Clouds 23 1005 43 10000 10 350 09:39 04.07.2019
5489 Clouds 23 1005 43 10000 10 350 09:19 04.07.2019
5490 Clouds 23 1005 43 10000 10 350 08:53 04.07.2019
5491 Clouds 22 1006 53 10000 6 360 08:19 04.07.2019
5492 Clouds 22 1006 53 10000 6 360 07:42 04.07.2019
5493 Clouds 21 1006 56 10000 6 360 07:19 04.07.2019
5494 Clouds 21 1006 56 10000 7 360 06:33 04.07.2019
5495 Thunderstorm 19 1006 63 10000 4 360 05:43 04.07.2019
5496 Rain 18 1006 72 10000 7 340 04:59 04.07.2019
5497 Clouds 20 1006 52 10000 2 0 02:23 04.07.2019
5498 Clouds 18 1005 59 10000 2 270 01:27 04.07.2019
5499 Clouds 16 1004 67 10000 1 0 00:52 04.07.2019
5500 Clouds 15 1004 67 10000 3 350 23:53 03.07.2019
5501 Clouds 18 1004 52 10000 6 50 23:21 03.07.2019
5502 Clouds 18 1004 52 10000 6 50 22:57 03.07.2019
5503 Clouds 14 1005 67 10000 1 0 22:38 03.07.2019
5504 Clouds 16 1005 59 10000 2 0 22:20 03.07.2019
5505 Clouds 16 1005 59 10000 2 0 21:55 03.07.2019
5506 Clouds 18 1006 52 10000 1 0 21:36 03.07.2019
5507 Clouds 18 1005 48 10000 4 230 20:55 03.07.2019
5508 Clouds 18 1005 48 10000 4 230 20:36 03.07.2019
5509 Clouds 21 1005 37 10000 3 90 20:18 03.07.2019
5510 Clouds 21 1005 37 10000 3 90 19:44 03.07.2019
5511 Clouds 21 1005 37 10000 3 90 19:44 03.07.2019
5512 Clouds 21 1005 37 10000 3 90 19:25 03.07.2019
5513 Clouds 21 1005 37 10000 10 140 18:45 03.07.2019
5514 Clouds 21 1005 37 10000 11 130 18:22 03.07.2019
5515 Clouds 21 1005 40 10000 11 140 17:49 03.07.2019
5516 Clouds 22 1006 35 10000 6 140 17:19 03.07.2019
5517 Clouds 22 1006 35 10000 6 140 17:19 03.07.2019
5518 Clouds 22 1006 35 10000 6 140 16:57 03.07.2019
5519 Clouds 22 1006 35 10000 6 140 16:39 03.07.2019
5520 Clouds 22 1006 33 10000 6 150 16:18 03.07.2019
5521 Clouds 22 1005 40 10000 9 130 15:44 03.07.2019
5522 -273 0 0 0 0 0 15:26 03.07.2019
5523 Thunderstorm 23 1007 35 10000 7 190 14:44 03.07.2019
5524 Thunderstorm 23 1007 35 10000 7 190 14:22 03.07.2019
5525 Clouds 24 1005 31 10000 10 140 13:50 03.07.2019
5526 Clouds 24 1005 31 10000 10 140 13:31 03.07.2019
5527 Clouds 25 1007 33 10000 6 250 12:52 03.07.2019
5528 Clouds 25 1005 33 10000 6 130 12:19 03.07.2019
5529 Clouds 25 1005 33 10000 6 130 11:54 03.07.2019
5530 Clouds 26 1005 29 10000 10 140 11:36 03.07.2019
5531 Clouds 27 1005 28 10000 11 130 11:18 03.07.2019
5532 Clouds 26 1006 31 10000 12 130 10:38 03.07.2019
5533 Clouds 26 1006 31 10000 12 130 10:20 03.07.2019
5534 Clouds 27 1007 28 10000 13 140 09:41 03.07.2019
5535 Clouds 27 1007 28 10000 13 140 09:20 03.07.2019
5536 Clouds 27 1007 28 10000 13 140 08:52 03.07.2019
5537 Clouds 27 1007 28 10000 13 140 08:31 03.07.2019
5538 Clouds 27 1007 28 10000 13 140 08:31 03.07.2019
5539 Clouds 26 1008 29 10000 11 140 07:47 03.07.2019
5540 Clouds 26 1008 29 10000 11 140 07:28 03.07.2019
5541 Rain 19 1009 48 10000 11 130 06:35 03.07.2019
5542 Rain 17 1010 59 10000 10 130 05:39 03.07.2019
5543 Clouds 18 1011 55 10000 3 50 04:50 03.07.2019
5544 Clouds 17 1012 59 10000 5 40 03:26 03.07.2019
5545 Thunderstorm 18 1014 48 10000 6 30 02:27 03.07.2019
5546 Thunderstorm 17 1013 51 10000 4 40 01:21 03.07.2019
5547 Clouds 18 1012 48 10000 2 0 00:52 03.07.2019
5548 Thunderstorm 16 1012 63 10000 4 90 00:32 03.07.2019
5549 Thunderstorm 17 1013 51 10000 1 0 23:38 02.07.2019
5550 Thunderstorm 17 1013 51 10000 1 0 23:38 02.07.2019
5551 Clouds 17 1013 51 10000 2 0 23:20 02.07.2019
5552 Clouds 16 1013 55 10000 1 0 22:57 02.07.2019
5553 Clouds 16 1013 55 10000 1 0 22:38 02.07.2019
5554 Clouds 17 1013 48 10000 1 0 22:20 02.07.2019
5555 Clouds 16 1013 55 10000 1 0 21:46 02.07.2019
5556 Clouds 16 1013 55 10000 1 0 21:46 02.07.2019
5557 Clouds 17 1013 51 10000 2 0 21:24 02.07.2019
5558 Clear 17 1013 48 10000 1 0 20:58 02.07.2019
5559 Clear 17 1013 48 10000 1 0 20:40 02.07.2019
5560 Clear 17 1013 48 10000 2 0 20:21 02.07.2019
5561 Clear 17 1013 51 10000 2.3 131.493 19:44 02.07.2019
5562 Clear 18 1013 48 10000 2 0 19:23 02.07.2019
5563 Clear 18 1013 48 10000 2 0 18:58 02.07.2019
5564 Clear 19 1013 45 10000 2 0 18:19 02.07.2019
5565 Clear 18 1013 48 10000 2 0 17:45 02.07.2019
5566 Clear 18 1013 48 10000 2 0 17:45 02.07.2019
5567 Clear 18 1013 48 10000 2 0 17:25 02.07.2019
5568 Clear 21 1013 35 10000 1 0 16:57 02.07.2019
5569 Clouds 21 1013 32 10000 2 0 16:39 02.07.2019
5570 Clouds 21 1013 32 10000 1 0 16:21 02.07.2019
5571 Clouds 20 1013 42 10000 1 0 15:40 02.07.2019
5572 Clear 23 1013 35 10000 2 0 15:21 02.07.2019
5573 Clear 24 1013 33 10000 3 100 14:45 02.07.2019
5574 Clear 24 1013 33 10000 3 120 14:25 02.07.2019
5575 Clouds 24 1013 33 10000 3 130 13:43 02.07.2019
5576 Clouds 25 1013 31 10000 4 130 13:19 02.07.2019
5577 Clouds 25 1013 31 10000 4 120 12:45 02.07.2019
5578 Clouds 26 1013 27 10000 4 120 12:23 02.07.2019
5579 Clouds 26 1013 29 10000 3 140 11:45 02.07.2019
5580 Clouds 26 1013 29 10000 3 140 11:25 02.07.2019
5581 Clouds 25 1013 29 10000 3 140 10:59 02.07.2019
5582 Clouds 26 1014 27 10000 4 120 10:37 02.07.2019
5583 Clouds 25 1014 29 10000 4 120 10:19 02.07.2019
5584 Clouds 24 1014 31 10000 4 130 09:37 02.07.2019
5585 Clouds 24 1014 31 10000 3 160 09:19 02.07.2019
5586 Clouds 24 1014 29 10000 4 180 08:40 02.07.2019
5587 Clouds 25 1015 27 10000 3 140 08:20 02.07.2019
5588 Clouds 24 1015 31 10000 3 160 07:47 02.07.2019
5589 Clouds 24 1015 31 10000 3 120 07:20 02.07.2019
5590 Clouds 23 1015 33 10000 2 0 06:40 02.07.2019
5591 Clouds 22 1015 35 10000 2 0 05:55 02.07.2019
5592 Clear 15 1017 67 10000 1 0 02:43 02.07.2019
5593 Clear 10 1016 87 10000 1 0 00:41 02.07.2019
5594 Clear 7 1016 87 10000 1 0 23:40 01.07.2019
5595 Clear 8 1016 87 10000 0.76 165.264 23:19 01.07.2019
5596 Clear 8 1016 87 10000 1 0 22:44 01.07.2019
5597 Clear 8 1016 87 10000 1 0 22:26 01.07.2019
5598 Clear 9 1016 87 10000 1 0 21:45 01.07.2019
5599 Clear 9 1016 87 10000 1 0 21:25 01.07.2019
5600 Clear 9 1016 87 10000 1.41 103.417 20:51 01.07.2019
5601 Clear 10 1016 81 10000 1.41 103.417 20:21 01.07.2019
5602 Clear 13 1015 71 10000 2 0 19:57 01.07.2019
5603 Clear 13 1015 71 10000 2 0 19:38 01.07.2019
5604 Clear 13 1015 71 10000 2 0 19:38 01.07.2019
5605 Clear 13 1015 71 10000 2 0 19:20 01.07.2019
5606 Clear 12 1015 76 10000 1 0 18:50 01.07.2019
5607 Clear 12 1015 76 10000 1 0 18:28 01.07.2019
5608 Clear 12 1015 76 10000 1 0 17:48 01.07.2019
5609 Clear 12 1015 76 10000 1 0 17:28 01.07.2019
5610 Clear 12 1015 76 10000 1 0 16:58 01.07.2019
5611 Clear 12 1014 76 10000 1 0 16:40 01.07.2019
5612 Clear 13 1014 71 10000 2 0 16:22 01.07.2019
5613 Clear 16 1014 59 10000 1 0 15:44 01.07.2019
5614 Clear 16 1014 59 10000 1 0 15:26 01.07.2019
5615 Clouds 19 1013 42 10000 2 360 14:45 01.07.2019
5616 Clouds 19 1013 42 10000 2 360 14:24 01.07.2019
5617 Clouds 20 1013 40 10000 3 360 13:48 01.07.2019
5618 Clouds 20 1013 40 10000 3 360 13:24 01.07.2019
5619 Clouds 20 1013 42 10000 3 50 12:58 01.07.2019
5620 Clouds 20 1013 42 10000 3 50 12:38 01.07.2019
5621 Clouds 21 1013 40 10000 3 50 12:20 01.07.2019
5622 Clouds 20 1013 42 10000 5 80 11:47 01.07.2019
5623 Clouds 20 1013 42 10000 5 80 11:28 01.07.2019
5624 Clouds 19 1013 48 10000 5 60 10:48 01.07.2019
5625 Clouds 19 1013 48 10000 5 60 10:25 01.07.2019
5626 Clouds 21 1013 37 10000 6 60 09:59 01.07.2019
5627 Clouds 21 1013 37 10000 6 60 09:40 01.07.2019
5628 Clouds 20 1013 40 10000 5 290 09:22 01.07.2019
5629 Clouds 21 1013 43 10000 3 260 08:39 01.07.2019
5630 Clouds 21 1013 43 10000 3 260 08:21 01.07.2019
5631 Clouds 20 1013 42 10000 4 270 07:28 01.07.2019
5632 Clouds 18 1014 48 10000 2 0 06:30 01.07.2019
5633 Clouds 14 1014 67 10000 1.47 20.903 02:27 01.07.2019
5634 Clear 9 1014 87 10000 1.49 16.177 00:51 01.07.2019
5635 Clear 9 1014 87 10000 1.49 16.177 00:30 01.07.2019
5636 Clear 7 1014 87 10000 1.62 359.929 23:57 30.06.2019
5637 Clear 6 1013 93 10000 1 0 23:22 30.06.2019
5638 Clear 6 1013 93 10000 1 0 22:53 30.06.2019
5639 Clear 8 1013 87 10000 1.62 359.929 22:22 30.06.2019
5640 Clear 8 1013 87 10000 1.62 359.929 21:44 30.06.2019
5641 Clear 8 1013 87 10000 2.3 1.823 21:26 30.06.2019
5642 Clear 8 1013 87 10000 2.3 1.823 21:26 30.06.2019
5643 Clouds 9 1013 87 10000 1 0 20:58 30.06.2019
5644 Clouds 9 1013 87 10000 1 0 20:39 30.06.2019
5645 Clouds 9 1013 87 10000 1 0 20:21 30.06.2019
5646 Clouds 9 1013 87 10000 1 0 19:46 30.06.2019
5647 Clouds 9 1013 87 10000 1 0 19:25 30.06.2019
5648 Clouds 12 1013 76 10000 3 40 18:41 30.06.2019
5649 Clouds 11 1013 81 10000 1.82 345.91 18:20 30.06.2019
5650 Clouds 11 1013 81 10000 2 0 17:40 30.06.2019
5651 Clouds 12 1013 76 10000 2 0 17:19 30.06.2019
5652 Clouds 13 1013 71 10000 1 0 16:51 30.06.2019
5653 Clouds 13 1013 71 10000 1 0 16:32 30.06.2019
5654 Clouds 14 1013 67 10000 3 130 15:39 30.06.2019
5655 Thunderstorm 15 1012 67 10000 3 160 15:19 30.06.2019
5656 -273 0 0 0 0 0 14:57 30.06.2019
5657 Thunderstorm 15 1012 67 10000 3 160 14:57 30.06.2019
5658 Thunderstorm 15 1012 67 10000 3 160 14:38 30.06.2019
5659 Thunderstorm 16 1011 63 10000 3 110 13:57 30.06.2019
5660 Rain 16 1011 59 10000 5 100 13:38 30.06.2019
5661 Clouds 18 1010 59 10000 4 90 13:19 30.06.2019
5662 Clouds 18 1010 59 10000 4 90 12:45 30.06.2019
5663 Rain 20 1010 49 10000 4 50 12:24 30.06.2019
5664 Clouds 20 1010 37 10000 2 0 11:47 30.06.2019
5665 Clouds 20 1010 37 10000 1 0 11:22 30.06.2019
5666 Clouds 20 1010 37 10000 1 0 10:56 30.06.2019
5667 Clouds 20 1010 37 10000 1 0 10:37 30.06.2019
5668 Clouds 21 1010 35 10000 1 0 10:18 30.06.2019
5669 Clouds 21 1010 35 10000 1 0 10:18 30.06.2019
5670 Clouds 20 1011 40 10000 3 70 09:43 30.06.2019
5671 Clouds 19 1011 42 10000 1 0 09:22 30.06.2019
5672 Clouds 19 1011 42 10000 1 0 08:57 30.06.2019
5673 Clouds 20 1011 40 10000 3 20 08:29 30.06.2019
5674 Clouds 18 1012 42 10000 3 10 07:56 30.06.2019
5675 Clouds 18 1012 45 10000 4 290 07:28 30.06.2019
5676 Clouds 17 1012 51 10000 2 0 06:40 30.06.2019
5677 Clouds 17 1012 59 10000 2 0 05:33 30.06.2019
5678 Rain 12 1013 81 10000 3 300 02:50 30.06.2019
5679 Clouds 12 1013 76 10000 1 0 01:28 30.06.2019
5680 Clouds 10 1013 81 10000 2 180 00:30 30.06.2019
5681 Clouds 8 1012 93 10000 2 160 23:55 29.06.2019
5682 Clouds 7 1012 87 10000 1 0 23:24 29.06.2019
5683 Clouds 8 1012 87 10000 3 180 22:57 29.06.2019
5684 Clouds 7 1012 87 10000 2 170 22:37 29.06.2019
5685 Clouds 7 1012 87 10000 1 0 22:18 29.06.2019
5686 Clouds 7 1012 87 10000 1 0 21:41 29.06.2019
5687 Clouds 8 1012 87 10000 1 0 21:22 29.06.2019
5688 Clouds 9 1012 87 10000 1 0 20:41 29.06.2019
5689 Clouds 11 1012 81 10000 0.92 314.163 20:22 29.06.2019
5690 Clouds 11 1013 81 10000 2 330 19:48 29.06.2019
5691 Clouds 12 1013 76 10000 2 330 19:23 29.06.2019
5692 Clouds 11 1012 81 10000 0.92 314.163 18:51 29.06.2019
5693 Clouds 11 1012 81 10000 1.34 334.046 18:26 29.06.2019
5694 Clouds 13 1012 71 10000 2 0 17:42 29.06.2019
5695 Clouds 14 1012 67 10000 3 360 17:22 29.06.2019
5696 Clouds 14 1012 67 10000 3 360 16:58 29.06.2019
5697 Clouds 15 1012 62 10000 4 360 16:36 29.06.2019
5698 Clouds 15 1012 67 10000 4 330 15:50 29.06.2019
5699 Clouds 15 1012 67 10000 4 330 15:30 29.06.2019
5700 Clouds 17 1012 51 10000 5 350 14:44 29.06.2019
5701 Clouds 17 1012 51 10000 5 350 14:25 29.06.2019
5702 Clouds 18 1011 48 10000 6 340 13:47 29.06.2019
5703 Clouds 18 1011 48 10000 6 340 13:26 29.06.2019
5704 Clouds 18 1011 48 10000 5 330 12:52 29.06.2019
5705 Clouds 18 1011 48 10000 5 330 12:34 29.06.2019
5706 Clouds 18 1011 48 10000 6 320 11:54 29.06.2019
5707 Clouds 18 1011 48 10000 5 320 11:34 29.06.2019
5708 Clouds 19 1011 39 10000 5 310 10:57 29.06.2019
5709 Clouds 19 1011 39 10000 5 310 10:38 29.06.2019
5710 Clouds 18 1011 45 10000 4 310 10:20 29.06.2019
5711 Clouds 18 1011 45 10000 5 320 09:44 29.06.2019
5712 Clouds 17 1012 51 10000 3 30 08:50 29.06.2019
5713 Clouds 19 1011 48 10000 7 320 07:59 29.06.2019
5714 Clouds 18 1011 52 10000 9 320 07:36 29.06.2019
5715 Clouds 19 1012 45 10000 3 320 06:45 29.06.2019
5716 Clouds 18 1012 48 10000 4 330 06:23 29.06.2019
5717 Clouds 14 1012 71 10000 5 330 02:51 29.06.2019
5718 Clouds 12 1012 81 10000 1 0 01:21 29.06.2019
5719 Clouds 11 1012 87 10000 2.73 350.386 00:29 29.06.2019
5720 Clouds 9 1011 93 10000 1 0 23:36 28.06.2019
5721 Clouds 9 1011 93 10000 2.02 345.056 23:18 28.06.2019
5722 Clouds 9 1011 87 10000 1 0 22:44 28.06.2019
5723 Clouds 9 1011 87 10000 1 0 21:53 28.06.2019
5724 Clouds 11 1011 81 10000 3 20 21:26 28.06.2019
5725 Clouds 9 1010 87 10000 1 0 20:49 28.06.2019
5726 Clouds 9 1010 87 10000 1 0 20:29 28.06.2019
5727 Clouds 10 1010 87 10000 1 0 19:57 28.06.2019
5728 Clouds 10 1010 87 10000 1 0 19:37 28.06.2019
5729 Clouds 11 1010 81 10000 1 0 19:18 28.06.2019
5730 Clouds 12 1010 81 10000 2 0 18:40 28.06.2019
5731 Clouds 12 1010 81 10000 4 320 18:20 28.06.2019
5732 Clouds 12 1010 81 10000 4 320 18:20 28.06.2019
5733 Clouds 12 1010 81 10000 3 330 17:34 28.06.2019
5734 Clouds 13 1010 76 10000 3 340 16:55 28.06.2019
5735 Clouds 13 1009 71 10000 5 360 16:29 28.06.2019
5736 Clouds 14 1009 67 10000 4 30 15:49 28.06.2019
5737 Clouds 14 1009 67 10000 4 30 15:29 28.06.2019
5738 Clouds 15 1008 62 10000 3 20 14:59 28.06.2019
5739 Clouds 15 1008 62 10000 5 20 14:39 28.06.2019
5740 Clouds 15 1008 62 10000 5 350 14:20 28.06.2019
5741 Clouds 15 1007 62 10000 8 340 13:45 28.06.2019
5742 Clouds 17 1006 55 10000 7 350 13:22 28.06.2019
5743 Clouds 17 1006 55 10000 7 350 12:50 28.06.2019
5744 Clouds 17 1006 55 10000 7 350 12:25 28.06.2019
5745 Clouds 17 1005 55 10000 8 350 11:29 28.06.2019
5746 Clouds 17 1005 51 10000 7 330 10:47 28.06.2019
5747 Clouds 16 1005 59 10000 9 340 10:23 28.06.2019
5748 Clouds 16 1005 59 10000 9 340 09:59 28.06.2019
5749 Clouds 15 1005 62 10000 8 350 09:41 28.06.2019
5750 Clouds 15 1004 62 10000 8 340 09:22 28.06.2019
5751 Clouds 15 1004 58 10000 9 340 08:41 28.06.2019
5752 Clouds 15 1004 62 10000 8 340 08:23 28.06.2019
5753 Clouds 14 1003 62 10000 9 340 07:41 28.06.2019
5754 Clouds 15 1002 58 10000 10 340 06:40 28.06.2019
5755 Clouds 11 1001 71 10000 5 360 02:56 28.06.2019
5756 Clouds 9 1001 87 10000 3 330 00:45 28.06.2019
5757 Clouds 9 1001 81 10000 2 0 23:58 27.06.2019
5758 Clouds 9 1001 81 10000 3 350 23:40 27.06.2019
5759 Clouds 9 1001 87 10000 3 320 23:21 27.06.2019
5760 Clouds 9 1001 87 10000 3 310 22:42 27.06.2019
5761 Clouds 9 1001 87 10000 3 310 22:24 27.06.2019
5762 Clouds 8 1001 87 10000 3 300 21:56 27.06.2019
5763 Clouds 8 1001 87 10000 3 300 21:37 27.06.2019
5764 Clouds 8 1001 93 10000 2 280 21:19 27.06.2019
5765 Clouds 8 1001 93 10000 2 280 20:45 27.06.2019
5766 Clouds 8 1001 93 10000 2 280 20:45 27.06.2019
5767 Clouds 8 1001 93 10000 2 280 20:26 27.06.2019
5768 Clouds 8 1001 93 10000 2 280 20:26 27.06.2019
5769 Rain 8 1001 93 10000 2 270 19:46 27.06.2019
5770 Rain 8 1001 93 10000 2 270 19:27 27.06.2019
5771 Rain 8 1001 93 10000 2 280 18:44 27.06.2019
5772 Rain 8 1001 93 10000 2 280 18:26 27.06.2019
5773 Rain 8 1001 87 10000 1 0 17:47 27.06.2019
5774 Rain 8 1001 87 10000 3 330 17:23 27.06.2019
5775 Rain 9 1001 81 10000 5 360 16:55 27.06.2019
5776 Rain 9 1001 81 10000 5 360 16:36 27.06.2019
5777 Rain 9 1001 81 10000 5 360 16:18 27.06.2019
5778 Thunderstorm 9 1001 93 8000 3 340 15:44 27.06.2019
5779 Rain 9 1001 87 8000 1 0 15:18 27.06.2019
5780 Rain 10 1001 76 10000 1 0 14:42 27.06.2019
5781 Rain 10 1001 76 10000 1 0 14:24 27.06.2019
5782 Clouds 11 1001 71 10000 5 340 13:46 27.06.2019
5783 Clouds 11 1001 71 10000 5 340 13:27 27.06.2019
5784 Rain 11 1001 76 10000 7 340 12:52 27.06.2019
5785 Rain 11 1001 76 10000 7 340 12:33 27.06.2019
5786 Clouds 11 1001 71 10000 6 340 11:56 27.06.2019
5787 Rain 12 1001 66 10000 6 350 11:38 27.06.2019
5788 Clouds 12 1001 66 10000 5 340 11:20 27.06.2019
5789 Clouds 13 1000 58 10000 8 330 10:42 27.06.2019
5790 Clouds 13 1000 58 10000 8 330 10:20 27.06.2019
5791 Clouds 13 1000 62 10000 8 320 09:50 27.06.2019
5792 Clouds 13 1000 62 10000 8 340 09:21 27.06.2019
5793 Clouds 13 1001 66 10000 7 340 08:52 27.06.2019
5794 Clouds 13 1001 66 10000 7 340 08:30 27.06.2019
5795 Rain 12 1001 71 10000 6 340 07:49 27.06.2019
5796 Rain 12 1001 71 10000 6 340 07:49 27.06.2019
5797 Rain 12 1001 71 10000 6 340 07:25 27.06.2019
5798 Clouds 11 1002 81 10000 5 310 06:39 27.06.2019
5799 Clouds 12 1002 71 10000 4 320 03:53 27.06.2019
5800 Clouds 13 1003 62 10000 4 30 02:43 27.06.2019
5801 Clouds 12 1003 71 10000 4 10 01:48 27.06.2019
5802 Clouds 10 1003 81 10000 4 330 00:56 27.06.2019
5803 Clouds 10 1003 81 10000 4 330 00:36 27.06.2019
5804 Rain 11 1004 81 10000 2 330 00:18 27.06.2019
5805 Rain 11 1004 81 10000 2 330 23:24 26.06.2019
5806 Rain 11 1004 81 10000 2 310 22:59 26.06.2019
5807 Rain 11 1004 81 10000 2 310 22:41 26.06.2019
5808 Clouds 11 1004 76 10000 2 0 22:20 26.06.2019
5809 Clouds 11 1004 76 10000 2 0 21:55 26.06.2019
5810 Clouds 12 1004 62 10000 3 20 21:37 26.06.2019
5811 Rain 13 1004 54 10000 5 30 21:18 26.06.2019
5812 Rain 13 1004 54 10000 5 30 20:40 26.06.2019
5813 Rain 13 1004 54 10000 5 30 20:40 26.06.2019
5814 Clouds 14 1006 47 10000 3 40 20:22 26.06.2019
5815 Clouds 13 1006 47 10000 4 350 19:44 26.06.2019
5816 Clouds 13 1006 47 10000 4 350 19:25 26.06.2019
5817 Clouds 13 1006 50 10000 3 310 18:48 26.06.2019
5818 Clouds 14 1005 44 10000 2 0 18:24 26.06.2019
5819 Clouds 14 1005 44 10000 2 0 17:59 26.06.2019
5820 Clouds 14 1006 44 10000 3 30 17:38 26.06.2019
5821 Clouds 14 1006 44 10000 4 360 17:19 26.06.2019
5822 Clouds 15 1006 38 10000 6 330 16:50 26.06.2019
5823 Clouds 15 1006 38 10000 6 330 16:26 26.06.2019
5824 Clouds 16 1006 86 10000 4 340 15:48 26.06.2019
5825 Clouds 16 1006 42 10000 4 340 15:26 26.06.2019
5826 Clouds 16 1006 36 10000 9 310 14:38 26.06.2019
5827 Clouds 18 1005 27 10000 8 310 14:20 26.06.2019
5828 Clouds 19 1005 24 10000 5 280 13:45 26.06.2019
5829 Clouds 20 1005 20 10000 7 290 13:21 26.06.2019
5830 Clouds 20 1005 20 10000 7 290 12:43 26.06.2019
5831 Clouds 20 1005 20 10000 7 290 12:25 26.06.2019
5832 Clouds 21 1005 18 10000 5 300 11:54 26.06.2019
5833 Clouds 21 1005 18 10000 5 300 11:23 26.06.2019
5834 Clouds 23 1004 15 10000 6 280 10:48 26.06.2019
5835 Clouds 23 1004 15 10000 6 280 10:29 26.06.2019
5836 Clouds 22 1005 17 10000 6 260 09:51 26.06.2019
5837 Clouds 22 1005 17 10000 6 260 09:26 26.06.2019
5838 Clouds 22 1005 21 10000 4 260 08:49 26.06.2019
5839 Clouds 22 1005 26 10000 4 230 08:20 26.06.2019
5840 Clouds 21 1006 22 10000 5 250 07:52 26.06.2019
5841 Clouds 21 1006 22 10000 5 250 07:34 26.06.2019
5842 Clouds 21 1006 26 10000 5 250 06:32 26.06.2019
5843 Clouds 15 1007 47 10000 1 0 01:31 26.06.2019
5844 Clouds 11 1007 71 10000 1.62 269.894 00:25 26.06.2019
5845 Clouds 7 1007 81 10000 1 0 23:48 25.06.2019
5846 Clouds 7 1007 81 10000 1 0 23:29 25.06.2019
5847 Clouds 8 1006 75 10000 1 0 22:59 25.06.2019
5848 Clouds 10 1006 71 10000 1 0 22:40 25.06.2019
5849 Clouds 10 1006 71 10000 1 0 22:21 25.06.2019
5850 Clouds 11 1007 66 10000 2 0 21:45 25.06.2019
5851 Clouds 11 1007 66 10000 2 0 21:24 25.06.2019
5852 Clouds 10 1007 71 10000 1 0 20:47 25.06.2019
5853 Clouds 10 1007 71 10000 1 0 20:47 25.06.2019
5854 Clouds 10 1007 71 10000 1 0 20:47 25.06.2019
5855 Clouds 10 1007 71 10000 1 0 20:47 25.06.2019
5856 Clouds 13 1007 58 10000 1 0 20:23 25.06.2019
5857 Clouds 13 1007 58 10000 1 0 19:54 25.06.2019
5858 Clouds 13 1007 58 10000 1 0 19:36 25.06.2019
5859 Clouds 12 1007 58 10000 1 0 19:18 25.06.2019
5860 Clouds 12 1007 58 10000 1 0 19:18 25.06.2019
5861 Clouds 15 1007 47 10000 2 0 18:40 25.06.2019
5862 Clouds 13 1006 58 10000 2 0 18:21 25.06.2019
5863 -273 0 0 0 0 0 17:38 25.06.2019
5864 Clouds 12 1006 58 10000 3.07 292.089 17:20 25.06.2019
5865 Clouds 12 1006 58 10000 3.07 292.089 17:20 25.06.2019
5866 -273 0 0 0 0 0 17:20 25.06.2019
5867 Clouds 12 1006 58 10000 3.07 292.089 17:20 25.06.2019
5868 Clouds 12 1005 50 10000 2 0 16:42 25.06.2019
5869 Clouds 12 1005 50 10000 2 0 16:24 25.06.2019
5870 Clear 18 1005 52 10000 4 290 15:43 25.06.2019
5871 Clear 18 1005 50 10000 4 290 15:24 25.06.2019
5872 Clear 18 1005 50 10000 4 290 14:55 25.06.2019
5873 Clear 21 1004 50 10000 5 280 14:36 25.06.2019
5874 Clouds 23 1004 16 10000 6 280 13:50 25.06.2019
5875 Clouds 23 1004 16 10000 6 280 13:30 25.06.2019
5876 Clouds 24 1004 23 10000 6 280 12:58 25.06.2019
5877 Clouds 24 1004 23 10000 6 280 12:38 25.06.2019
5878 Clouds 25 1004 22 10000 7 280 12:20 25.06.2019
5879 Clouds 25 1004 22 10000 8 270 11:44 25.06.2019
5880 Clouds 23 1003 28 10000 6 270 11:21 25.06.2019
5881 Clouds 24 1004 27 10000 6 260 10:46 25.06.2019
5882 Clouds 24 1004 25 10000 6 270 10:24 25.06.2019
5883 Clouds 24 1004 25 10000 6 270 09:56 25.06.2019
5884 Clouds 24 1004 25 10000 6 270 09:38 25.06.2019
5885 Clouds 23 1004 33 10000 5 260 09:19 25.06.2019
5886 Clouds 23 1004 38 10000 4 270 08:48 25.06.2019
5887 Clouds 23 1004 38 10000 4 270 08:28 25.06.2019
5888 Clouds 20 1004 68 10000 3 250 07:42 25.06.2019
5889 Clouds 18 1004 77 10000 4 220 06:59 25.06.2019
5890 Clouds 17 1004 88 10000 3 230 06:40 25.06.2019
5891 Rain 17 1005 88 10000 4 230 04:24 25.06.2019
5892 Clouds 18 1004 77 10000 2 0 02:23 25.06.2019
5893 Clouds 18 1004 77 10000 1 0 00:38 25.06.2019
5894 Clouds 17 1004 77 10000 1.71 253.461 00:18 25.06.2019
5895 Clouds 17 1004 77 10000 1 0 23:42 24.06.2019
5896 Clouds 17 1004 77 10000 1 0 23:23 24.06.2019
5897 Clouds 17 1004 77 10000 2 0 22:44 24.06.2019
5898 Rain 17 1004 77 10000 3 300 22:19 24.06.2019
5899 Clouds 18 1004 72 10000 5 40 21:42 24.06.2019
5900 Clouds 18 1005 77 10000 6 80 21:19 24.06.2019
5901 Clouds 18 1005 77 10000 6 80 20:58 24.06.2019
5902 Clouds 18 1005 77 10000 6 80 20:40 24.06.2019
5903 Clouds 18 1005 77 10000 6 80 20:21 24.06.2019
5904 Clouds 17 1006 82 10000 4 70 19:46 24.06.2019
5905 Clouds 17 1006 82 10000 4 70 19:21 24.06.2019
5906 Rain 18 1007 82 10000 2 0 18:48 24.06.2019
5907 Rain 18 1007 82 10000 2 0 18:29 24.06.2019
5908 Rain 18 1007 82 10000 2 0 17:57 24.06.2019
5909 Rain 17 1007 82 10000 9 240 17:36 24.06.2019
5910 Clouds 20 1006 64 10000 4 180 16:55 24.06.2019
5911 Clouds 20 1006 64 10000 1 0 16:36 24.06.2019
5912 Clouds 21 1006 56 10000 2 0 16:18 24.06.2019
5913 Rain 21 1006 56 10000 8 310 15:38 24.06.2019
5914 Rain 26 1006 29 10000 2 0 15:19 24.06.2019
5915 Clouds 25 1005 36 10000 3 120 14:34 24.06.2019
5916 Clouds 28 1005 24 10000 3 70 13:51 24.06.2019
5917 Clouds 28 1005 24 10000 3 70 13:31 24.06.2019
5918 Clouds 29 1005 23 10000 4 140 12:45 24.06.2019
5919 Clouds 29 1005 23 10000 4 140 12:22 24.06.2019
5920 Clouds 29 1005 23 10000 4 140 11:58 24.06.2019
5921 Clouds 29 1006 23 10000 2 0 11:40 24.06.2019
5922 Clouds 30 1006 20 10000 3 70 11:20 24.06.2019
5923 Clouds 30 1006 20 10000 3 70 10:46 24.06.2019
5924 Clouds 30 1006 20 10000 3 70 10:25 24.06.2019
5925 Clouds 29 1006 20 10000 3 330 09:49 24.06.2019
5926 Clouds 28 1007 23 10000 3 320 09:22 24.06.2019
5927 Clouds 28 1007 23 10000 2 0 08:51 24.06.2019
5928 Clouds 28 1007 23 10000 2 0 08:25 24.06.2019
5929 Clouds 28 1007 23 10000 2 0 08:25 24.06.2019
5930 Clouds 28 1008 24 10000 3 50 07:44 24.06.2019
5931 Clouds 28 1008 28 10000 2 0 07:25 24.06.2019
5932 Clouds 28 1008 28 10000 2 0 06:39 24.06.2019
5933 Clouds 27 1009 30 10000 2 0 06:19 24.06.2019
5934 Clouds 28 1009 30 10000 2 0 04:59 24.06.2019
5935 Clouds 23 1010 40 10000 2 0 04:23 24.06.2019
5936 Clouds 22 1010 46 10000 2 0 02:55 24.06.2019
5937 Clouds 18 1010 59 10000 3 60 01:59 24.06.2019
5938 Clouds 18 1010 59 10000 3 60 01:41 24.06.2019
5939 Clouds 14 1010 76 10000 1 0 01:21 24.06.2019
5940 Clouds 14 1010 76 10000 1 0 00:39 24.06.2019
5941 Clouds 13 1010 82 10000 1 0 00:18 24.06.2019
5942 Clouds 11 1010 87 10000 2 150 23:43 23.06.2019
5943 Clear 14 1010 71 10000 1.71 22.391 23:21 23.06.2019
5944 Clear 15 1010 72 10000 1.71 22.391 22:42 23.06.2019
5945 Clear 15 1010 72 10000 1.71 22.391 22:20 23.06.2019
5946 Clear 13 1010 76 10000 1 0 21:44 23.06.2019
5947 Clear 13 1010 76 10000 1 0 21:25 23.06.2019
5948 Clear 14 1010 71 10000 1 0 20:58 23.06.2019
5949 Clear 13 1010 82 10000 1 0 20:38 23.06.2019
5950 Clear 14 1010 76 10000 2 140 20:20 23.06.2019
5951 Clouds 14 1010 76 10000 1 0 19:43 23.06.2019
5952 Clouds 15 1010 72 10000 1 0 19:20 23.06.2019
5953 Clouds 14 1010 76 10000 1 0 18:48 23.06.2019
5954 Clouds 15 1010 72 10000 2 130 18:20 23.06.2019
5955 Clouds 16 1010 67 10000 2 0 17:46 23.06.2019
5956 Clouds 16 1010 67 10000 2 0 17:25 23.06.2019
5957 Clouds 18 1010 63 10000 2 170 16:47 23.06.2019
5958 -273 0 0 0 0 0 16:27 23.06.2019
5959 Clouds 18 1010 59 10000 2 0 15:59 23.06.2019
5960 Clouds 18 1010 59 10000 2 0 15:40 23.06.2019
5961 Clouds 21 1009 49 10000 2 170 15:19 23.06.2019
5962 Clouds 22 1009 49 10000 2 150 14:39 23.06.2019
5963 Clouds 24 1009 36 10000 4 130 14:21 23.06.2019
5964 Clouds 24 1009 36 10000 4 130 13:54 23.06.2019
5965 Clouds 24 1009 36 10000 4 130 13:36 23.06.2019
5966 Clouds 26 1010 31 10000 6 130 13:18 23.06.2019
5967 Clouds 26 1010 31 10000 6 130 12:42 23.06.2019
5968 Thunderstorm 24 1010 41 10000 6 130 12:20 23.06.2019
5969 Thunderstorm 23 1009 40 10000 6 140 11:49 23.06.2019
5970 Thunderstorm 23 1009 40 10000 6 140 11:28 23.06.2019
5971 Thunderstorm 23 1009 40 10000 6 140 11:28 23.06.2019
5972 Clouds 29 1009 21 10000 5 300 10:51 23.06.2019
5973 Clouds 29 1009 21 10000 5 300 10:22 23.06.2019
5974 Clouds 29 1009 21 10000 5 300 09:58 23.06.2019
5975 Clouds 31 1009 20 10000 3 250 09:25 23.06.2019
5976 Clouds 30 1009 20 10000 5 270 08:55 23.06.2019
5977 Clouds 30 1009 20 10000 5 270 08:36 23.06.2019
5978 Clouds 30 1010 19 10000 6 250 08:18 23.06.2019
5979 Clouds 30 1010 22 10000 5 210 07:45 23.06.2019
5980 Clouds 29 1010 20 10000 7 240 07:19 23.06.2019
5981 Clouds 29 1011 20 10000 7 230 06:52 23.06.2019
5982 Clouds 28 1011 24 10000 6 230 05:53 23.06.2019
5983 Clouds 22 1011 33 10000 1 0 02:52 23.06.2019
5984 Clouds 18 1011 45 10000 1 0 01:42 23.06.2019
5985 Clouds 18 1011 45 10000 1 0 01:24 23.06.2019
5986 Clouds 14 1011 58 10000 4.63 199.921 00:32 23.06.2019
5987 Clouds 13 1011 58 10000 1 0 23:49 22.06.2019
5988 Clouds 13 1011 58 10000 1 0 23:26 22.06.2019
5989 Clouds 13 1011 62 10000 2.46 145.489 22:47 22.06.2019
5990 Clouds 13 1011 62 10000 2.46 145.489 22:29 22.06.2019
5991 Clouds 13 1011 62 10000 2.46 145.489 21:59 22.06.2019
5992 Clear 14 1011 58 10000 1 0 21:36 22.06.2019
5993 Clear 14 1011 58 10000 1 0 21:36 22.06.2019
5994 Clear 14 1011 58 10000 1 0 21:18 22.06.2019
5995 Clear 17 1011 51 10000 1 0 20:45 22.06.2019
5996 Clear 17 1011 51 10000 1 0 20:24 22.06.2019
5997 Clouds 19 1011 45 10000 1 0 19:42 22.06.2019
5998 Clouds 19 1011 45 10000 1 0 19:21 22.06.2019
5999 Clouds 20 1011 37 10000 2 0 18:43 22.06.2019
6000 Clouds 20 1011 37 10000 2 0 18:23 22.06.2019
6001 Clouds 21 1011 32 10000 1 0 17:46 22.06.2019
6002 Clouds 21 1011 32 10000 1 0 17:26 22.06.2019
6003 Clouds 22 1011 28 10000 0.95 84.108 16:46 22.06.2019
6004 Clouds 22 1011 28 10000 0.95 84.108 16:24 22.06.2019
6005 Clouds 23 1011 27 10000 2 0 15:46 22.06.2019
6006 Clouds 23 1011 27 10000 2 0 15:27 22.06.2019
6007 Clouds 25 1011 29 10000 3 130 14:52 22.06.2019
6008 Clouds 25 1011 29 10000 3 130 14:32 22.06.2019
6009 Clouds 28 1011 26 10000 2 0 13:58 22.06.2019
6010 Clouds 28 1011 26 10000 2 0 13:39 22.06.2019
6011 Clouds 30 1011 13 10000 3 210 13:19 22.06.2019
6012 Clouds 30 1011 13 10000 3 210 12:43 22.06.2019
6013 Clouds 30 1011 15 10000 2 0 12:20 22.06.2019
6014 Clouds 30 1012 18 10000 2 170 11:41 22.06.2019
6015 Clouds 31 1012 18 10000 4 170 11:19 22.06.2019
6016 Clouds 31 1012 18 10000 4 180 10:23 22.06.2019
6017 Clouds 31 1012 18 10000 4 180 09:58 22.06.2019
6018 Clouds 32 1012 11 10000 1 0 09:36 22.06.2019
6019 Clouds 32 1013 18 10000 2 0 08:50 22.06.2019
6020 Clouds 32 1013 19 10000 2 0 08:31 22.06.2019
6021 Clouds 30 1014 12 10000 2 0 07:52 22.06.2019
6022 Clouds 30 1014 12 10000 2 0 07:24 22.06.2019
6023 Clouds 30 1014 13 10000 3 230 06:41 22.06.2019
6024 Clouds 29 1015 16 10000 3 190 04:37 22.06.2019
6025 Clouds 24 1016 25 10000 2 0 02:26 22.06.2019
6026 Clouds 17 1016 48 10000 2 270 00:54 22.06.2019
6027 Clouds 16 1016 48 10000 1 0 00:31 22.06.2019
6028 Clouds 14 1016 54 10000 1 0 23:50 21.06.2019
6029 Clouds 14 1016 54 10000 1 0 23:24 21.06.2019
6030 Clear 17 1015 42 10000 1 0 22:57 21.06.2019
6031 Clear 17 1015 42 10000 1 0 22:39 21.06.2019
6032 Clear 20 1015 32 10000 1 0 22:19 21.06.2019
6033 Clear 20 1015 32 10000 1 0 21:39 21.06.2019
6034 Clear 20 1015 32 10000 1 0 21:20 21.06.2019
6035 Clear 18 1015 39 10000 1 0 20:48 21.06.2019
6036 Clear 18 1015 39 10000 1 0 20:26 21.06.2019
6037 Clear 19 1015 34 10000 1 0 19:48 21.06.2019
6038 Clear 19 1015 34 10000 1 0 19:22 21.06.2019
6039 Clear 20 1015 32 10000 1 0 18:41 21.06.2019
6040 Clear 21 1015 32 10000 1 0 18:22 21.06.2019
6041 Clear 23 1014 27 10000 1.72 142.503 17:31 21.06.2019
6042 Clouds 22 1014 24 10000 3 130 16:56 21.06.2019
6043 Clouds 22 1014 24 10000 3 130 16:36 21.06.2019
6044 Clouds 24 1014 36 10000 2 0 16:18 21.06.2019
6045 Clouds 22 1014 30 10000 3 140 15:37 21.06.2019
6046 Clouds 24 1014 31 10000 2 130 14:57 21.06.2019
6047 Clouds 24 1014 31 10000 2 130 14:39 21.06.2019
6048 Clouds 29 1014 17 10000 3 130 14:20 21.06.2019
6049 Clouds 31 1014 12 10000 5 120 13:39 21.06.2019
6050 Clouds 31 1014 32 10000 4 120 13:21 21.06.2019
6051 Clouds 31 1014 12 10000 4 100 12:50 21.06.2019
6052 Clouds 31 1014 12 10000 4 100 12:23 21.06.2019
6053 Clouds 31 1014 12 10000 4 100 11:55 21.06.2019
6054 Clouds 31 1014 19 10000 5 140 11:37 21.06.2019
6055 Clouds 31 1014 19 10000 4 120 11:19 21.06.2019
6056 Clouds 31 1015 12 10000 3 140 10:42 21.06.2019
6057 Clouds 31 1015 12 10000 3 140 10:20 21.06.2019
6058 Clouds 31 1015 12 10000 3 140 10:20 21.06.2019
6059 Clouds 31 1015 19 10000 4 150 09:43 21.06.2019
6060 Clouds 31 1015 14 10000 4 120 09:23 21.06.2019
6061 Clouds 31 1015 14 10000 4 120 08:56 21.06.2019
6062 Clouds 31 1015 19 10000 3 210 08:37 21.06.2019
6063 Clouds 31 1015 12 10000 3 160 08:18 21.06.2019
6064 Clouds 31 1016 19 10000 4 180 07:42 21.06.2019
6065 Clouds 31 1016 12 10000 4 110 07:19 21.06.2019
6066 Clouds 30 1016 19 10000 3 150 06:28 21.06.2019
6067 Clouds 29 1016 18 10000 5 130 05:35 21.06.2019
6068 Clouds 28 1017 21 10000 5 120 04:40 21.06.2019
6069 Clear 25 1017 29 10000 2 0 03:41 21.06.2019
6070 Clear 25 1017 33 10000 1.85 134.627 03:23 21.06.2019
6071 Clouds 18 1017 52 10000 1 0 02:21 21.06.2019
6072 Clouds 18 1017 52 10000 1 0 01:27 21.06.2019
6073 Clear 16 1017 59 10000 1 0 00:29 21.06.2019
6074 Clear 11 1016 71 10000 1 0 23:55 20.06.2019
6075 Clear 11 1016 71 10000 1 0 23:37 20.06.2019
6076 Clear 11 1016 71 10000 1 0 23:37 20.06.2019
6077 Clear 12 1016 66 10000 1 0 23:18 20.06.2019
6078 Clear 11 1016 71 10000 1 0 22:41 20.06.2019
6079 Clear 12 1016 71 10000 1 0 22:22 20.06.2019
6080 Clear 12 1016 71 10000 1 0 21:54 20.06.2019
6081 Clear 12 1016 71 10000 1 0 21:36 20.06.2019
6082 Clear 14 1016 62 10000 2 0 21:18 20.06.2019
6083 Clear 14 1016 62 10000 2 0 20:41 20.06.2019
6084 Clear 14 1016 62 10000 2 0 20:21 20.06.2019
6085 Clear 16 1016 51 10000 1.28 112.1 19:43 20.06.2019
6086 Clear 16 1016 51 10000 1.28 112.1 19:19 20.06.2019
6087 Clear 16 1016 51 10000 1.28 112.1 18:56 20.06.2019
6088 Clear 19 1016 34 10000 1.28 112.1 18:38 20.06.2019
6089 Clear 16 1015 51 10000 2 180 18:20 20.06.2019
6090 Clear 16 1015 51 10000 2 180 17:45 20.06.2019
6091 Clear 21 1015 30 10000 2 0 17:22 20.06.2019
6092 Clear 21 1015 30 10000 1 0 16:41 20.06.2019
6093 Clear 20 1015 37 10000 3 160 16:19 20.06.2019
6094 Clouds 20 1015 37 0 4 150 15:43 20.06.2019
6095 Clouds 21 1014 37 10000 3 150 15:23 20.06.2019
6096 Clouds 25 1014 31 10000 3 210 14:57 20.06.2019
6097 Clouds 25 1014 31 10000 3 210 14:38 20.06.2019
6098 Clouds 28 1014 21 10000 2 230 14:19 20.06.2019
6099 Clouds 29 1014 16 10000 3 220 13:39 20.06.2019
6100 Clouds 29 1013 17 10000 2 0 13:18 20.06.2019
6101 Clouds 29 1013 17 10000 2 0 12:42 20.06.2019
6102 Clouds 30 1013 16 10000 3 230 12:21 20.06.2019
6103 Clouds 30 1013 16 10000 2 0 11:43 20.06.2019
6104 Clouds 30 1013 16 10000 2 0 11:23 20.06.2019
6105 Clouds 30 1013 17 10000 2 0 10:45 20.06.2019
6106 Clouds 30 1013 17 10000 2 0 10:24 20.06.2019
6107 Clouds 29 1013 17 10000 2 0 09:57 20.06.2019
6108 Clouds 30 1013 16 10000 2 0 09:38 20.06.2019
6109 Clouds 29 1014 17 10000 3 200 09:20 20.06.2019
6110 Clouds 29 1014 17 10000 3 200 08:44 20.06.2019
6111 Clouds 28 1015 20 10000 3 190 08:25 20.06.2019
6112 Clouds 28 1015 20 10000 3 190 07:50 20.06.2019
6113 Clear 28 1015 23 10000 2 0 07:26 20.06.2019
6114 Clouds 26 1015 26 10000 2 0 06:22 20.06.2019
6115 Clouds 23 1016 35 10000 1 0 03:55 20.06.2019
6116 Clouds 19 1016 45 10000 1 0 02:29 20.06.2019
6117 Clear 12 1016 81 10000 2 130 00:33 20.06.2019
6118 Clear 10 1015 81 10000 1 0 23:49 19.06.2019
6119 Clear 10 1015 81 10000 1 0 23:30 19.06.2019
6120 Clear 11 1014 76 10000 1 0 22:49 19.06.2019
6121 Clear 11 1014 76 10000 1 0 22:49 19.06.2019
6122 Clear 11 1014 76 10000 1 0 22:25 19.06.2019
6123 Clear 11 1014 76 10000 2 120 21:58 19.06.2019
6124 Clear 10 1015 81 10000 1 0 21:39 19.06.2019
6125 Clouds 10 1015 81 10000 1.37 17.574 21:21 19.06.2019
6126 Clouds 11 1014 76 10000 2 140 20:42 19.06.2019
6127 Clouds 13 1014 66 10000 1 0 20:21 19.06.2019
6128 Clouds 12 1014 71 10000 1 0 19:46 19.06.2019
6129 Clouds 12 1014 71 10000 1 0 19:28 19.06.2019
6130 Clouds 13 1014 71 10000 1 0 18:57 19.06.2019
6131 Clouds 13 1014 66 10000 1 0 18:26 19.06.2019
6132 Clouds 14 1014 62 10000 2 140 17:53 19.06.2019
6133 Clouds 14 1014 62 10000 2 140 17:27 19.06.2019
6134 Clouds 14 1014 67 10000 3 170 16:56 19.06.2019
6135 Clouds 15 1014 62 10000 2 0 16:38 19.06.2019
6136 Clouds 17 1014 59 10000 2 170 16:19 19.06.2019
6137 Clouds 20 1014 40 10000 2 300 15:46 19.06.2019
6138 Clouds 20 1014 40 10000 2 300 15:24 19.06.2019
6139 Clouds 20 1014 40 10000 2 300 15:24 19.06.2019
6140 Clouds 23 1013 28 10000 3 340 14:48 19.06.2019
6141 Clouds 23 1013 28 10000 3 340 14:29 19.06.2019
6142 Clouds 26 1012 21 10000 5 340 13:55 19.06.2019
6143 Clouds 26 1012 21 10000 5 340 13:37 19.06.2019
6144 Clouds 27 1012 21 10000 5 330 13:19 19.06.2019
6145 Clouds 27 1012 21 10000 5 330 12:42 19.06.2019
6146 Clouds 27 1012 22 10000 5 320 12:20 19.06.2019
6147 Clouds 27 1012 24 10000 5 320 11:43 19.06.2019
6148 Clouds 27 1012 24 10000 5 320 11:43 19.06.2019
6149 Clouds 27 1013 21 10000 5 320 11:23 19.06.2019
6150 Clouds 27 1013 18 10000 6 320 10:51 19.06.2019
6151 Clouds 27 1013 18 10000 6 320 10:30 19.06.2019
6152 Clouds 27 1013 19 10000 5 330 09:58 19.06.2019
6153 Clouds 27 1013 19 10000 4 350 09:38 19.06.2019
6154 Clouds 27 1013 24 10000 4 360 09:19 19.06.2019
6155 Clouds 27 1013 24 10000 3 10 08:44 19.06.2019
6156 Clouds 27 1013 24 10000 3 10 08:25 19.06.2019
6157 Clouds 26 1014 26 10000 4 340 07:44 19.06.2019
6158 Clouds 26 1014 26 10000 5 330 07:23 19.06.2019
6159 Clouds 26 1015 22 10000 4 350 06:42 19.06.2019
6160 Clouds 25 1015 33 10000 2 340 06:20 19.06.2019
6161 Clouds 23 1016 43 10000 2 0 05:41 19.06.2019
6162 Clouds 21 1016 49 10000 1 0 03:58 19.06.2019
6163 Clouds 18 1016 55 10000 2 0 02:59 19.06.2019
6164 Clouds 15 1016 67 10000 1 0 01:47 19.06.2019
6165 Clouds 12 1016 81 10000 1.62 13.521 00:56 19.06.2019
6166 Clouds 12 1016 81 10000 1.62 13.521 00:38 19.06.2019
6167 Clouds 11 1015 81 10000 1.81 27.385 00:19 19.06.2019
6168 Clouds 11 1015 81 10000 1.81 27.385 23:43 18.06.2019
6169 Clouds 11 1015 81 10000 1.81 27.385 23:25 18.06.2019
6170 Clear 11 1015 87 10000 1.81 27.385 22:42 18.06.2019
6171 Clear 11 1015 87 10000 1.81 27.385 22:23 18.06.2019
6172 Clear 11 1015 87 10000 1.81 27.385 21:55 18.06.2019
6173 Clear 10 1015 87 10000 1 0 21:37 18.06.2019
6174 Clear 10 1015 87 10000 1 0 21:37 18.06.2019
6175 Clear 11 1015 81 10000 2 0 21:18 18.06.2019
6176 Clear 11 1015 87 10000 1 0 20:41 18.06.2019
6177 Clouds 12 1015 81 10000 2 0 20:22 18.06.2019
6178 Clouds 12 1015 81 10000 2 0 19:41 18.06.2019
6179 Clouds 14 1015 76 10000 2 18.399 19:22 18.06.2019
6180 Clouds 14 1015 76 10000 2 18.399 18:55 18.06.2019
6181 Clouds 14 1015 76 10000 1.34 359.658 18:26 18.06.2019
6182 Clouds 13 1015 82 10000 1 0 17:55 18.06.2019
6183 Clouds 15 1015 77 10000 2 170 17:36 18.06.2019
6184 Clouds 15 1015 77 10000 2 170 17:18 18.06.2019
6185 Clouds 17 1015 67 10000 1 0 16:42 18.06.2019
6186 Clouds 19 1015 55 10000 1 0 16:22 18.06.2019
6187 Clouds 20 1015 49 10000 1 0 15:42 18.06.2019
6188 Clouds 21 1014 46 10000 3 40 15:23 18.06.2019
6189 Clouds 21 1014 46 10000 3 40 14:56 18.06.2019
6190 Clouds 21 1014 49 10000 3 330 14:38 18.06.2019
6191 Clouds 22 1014 49 10000 2 0 14:19 18.06.2019
6192 Clouds 23 1014 38 10000 2 0 13:50 18.06.2019
6193 Clouds 23 1014 38 10000 2 0 13:30 18.06.2019
6194 Clouds 23 1013 38 10000 3 30 12:46 18.06.2019
6195 Clouds 23 1013 38 10000 3 30 12:28 18.06.2019
6196 Clouds 25 1013 31 10000 2 0 11:54 18.06.2019
6197 Clouds 25 1013 31 10000 2 0 11:36 18.06.2019
6198 Clouds 24 1013 36 10000 5 70 11:18 18.06.2019
6199 Rain 23 1014 43 10000 6 50 10:41 18.06.2019
6200 Clouds 24 1013 38 10000 3 70 10:21 18.06.2019
6201 Clouds 25 1014 33 10000 2 0 09:51 18.06.2019
6202 Clouds 25 1014 33 10000 2 0 09:25 18.06.2019
6203 Clouds 24 1014 38 10000 3 230 08:50 18.06.2019
6204 Clouds 24 1014 33 10000 3 190 08:23 18.06.2019
6205 Clouds 24 1014 36 0 4 210 07:55 18.06.2019
6206 Clouds 23 1015 40 10000 2 200 07:25 18.06.2019
6207 Clouds 23 1015 40 10000 2 0 06:52 18.06.2019
6208 Clouds 21 1015 52 10000 1 0 05:25 18.06.2019
6209 Clouds 19 1015 55 10000 1 0 04:21 18.06.2019
6210 Clear 16 1015 67 10000 1 0 02:47 18.06.2019
6211 Clear 13 1015 82 10000 1 0 01:27 18.06.2019
6212 Clear 10 1015 93 10000 2 280 00:58 18.06.2019
6213 Clear 10 1015 93 10000 2 280 00:30 18.06.2019
6214 Clear 8 1014 87 10000 1 0 23:42 17.06.2019
6215 Clear 8 1014 93 10000 1 0 23:24 17.06.2019
6216 Clear 8 1014 93 10000 1 0 22:58 17.06.2019
6217 Clear 9 1014 87 10000 1 0 22:39 17.06.2019
6218 Clear 9 1014 87 10000 1 0 22:20 17.06.2019
6219 Clear 9 1013 87 10000 1 0 21:45 17.06.2019
6220 Clear 9 1013 87 10000 1 0 21:23 17.06.2019
6221 Clear 9 1013 87 10000 1 0 21:23 17.06.2019
6222 Clear 11 1013 87 10000 1 0 20:42 17.06.2019
6223 Clear 11 1013 87 10000 1 0 20:23 17.06.2019
6224 Clear 11 1013 87 10000 1 0 19:57 17.06.2019
6225 Clear 11 1013 87 10000 1.07 130.63 19:39 17.06.2019
6226 Clear 10 1012 87 10000 1 0 19:20 17.06.2019
6227 Clear 12 1012 87 10000 1.07 130.63 18:39 17.06.2019
6228 Clear 12 1012 81 10000 1 0 18:18 17.06.2019
6229 Clear 12 1012 81 10000 1 0 18:18 17.06.2019
6230 Clear 12 1012 81 10000 1 0 17:48 17.06.2019
6231 Clear 12 1012 81 10000 1 0 17:30 17.06.2019
6232 Clear 13 1012 82 10000 1 0 16:59 17.06.2019
6233 Clouds 13 1012 82 10000 1 0 16:41 17.06.2019
6234 Clouds 13 1011 82 10000 2 0 16:23 17.06.2019
6235 Clouds 14 1011 76 10000 2 150 15:44 17.06.2019
6236 Clouds 16 1011 63 10000 3 140 15:20 17.06.2019
6237 Clouds 16 1011 63 10000 3 140 14:56 17.06.2019
6238 Clouds 19 1010 48 10000 2 0 14:38 17.06.2019
6239 Clouds 19 1010 48 10000 2 0 14:19 17.06.2019
6240 Clouds 20 1010 52 10000 1 0 13:42 17.06.2019
6241 Clouds 18 1010 59 10000 2 0 13:21 17.06.2019
6242 Clouds 18 1010 59 10000 2 0 12:46 17.06.2019
6243 Clouds 18 1010 55 10000 4 160 12:22 17.06.2019
6244 Clouds 18 1010 63 10000 5 150 11:45 17.06.2019
6245 Clouds 18 1010 63 10000 5 150 11:26 17.06.2019
6246 Clouds 20 1010 52 10000 2 0 10:48 17.06.2019
6247 Clouds 20 1010 52 10000 2 0 10:48 17.06.2019
6248 Clouds 20 1010 52 10000 2 0 10:29 17.06.2019
6249 -273 0 0 0 0 0 09:57 17.06.2019
6250 Clouds 17 1011 63 10000 4 230 09:39 17.06.2019
6251 Clouds 18 1011 59 10000 3 180 09:20 17.06.2019
6252 Clouds 18 1011 59 10000 2 0 08:39 17.06.2019
6253 Clouds 18 1011 55 10000 3 140 08:21 17.06.2019
6254 Clouds 17 1011 59 10000 1 0 07:40 17.06.2019
6255 Clouds 17 1011 63 10000 1 0 07:20 17.06.2019
6256 Clouds 16 1011 67 10000 2 0 06:29 17.06.2019
6257 Clouds 15 1011 72 10000 3 300 05:31 17.06.2019
6258 Clouds 15 1011 72 10000 1 0 04:33 17.06.2019
6259 Clouds 14 1011 76 10000 1 0 03:33 17.06.2019
6260 Clouds 12 1010 87 10000 1 0 02:50 17.06.2019
6261 Clouds 12 1010 87 10000 1 0 02:32 17.06.2019
6262 Clouds 12 1010 87 10000 1 0 02:32 17.06.2019
6263 Rain 12 1010 81 10000 2 0 01:39 17.06.2019
6264 Rain 12 1010 81 10000 5 110 00:59 17.06.2019
6265 Rain 12 1009 81 10000 4 140 00:40 17.06.2019
6266 Rain 12 1009 81 10000 1 0 00:20 17.06.2019
6267 Rain 13 1009 76 10000 3 260 23:40 16.06.2019
6268 Clouds 13 1009 76 10000 2 0 23:20 16.06.2019
6269 Clouds 14 1008 67 10000 3 50 22:47 16.06.2019
6270 Clouds 13 1008 76 10000 2 0 22:21 16.06.2019
6271 Clouds 13 1008 76 10000 2 0 21:59 16.06.2019
6272 Clouds 14 1008 71 10000 2 0 21:40 16.06.2019
6273 Clouds 14 1008 67 10000 2 0 21:21 16.06.2019
6274 Clouds 14 1008 67 10000 2 0 20:55 16.06.2019
6275 Clouds 14 1008 67 10000 2.78 114.628 20:37 16.06.2019
6276 Clouds 14 1008 71 10000 1 0 20:18 16.06.2019
6277 Clouds 14 1008 71 10000 1 0 19:40 16.06.2019
6278 Clouds 14 1008 71 10000 3 300 19:22 16.06.2019
6279 Clouds 14 1008 71 10000 1 0 18:57 16.06.2019
6280 Clouds 14 1008 71 10000 1 0 18:57 16.06.2019
6281 Clouds 14 1008 71 10000 1 0 18:38 16.06.2019
6282 Clouds 15 1008 67 10000 4 130 18:19 16.06.2019
6283 Rain 14 1008 76 10000 8 110 17:42 16.06.2019
6284 Rain 14 1008 76 10000 8 110 17:22 16.06.2019
6285 Rain 14 1008 76 10000 8 110 17:22 16.06.2019
6286 Rain 14 1008 76 10000 8 110 16:56 16.06.2019
6287 Rain 14 1008 76 10000 8 110 16:56 16.06.2019
6288 Rain 14 1008 76 10000 8 110 16:56 16.06.2019
6289 Clouds 15 1008 67 10000 5 110 16:38 16.06.2019
6290 Clouds 14 1007 76 10000 2 0 16:19 16.06.2019
6291 Clouds 13 1007 82 10000 1 0 15:42 16.06.2019
6292 Clouds 13 1006 82 10000 2 0 15:23 16.06.2019
6293 Clouds 13 1006 82 10000 5.4 107.76 14:43 16.06.2019
6294 Clouds 14 1006 76 10000 2 0 14:23 16.06.2019
6295 Clouds 14 1006 76 10000 2 0 13:52 16.06.2019
6296 Clouds 14 1006 76 10000 2 0 13:26 16.06.2019
6297 Thunderstorm 13 1006 82 8000 6 20 12:57 16.06.2019
6298 Thunderstorm 13 1006 82 8000 6 20 12:57 16.06.2019
6299 Thunderstorm 13 1006 82 8000 6 20 12:38 16.06.2019
6300 Thunderstorm 13 1006 82 8000 5 90 12:18 16.06.2019
6301 Thunderstorm 19 1005 52 10000 7 120 11:44 16.06.2019
6302 Thunderstorm 19 1005 52 10000 7 120 11:19 16.06.2019
6303 Thunderstorm 19 1004 48 10000 7 100 10:45 16.06.2019
6304 Clouds 19 1005 52 10000 4 60 10:21 16.06.2019
6305 Clouds 19 1005 48 10000 3 50 09:48 16.06.2019
6306 Clouds 19 1005 48 10000 3 50 09:26 16.06.2019
6307 Clouds 19 1005 52 10000 7 110 08:57 16.06.2019
6308 Clouds 18 1005 52 10000 7 90 08:38 16.06.2019
6309 Clouds 20 1005 49 10000 8 110 08:18 16.06.2019
6310 Clouds 20 1005 49 10000 8 110 07:43 16.06.2019
6311 Clouds 19 1006 52 10000 11 130 06:57 16.06.2019
6312 Clouds 18 1005 52 10000 13 120 06:30 16.06.2019
6313 Clouds 18 1004 52 10000 16 130 05:43 16.06.2019
6314 Clouds 18 1004 48 10000 13 130 04:36 16.06.2019
6315 Clouds 17 1004 51 10000 12 130 03:54 16.06.2019
6316 Clouds 18 1004 45 10000 13 130 03:31 16.06.2019
6317 Clouds 15 1005 54 10000 9 120 02:18 16.06.2019
6318 Clouds 15 1005 54 10000 9 120 01:41 16.06.2019
6319 Clouds 15 1005 62 10000 3 40 01:23 16.06.2019
6320 Clouds 15 1005 62 10000 3 40 00:40 16.06.2019
6321 Clouds 15 1005 62 10000 3 31 00:19 16.06.2019
6322 Clouds 15 1005 67 10000 4 70 23:42 15.06.2019
6323 Clouds 15 1005 67 10000 5 90 23:23 15.06.2019
6324 Clouds 15 1005 67 10000 5 90 22:49 15.06.2019
6325 Clouds 15 1005 67 10000 5 90 22:26 15.06.2019
6326 Clouds 15 1004 62 10000 4 50 21:47 15.06.2019
6327 Clouds 15 1004 62 10000 4 50 21:29 15.06.2019
6328 Clouds 15 1004 62 10000 4 40 20:57 15.06.2019
6329 Thunderstorm 14 1004 67 10000 5 60 20:39 15.06.2019
6330 Thunderstorm 14 1004 67 10000 4 60 20:18 15.06.2019
6331 Thunderstorm 14 1004 67 10000 6 50 19:41 15.06.2019
6332 Thunderstorm 14 1004 67 10000 6 50 19:23 15.06.2019
6333 Thunderstorm 13 1005 71 10000 10 70 18:39 15.06.2019
6334 Thunderstorm 13 1005 71 10000 10 70 18:20 15.06.2019
6335 Thunderstorm 14 1005 67 10000 7 40 17:43 15.06.2019
6336 Thunderstorm 14 1004 71 10000 14 110 17:22 15.06.2019
6337 Rain 14 1005 71 10000 13 120 16:48 15.06.2019
6338 Thunderstorm 15 1005 62 10000 14 130 16:20 15.06.2019
6339 Thunderstorm 15 1005 62 10000 14 130 15:44 15.06.2019
6340 Squall 17 1003 63 10000 15 130 15:23 15.06.2019
6341 Squall 17 1003 63 10000 15 130 14:43 15.06.2019
6342 Squall 20 1001 45 10000 17 130 14:19 15.06.2019
6343 Squall 20 1001 45 10000 17 130 13:57 15.06.2019
6344 Squall 20 1001 49 10000 16 130 13:39 15.06.2019
6345 Clouds 20 1002 49 10000 13 120 13:18 15.06.2019
6346 Clouds 20 1002 49 10000 13 120 12:47 15.06.2019
6347 Clouds 20 1003 49 10000 5 120 12:25 15.06.2019
6348 Clouds 20 1004 49 10000 7 100 11:51 15.06.2019
6349 Clouds 20 1004 49 10000 7 100 11:32 15.06.2019
6350 Clouds 20 1003 45 10000 16 130 10:47 15.06.2019
6351 Clouds 20 1003 45 10000 16 130 10:26 15.06.2019
6352 Squall 19 1003 42 10000 19 130 09:58 15.06.2019
6353 Squall 19 1003 42 10000 19 130 09:39 15.06.2019
6354 Squall 19 1004 48 10000 18 130 09:19 15.06.2019
6355 Squall 19 1004 45 10000 17 140 08:43 15.06.2019
6356 Squall 20 1004 40 10000 16 140 08:24 15.06.2019
6357 Squall 20 1004 37 10000 17 140 07:26 15.06.2019
6358 Squall 20 1005 49 10000 17 150 06:49 15.06.2019
6359 Squall 20 1005 49 10000 17 150 06:30 15.06.2019
6360 Squall 16 1005 63 10000 15 140 05:40 15.06.2019
6361 Squall 15 1005 72 10000 15 150 04:59 15.06.2019
6362 Squall 15 1005 72 10000 15 150 04:59 15.06.2019
6363 Rain 15 1005 67 10000 13 140 04:29 15.06.2019
6364 Clouds 15 1006 62 10000 10 140 03:33 15.06.2019
6365 Clouds 15 1006 62 10000 10 140 03:33 15.06.2019
6366 Rain 14 1007 71 10000 9 140 02:37 15.06.2019
6367 Rain 18 1007 52 10000 8 200 01:58 15.06.2019
6368 Rain 18 1006 55 10000 6 240 01:24 15.06.2019
6369 Clouds 21 1006 22 10000 9 150 00:42 15.06.2019
6370 Clouds 21 1006 21 10000 9 140 00:24 15.06.2019
6371 Clouds 22 1006 19 10000 8 140 23:50 14.06.2019
6372 Clouds 22 1006 19 10000 9 150 23:21 14.06.2019
6373 Clouds 22 1006 19 10000 7 140 22:42 14.06.2019
6374 Clouds 23 1006 17 10000 7 160 22:21 14.06.2019
6375 Clouds 21 1006 18 10000 4 160 21:49 14.06.2019
6376 Clouds 21 1006 18 10000 4 160 21:28 14.06.2019
6377 Clouds 22 1006 17 10000 8 120 20:57 14.06.2019
6378 Clouds 22 1006 17 10000 6 140 20:38 14.06.2019
6379 Clouds 23 1006 15 10000 8 140 20:18 14.06.2019
6380 Clouds 23 1006 13 10000 9 140 19:41 14.06.2019
6381 Clouds 23 1006 13 10000 10 140 19:22 14.06.2019
6382 Clouds 23 1006 12 10000 9 140 18:54 14.06.2019
6383 Clouds 23 1006 12 10000 9 140 18:36 14.06.2019
6384 Clouds 23 1007 12 10000 7 140 18:18 14.06.2019
6385 Clouds 23 1007 12 10000 7 140 17:44 14.06.2019
6386 Clouds 23 1007 12 10000 6 130 17:23 14.06.2019
6387 Clouds 24 1007 13 10000 5 140 16:50 14.06.2019
6388 Clouds 24 1007 12 10000 5 150 16:24 14.06.2019
6389 -273 0 0 0 0 0 16:24 14.06.2019
6390 Clouds 24 1007 12 10000 5 150 16:24 14.06.2019
6391 Clouds 24 1007 12 10000 5 150 15:59 14.06.2019
6392 Clouds 24 1007 12 10000 5 150 15:59 14.06.2019
6393 Clouds 25 1007 13 10000 5 160 15:39 14.06.2019
6394 Clouds 25 1007 13 10000 5 160 15:20 14.06.2019
6395 Clouds 25 1007 13 10000 3 170 14:48 14.06.2019
6396 Clouds 25 1007 13 10000 3 170 14:29 14.06.2019
6397 Clouds 25 1007 13 10000 3 170 14:29 14.06.2019
6398 Clouds 27 1007 12 10000 6 170 13:47 14.06.2019
6399 Clouds 27 1007 12 10000 6 170 13:29 14.06.2019
6400 Clouds 28 1007 13 10000 7 190 12:59 14.06.2019
6401 Clouds 28 1007 13 10000 7 190 12:39 14.06.2019
6402 Clouds 28 1007 13 10000 7 190 12:39 14.06.2019
6403 -273 0 0 0 0 0 12:21 14.06.2019
6404 -273 0 0 0 0 0 12:21 14.06.2019
6405 Clouds 29 1007 12 10000 8 190 11:42 14.06.2019
6406 Clouds 29 1007 12 10000 6 190 11:23 14.06.2019
6407 Clouds 30 1007 12 10000 6 200 10:48 14.06.2019
6408 Clouds 30 1008 12 10000 6 200 10:22 14.06.2019
6409 Clouds 30 1008 12 10000 6 200 09:55 14.06.2019
6410 Clouds 30 1008 12 10000 6 200 09:34 14.06.2019
6411 Clouds 30 1008 12 10000 7 170 08:56 14.06.2019
6412 Clouds 30 1009 12 10000 6 170 08:38 14.06.2019
6413 Clouds 30 1009 12 10000 6 170 08:18 14.06.2019
6414 Clouds 29 1009 13 10000 4 170 07:43 14.06.2019
6415 Clouds 30 1010 12 10000 7 170 07:19 14.06.2019
6416 Clouds 28 1010 13 10000 6 180 06:27 14.06.2019
6417 Clouds 27 1011 14 10000 6 180 05:49 14.06.2019
6418 Clouds 27 1011 14 10000 6 180 04:56 14.06.2019
6419 Clouds 27 1011 13 10000 5 180 04:31 14.06.2019
6420 Clouds 23 1011 25 10000 1 0 03:41 14.06.2019
6421 Clouds 21 1011 30 10000 1 0 03:23 14.06.2019
6422 Clouds 19 1012 34 10000 3.2 137.219 02:41 14.06.2019
6423 Clouds 17 1012 39 10000 1 0 01:53 14.06.2019
6424 Clouds 15 1012 41 10000 1 0 00:45 14.06.2019
6425 Clouds 14 1012 44 10000 2.9 125.089 00:22 14.06.2019
6426 Clouds 14 1012 44 10000 1 0 23:51 13.06.2019
6427 Clouds 14 1012 44 10000 1 0 23:26 13.06.2019
6428 Clouds 13 1012 43 10000 1 0 22:58 13.06.2019
6429 Clouds 13 1012 43 10000 1 0 22:38 13.06.2019
6430 Clear 11 1012 45 10000 1 0 22:19 13.06.2019
6431 Clear 11 1012 45 10000 1 0 21:38 13.06.2019
6432 Clear 11 1012 45 10000 1 0 21:38 13.06.2019
6433 Clear 11 1012 40 10000 1 0 21:19 13.06.2019
6434 Clear 14 1012 41 10000 1 0 20:45 13.06.2019
6435 Clear 13 1012 40 10000 1 0 20:21 13.06.2019
6436 Clear 13 1012 40 10000 1 0 19:55 13.06.2019
6437 Clear 13 1012 40 10000 1 0 19:36 13.06.2019
6438 Clear 13 1012 40 10000 1 0 19:18 13.06.2019
6439 Clear 15 1012 40 10000 2 0 18:43 13.06.2019
6440 Clear 15 1012 41 10000 2 0 18:25 13.06.2019
6441 Clear 15 1012 41 10000 2 0 17:57 13.06.2019
6442 Clear 14 1012 41 10000 1 0 17:38 13.06.2019
6443 Clear 16 1012 41 10000 1 0 17:19 13.06.2019
6444 Clear 18 1013 41 10000 1 0 16:44 13.06.2019
6445 Clear 17 1013 41 10000 3 150 16:21 13.06.2019
6446 Clear 23 1012 41 10000 2 80 15:43 13.06.2019
6447 Clear 23 1012 43 10000 2 80 15:24 13.06.2019
6448 Clear 23 1012 43 10000 2 80 14:56 13.06.2019
6449 Clear 25 1012 17 10000 2 50 14:31 13.06.2019
6450 Clear 25 1012 17 10000 2 50 14:31 13.06.2019
6451 Clear 25 1012 17 10000 2 50 13:59 13.06.2019
6452 Clouds 26 1012 43 10000 2 20 13:40 13.06.2019
6453 Clouds 26 1012 43 10000 3 20 13:21 13.06.2019
6454 Clouds 26 1012 43 10000 3 20 12:42 13.06.2019
6455 Clouds 26 1012 29 10000 2 0 12:22 13.06.2019
6456 Clouds 26 1012 29 10000 2 0 11:56 13.06.2019
6457 Clouds 26 1012 15 10000 1 0 11:37 13.06.2019
6458 Clouds 26 1012 15 10000 1 0 11:18 13.06.2019
6459 Clouds 27 1013 14 10000 4 270 10:43 13.06.2019
6460 Clouds 27 1013 14 10000 4 270 10:23 13.06.2019
6461 Clouds 26 1013 15 10000 5 300 09:43 13.06.2019
6462 Clouds 26 1013 31 10000 3 270 09:23 13.06.2019
6463 Clouds 26 1014 16 10000 3 330 08:44 13.06.2019
6464 Clouds 26 1014 16 10000 3 330 08:25 13.06.2019
6465 Clouds 24 1014 22 10000 4 260 07:52 13.06.2019
6466 Clouds 24 1014 22 10000 4 260 07:25 13.06.2019
6467 Clouds 24 1015 31 10000 4 300 06:47 13.06.2019
6468 Clouds 23 1016 25 10000 2 0 06:23 13.06.2019
6469 Clouds 23 1016 25 10000 2 0 05:55 13.06.2019
6470 Clouds 22 1016 28 10000 2 0 05:36 13.06.2019
6471 Clouds 21 1016 30 10000 3 270 04:57 13.06.2019
6472 Clear 15 1018 41 10000 1 0 02:33 13.06.2019
6473 Clear 10 1018 57 10000 1 0 00:55 13.06.2019
6474 Clear 7 1018 70 10000 1 0 00:22 13.06.2019
6475 Clear 5 1018 74 10000 2 0 23:24 12.06.2019
6476 Clear 7 1017 65 10000 1 0 22:45 12.06.2019
6477 Clear 7 1017 65 10000 1 0 22:26 12.06.2019
6478 Clear 4 1017 74 10000 1 0 21:57 12.06.2019
6479 Clear 6 1017 74 10000 1 0 21:38 12.06.2019
6480 Clear 6 1018 71 10000 1 0 21:18 12.06.2019
6481 Clear 6 1018 71 10000 1 0 20:38 12.06.2019
6482 Clear 7 1018 65 10000 2 160 20:20 12.06.2019
6483 Clear 7 1018 65 10000 2 160 19:42 12.06.2019
6484 Clear 7 1018 65 10000 2 160 19:23 12.06.2019
6485 Clear 7 1018 65 10000 2 160 18:57 12.06.2019
6486 Clear 8 1017 61 10000 3 170 18:39 12.06.2019
6487 Clear 8 1017 61 10000 3 170 18:19 12.06.2019
6488 Clear 8 1017 61 10000 2.36 21.193 17:44 12.06.2019
6489 Clear 11 1017 50 10000 2 190 17:21 12.06.2019
6490 Clear 13 1017 47 10000 2 340 16:42 12.06.2019
6491 Clear 14 1017 44 10000 3 320 16:23 12.06.2019
6492 Clear 16 1017 38 10000 3 350 15:54 12.06.2019
6493 Clear 16 1017 38 10000 3 350 15:32 12.06.2019
6494 Clear 19 1016 29 10000 5 360 14:50 12.06.2019
6495 Clear 19 1016 29 10000 5 360 14:29 12.06.2019
6496 Clouds 20 1016 28 10000 7 340 13:55 12.06.2019
6497 Clouds 20 1016 28 10000 7 340 13:36 12.06.2019
6498 Clouds 21 1016 26 10000 7 10 13:18 12.06.2019
6499 Clouds 21 1016 26 10000 7 10 12:39 12.06.2019
6500 Clouds 21 1016 26 10000 6 10 12:19 12.06.2019
6501 Clouds 22 1016 40 10000 8 330 11:47 12.06.2019
6502 Clouds 22 1016 40 10000 8 330 11:47 12.06.2019
6503 Clouds 22 1016 40 10000 8 330 11:29 12.06.2019
6504 Clouds 22 1016 40 10000 8 330 10:54 12.06.2019
6505 Clouds 22 1016 40 10000 8 340 10:35 12.06.2019
6506 Clouds 22 1016 40 10000 8 340 09:59 12.06.2019
6507 Clouds 22 1016 24 10000 7 350 09:40 12.06.2019
6508 Clouds 21 1016 28 10000 5 330 09:18 12.06.2019
6509 Clouds 20 1017 28 10000 6 330 08:26 12.06.2019
6510 Clouds 20 1017 28 10000 6 350 07:52 12.06.2019
6511 Clouds 20 1018 28 10000 7 350 06:57 12.06.2019
6512 Clouds 20 1017 28 10000 7 330 06:29 12.06.2019
6513 Clouds 19 1018 43 10000 6 350 05:25 12.06.2019
6514 Clouds 14 1017 47 10000 1 0 02:20 12.06.2019
6515 Clouds 13 1017 50 10000 3 350 00:41 12.06.2019
6516 Clouds 12 1016 58 10000 4 360 23:53 11.06.2019
6517 Clouds 12 1016 58 10000 4 360 23:35 11.06.2019
6518 Clear 13 1015 54 10000 5 10 22:45 11.06.2019
6519 Clear 12 1015 58 10000 4 340 22:24 11.06.2019
6520 Clear 12 1015 58 10000 4 340 21:59 11.06.2019
6521 Clear 12 1015 62 10000 4 330 21:40 11.06.2019
6522 Clear 14 1014 54 10000 5 20 21:22 11.06.2019
6523 Clear 14 1014 54 10000 5 20 20:57 11.06.2019
6524 Clouds 15 1014 51 10000 4 10 20:39 11.06.2019
6525 Clouds 15 1014 51 10000 4 350 20:21 11.06.2019
6526 Clouds 16 1014 48 10000 4 10 19:50 11.06.2019
6527 -273 0 0 0 0 0 19:28 11.06.2019
6528 Clouds 16 1014 48 10000 3 360 19:28 11.06.2019
6529 Clouds 17 1014 48 10000 4 360 18:48 11.06.2019
6530 Clouds 17 1014 48 10000 3 350 18:20 11.06.2019
6531 Clouds 17 1014 48 10000 3 320 17:41 11.06.2019
6532 Clouds 18 1014 45 10000 4 340 17:20 11.06.2019
6533 Clouds 18 1013 45 10000 7 340 16:43 11.06.2019
6534 Clouds 19 1013 42 10000 5 330 16:24 11.06.2019
6535 Clouds 20 1011 34 10000 4 340 15:44 11.06.2019
6536 Clouds 20 1011 34 10000 4 340 15:25 11.06.2019
6537 Clouds 21 1011 30 10000 5 330 14:58 11.06.2019
6538 Clouds 22 1011 51 10000 5 320 14:39 11.06.2019
6539 Clouds 23 1011 51 10000 7 320 14:19 11.06.2019
6540 Clouds 24 1009 16 10000 7 320 13:43 11.06.2019
6541 Clear 26 1009 13 10000 8 290 13:21 11.06.2019
6542 Clear 26 1009 13 10000 8 290 12:42 11.06.2019
6543 Clear 27 1008 11 10000 10 300 12:22 11.06.2019
6544 Clear 27 1008 12 10000 9 300 11:56 11.06.2019
6545 Clear 27 1008 12 10000 9 300 11:33 11.06.2019
6546 Clear 28 1008 11 10000 10 270 10:51 11.06.2019
6547 Clear 28 1008 11 10000 10 270 10:27 11.06.2019
6548 Clear 28 1008 11 10000 10 270 10:27 11.06.2019
6549 Clear 28 1008 11 10000 7 290 09:51 11.06.2019
6550 Clear 28 1008 11 10000 7 290 09:26 11.06.2019
6551 Clouds 28 1008 11 10000 8 280 08:59 11.06.2019
6552 Clouds 28 1008 12 10000 8 280 08:40 11.06.2019
6553 Clear 28 1008 12 10000 8 260 08:20 11.06.2019
6554 Clear 27 1008 13 10000 7 290 07:34 11.06.2019
6555 Clear 26 1008 14 10000 6 260 06:53 11.06.2019
6556 Clouds 25 1008 35 10000 5 280 05:21 11.06.2019
6557 Clouds 23 1009 28 10000 2 0 04:38 11.06.2019
6558 Clouds 21 1009 43 10000 4 210 02:27 11.06.2019
6559 Clouds 19 1008 45 10000 4 190 00:53 11.06.2019
6560 Clouds 19 1008 45 10000 4 190 00:31 11.06.2019
6561 Clouds 17 1007 48 10000 1 0 23:46 10.06.2019
6562 Clouds 18 1006 45 10000 1 0 23:21 10.06.2019
6563 Clouds 18 1006 45 10000 1 0 22:45 10.06.2019
6564 Clouds 18 1006 45 10000 1 0 22:27 10.06.2019
6565 Clouds 19 1006 42 10000 4 150 21:56 10.06.2019
6566 Rain 20 1006 40 10000 5 180 21:38 10.06.2019
6567 Clouds 21 1006 35 10000 4 210 21:20 10.06.2019
6568 Clouds 21 1006 35 10000 4 210 20:42 10.06.2019
6569 Clouds 21 1006 35 10000 4 210 20:21 10.06.2019
6570 Clouds 23 1005 28 10000 6 240 19:46 10.06.2019
6571 Clouds 23 1005 28 10000 6 240 19:23 10.06.2019
6572 Clouds 23 1005 28 10000 6 240 18:58 10.06.2019
6573 Clouds 23 1005 25 10000 5 170 18:39 10.06.2019
6574 Clouds 23 1005 28 10000 6 190 18:20 10.06.2019
6575 Clouds 24 1005 23 10000 9 180 17:44 10.06.2019
6576 Clouds 24 1005 23 10000 9 180 17:44 10.06.2019
6577 Clouds 25 1005 22 10000 9 170 17:24 10.06.2019
6578 Clouds 25 1005 22 10000 9 170 16:49 10.06.2019
6579 Clouds 25 1005 22 10000 9 170 16:30 10.06.2019
6580 Clouds 25 1005 75 10000 5 140 15:58 10.06.2019
6581 Clouds 26 1005 19 10000 6 180 15:39 10.06.2019
6582 Clouds 26 1004 58 10000 7 160 15:21 10.06.2019
6583 Clouds 26 1004 58 10000 7 160 14:42 10.06.2019
6584 Clouds 27 1004 58 10000 7 150 14:24 10.06.2019
6585 Clouds 27 1004 58 10000 8 140 13:46 10.06.2019
6586 Clouds 27 1004 58 10000 8 140 13:46 10.06.2019
6587 Clouds 27 1004 58 10000 8 140 13:28 10.06.2019
6588 Clouds 28 1004 17 10000 7 140 12:54 10.06.2019
6589 Clouds 28 1004 17 10000 7 140 12:31 10.06.2019
6590 Clouds 27 1006 18 10000 5 150 11:58 10.06.2019
6591 Clouds 27 1006 18 10000 5 150 11:38 10.06.2019
6592 Clouds 27 1006 19 10000 6 130 11:18 10.06.2019
6593 Clouds 27 1007 19 10000 3 140 10:41 10.06.2019
6594 Clouds 26 1008 21 10000 5 170 10:19 10.06.2019
6595 Clouds 26 1008 22 10000 4 130 09:51 10.06.2019
6596 Clouds 26 1008 22 10000 4 130 09:29 10.06.2019
6597 Clouds 26 1009 24 10000 6 120 08:50 10.06.2019
6598 -273 0 0 0 0 0 08:27 10.06.2019
6599 Clouds 24 1010 31 10000 3 90 07:42 10.06.2019
6600 Clouds 20 1011 42 10000 2 0 04:43 10.06.2019
6601 Clouds 19 1012 45 10000 2 0 03:29 10.06.2019
6602 Clouds 15 1012 47 10000 3.09 155.755 01:55 10.06.2019
6603 Clouds 13 1012 54 10000 1 0 01:19 10.06.2019
6604 Clouds 13 1012 54 10000 1 0 00:47 10.06.2019
6605 Clouds 9 1012 66 10000 2 0 23:49 09.06.2019
6606 Clouds 9 1012 66 10000 2 0 23:25 09.06.2019
6607 Clear 9 1012 61 10000 2.52 148.962 22:48 09.06.2019
6608 Clear 9 1012 61 10000 2.52 148.962 22:26 09.06.2019
6609 Clear 11 1012 57 10000 2.52 148.962 21:59 09.06.2019
6610 Clear 11 1012 53 10000 2.52 148.962 21:37 09.06.2019
6611 Clear 11 1012 53 10000 2.14 167.78 21:19 09.06.2019
6612 Clear 12 1012 50 10000 1 0 20:42 09.06.2019
6613 Clear 12 1012 54 10000 2.14 167.78 20:22 09.06.2019
6614 Clear 12 1012 50 10000 1 0 19:45 09.06.2019
6615 Clear 14 1012 41 10000 2 130 19:19 09.06.2019
6616 Clear 16 1012 36 10000 2 150 18:45 09.06.2019
6617 Clouds 17 1013 33 10000 2 120 18:26 09.06.2019
6618 Clouds 17 1013 33 10000 2 120 17:57 09.06.2019
6619 Clouds 16 1013 38 10000 1 0 17:38 09.06.2019
6620 Clouds 18 1012 34 10000 4 160 16:59 09.06.2019
6621 Clouds 18 1012 34 10000 4 160 16:41 09.06.2019
6622 Clouds 17 1012 36 10000 3 160 16:21 09.06.2019
6623 Clouds 17 1012 36 10000 3 160 15:51 09.06.2019
6624 Clouds 17 1012 36 10000 3 160 15:29 09.06.2019
6625 Clouds 17 1012 36 10000 2 0 14:58 09.06.2019
6626 Clouds 22 1011 26 10000 2 250 14:39 09.06.2019
6627 Clouds 23 1011 23 10000 2 280 14:19 09.06.2019
6628 Clouds 26 1011 19 10000 3 260 13:48 09.06.2019
6629 Clouds 26 1011 19 10000 3 250 12:58 09.06.2019
6630 Clouds 26 1011 19 10000 3 250 12:38 09.06.2019
6631 Clouds 26 1011 19 10000 2 0 12:19 09.06.2019
6632 Clouds 26 1011 19 10000 3 250 11:38 09.06.2019
6633 Clouds 26 1011 19 10000 3 270 11:19 09.06.2019
6634 Clouds 26 1011 21 0 5 220 10:43 09.06.2019
6635 Clouds 26 1012 22 10000 4 260 10:22 09.06.2019
6636 Clouds 26 1012 22 10000 4 260 09:40 09.06.2019
6637 Clouds 26 1012 21 10000 3 260 09:21 09.06.2019
6638 Clouds 25 1012 22 10000 5 240 08:45 09.06.2019
6639 Clouds 25 1012 22 10000 4 270 08:27 09.06.2019
6640 Clouds 25 1013 22 10000 2 0 06:55 09.06.2019
6641 Clouds 25 1013 22 10000 2 0 06:30 09.06.2019
6642 Clouds 23 1014 27 10000 7 190 03:26 09.06.2019
6643 Clouds 18 1014 34 10000 5 160 01:38 09.06.2019
6644 Clouds 16 1014 31 10000 2 0 01:19 09.06.2019
6645 Clouds 16 1014 31 10000 2 0 00:58 09.06.2019
6646 Clouds 17 1013 70 10000 1 0 23:43 08.06.2019
6647 Clouds 17 1013 70 10000 8 180 23:24 08.06.2019
6648 Clouds 17 1013 70 10000 8 180 22:56 08.06.2019
6649 Rain 18 1013 23 10000 7 170 22:38 08.06.2019
6650 Clouds 14 1014 33 10000 3 160 22:19 08.06.2019
6651 Clouds 14 1014 33 10000 3 160 22:19 08.06.2019
6652 Clouds 13 1013 37 10000 2 120 21:51 08.06.2019
6653 Clouds 13 1013 37 10000 2 120 21:26 08.06.2019
6654 Clouds 13 1013 37 10000 2 180 20:47 08.06.2019
6655 Clouds 13 1013 37 10000 2 180 20:26 08.06.2019
6656 Clouds 14 1013 33 10000 1 0 19:59 08.06.2019
6657 Clouds 14 1013 35 10000 2 0 19:39 08.06.2019
6658 Clouds 16 1013 29 10000 1 0 19:19 08.06.2019
6659 Clouds 15 1013 30 10000 1 0 18:51 08.06.2019
6660 Clouds 15 1013 30 10000 1 0 18:33 08.06.2019
6661 Clouds 16 1013 26 10000 1 0 17:49 08.06.2019
6662 Clouds 14 1012 28 10000 3 190 17:23 08.06.2019
6663 Clouds 14 1012 28 10000 3 190 16:57 08.06.2019
6664 Clouds 14 1012 28 10000 3 190 16:38 08.06.2019
6665 Clouds 14 1012 28 10000 2 150 15:56 08.06.2019
6666 Clouds 14 1012 30 10000 2 140 15:36 08.06.2019
6667 Clouds 22 1011 17 10000 2 360 14:49 08.06.2019
6668 Clouds 22 1011 17 10000 2 360 14:31 08.06.2019
6669 Clouds 24 1011 13 10000 2 0 13:53 08.06.2019
6670 Clouds 24 1011 12 10000 3 290 12:57 08.06.2019
6671 Clouds 24 1011 12 10000 3 290 12:39 08.06.2019
6672 Clouds 24 1011 11 10000 3 270 11:57 08.06.2019
6673 Clouds 24 1011 10 10000 3 290 11:38 08.06.2019
6674 Clouds 25 1011 10 10000 3 320 11:20 08.06.2019
6675 Clouds 25 1011 12 10000 4 310 10:43 08.06.2019
6676 Clouds 24 1011 14 10000 4 310 10:21 08.06.2019
6677 Clouds 24 1011 13 10000 2 0 09:36 08.06.2019
6678 Clouds 24 1012 13 10000 4 320 08:58 08.06.2019
6679 Clouds 23 1012 17 10000 3 360 08:22 08.06.2019
6680 Clouds 23 1012 17 10000 3 360 07:39 08.06.2019
6681 Clouds 22 1013 17 10000 6 340 06:45 08.06.2019
6682 Clear 17 1015 29 10000 1 0 03:40 08.06.2019
6683 Clear 9 1015 49 10000 1 0 02:20 08.06.2019
6684 Clear 3 1015 64 10000 2 130 00:32 08.06.2019
6685 Clear 3 1015 64 10000 2 130 23:59 07.06.2019
6686 Clear 4 1015 55 10000 1.64 13.334 23:21 07.06.2019
6687 Clear 2 1014 64 10000 1 0 22:53 07.06.2019
6688 Clear 2 1014 64 10000 1 0 22:33 07.06.2019
6689 Clear 3 1014 64 10000 2 180 21:56 07.06.2019
6690 Clear 3 1014 64 10000 2 180 21:56 07.06.2019
6691 Clear 3 1014 64 10000 2 180 21:37 07.06.2019
6692 Clear 3 1014 59 10000 1 0 21:19 07.06.2019
6693 Clear 3 1014 59 10000 1 0 20:42 07.06.2019
6694 Clear 7 1014 48 10000 1.42 358.59 20:23 07.06.2019
6695 Clear 4 1014 55 10000 2 0 19:46 07.06.2019
6696 Clear 5 1014 52 10000 1 0 19:19 07.06.2019
6697 Clear 5 1014 52 10000 1 0 18:43 07.06.2019
6698 Clear 5 1014 52 10000 1 0 18:25 07.06.2019
6699 Clear 8 1014 45 10000 1 0 17:45 07.06.2019
6700 Clear 7 1014 45 10000 1 0 17:23 07.06.2019
6701 Clear 12 1014 34 10000 2 0 16:42 07.06.2019
6702 Clear 15 1014 26 10000 2 10 16:21 07.06.2019
6703 Clear 16 1013 25 10000 3 10 15:48 07.06.2019
6704 Clear 16 1013 25 10000 3 10 15:20 07.06.2019
6705 Clear 18 1013 22 10000 5 10 14:45 07.06.2019
6706 Clouds 18 1013 22 10000 5 360 14:22 07.06.2019
6707 Clouds 19 1013 19 10000 6 340 13:28 07.06.2019
6708 Clouds 19 1012 20 10000 9 320 12:56 07.06.2019
6709 Clouds 19 1012 20 10000 9 320 12:37 07.06.2019
6710 Clouds 20 1012 19 10000 8 340 12:18 07.06.2019
6711 Clouds 20 1012 18 10000 9 340 11:39 07.06.2019
6712 Clouds 20 1012 16 10000 10 330 11:21 07.06.2019
6713 Clouds 20 1012 16 10000 10 330 10:43 07.06.2019
6714 Clouds 20 1012 16 10000 9 350 10:21 07.06.2019
6715 Clouds 20 1012 16 10000 9 350 09:49 07.06.2019
6716 Clouds 20 1012 16 10000 9 350 09:27 07.06.2019
6717 Clouds 19 1013 22 10000 8 360 08:49 07.06.2019
6718 Clouds 19 1013 22 10000 8 360 08:28 07.06.2019
6719 Clouds 18 1013 23 10000 7 340 07:52 07.06.2019
6720 Clouds 18 1013 27 10000 6 340 07:22 07.06.2019
6721 Clouds 18 1014 25 10000 6 340 06:48 07.06.2019
6722 Clouds 16 1014 40 10000 6 330 06:24 07.06.2019
6723 Clouds 17 1014 40 10000 7 340 05:45 07.06.2019
6724 Clouds 10 1015 57 10000 1 0 02:46 07.06.2019
6725 Clear 8 1015 61 10000 2.6 307.817 01:39 07.06.2019
6726 Clear 5 1015 75 10000 1 0 00:48 07.06.2019
6727 Clear 2 1015 86 10000 2 150 00:19 07.06.2019
6728 Clouds 0 1015 86 10000 2 0 23:38 06.06.2019
6729 Clouds 0 1015 86 10000 2 170 23:18 06.06.2019
6730 Clouds 1 1014 86 10000 2 150 22:37 06.06.2019
6731 Clear -1 1014 92 10000 2 0 22:19 06.06.2019
6732 Clear -1 1014 92 10000 2 0 21:46 06.06.2019
6733 Clear 0 1014 83 10000 1 0 21:22 06.06.2019
6734 Clear 0 1014 83 10000 1 0 20:57 06.06.2019
6735 Clear 1 1014 86 10000 1 0 20:38 06.06.2019
6736 Clear 1 1014 86 10000 1 0 20:38 06.06.2019
6737 Clear 4 1014 83 10000 1 0 20:20 06.06.2019
6738 Clear 5 1014 75 10000 2 310 19:37 06.06.2019
6739 Clear 7 1014 65 10000 2 360 19:19 06.06.2019
6740 Clear 7 1014 65 10000 3 360 18:44 06.06.2019
6741 Clear 8 1014 61 10000 3 20 18:25 06.06.2019
6742 Clear 8 1014 61 10000 3 360 17:56 06.06.2019
6743 Clear 8 1014 61 10000 3 360 17:38 06.06.2019
6744 Clouds 7 1014 70 10000 3 350 17:20 06.06.2019
6745 Clouds 8 1014 65 10000 5 340 16:41 06.06.2019
6746 Clouds 9 1014 61 10000 4 330 16:21 06.06.2019
6747 Clouds 9 1014 61 10000 5 340 15:46 06.06.2019
6748 Clouds 9 1014 61 10000 5 340 15:25 06.06.2019
6749 Clouds 10 1013 57 10000 8 340 14:45 06.06.2019
6750 Clouds 10 1013 57 10000 8 340 14:45 06.06.2019
6751 Clouds 10 1012 57 10000 9 330 14:20 06.06.2019
6752 Clouds 11 1012 53 10000 8 330 13:52 06.06.2019
6753 Clouds 11 1012 53 10000 8 330 13:30 06.06.2019
6754 Clouds 12 1012 50 10000 8 330 12:50 06.06.2019
6755 Clouds 12 1012 50 10000 8 330 12:29 06.06.201